<?xml version="1.0" encoding="utf-8"?>
<gpx xmlns:xsi="http://www.w3.org/2001/XMLSchema-instance" xmlns:xsd="http://www.w3.org/2001/XMLSchema" version="1.1" creator="Shapelink.com" xmlns="http://www.topografix.com/GPX/1/1" xmlns:gpxtpx="http://www.garmin.com/xmlschemas/TrackPointExtension/v1">
  <metadata>
    <name>Ciclismo 21.53 km, 2020-01-16</name>
    <desc></desc>
    <author><name>Peter Littke</name></author> 
    <time>2020-01-16T16:06:04Z</time>
  </metadata>
  <trk>
    <name>Ciclismo 21.53 km, 2020-01-16</name>
    <trkseg>
      <trkpt lat="59.173445" lon="18.143476">
        <ele>0</ele>
        <time>2020-01-16T16:06:04Z</time>
      </trkpt>
      <trkpt lat="59.173514" lon="18.14347">
        <ele>45</ele>
        <time>2020-01-16T16:06:10Z</time>
      </trkpt>
      <trkpt lat="59.173543" lon="18.14347">
        <ele>46</ele>
        <time>2020-01-16T16:06:12Z</time>
      </trkpt>
      <trkpt lat="59.173575" lon="18.143474">
        <ele>47</ele>
        <time>2020-01-16T16:06:13Z</time>
      </trkpt>
      <trkpt lat="59.173607" lon="18.14348">
        <ele>48</ele>
        <time>2020-01-16T16:06:14Z</time>
      </trkpt>
      <trkpt lat="59.17364" lon="18.143486">
        <ele>49</ele>
        <time>2020-01-16T16:06:15Z</time>
      </trkpt>
      <trkpt lat="59.173672" lon="18.143498">
        <ele>50</ele>
        <time>2020-01-16T16:06:16Z</time>
      </trkpt>
      <trkpt lat="59.173703" lon="18.143509">
        <ele>51</ele>
        <time>2020-01-16T16:06:17Z</time>
      </trkpt>
      <trkpt lat="59.173735" lon="18.143523">
        <ele>52</ele>
        <time>2020-01-16T16:06:18Z</time>
      </trkpt>
      <trkpt lat="59.173767" lon="18.143535">
        <ele>53</ele>
        <time>2020-01-16T16:06:19Z</time>
      </trkpt>
      <trkpt lat="59.173798" lon="18.14354">
        <ele>53</ele>
        <time>2020-01-16T16:06:20Z</time>
      </trkpt>
      <trkpt lat="59.173828" lon="18.143508">
        <ele>54</ele>
        <time>2020-01-16T16:06:21Z</time>
      </trkpt>
      <trkpt lat="59.173854" lon="18.143444">
        <ele>54</ele>
        <time>2020-01-16T16:06:22Z</time>
      </trkpt>
      <trkpt lat="59.173868" lon="18.143372">
        <ele>54</ele>
        <time>2020-01-16T16:06:23Z</time>
      </trkpt>
      <trkpt lat="59.173876" lon="18.143286">
        <ele>54</ele>
        <time>2020-01-16T16:06:24Z</time>
      </trkpt>
      <trkpt lat="59.17388" lon="18.143193">
        <ele>0</ele>
        <time>2020-01-16T16:06:24Z</time>
      </trkpt>
      <trkpt lat="59.173884" lon="18.143109">
        <ele>54</ele>
        <time>2020-01-16T16:06:25Z</time>
      </trkpt>
      <trkpt lat="59.173888" lon="18.143032">
        <ele>54</ele>
        <time>2020-01-16T16:06:27Z</time>
      </trkpt>
      <trkpt lat="59.173909" lon="18.142982">
        <ele>54</ele>
        <time>2020-01-16T16:06:28Z</time>
      </trkpt>
      <trkpt lat="59.173943" lon="18.142976">
        <ele>0</ele>
        <time>2020-01-16T16:06:28Z</time>
      </trkpt>
      <trkpt lat="59.173987" lon="18.14298">
        <ele>53</ele>
        <time>2020-01-16T16:06:29Z</time>
      </trkpt>
      <trkpt lat="59.174033" lon="18.14299">
        <ele>52</ele>
        <time>2020-01-16T16:06:31Z</time>
      </trkpt>
      <trkpt lat="59.174083" lon="18.142993">
        <ele>52</ele>
        <time>2020-01-16T16:06:32Z</time>
      </trkpt>
      <trkpt lat="59.174125" lon="18.142978">
        <ele>52</ele>
        <time>2020-01-16T16:06:33Z</time>
      </trkpt>
      <trkpt lat="59.174152" lon="18.142953">
        <ele>52</ele>
        <time>2020-01-16T16:06:34Z</time>
      </trkpt>
      <trkpt lat="59.174181" lon="18.14293">
        <ele>52</ele>
        <time>2020-01-16T16:06:35Z</time>
      </trkpt>
      <trkpt lat="59.174216" lon="18.142936">
        <ele>51</ele>
        <time>2020-01-16T16:06:36Z</time>
      </trkpt>
      <trkpt lat="59.174258" lon="18.142942">
        <ele>51</ele>
        <time>2020-01-16T16:06:37Z</time>
      </trkpt>
      <trkpt lat="59.174302" lon="18.142956">
        <ele>0</ele>
        <time>2020-01-16T16:06:37Z</time>
      </trkpt>
      <trkpt lat="59.174348" lon="18.142975">
        <ele>51</ele>
        <time>2020-01-16T16:06:38Z</time>
      </trkpt>
      <trkpt lat="59.174397" lon="18.142994">
        <ele>50</ele>
        <time>2020-01-16T16:06:40Z</time>
      </trkpt>
      <trkpt lat="59.174447" lon="18.143012">
        <ele>49</ele>
        <time>2020-01-16T16:06:41Z</time>
      </trkpt>
      <trkpt lat="59.174494" lon="18.143033">
        <ele>49</ele>
        <time>2020-01-16T16:06:42Z</time>
      </trkpt>
      <trkpt lat="59.174541" lon="18.143053">
        <ele>49</ele>
        <time>2020-01-16T16:06:43Z</time>
      </trkpt>
      <trkpt lat="59.174586" lon="18.143069">
        <ele>49</ele>
        <time>2020-01-16T16:06:44Z</time>
      </trkpt>
      <trkpt lat="59.174631" lon="18.143072">
        <ele>49</ele>
        <time>2020-01-16T16:06:45Z</time>
      </trkpt>
      <trkpt lat="59.174665" lon="18.143042">
        <ele>49</ele>
        <time>2020-01-16T16:06:46Z</time>
      </trkpt>
      <trkpt lat="59.174686" lon="18.14298">
        <ele>49</ele>
        <time>2020-01-16T16:06:47Z</time>
      </trkpt>
      <trkpt lat="59.174698" lon="18.142906">
        <ele>0</ele>
        <time>2020-01-16T16:06:47Z</time>
      </trkpt>
      <trkpt lat="59.174716" lon="18.142838">
        <ele>49</ele>
        <time>2020-01-16T16:06:48Z</time>
      </trkpt>
      <trkpt lat="59.174746" lon="18.142791">
        <ele>49</ele>
        <time>2020-01-16T16:06:50Z</time>
      </trkpt>
      <trkpt lat="59.174786" lon="18.142767">
        <ele>49</ele>
        <time>2020-01-16T16:06:51Z</time>
      </trkpt>
      <trkpt lat="59.174824" lon="18.142756">
        <ele>48</ele>
        <time>2020-01-16T16:06:52Z</time>
      </trkpt>
      <trkpt lat="59.174861" lon="18.142745">
        <ele>48</ele>
        <time>2020-01-16T16:06:53Z</time>
      </trkpt>
      <trkpt lat="59.174896" lon="18.142729">
        <ele>48</ele>
        <time>2020-01-16T16:06:54Z</time>
      </trkpt>
      <trkpt lat="59.17493" lon="18.14271">
        <ele>48</ele>
        <time>2020-01-16T16:06:55Z</time>
      </trkpt>
      <trkpt lat="59.174964" lon="18.142686">
        <ele>48</ele>
        <time>2020-01-16T16:06:56Z</time>
      </trkpt>
      <trkpt lat="59.174994" lon="18.142653">
        <ele>48</ele>
        <time>2020-01-16T16:06:57Z</time>
      </trkpt>
      <trkpt lat="59.175023" lon="18.142616">
        <ele>48</ele>
        <time>2020-01-16T16:06:58Z</time>
      </trkpt>
      <trkpt lat="59.17505" lon="18.142573">
        <ele>48</ele>
        <time>2020-01-16T16:06:59Z</time>
      </trkpt>
      <trkpt lat="59.175074" lon="18.142522">
        <ele>48</ele>
        <time>2020-01-16T16:07:00Z</time>
      </trkpt>
      <trkpt lat="59.175094" lon="18.142471">
        <ele>48</ele>
        <time>2020-01-16T16:07:01Z</time>
      </trkpt>
      <trkpt lat="59.175114" lon="18.142423">
        <ele>48</ele>
        <time>2020-01-16T16:07:02Z</time>
      </trkpt>
      <trkpt lat="59.175136" lon="18.142376">
        <ele>0</ele>
        <time>2020-01-16T16:07:02Z</time>
      </trkpt>
      <trkpt lat="59.175156" lon="18.142321">
        <ele>48</ele>
        <time>2020-01-16T16:07:03Z</time>
      </trkpt>
      <trkpt lat="59.175169" lon="18.142258">
        <ele>48</ele>
        <time>2020-01-16T16:07:05Z</time>
      </trkpt>
      <trkpt lat="59.17519" lon="18.142185">
        <ele>49</ele>
        <time>2020-01-16T16:07:06Z</time>
      </trkpt>
      <trkpt lat="59.175217" lon="18.142118">
        <ele>0</ele>
        <time>2020-01-16T16:07:06Z</time>
      </trkpt>
      <trkpt lat="59.17525" lon="18.14206">
        <ele>49</ele>
        <time>2020-01-16T16:07:07Z</time>
      </trkpt>
      <trkpt lat="59.175281" lon="18.142001">
        <ele>49</ele>
        <time>2020-01-16T16:07:09Z</time>
      </trkpt>
      <trkpt lat="59.17531" lon="18.141946">
        <ele>48</ele>
        <time>2020-01-16T16:07:10Z</time>
      </trkpt>
      <trkpt lat="59.175338" lon="18.141894">
        <ele>48</ele>
        <time>2020-01-16T16:07:11Z</time>
      </trkpt>
      <trkpt lat="59.175362" lon="18.141846">
        <ele>48</ele>
        <time>2020-01-16T16:07:12Z</time>
      </trkpt>
      <trkpt lat="59.17538" lon="18.141802">
        <ele>48</ele>
        <time>2020-01-16T16:07:13Z</time>
      </trkpt>
      <trkpt lat="59.175399" lon="18.141759">
        <ele>48</ele>
        <time>2020-01-16T16:07:14Z</time>
      </trkpt>
      <trkpt lat="59.175421" lon="18.14171">
        <ele>48</ele>
        <time>2020-01-16T16:07:15Z</time>
      </trkpt>
      <trkpt lat="59.175443" lon="18.141657">
        <ele>0</ele>
        <time>2020-01-16T16:07:15Z</time>
      </trkpt>
      <trkpt lat="59.175466" lon="18.141605">
        <ele>48</ele>
        <time>2020-01-16T16:07:16Z</time>
      </trkpt>
      <trkpt lat="59.175486" lon="18.141561">
        <ele>48</ele>
        <time>2020-01-16T16:07:18Z</time>
      </trkpt>
      <trkpt lat="59.175504" lon="18.141528">
        <ele>47</ele>
        <time>2020-01-16T16:07:19Z</time>
      </trkpt>
      <trkpt lat="59.175521" lon="18.14149">
        <ele>47</ele>
        <time>2020-01-16T16:07:21Z</time>
      </trkpt>
      <trkpt lat="59.175536" lon="18.141453">
        <ele>47</ele>
        <time>2020-01-16T16:07:25Z</time>
      </trkpt>
      <trkpt lat="59.17556" lon="18.141374">
        <ele>48</ele>
        <time>2020-01-16T16:07:26Z</time>
      </trkpt>
      <trkpt lat="59.175585" lon="18.141316">
        <ele>47</ele>
        <time>2020-01-16T16:07:28Z</time>
      </trkpt>
      <trkpt lat="59.175621" lon="18.141271">
        <ele>47</ele>
        <time>2020-01-16T16:07:29Z</time>
      </trkpt>
      <trkpt lat="59.175664" lon="18.141238">
        <ele>47</ele>
        <time>2020-01-16T16:07:30Z</time>
      </trkpt>
      <trkpt lat="59.175709" lon="18.141219">
        <ele>47</ele>
        <time>2020-01-16T16:07:31Z</time>
      </trkpt>
      <trkpt lat="59.175758" lon="18.141215">
        <ele>46</ele>
        <time>2020-01-16T16:07:32Z</time>
      </trkpt>
      <trkpt lat="59.175811" lon="18.141222">
        <ele>0</ele>
        <time>2020-01-16T16:07:32Z</time>
      </trkpt>
      <trkpt lat="59.175864" lon="18.141238">
        <ele>46</ele>
        <time>2020-01-16T16:07:33Z</time>
      </trkpt>
      <trkpt lat="59.17592" lon="18.141256">
        <ele>46</ele>
        <time>2020-01-16T16:07:35Z</time>
      </trkpt>
      <trkpt lat="59.175976" lon="18.141274">
        <ele>46</ele>
        <time>2020-01-16T16:07:36Z</time>
      </trkpt>
      <trkpt lat="59.176036" lon="18.141287">
        <ele>46</ele>
        <time>2020-01-16T16:07:37Z</time>
      </trkpt>
      <trkpt lat="59.176098" lon="18.141299">
        <ele>45</ele>
        <time>2020-01-16T16:07:38Z</time>
      </trkpt>
      <trkpt lat="59.176161" lon="18.141306">
        <ele>45</ele>
        <time>2020-01-16T16:07:39Z</time>
      </trkpt>
      <trkpt lat="59.176224" lon="18.141307">
        <ele>45</ele>
        <time>2020-01-16T16:07:40Z</time>
      </trkpt>
      <trkpt lat="59.176286" lon="18.141306">
        <ele>45</ele>
        <time>2020-01-16T16:07:41Z</time>
      </trkpt>
      <trkpt lat="59.176348" lon="18.141306">
        <ele>0</ele>
        <time>2020-01-16T16:07:41Z</time>
      </trkpt>
      <trkpt lat="59.176413" lon="18.141308">
        <ele>45</ele>
        <time>2020-01-16T16:07:42Z</time>
      </trkpt>
      <trkpt lat="59.176479" lon="18.141318">
        <ele>44</ele>
        <time>2020-01-16T16:07:44Z</time>
      </trkpt>
      <trkpt lat="59.176547" lon="18.141338">
        <ele>0</ele>
        <time>2020-01-16T16:07:44Z</time>
      </trkpt>
      <trkpt lat="59.176618" lon="18.141363">
        <ele>44</ele>
        <time>2020-01-16T16:07:45Z</time>
      </trkpt>
      <trkpt lat="59.17669" lon="18.141392">
        <ele>43</ele>
        <time>2020-01-16T16:07:47Z</time>
      </trkpt>
      <trkpt lat="59.176761" lon="18.141424">
        <ele>0</ele>
        <time>2020-01-16T16:07:47Z</time>
      </trkpt>
      <trkpt lat="59.176832" lon="18.141459">
        <ele>43</ele>
        <time>2020-01-16T16:07:48Z</time>
      </trkpt>
      <trkpt lat="59.176904" lon="18.141493">
        <ele>43</ele>
        <time>2020-01-16T16:07:50Z</time>
      </trkpt>
      <trkpt lat="59.176973" lon="18.141526">
        <ele>43</ele>
        <time>2020-01-16T16:07:51Z</time>
      </trkpt>
      <trkpt lat="59.17704" lon="18.141555">
        <ele>43</ele>
        <time>2020-01-16T16:07:52Z</time>
      </trkpt>
      <trkpt lat="59.177103" lon="18.141584">
        <ele>43</ele>
        <time>2020-01-16T16:07:53Z</time>
      </trkpt>
      <trkpt lat="59.177159" lon="18.141603">
        <ele>43</ele>
        <time>2020-01-16T16:07:54Z</time>
      </trkpt>
      <trkpt lat="59.177207" lon="18.141603">
        <ele>43</ele>
        <time>2020-01-16T16:07:55Z</time>
      </trkpt>
      <trkpt lat="59.17725" lon="18.141596">
        <ele>43</ele>
        <time>2020-01-16T16:07:56Z</time>
      </trkpt>
      <trkpt lat="59.177299" lon="18.1416">
        <ele>43</ele>
        <time>2020-01-16T16:07:57Z</time>
      </trkpt>
      <trkpt lat="59.17735" lon="18.141621">
        <ele>0</ele>
        <time>2020-01-16T16:07:57Z</time>
      </trkpt>
      <trkpt lat="59.177402" lon="18.141644">
        <ele>43</ele>
        <time>2020-01-16T16:07:58Z</time>
      </trkpt>
      <trkpt lat="59.17746" lon="18.141656">
        <ele>42</ele>
        <time>2020-01-16T16:08:00Z</time>
      </trkpt>
      <trkpt lat="59.177521" lon="18.141667">
        <ele>42</ele>
        <time>2020-01-16T16:08:01Z</time>
      </trkpt>
      <trkpt lat="59.177585" lon="18.141682">
        <ele>42</ele>
        <time>2020-01-16T16:08:02Z</time>
      </trkpt>
      <trkpt lat="59.177653" lon="18.141706">
        <ele>42</ele>
        <time>2020-01-16T16:08:03Z</time>
      </trkpt>
      <trkpt lat="59.17773" lon="18.141742">
        <ele>0</ele>
        <time>2020-01-16T16:08:03Z</time>
      </trkpt>
      <trkpt lat="59.177815" lon="18.141788">
        <ele>41</ele>
        <time>2020-01-16T16:08:05Z</time>
      </trkpt>
      <trkpt lat="59.177899" lon="18.141843">
        <ele>41</ele>
        <time>2020-01-16T16:08:06Z</time>
      </trkpt>
      <trkpt lat="59.177978" lon="18.1419">
        <ele>41</ele>
        <time>2020-01-16T16:08:07Z</time>
      </trkpt>
      <trkpt lat="59.178055" lon="18.141954">
        <ele>41</ele>
        <time>2020-01-16T16:08:08Z</time>
      </trkpt>
      <trkpt lat="59.178128" lon="18.142012">
        <ele>41</ele>
        <time>2020-01-16T16:08:09Z</time>
      </trkpt>
      <trkpt lat="59.178198" lon="18.142071">
        <ele>41</ele>
        <time>2020-01-16T16:08:10Z</time>
      </trkpt>
      <trkpt lat="59.178267" lon="18.142137">
        <ele>0</ele>
        <time>2020-01-16T16:08:10Z</time>
      </trkpt>
      <trkpt lat="59.178334" lon="18.142213">
        <ele>40</ele>
        <time>2020-01-16T16:08:11Z</time>
      </trkpt>
      <trkpt lat="59.178401" lon="18.14229">
        <ele>38</ele>
        <time>2020-01-16T16:08:13Z</time>
      </trkpt>
      <trkpt lat="59.178472" lon="18.142356">
        <ele>38</ele>
        <time>2020-01-16T16:08:14Z</time>
      </trkpt>
      <trkpt lat="59.178546" lon="18.142409">
        <ele>38</ele>
        <time>2020-01-16T16:08:15Z</time>
      </trkpt>
      <trkpt lat="59.178622" lon="18.142457">
        <ele>38</ele>
        <time>2020-01-16T16:08:16Z</time>
      </trkpt>
      <trkpt lat="59.178697" lon="18.142505">
        <ele>0</ele>
        <time>2020-01-16T16:08:16Z</time>
      </trkpt>
      <trkpt lat="59.178772" lon="18.142554">
        <ele>37</ele>
        <time>2020-01-16T16:08:17Z</time>
      </trkpt>
      <trkpt lat="59.178847" lon="18.142605">
        <ele>37</ele>
        <time>2020-01-16T16:08:19Z</time>
      </trkpt>
      <trkpt lat="59.178921" lon="18.142655">
        <ele>37</ele>
        <time>2020-01-16T16:08:20Z</time>
      </trkpt>
      <trkpt lat="59.178994" lon="18.142705">
        <ele>36</ele>
        <time>2020-01-16T16:08:21Z</time>
      </trkpt>
      <trkpt lat="59.179066" lon="18.142755">
        <ele>36</ele>
        <time>2020-01-16T16:08:22Z</time>
      </trkpt>
      <trkpt lat="59.179138" lon="18.142806">
        <ele>0</ele>
        <time>2020-01-16T16:08:22Z</time>
      </trkpt>
      <trkpt lat="59.179209" lon="18.142857">
        <ele>36</ele>
        <time>2020-01-16T16:08:23Z</time>
      </trkpt>
      <trkpt lat="59.179279" lon="18.142909">
        <ele>36</ele>
        <time>2020-01-16T16:08:24Z</time>
      </trkpt>
      <trkpt lat="59.179348" lon="18.142964">
        <ele>36</ele>
        <time>2020-01-16T16:08:26Z</time>
      </trkpt>
      <trkpt lat="59.179416" lon="18.143019">
        <ele>36</ele>
        <time>2020-01-16T16:08:27Z</time>
      </trkpt>
      <trkpt lat="59.179483" lon="18.143075">
        <ele>36</ele>
        <time>2020-01-16T16:08:28Z</time>
      </trkpt>
      <trkpt lat="59.179549" lon="18.143135">
        <ele>36</ele>
        <time>2020-01-16T16:08:29Z</time>
      </trkpt>
      <trkpt lat="59.179612" lon="18.143197">
        <ele>0</ele>
        <time>2020-01-16T16:08:29Z</time>
      </trkpt>
      <trkpt lat="59.179673" lon="18.143262">
        <ele>36</ele>
        <time>2020-01-16T16:08:30Z</time>
      </trkpt>
      <trkpt lat="59.179731" lon="18.143327">
        <ele>36</ele>
        <time>2020-01-16T16:08:32Z</time>
      </trkpt>
      <trkpt lat="59.179786" lon="18.14339">
        <ele>36</ele>
        <time>2020-01-16T16:08:33Z</time>
      </trkpt>
      <trkpt lat="59.179833" lon="18.14345">
        <ele>36</ele>
        <time>2020-01-16T16:08:34Z</time>
      </trkpt>
      <trkpt lat="59.179877" lon="18.143503">
        <ele>37</ele>
        <time>2020-01-16T16:08:35Z</time>
      </trkpt>
      <trkpt lat="59.179915" lon="18.143548">
        <ele>37</ele>
        <time>2020-01-16T16:08:36Z</time>
      </trkpt>
      <trkpt lat="59.17994" lon="18.143584">
        <ele>37</ele>
        <time>2020-01-16T16:08:37Z</time>
      </trkpt>
      <trkpt lat="59.179955" lon="18.143614">
        <ele>37</ele>
        <time>2020-01-16T16:08:38Z</time>
      </trkpt>
      <trkpt lat="59.179948" lon="18.143666">
        <ele>37</ele>
        <time>2020-01-16T16:08:40Z</time>
      </trkpt>
      <trkpt lat="59.179945" lon="18.143713">
        <ele>37</ele>
        <time>2020-01-16T16:08:41Z</time>
      </trkpt>
      <trkpt lat="59.179955" lon="18.143775">
        <ele>0</ele>
        <time>2020-01-16T16:08:41Z</time>
      </trkpt>
      <trkpt lat="59.179972" lon="18.14384">
        <ele>37</ele>
        <time>2020-01-16T16:08:42Z</time>
      </trkpt>
      <trkpt lat="59.179993" lon="18.143889">
        <ele>0</ele>
        <time>2020-01-16T16:08:43Z</time>
      </trkpt>
      <trkpt lat="59.180025" lon="18.143925">
        <ele>37</ele>
        <time>2020-01-16T16:08:44Z</time>
      </trkpt>
      <trkpt lat="59.180063" lon="18.143961">
        <ele>37</ele>
        <time>2020-01-16T16:08:46Z</time>
      </trkpt>
      <trkpt lat="59.180101" lon="18.143998">
        <ele>37</ele>
        <time>2020-01-16T16:08:47Z</time>
      </trkpt>
      <trkpt lat="59.180141" lon="18.144041">
        <ele>37</ele>
        <time>2020-01-16T16:08:48Z</time>
      </trkpt>
      <trkpt lat="59.180183" lon="18.144088">
        <ele>37</ele>
        <time>2020-01-16T16:08:49Z</time>
      </trkpt>
      <trkpt lat="59.180225" lon="18.14414">
        <ele>37</ele>
        <time>2020-01-16T16:08:50Z</time>
      </trkpt>
      <trkpt lat="59.180268" lon="18.144193">
        <ele>37</ele>
        <time>2020-01-16T16:08:51Z</time>
      </trkpt>
      <trkpt lat="59.180312" lon="18.144247">
        <ele>37</ele>
        <time>2020-01-16T16:08:52Z</time>
      </trkpt>
      <trkpt lat="59.180356" lon="18.144302">
        <ele>37</ele>
        <time>2020-01-16T16:08:53Z</time>
      </trkpt>
      <trkpt lat="59.180401" lon="18.144357">
        <ele>37</ele>
        <time>2020-01-16T16:08:54Z</time>
      </trkpt>
      <trkpt lat="59.180445" lon="18.144413">
        <ele>0</ele>
        <time>2020-01-16T16:08:54Z</time>
      </trkpt>
      <trkpt lat="59.18049" lon="18.144468">
        <ele>37</ele>
        <time>2020-01-16T16:08:55Z</time>
      </trkpt>
      <trkpt lat="59.180535" lon="18.144525">
        <ele>37</ele>
        <time>2020-01-16T16:08:57Z</time>
      </trkpt>
      <trkpt lat="59.180579" lon="18.144585">
        <ele>37</ele>
        <time>2020-01-16T16:08:58Z</time>
      </trkpt>
      <trkpt lat="59.180619" lon="18.144651">
        <ele>38</ele>
        <time>2020-01-16T16:08:59Z</time>
      </trkpt>
      <trkpt lat="59.180658" lon="18.144715">
        <ele>38</ele>
        <time>2020-01-16T16:09:00Z</time>
      </trkpt>
      <trkpt lat="59.1807" lon="18.144774">
        <ele>0</ele>
        <time>2020-01-16T16:09:00Z</time>
      </trkpt>
      <trkpt lat="59.180744" lon="18.144828">
        <ele>38</ele>
        <time>2020-01-16T16:09:01Z</time>
      </trkpt>
      <trkpt lat="59.180791" lon="18.144879">
        <ele>0</ele>
        <time>2020-01-16T16:09:02Z</time>
      </trkpt>
      <trkpt lat="59.180839" lon="18.144927">
        <ele>38</ele>
        <time>2020-01-16T16:09:03Z</time>
      </trkpt>
      <trkpt lat="59.180887" lon="18.144976">
        <ele>38</ele>
        <time>2020-01-16T16:09:05Z</time>
      </trkpt>
      <trkpt lat="59.180933" lon="18.145029">
        <ele>38</ele>
        <time>2020-01-16T16:09:06Z</time>
      </trkpt>
      <trkpt lat="59.180979" lon="18.145084">
        <ele>39</ele>
        <time>2020-01-16T16:09:07Z</time>
      </trkpt>
      <trkpt lat="59.181026" lon="18.14514">
        <ele>39</ele>
        <time>2020-01-16T16:09:08Z</time>
      </trkpt>
      <trkpt lat="59.181073" lon="18.145192">
        <ele>39</ele>
        <time>2020-01-16T16:09:09Z</time>
      </trkpt>
      <trkpt lat="59.18112" lon="18.145242">
        <ele>39</ele>
        <time>2020-01-16T16:09:10Z</time>
      </trkpt>
      <trkpt lat="59.181169" lon="18.145291">
        <ele>39</ele>
        <time>2020-01-16T16:09:11Z</time>
      </trkpt>
      <trkpt lat="59.181217" lon="18.145342">
        <ele>39</ele>
        <time>2020-01-16T16:09:12Z</time>
      </trkpt>
      <trkpt lat="59.181264" lon="18.145397">
        <ele>0</ele>
        <time>2020-01-16T16:09:12Z</time>
      </trkpt>
      <trkpt lat="59.181312" lon="18.145448">
        <ele>39</ele>
        <time>2020-01-16T16:09:13Z</time>
      </trkpt>
      <trkpt lat="59.181362" lon="18.145498">
        <ele>39</ele>
        <time>2020-01-16T16:09:15Z</time>
      </trkpt>
      <trkpt lat="59.181412" lon="18.14555">
        <ele>39</ele>
        <time>2020-01-16T16:09:16Z</time>
      </trkpt>
      <trkpt lat="59.181464" lon="18.145601">
        <ele>39</ele>
        <time>2020-01-16T16:09:17Z</time>
      </trkpt>
      <trkpt lat="59.181517" lon="18.145655">
        <ele>39</ele>
        <time>2020-01-16T16:09:18Z</time>
      </trkpt>
      <trkpt lat="59.18157" lon="18.145711">
        <ele>39</ele>
        <time>2020-01-16T16:09:19Z</time>
      </trkpt>
      <trkpt lat="59.181624" lon="18.14577">
        <ele>0</ele>
        <time>2020-01-16T16:09:19Z</time>
      </trkpt>
      <trkpt lat="59.181679" lon="18.145831">
        <ele>39</ele>
        <time>2020-01-16T16:09:20Z</time>
      </trkpt>
      <trkpt lat="59.181734" lon="18.145896">
        <ele>39</ele>
        <time>2020-01-16T16:09:21Z</time>
      </trkpt>
      <trkpt lat="59.18179" lon="18.145961">
        <ele>39</ele>
        <time>2020-01-16T16:09:23Z</time>
      </trkpt>
      <trkpt lat="59.181849" lon="18.146026">
        <ele>39</ele>
        <time>2020-01-16T16:09:24Z</time>
      </trkpt>
      <trkpt lat="59.181909" lon="18.146091">
        <ele>39</ele>
        <time>2020-01-16T16:09:25Z</time>
      </trkpt>
      <trkpt lat="59.181968" lon="18.146157">
        <ele>39</ele>
        <time>2020-01-16T16:09:26Z</time>
      </trkpt>
      <trkpt lat="59.182029" lon="18.146224">
        <ele>39</ele>
        <time>2020-01-16T16:09:27Z</time>
      </trkpt>
      <trkpt lat="59.18209" lon="18.146293">
        <ele>39</ele>
        <time>2020-01-16T16:09:28Z</time>
      </trkpt>
      <trkpt lat="59.182152" lon="18.146364">
        <ele>0</ele>
        <time>2020-01-16T16:09:28Z</time>
      </trkpt>
      <trkpt lat="59.182213" lon="18.146434">
        <ele>39</ele>
        <time>2020-01-16T16:09:29Z</time>
      </trkpt>
      <trkpt lat="59.182273" lon="18.146503">
        <ele>39</ele>
        <time>2020-01-16T16:09:31Z</time>
      </trkpt>
      <trkpt lat="59.182335" lon="18.146571">
        <ele>39</ele>
        <time>2020-01-16T16:09:32Z</time>
      </trkpt>
      <trkpt lat="59.182395" lon="18.14664">
        <ele>39</ele>
        <time>2020-01-16T16:09:33Z</time>
      </trkpt>
      <trkpt lat="59.182455" lon="18.146704">
        <ele>39</ele>
        <time>2020-01-16T16:09:34Z</time>
      </trkpt>
      <trkpt lat="59.182516" lon="18.146764">
        <ele>0</ele>
        <time>2020-01-16T16:09:34Z</time>
      </trkpt>
      <trkpt lat="59.182577" lon="18.146824">
        <ele>39</ele>
        <time>2020-01-16T16:09:35Z</time>
      </trkpt>
      <trkpt lat="59.182638" lon="18.146879">
        <ele>39</ele>
        <time>2020-01-16T16:09:37Z</time>
      </trkpt>
      <trkpt lat="59.182698" lon="18.146933">
        <ele>39</ele>
        <time>2020-01-16T16:09:38Z</time>
      </trkpt>
      <trkpt lat="59.182758" lon="18.14698">
        <ele>0</ele>
        <time>2020-01-16T16:09:38Z</time>
      </trkpt>
      <trkpt lat="59.182821" lon="18.147021">
        <ele>39</ele>
        <time>2020-01-16T16:09:39Z</time>
      </trkpt>
      <trkpt lat="59.182887" lon="18.147057">
        <ele>39</ele>
        <time>2020-01-16T16:09:41Z</time>
      </trkpt>
      <trkpt lat="59.182952" lon="18.147092">
        <ele>39</ele>
        <time>2020-01-16T16:09:42Z</time>
      </trkpt>
      <trkpt lat="59.183021" lon="18.147117">
        <ele>0</ele>
        <time>2020-01-16T16:09:42Z</time>
      </trkpt>
      <trkpt lat="59.183086" lon="18.14714">
        <ele>39</ele>
        <time>2020-01-16T16:09:43Z</time>
      </trkpt>
      <trkpt lat="59.183151" lon="18.147163">
        <ele>39</ele>
        <time>2020-01-16T16:09:45Z</time>
      </trkpt>
      <trkpt lat="59.183216" lon="18.147182">
        <ele>39</ele>
        <time>2020-01-16T16:09:46Z</time>
      </trkpt>
      <trkpt lat="59.183278" lon="18.147207">
        <ele>38</ele>
        <time>2020-01-16T16:09:47Z</time>
      </trkpt>
      <trkpt lat="59.183338" lon="18.147242">
        <ele>38</ele>
        <time>2020-01-16T16:09:48Z</time>
      </trkpt>
      <trkpt lat="59.183395" lon="18.147281">
        <ele>38</ele>
        <time>2020-01-16T16:09:49Z</time>
      </trkpt>
      <trkpt lat="59.183452" lon="18.14731">
        <ele>38</ele>
        <time>2020-01-16T16:09:50Z</time>
      </trkpt>
      <trkpt lat="59.18351" lon="18.147324">
        <ele>38</ele>
        <time>2020-01-16T16:09:51Z</time>
      </trkpt>
      <trkpt lat="59.18357" lon="18.147321">
        <ele>0</ele>
        <time>2020-01-16T16:09:51Z</time>
      </trkpt>
      <trkpt lat="59.183628" lon="18.147296">
        <ele>37</ele>
        <time>2020-01-16T16:09:52Z</time>
      </trkpt>
      <trkpt lat="59.183687" lon="18.147266">
        <ele>37</ele>
        <time>2020-01-16T16:09:54Z</time>
      </trkpt>
      <trkpt lat="59.183748" lon="18.147248">
        <ele>37</ele>
        <time>2020-01-16T16:09:55Z</time>
      </trkpt>
      <trkpt lat="59.183812" lon="18.147238">
        <ele>36</ele>
        <time>2020-01-16T16:09:56Z</time>
      </trkpt>
      <trkpt lat="59.183877" lon="18.147231">
        <ele>36</ele>
        <time>2020-01-16T16:09:57Z</time>
      </trkpt>
      <trkpt lat="59.183944" lon="18.147224">
        <ele>0</ele>
        <time>2020-01-16T16:09:57Z</time>
      </trkpt>
      <trkpt lat="59.184013" lon="18.147213">
        <ele>36</ele>
        <time>2020-01-16T16:09:58Z</time>
      </trkpt>
      <trkpt lat="59.184084" lon="18.147199">
        <ele>35</ele>
        <time>2020-01-16T16:09:59Z</time>
      </trkpt>
      <trkpt lat="59.184157" lon="18.147184">
        <ele>35</ele>
        <time>2020-01-16T16:10:01Z</time>
      </trkpt>
      <trkpt lat="59.184234" lon="18.147169">
        <ele>35</ele>
        <time>2020-01-16T16:10:02Z</time>
      </trkpt>
      <trkpt lat="59.184313" lon="18.147153">
        <ele>34</ele>
        <time>2020-01-16T16:10:03Z</time>
      </trkpt>
      <trkpt lat="59.184394" lon="18.147135">
        <ele>34</ele>
        <time>2020-01-16T16:10:04Z</time>
      </trkpt>
      <trkpt lat="59.184476" lon="18.147117">
        <ele>34</ele>
        <time>2020-01-16T16:10:05Z</time>
      </trkpt>
      <trkpt lat="59.18456" lon="18.147097">
        <ele>0</ele>
        <time>2020-01-16T16:10:05Z</time>
      </trkpt>
      <trkpt lat="59.184647" lon="18.147077">
        <ele>34</ele>
        <time>2020-01-16T16:10:06Z</time>
      </trkpt>
      <trkpt lat="59.184733" lon="18.147055">
        <ele>33</ele>
        <time>2020-01-16T16:10:08Z</time>
      </trkpt>
      <trkpt lat="59.184819" lon="18.147028">
        <ele>33</ele>
        <time>2020-01-16T16:10:09Z</time>
      </trkpt>
      <trkpt lat="59.184902" lon="18.146991">
        <ele>33</ele>
        <time>2020-01-16T16:10:10Z</time>
      </trkpt>
      <trkpt lat="59.184982" lon="18.146939">
        <ele>0</ele>
        <time>2020-01-16T16:10:10Z</time>
      </trkpt>
      <trkpt lat="59.185053" lon="18.146878">
        <ele>33</ele>
        <time>2020-01-16T16:10:11Z</time>
      </trkpt>
      <trkpt lat="59.18512" lon="18.146817">
        <ele>32</ele>
        <time>2020-01-16T16:10:13Z</time>
      </trkpt>
      <trkpt lat="59.185182" lon="18.146763">
        <ele>32</ele>
        <time>2020-01-16T16:10:14Z</time>
      </trkpt>
      <trkpt lat="59.185243" lon="18.146729">
        <ele>31</ele>
        <time>2020-01-16T16:10:15Z</time>
      </trkpt>
      <trkpt lat="59.1853" lon="18.146728">
        <ele>31</ele>
        <time>2020-01-16T16:10:16Z</time>
      </trkpt>
      <trkpt lat="59.185352" lon="18.146763">
        <ele>0</ele>
        <time>2020-01-16T16:10:16Z</time>
      </trkpt>
      <trkpt lat="59.18539" lon="18.146831">
        <ele>30</ele>
        <time>2020-01-16T16:10:17Z</time>
      </trkpt>
      <trkpt lat="59.185428" lon="18.1469">
        <ele>0</ele>
        <time>2020-01-16T16:10:18Z</time>
      </trkpt>
      <trkpt lat="59.185472" lon="18.146936">
        <ele>30</ele>
        <time>2020-01-16T16:10:19Z</time>
      </trkpt>
      <trkpt lat="59.185522" lon="18.146935">
        <ele>30</ele>
        <time>2020-01-16T16:10:21Z</time>
      </trkpt>
      <trkpt lat="59.185576" lon="18.146923">
        <ele>29</ele>
        <time>2020-01-16T16:10:22Z</time>
      </trkpt>
      <trkpt lat="59.185631" lon="18.146912">
        <ele>29</ele>
        <time>2020-01-16T16:10:23Z</time>
      </trkpt>
      <trkpt lat="59.18569" lon="18.1469">
        <ele>29</ele>
        <time>2020-01-16T16:10:24Z</time>
      </trkpt>
      <trkpt lat="59.185751" lon="18.146893">
        <ele>29</ele>
        <time>2020-01-16T16:10:25Z</time>
      </trkpt>
      <trkpt lat="59.185812" lon="18.146887">
        <ele>29</ele>
        <time>2020-01-16T16:10:26Z</time>
      </trkpt>
      <trkpt lat="59.185872" lon="18.146872">
        <ele>28</ele>
        <time>2020-01-16T16:10:27Z</time>
      </trkpt>
      <trkpt lat="59.185933" lon="18.146856">
        <ele>28</ele>
        <time>2020-01-16T16:10:28Z</time>
      </trkpt>
      <trkpt lat="59.185996" lon="18.146845">
        <ele>0</ele>
        <time>2020-01-16T16:10:28Z</time>
      </trkpt>
      <trkpt lat="59.186058" lon="18.146839">
        <ele>28</ele>
        <time>2020-01-16T16:10:29Z</time>
      </trkpt>
      <trkpt lat="59.18612" lon="18.146836">
        <ele>28</ele>
        <time>2020-01-16T16:10:31Z</time>
      </trkpt>
      <trkpt lat="59.186183" lon="18.14683">
        <ele>27</ele>
        <time>2020-01-16T16:10:32Z</time>
      </trkpt>
      <trkpt lat="59.186248" lon="18.14682">
        <ele>27</ele>
        <time>2020-01-16T16:10:33Z</time>
      </trkpt>
      <trkpt lat="59.186308" lon="18.146807">
        <ele>27</ele>
        <time>2020-01-16T16:10:34Z</time>
      </trkpt>
      <trkpt lat="59.186367" lon="18.146792">
        <ele>27</ele>
        <time>2020-01-16T16:10:35Z</time>
      </trkpt>
      <trkpt lat="59.186426" lon="18.146777">
        <ele>0</ele>
        <time>2020-01-16T16:10:35Z</time>
      </trkpt>
      <trkpt lat="59.18649" lon="18.146762">
        <ele>27</ele>
        <time>2020-01-16T16:10:36Z</time>
      </trkpt>
      <trkpt lat="59.186553" lon="18.146745">
        <ele>27</ele>
        <time>2020-01-16T16:10:37Z</time>
      </trkpt>
      <trkpt lat="59.18662" lon="18.146728">
        <ele>27</ele>
        <time>2020-01-16T16:10:39Z</time>
      </trkpt>
      <trkpt lat="59.186686" lon="18.146711">
        <ele>27</ele>
        <time>2020-01-16T16:10:40Z</time>
      </trkpt>
      <trkpt lat="59.186753" lon="18.146694">
        <ele>27</ele>
        <time>2020-01-16T16:10:41Z</time>
      </trkpt>
      <trkpt lat="59.18682" lon="18.146678">
        <ele>27</ele>
        <time>2020-01-16T16:10:42Z</time>
      </trkpt>
      <trkpt lat="59.18689" lon="18.14666">
        <ele>0</ele>
        <time>2020-01-16T16:10:42Z</time>
      </trkpt>
      <trkpt lat="59.186958" lon="18.14664">
        <ele>27</ele>
        <time>2020-01-16T16:10:43Z</time>
      </trkpt>
      <trkpt lat="59.187026" lon="18.146618">
        <ele>27</ele>
        <time>2020-01-16T16:10:45Z</time>
      </trkpt>
      <trkpt lat="59.187095" lon="18.1466">
        <ele>26</ele>
        <time>2020-01-16T16:10:46Z</time>
      </trkpt>
      <trkpt lat="59.187164" lon="18.146584">
        <ele>27</ele>
        <time>2020-01-16T16:10:47Z</time>
      </trkpt>
      <trkpt lat="59.187232" lon="18.146567">
        <ele>26</ele>
        <time>2020-01-16T16:10:48Z</time>
      </trkpt>
      <trkpt lat="59.187302" lon="18.146556">
        <ele>26</ele>
        <time>2020-01-16T16:10:49Z</time>
      </trkpt>
      <trkpt lat="59.187372" lon="18.146544">
        <ele>26</ele>
        <time>2020-01-16T16:10:50Z</time>
      </trkpt>
      <trkpt lat="59.187442" lon="18.146524">
        <ele>0</ele>
        <time>2020-01-16T16:10:50Z</time>
      </trkpt>
      <trkpt lat="59.18751" lon="18.146496">
        <ele>26</ele>
        <time>2020-01-16T16:10:51Z</time>
      </trkpt>
      <trkpt lat="59.187577" lon="18.146464">
        <ele>27</ele>
        <time>2020-01-16T16:10:53Z</time>
      </trkpt>
      <trkpt lat="59.187642" lon="18.146429">
        <ele>27</ele>
        <time>2020-01-16T16:10:54Z</time>
      </trkpt>
      <trkpt lat="59.187705" lon="18.146391">
        <ele>0</ele>
        <time>2020-01-16T16:10:54Z</time>
      </trkpt>
      <trkpt lat="59.187766" lon="18.146348">
        <ele>27</ele>
        <time>2020-01-16T16:10:55Z</time>
      </trkpt>
      <trkpt lat="59.187825" lon="18.146301">
        <ele>27</ele>
        <time>2020-01-16T16:10:57Z</time>
      </trkpt>
      <trkpt lat="59.187886" lon="18.146253">
        <ele>0</ele>
        <time>2020-01-16T16:10:57Z</time>
      </trkpt>
      <trkpt lat="59.187944" lon="18.146208">
        <ele>27</ele>
        <time>2020-01-16T16:10:58Z</time>
      </trkpt>
      <trkpt lat="59.188002" lon="18.146161">
        <ele>27</ele>
        <time>2020-01-16T16:11:00Z</time>
      </trkpt>
      <trkpt lat="59.188059" lon="18.146115">
        <ele>27</ele>
        <time>2020-01-16T16:11:01Z</time>
      </trkpt>
      <trkpt lat="59.188118" lon="18.146074">
        <ele>27</ele>
        <time>2020-01-16T16:11:02Z</time>
      </trkpt>
      <trkpt lat="59.188175" lon="18.14604">
        <ele>27</ele>
        <time>2020-01-16T16:11:03Z</time>
      </trkpt>
      <trkpt lat="59.188231" lon="18.146006">
        <ele>27</ele>
        <time>2020-01-16T16:11:04Z</time>
      </trkpt>
      <trkpt lat="59.188283" lon="18.145968">
        <ele>28</ele>
        <time>2020-01-16T16:11:05Z</time>
      </trkpt>
      <trkpt lat="59.188333" lon="18.145931">
        <ele>28</ele>
        <time>2020-01-16T16:11:06Z</time>
      </trkpt>
      <trkpt lat="59.188384" lon="18.145892">
        <ele>0</ele>
        <time>2020-01-16T16:11:06Z</time>
      </trkpt>
      <trkpt lat="59.188434" lon="18.145854">
        <ele>28</ele>
        <time>2020-01-16T16:11:07Z</time>
      </trkpt>
      <trkpt lat="59.188485" lon="18.145816">
        <ele>28</ele>
        <time>2020-01-16T16:11:09Z</time>
      </trkpt>
      <trkpt lat="59.188535" lon="18.14578">
        <ele>28</ele>
        <time>2020-01-16T16:11:10Z</time>
      </trkpt>
      <trkpt lat="59.188585" lon="18.145739">
        <ele>28</ele>
        <time>2020-01-16T16:11:11Z</time>
      </trkpt>
      <trkpt lat="59.188634" lon="18.145697">
        <ele>28</ele>
        <time>2020-01-16T16:11:12Z</time>
      </trkpt>
      <trkpt lat="59.188681" lon="18.145651">
        <ele>28</ele>
        <time>2020-01-16T16:11:13Z</time>
      </trkpt>
      <trkpt lat="59.188724" lon="18.1456">
        <ele>0</ele>
        <time>2020-01-16T16:11:13Z</time>
      </trkpt>
      <trkpt lat="59.188767" lon="18.145547">
        <ele>28</ele>
        <time>2020-01-16T16:11:14Z</time>
      </trkpt>
      <trkpt lat="59.188811" lon="18.145491">
        <ele>0</ele>
        <time>2020-01-16T16:11:15Z</time>
      </trkpt>
      <trkpt lat="59.188857" lon="18.145431">
        <ele>28</ele>
        <time>2020-01-16T16:11:16Z</time>
      </trkpt>
      <trkpt lat="59.188903" lon="18.145371">
        <ele>28</ele>
        <time>2020-01-16T16:11:18Z</time>
      </trkpt>
      <trkpt lat="59.188949" lon="18.145311">
        <ele>28</ele>
        <time>2020-01-16T16:11:19Z</time>
      </trkpt>
      <trkpt lat="59.188994" lon="18.145249">
        <ele>28</ele>
        <time>2020-01-16T16:11:20Z</time>
      </trkpt>
      <trkpt lat="59.189037" lon="18.145184">
        <ele>28</ele>
        <time>2020-01-16T16:11:21Z</time>
      </trkpt>
      <trkpt lat="59.18908" lon="18.145118">
        <ele>28</ele>
        <time>2020-01-16T16:11:22Z</time>
      </trkpt>
      <trkpt lat="59.189124" lon="18.145051">
        <ele>28</ele>
        <time>2020-01-16T16:11:23Z</time>
      </trkpt>
      <trkpt lat="59.189169" lon="18.144984">
        <ele>28</ele>
        <time>2020-01-16T16:11:24Z</time>
      </trkpt>
      <trkpt lat="59.189215" lon="18.144921">
        <ele>28</ele>
        <time>2020-01-16T16:11:25Z</time>
      </trkpt>
      <trkpt lat="59.189263" lon="18.144865">
        <ele>0</ele>
        <time>2020-01-16T16:11:25Z</time>
      </trkpt>
      <trkpt lat="59.189315" lon="18.144811">
        <ele>28</ele>
        <time>2020-01-16T16:11:26Z</time>
      </trkpt>
      <trkpt lat="59.189367" lon="18.144756">
        <ele>27</ele>
        <time>2020-01-16T16:11:28Z</time>
      </trkpt>
      <trkpt lat="59.18942" lon="18.144706">
        <ele>27</ele>
        <time>2020-01-16T16:11:29Z</time>
      </trkpt>
      <trkpt lat="59.189477" lon="18.14466">
        <ele>27</ele>
        <time>2020-01-16T16:11:30Z</time>
      </trkpt>
      <trkpt lat="59.189535" lon="18.144618">
        <ele>27</ele>
        <time>2020-01-16T16:11:31Z</time>
      </trkpt>
      <trkpt lat="59.189597" lon="18.144576">
        <ele>27</ele>
        <time>2020-01-16T16:11:32Z</time>
      </trkpt>
      <trkpt lat="59.189662" lon="18.14453">
        <ele>0</ele>
        <time>2020-01-16T16:11:32Z</time>
      </trkpt>
      <trkpt lat="59.189728" lon="18.144483">
        <ele>27</ele>
        <time>2020-01-16T16:11:33Z</time>
      </trkpt>
      <trkpt lat="59.189795" lon="18.144436">
        <ele>26</ele>
        <time>2020-01-16T16:11:35Z</time>
      </trkpt>
      <trkpt lat="59.189864" lon="18.144395">
        <ele>26</ele>
        <time>2020-01-16T16:11:36Z</time>
      </trkpt>
      <trkpt lat="59.189932" lon="18.144354">
        <ele>26</ele>
        <time>2020-01-16T16:11:37Z</time>
      </trkpt>
      <trkpt lat="59.189995" lon="18.144302">
        <ele>26</ele>
        <time>2020-01-16T16:11:38Z</time>
      </trkpt>
      <trkpt lat="59.190058" lon="18.144251">
        <ele>26</ele>
        <time>2020-01-16T16:11:39Z</time>
      </trkpt>
      <trkpt lat="59.190123" lon="18.144205">
        <ele>26</ele>
        <time>2020-01-16T16:11:40Z</time>
      </trkpt>
      <trkpt lat="59.190194" lon="18.144167">
        <ele>0</ele>
        <time>2020-01-16T16:11:40Z</time>
      </trkpt>
      <trkpt lat="59.190356" lon="18.144179">
        <ele>26</ele>
        <time>2020-01-16T16:11:43Z</time>
      </trkpt>
      <trkpt lat="59.190456" lon="18.144246">
        <ele>27</ele>
        <time>2020-01-16T16:11:45Z</time>
      </trkpt>
      <trkpt lat="59.19052" lon="18.144257">
        <ele>27</ele>
        <time>2020-01-16T16:11:46Z</time>
      </trkpt>
      <trkpt lat="59.19058" lon="18.144249">
        <ele>28</ele>
        <time>2020-01-16T16:11:47Z</time>
      </trkpt>
      <trkpt lat="59.190648" lon="18.14424">
        <ele>0</ele>
        <time>2020-01-16T16:11:47Z</time>
      </trkpt>
      <trkpt lat="59.19072" lon="18.144237">
        <ele>28</ele>
        <time>2020-01-16T16:11:48Z</time>
      </trkpt>
      <trkpt lat="59.190783" lon="18.144228">
        <ele>29</ele>
        <time>2020-01-16T16:11:50Z</time>
      </trkpt>
      <trkpt lat="59.190839" lon="18.144219">
        <ele>29</ele>
        <time>2020-01-16T16:11:51Z</time>
      </trkpt>
      <trkpt lat="59.190892" lon="18.144211">
        <ele>0</ele>
        <time>2020-01-16T16:11:51Z</time>
      </trkpt>
      <trkpt lat="59.190939" lon="18.144202">
        <ele>29</ele>
        <time>2020-01-16T16:11:52Z</time>
      </trkpt>
      <trkpt lat="59.190984" lon="18.144193">
        <ele>30</ele>
        <time>2020-01-16T16:11:54Z</time>
      </trkpt>
      <trkpt lat="59.191026" lon="18.144183">
        <ele>30</ele>
        <time>2020-01-16T16:11:55Z</time>
      </trkpt>
      <trkpt lat="59.191064" lon="18.144171">
        <ele>30</ele>
        <time>2020-01-16T16:11:56Z</time>
      </trkpt>
      <trkpt lat="59.191101" lon="18.144158">
        <ele>31</ele>
        <time>2020-01-16T16:11:57Z</time>
      </trkpt>
      <trkpt lat="59.191137" lon="18.144153">
        <ele>31</ele>
        <time>2020-01-16T16:11:58Z</time>
      </trkpt>
      <trkpt lat="59.191172" lon="18.144144">
        <ele>0</ele>
        <time>2020-01-16T16:11:58Z</time>
      </trkpt>
      <trkpt lat="59.191206" lon="18.144131">
        <ele>32</ele>
        <time>2020-01-16T16:11:59Z</time>
      </trkpt>
      <trkpt lat="59.191242" lon="18.14412">
        <ele>32</ele>
        <time>2020-01-16T16:12:01Z</time>
      </trkpt>
      <trkpt lat="59.191277" lon="18.144109">
        <ele>32</ele>
        <time>2020-01-16T16:12:02Z</time>
      </trkpt>
      <trkpt lat="59.191313" lon="18.144087">
        <ele>33</ele>
        <time>2020-01-16T16:12:03Z</time>
      </trkpt>
      <trkpt lat="59.19135" lon="18.144071">
        <ele>33</ele>
        <time>2020-01-16T16:12:04Z</time>
      </trkpt>
      <trkpt lat="59.191385" lon="18.144051">
        <ele>33</ele>
        <time>2020-01-16T16:12:05Z</time>
      </trkpt>
      <trkpt lat="59.191418" lon="18.144039">
        <ele>33</ele>
        <time>2020-01-16T16:12:06Z</time>
      </trkpt>
      <trkpt lat="59.191453" lon="18.144023">
        <ele>33</ele>
        <time>2020-01-16T16:12:07Z</time>
      </trkpt>
      <trkpt lat="59.191488" lon="18.144007">
        <ele>33</ele>
        <time>2020-01-16T16:12:08Z</time>
      </trkpt>
      <trkpt lat="59.19152" lon="18.143995">
        <ele>33</ele>
        <time>2020-01-16T16:12:09Z</time>
      </trkpt>
      <trkpt lat="59.19155" lon="18.143982">
        <ele>33</ele>
        <time>2020-01-16T16:12:10Z</time>
      </trkpt>
      <trkpt lat="59.191585" lon="18.143975">
        <ele>0</ele>
        <time>2020-01-16T16:12:10Z</time>
      </trkpt>
      <trkpt lat="59.191618" lon="18.143961">
        <ele>34</ele>
        <time>2020-01-16T16:12:11Z</time>
      </trkpt>
      <trkpt lat="59.191648" lon="18.143942">
        <ele>0</ele>
        <time>2020-01-16T16:12:12Z</time>
      </trkpt>
      <trkpt lat="59.19168" lon="18.143919">
        <ele>34</ele>
        <time>2020-01-16T16:12:13Z</time>
      </trkpt>
      <trkpt lat="59.191711" lon="18.1439">
        <ele>34</ele>
        <time>2020-01-16T16:12:15Z</time>
      </trkpt>
      <trkpt lat="59.191743" lon="18.14388">
        <ele>34</ele>
        <time>2020-01-16T16:12:16Z</time>
      </trkpt>
      <trkpt lat="59.191774" lon="18.143858">
        <ele>35</ele>
        <time>2020-01-16T16:12:17Z</time>
      </trkpt>
      <trkpt lat="59.191805" lon="18.143835">
        <ele>35</ele>
        <time>2020-01-16T16:12:18Z</time>
      </trkpt>
      <trkpt lat="59.191835" lon="18.143809">
        <ele>35</ele>
        <time>2020-01-16T16:12:19Z</time>
      </trkpt>
      <trkpt lat="59.191866" lon="18.14378">
        <ele>35</ele>
        <time>2020-01-16T16:12:20Z</time>
      </trkpt>
      <trkpt lat="59.191898" lon="18.143753">
        <ele>35</ele>
        <time>2020-01-16T16:12:21Z</time>
      </trkpt>
      <trkpt lat="59.191931" lon="18.143723">
        <ele>36</ele>
        <time>2020-01-16T16:12:22Z</time>
      </trkpt>
      <trkpt lat="59.191964" lon="18.143693">
        <ele>36</ele>
        <time>2020-01-16T16:12:23Z</time>
      </trkpt>
      <trkpt lat="59.191997" lon="18.143662">
        <ele>36</ele>
        <time>2020-01-16T16:12:24Z</time>
      </trkpt>
      <trkpt lat="59.192031" lon="18.14363">
        <ele>36</ele>
        <time>2020-01-16T16:12:25Z</time>
      </trkpt>
      <trkpt lat="59.192065" lon="18.143595">
        <ele>36</ele>
        <time>2020-01-16T16:12:26Z</time>
      </trkpt>
      <trkpt lat="59.192098" lon="18.143558">
        <ele>36</ele>
        <time>2020-01-16T16:12:27Z</time>
      </trkpt>
      <trkpt lat="59.192132" lon="18.143521">
        <ele>0</ele>
        <time>2020-01-16T16:12:27Z</time>
      </trkpt>
      <trkpt lat="59.192164" lon="18.143487">
        <ele>35</ele>
        <time>2020-01-16T16:12:28Z</time>
      </trkpt>
      <trkpt lat="59.192196" lon="18.143456">
        <ele>0</ele>
        <time>2020-01-16T16:12:29Z</time>
      </trkpt>
      <trkpt lat="59.192228" lon="18.143419">
        <ele>35</ele>
        <time>2020-01-16T16:12:30Z</time>
      </trkpt>
      <trkpt lat="59.192261" lon="18.143381">
        <ele>36</ele>
        <time>2020-01-16T16:12:32Z</time>
      </trkpt>
      <trkpt lat="59.192291" lon="18.143348">
        <ele>36</ele>
        <time>2020-01-16T16:12:33Z</time>
      </trkpt>
      <trkpt lat="59.192323" lon="18.143315">
        <ele>36</ele>
        <time>2020-01-16T16:12:34Z</time>
      </trkpt>
      <trkpt lat="59.192351" lon="18.143277">
        <ele>36</ele>
        <time>2020-01-16T16:12:35Z</time>
      </trkpt>
      <trkpt lat="59.192382" lon="18.143244">
        <ele>0</ele>
        <time>2020-01-16T16:12:35Z</time>
      </trkpt>
      <trkpt lat="59.192415" lon="18.143212">
        <ele>36</ele>
        <time>2020-01-16T16:12:36Z</time>
      </trkpt>
      <trkpt lat="59.192448" lon="18.14318">
        <ele>37</ele>
        <time>2020-01-16T16:12:38Z</time>
      </trkpt>
      <trkpt lat="59.192483" lon="18.143141">
        <ele>37</ele>
        <time>2020-01-16T16:12:39Z</time>
      </trkpt>
      <trkpt lat="59.192516" lon="18.143101">
        <ele>0</ele>
        <time>2020-01-16T16:12:39Z</time>
      </trkpt>
      <trkpt lat="59.192552" lon="18.143063">
        <ele>37</ele>
        <time>2020-01-16T16:12:40Z</time>
      </trkpt>
      <trkpt lat="59.192585" lon="18.143029">
        <ele>37</ele>
        <time>2020-01-16T16:12:42Z</time>
      </trkpt>
      <trkpt lat="59.192619" lon="18.142993">
        <ele>37</ele>
        <time>2020-01-16T16:12:43Z</time>
      </trkpt>
      <trkpt lat="59.19265" lon="18.142959">
        <ele>38</ele>
        <time>2020-01-16T16:12:44Z</time>
      </trkpt>
      <trkpt lat="59.192682" lon="18.142924">
        <ele>38</ele>
        <time>2020-01-16T16:12:45Z</time>
      </trkpt>
      <trkpt lat="59.192715" lon="18.14289">
        <ele>38</ele>
        <time>2020-01-16T16:12:46Z</time>
      </trkpt>
      <trkpt lat="59.192748" lon="18.142858">
        <ele>38</ele>
        <time>2020-01-16T16:12:47Z</time>
      </trkpt>
      <trkpt lat="59.19278" lon="18.142826">
        <ele>39</ele>
        <time>2020-01-16T16:12:48Z</time>
      </trkpt>
      <trkpt lat="59.192813" lon="18.142793">
        <ele>0</ele>
        <time>2020-01-16T16:12:48Z</time>
      </trkpt>
      <trkpt lat="59.192848" lon="18.14276">
        <ele>39</ele>
        <time>2020-01-16T16:12:49Z</time>
      </trkpt>
      <trkpt lat="59.192882" lon="18.142725">
        <ele>39</ele>
        <time>2020-01-16T16:12:51Z</time>
      </trkpt>
      <trkpt lat="59.192917" lon="18.14269">
        <ele>39</ele>
        <time>2020-01-16T16:12:52Z</time>
      </trkpt>
      <trkpt lat="59.19295" lon="18.142653">
        <ele>0</ele>
        <time>2020-01-16T16:12:52Z</time>
      </trkpt>
      <trkpt lat="59.192985" lon="18.142615">
        <ele>39</ele>
        <time>2020-01-16T16:12:53Z</time>
      </trkpt>
      <trkpt lat="59.193021" lon="18.142575">
        <ele>40</ele>
        <time>2020-01-16T16:12:55Z</time>
      </trkpt>
      <trkpt lat="59.193056" lon="18.142537">
        <ele>40</ele>
        <time>2020-01-16T16:12:56Z</time>
      </trkpt>
      <trkpt lat="59.193092" lon="18.142501">
        <ele>40</ele>
        <time>2020-01-16T16:12:57Z</time>
      </trkpt>
      <trkpt lat="59.193127" lon="18.142465">
        <ele>40</ele>
        <time>2020-01-16T16:12:58Z</time>
      </trkpt>
      <trkpt lat="59.193162" lon="18.14243">
        <ele>40</ele>
        <time>2020-01-16T16:12:59Z</time>
      </trkpt>
      <trkpt lat="59.193198" lon="18.142396">
        <ele>40</ele>
        <time>2020-01-16T16:13:00Z</time>
      </trkpt>
      <trkpt lat="59.193236" lon="18.142368">
        <ele>40</ele>
        <time>2020-01-16T16:13:01Z</time>
      </trkpt>
      <trkpt lat="59.193275" lon="18.142343">
        <ele>41</ele>
        <time>2020-01-16T16:13:02Z</time>
      </trkpt>
      <trkpt lat="59.193315" lon="18.142318">
        <ele>41</ele>
        <time>2020-01-16T16:13:03Z</time>
      </trkpt>
      <trkpt lat="59.193354" lon="18.142294">
        <ele>41</ele>
        <time>2020-01-16T16:13:04Z</time>
      </trkpt>
      <trkpt lat="59.193393" lon="18.142268">
        <ele>41</ele>
        <time>2020-01-16T16:13:05Z</time>
      </trkpt>
      <trkpt lat="59.193432" lon="18.142237">
        <ele>41</ele>
        <time>2020-01-16T16:13:06Z</time>
      </trkpt>
      <trkpt lat="59.193472" lon="18.142206">
        <ele>0</ele>
        <time>2020-01-16T16:13:06Z</time>
      </trkpt>
      <trkpt lat="59.193512" lon="18.142173">
        <ele>41</ele>
        <time>2020-01-16T16:13:07Z</time>
      </trkpt>
      <trkpt lat="59.193553" lon="18.14214">
        <ele>41</ele>
        <time>2020-01-16T16:13:08Z</time>
      </trkpt>
      <trkpt lat="59.193594" lon="18.142106">
        <ele>41</ele>
        <time>2020-01-16T16:13:10Z</time>
      </trkpt>
      <trkpt lat="59.193635" lon="18.14207">
        <ele>41</ele>
        <time>2020-01-16T16:13:11Z</time>
      </trkpt>
      <trkpt lat="59.193675" lon="18.142031">
        <ele>41</ele>
        <time>2020-01-16T16:13:12Z</time>
      </trkpt>
      <trkpt lat="59.193716" lon="18.14199">
        <ele>41</ele>
        <time>2020-01-16T16:13:13Z</time>
      </trkpt>
      <trkpt lat="59.193757" lon="18.14195">
        <ele>41</ele>
        <time>2020-01-16T16:13:14Z</time>
      </trkpt>
      <trkpt lat="59.193799" lon="18.141909">
        <ele>41</ele>
        <time>2020-01-16T16:13:15Z</time>
      </trkpt>
      <trkpt lat="59.193842" lon="18.141866">
        <ele>41</ele>
        <time>2020-01-16T16:13:16Z</time>
      </trkpt>
      <trkpt lat="59.193885" lon="18.141823">
        <ele>0</ele>
        <time>2020-01-16T16:13:16Z</time>
      </trkpt>
      <trkpt lat="59.19393" lon="18.14178">
        <ele>41</ele>
        <time>2020-01-16T16:13:17Z</time>
      </trkpt>
      <trkpt lat="59.193977" lon="18.141738">
        <ele>41</ele>
        <time>2020-01-16T16:13:19Z</time>
      </trkpt>
      <trkpt lat="59.194025" lon="18.141695">
        <ele>41</ele>
        <time>2020-01-16T16:13:20Z</time>
      </trkpt>
      <trkpt lat="59.194075" lon="18.141656">
        <ele>41</ele>
        <time>2020-01-16T16:13:21Z</time>
      </trkpt>
      <trkpt lat="59.194127" lon="18.141615">
        <ele>41</ele>
        <time>2020-01-16T16:13:22Z</time>
      </trkpt>
      <trkpt lat="59.19418" lon="18.141571">
        <ele>41</ele>
        <time>2020-01-16T16:13:23Z</time>
      </trkpt>
      <trkpt lat="59.194232" lon="18.141523">
        <ele>41</ele>
        <time>2020-01-16T16:13:24Z</time>
      </trkpt>
      <trkpt lat="59.194285" lon="18.141473">
        <ele>0</ele>
        <time>2020-01-16T16:13:24Z</time>
      </trkpt>
      <trkpt lat="59.194338" lon="18.141423">
        <ele>41</ele>
        <time>2020-01-16T16:13:25Z</time>
      </trkpt>
      <trkpt lat="59.194391" lon="18.141372">
        <ele>0</ele>
        <time>2020-01-16T16:13:26Z</time>
      </trkpt>
      <trkpt lat="59.194444" lon="18.141323">
        <ele>41</ele>
        <time>2020-01-16T16:13:27Z</time>
      </trkpt>
      <trkpt lat="59.194497" lon="18.141272">
        <ele>41</ele>
        <time>2020-01-16T16:13:29Z</time>
      </trkpt>
      <trkpt lat="59.194547" lon="18.141222">
        <ele>41</ele>
        <time>2020-01-16T16:13:30Z</time>
      </trkpt>
      <trkpt lat="59.194602" lon="18.141169">
        <ele>41</ele>
        <time>2020-01-16T16:13:31Z</time>
      </trkpt>
      <trkpt lat="59.19466" lon="18.141118">
        <ele>41</ele>
        <time>2020-01-16T16:13:32Z</time>
      </trkpt>
      <trkpt lat="59.194716" lon="18.141064">
        <ele>0</ele>
        <time>2020-01-16T16:13:32Z</time>
      </trkpt>
      <trkpt lat="59.194779" lon="18.141006">
        <ele>41</ele>
        <time>2020-01-16T16:13:33Z</time>
      </trkpt>
      <trkpt lat="59.194842" lon="18.140949">
        <ele>41</ele>
        <time>2020-01-16T16:13:35Z</time>
      </trkpt>
      <trkpt lat="59.194905" lon="18.140895">
        <ele>41</ele>
        <time>2020-01-16T16:13:36Z</time>
      </trkpt>
      <trkpt lat="59.194971" lon="18.140841">
        <ele>41</ele>
        <time>2020-01-16T16:13:37Z</time>
      </trkpt>
      <trkpt lat="59.195039" lon="18.140798">
        <ele>41</ele>
        <time>2020-01-16T16:13:38Z</time>
      </trkpt>
      <trkpt lat="59.195114" lon="18.140765">
        <ele>41</ele>
        <time>2020-01-16T16:13:39Z</time>
      </trkpt>
      <trkpt lat="59.195196" lon="18.140742">
        <ele>41</ele>
        <time>2020-01-16T16:13:40Z</time>
      </trkpt>
      <trkpt lat="59.195282" lon="18.140729">
        <ele>0</ele>
        <time>2020-01-16T16:13:40Z</time>
      </trkpt>
      <trkpt lat="59.195368" lon="18.140726">
        <ele>41</ele>
        <time>2020-01-16T16:13:41Z</time>
      </trkpt>
      <trkpt lat="59.195452" lon="18.140727">
        <ele>40</ele>
        <time>2020-01-16T16:13:43Z</time>
      </trkpt>
      <trkpt lat="59.195539" lon="18.140733">
        <ele>40</ele>
        <time>2020-01-16T16:13:44Z</time>
      </trkpt>
      <trkpt lat="59.195626" lon="18.140748">
        <ele>40</ele>
        <time>2020-01-16T16:13:45Z</time>
      </trkpt>
      <trkpt lat="59.195713" lon="18.140766">
        <ele>0</ele>
        <time>2020-01-16T16:13:45Z</time>
      </trkpt>
      <trkpt lat="59.195799" lon="18.140785">
        <ele>39</ele>
        <time>2020-01-16T16:13:46Z</time>
      </trkpt>
      <trkpt lat="59.19589" lon="18.1408">
        <ele>39</ele>
        <time>2020-01-16T16:13:47Z</time>
      </trkpt>
      <trkpt lat="59.195978" lon="18.140816">
        <ele>38</ele>
        <time>2020-01-16T16:13:49Z</time>
      </trkpt>
      <trkpt lat="59.196065" lon="18.140836">
        <ele>38</ele>
        <time>2020-01-16T16:13:50Z</time>
      </trkpt>
      <trkpt lat="59.196151" lon="18.140859">
        <ele>0</ele>
        <time>2020-01-16T16:13:50Z</time>
      </trkpt>
      <trkpt lat="59.196237" lon="18.140884">
        <ele>37</ele>
        <time>2020-01-16T16:13:51Z</time>
      </trkpt>
      <trkpt lat="59.196324" lon="18.140917">
        <ele>37</ele>
        <time>2020-01-16T16:13:53Z</time>
      </trkpt>
      <trkpt lat="59.196409" lon="18.140958">
        <ele>37</ele>
        <time>2020-01-16T16:13:54Z</time>
      </trkpt>
      <trkpt lat="59.196492" lon="18.141004">
        <ele>36</ele>
        <time>2020-01-16T16:13:55Z</time>
      </trkpt>
      <trkpt lat="59.196575" lon="18.141066">
        <ele>36</ele>
        <time>2020-01-16T16:13:56Z</time>
      </trkpt>
      <trkpt lat="59.196653" lon="18.141143">
        <ele>36</ele>
        <time>2020-01-16T16:13:57Z</time>
      </trkpt>
      <trkpt lat="59.196731" lon="18.141228">
        <ele>0</ele>
        <time>2020-01-16T16:13:57Z</time>
      </trkpt>
      <trkpt lat="59.196808" lon="18.141324">
        <ele>35</ele>
        <time>2020-01-16T16:13:58Z</time>
      </trkpt>
      <trkpt lat="59.196884" lon="18.141429">
        <ele>34</ele>
        <time>2020-01-16T16:14:00Z</time>
      </trkpt>
      <trkpt lat="59.19696" lon="18.14154">
        <ele>34</ele>
        <time>2020-01-16T16:14:01Z</time>
      </trkpt>
      <trkpt lat="59.197032" lon="18.141661">
        <ele>34</ele>
        <time>2020-01-16T16:14:01Z</time>
      </trkpt>
      <trkpt lat="59.197107" lon="18.14178">
        <ele>33</ele>
        <time>2020-01-16T16:14:02Z</time>
      </trkpt>
      <trkpt lat="59.197183" lon="18.141895">
        <ele>33</ele>
        <time>2020-01-16T16:14:04Z</time>
      </trkpt>
      <trkpt lat="59.197263" lon="18.142004">
        <ele>0</ele>
        <time>2020-01-16T16:14:04Z</time>
      </trkpt>
      <trkpt lat="59.197344" lon="18.142104">
        <ele>33</ele>
        <time>2020-01-16T16:14:05Z</time>
      </trkpt>
      <trkpt lat="59.197429" lon="18.142192">
        <ele>32</ele>
        <time>2020-01-16T16:14:07Z</time>
      </trkpt>
      <trkpt lat="59.197513" lon="18.14227">
        <ele>32</ele>
        <time>2020-01-16T16:14:08Z</time>
      </trkpt>
      <trkpt lat="59.197597" lon="18.142341">
        <ele>0</ele>
        <time>2020-01-16T16:14:08Z</time>
      </trkpt>
      <trkpt lat="59.197679" lon="18.142408">
        <ele>32</ele>
        <time>2020-01-16T16:14:09Z</time>
      </trkpt>
      <trkpt lat="59.197764" lon="18.14247">
        <ele>30</ele>
        <time>2020-01-16T16:14:11Z</time>
      </trkpt>
      <trkpt lat="59.197848" lon="18.142531">
        <ele>30</ele>
        <time>2020-01-16T16:14:12Z</time>
      </trkpt>
      <trkpt lat="59.197933" lon="18.142589">
        <ele>0</ele>
        <time>2020-01-16T16:14:12Z</time>
      </trkpt>
      <trkpt lat="59.198015" lon="18.142648">
        <ele>29</ele>
        <time>2020-01-16T16:14:13Z</time>
      </trkpt>
      <trkpt lat="59.198095" lon="18.142707">
        <ele>29</ele>
        <time>2020-01-16T16:14:15Z</time>
      </trkpt>
      <trkpt lat="59.198173" lon="18.142764">
        <ele>29</ele>
        <time>2020-01-16T16:14:16Z</time>
      </trkpt>
      <trkpt lat="59.198249" lon="18.14282">
        <ele>29</ele>
        <time>2020-01-16T16:14:17Z</time>
      </trkpt>
      <trkpt lat="59.198322" lon="18.142873">
        <ele>29</ele>
        <time>2020-01-16T16:14:18Z</time>
      </trkpt>
      <trkpt lat="59.198395" lon="18.142923">
        <ele>28</ele>
        <time>2020-01-16T16:14:19Z</time>
      </trkpt>
      <trkpt lat="59.198466" lon="18.142966">
        <ele>28</ele>
        <time>2020-01-16T16:14:20Z</time>
      </trkpt>
      <trkpt lat="59.198537" lon="18.143002">
        <ele>0</ele>
        <time>2020-01-16T16:14:20Z</time>
      </trkpt>
      <trkpt lat="59.198609" lon="18.143026">
        <ele>28</ele>
        <time>2020-01-16T16:14:21Z</time>
      </trkpt>
      <trkpt lat="59.198681" lon="18.143041">
        <ele>28</ele>
        <time>2020-01-16T16:14:23Z</time>
      </trkpt>
      <trkpt lat="59.198752" lon="18.143049">
        <ele>0</ele>
        <time>2020-01-16T16:14:23Z</time>
      </trkpt>
      <trkpt lat="59.198823" lon="18.143051">
        <ele>28</ele>
        <time>2020-01-16T16:14:24Z</time>
      </trkpt>
      <trkpt lat="59.198894" lon="18.143047">
        <ele>28</ele>
        <time>2020-01-16T16:14:26Z</time>
      </trkpt>
      <trkpt lat="59.198964" lon="18.143041">
        <ele>0</ele>
        <time>2020-01-16T16:14:26Z</time>
      </trkpt>
      <trkpt lat="59.199032" lon="18.143038">
        <ele>27</ele>
        <time>2020-01-16T16:14:27Z</time>
      </trkpt>
      <trkpt lat="59.199099" lon="18.143042">
        <ele>27</ele>
        <time>2020-01-16T16:14:29Z</time>
      </trkpt>
      <trkpt lat="59.199165" lon="18.143048">
        <ele>27</ele>
        <time>2020-01-16T16:14:30Z</time>
      </trkpt>
      <trkpt lat="59.199231" lon="18.143053">
        <ele>27</ele>
        <time>2020-01-16T16:14:31Z</time>
      </trkpt>
      <trkpt lat="59.199297" lon="18.143058">
        <ele>27</ele>
        <time>2020-01-16T16:14:32Z</time>
      </trkpt>
      <trkpt lat="59.199363" lon="18.143056">
        <ele>27</ele>
        <time>2020-01-16T16:14:33Z</time>
      </trkpt>
      <trkpt lat="59.199429" lon="18.143043">
        <ele>27</ele>
        <time>2020-01-16T16:14:34Z</time>
      </trkpt>
      <trkpt lat="59.199493" lon="18.143011">
        <ele>0</ele>
        <time>2020-01-16T16:14:34Z</time>
      </trkpt>
      <trkpt lat="59.199553" lon="18.142956">
        <ele>27</ele>
        <time>2020-01-16T16:14:35Z</time>
      </trkpt>
      <trkpt lat="59.199608" lon="18.142885">
        <ele>27</ele>
        <time>2020-01-16T16:14:37Z</time>
      </trkpt>
      <trkpt lat="59.199656" lon="18.142801">
        <ele>27</ele>
        <time>2020-01-16T16:14:38Z</time>
      </trkpt>
      <trkpt lat="59.199696" lon="18.142709">
        <ele>27</ele>
        <time>2020-01-16T16:14:39Z</time>
      </trkpt>
      <trkpt lat="59.199732" lon="18.142616">
        <ele>27</ele>
        <time>2020-01-16T16:14:40Z</time>
      </trkpt>
      <trkpt lat="59.199772" lon="18.142525">
        <ele>27</ele>
        <time>2020-01-16T16:14:41Z</time>
      </trkpt>
      <trkpt lat="59.199808" lon="18.142431">
        <ele>0</ele>
        <time>2020-01-16T16:14:41Z</time>
      </trkpt>
      <trkpt lat="59.199844" lon="18.142349">
        <ele>27</ele>
        <time>2020-01-16T16:14:42Z</time>
      </trkpt>
      <trkpt lat="59.199877" lon="18.142273">
        <ele>27</ele>
        <time>2020-01-16T16:14:43Z</time>
      </trkpt>
      <trkpt lat="59.19991" lon="18.142207">
        <ele>27</ele>
        <time>2020-01-16T16:14:45Z</time>
      </trkpt>
      <trkpt lat="59.199944" lon="18.142149">
        <ele>27</ele>
        <time>2020-01-16T16:14:46Z</time>
      </trkpt>
      <trkpt lat="59.199982" lon="18.1421">
        <ele>27</ele>
        <time>2020-01-16T16:14:47Z</time>
      </trkpt>
      <trkpt lat="59.200021" lon="18.142056">
        <ele>27</ele>
        <time>2020-01-16T16:14:48Z</time>
      </trkpt>
      <trkpt lat="59.200058" lon="18.142011">
        <ele>27</ele>
        <time>2020-01-16T16:14:49Z</time>
      </trkpt>
      <trkpt lat="59.200093" lon="18.141967">
        <ele>28</ele>
        <time>2020-01-16T16:14:50Z</time>
      </trkpt>
      <trkpt lat="59.200127" lon="18.141927">
        <ele>28</ele>
        <time>2020-01-16T16:14:51Z</time>
      </trkpt>
      <trkpt lat="59.20016" lon="18.141889">
        <ele>28</ele>
        <time>2020-01-16T16:14:52Z</time>
      </trkpt>
      <trkpt lat="59.200192" lon="18.141853">
        <ele>28</ele>
        <time>2020-01-16T16:14:53Z</time>
      </trkpt>
      <trkpt lat="59.200224" lon="18.141817">
        <ele>0</ele>
        <time>2020-01-16T16:14:53Z</time>
      </trkpt>
      <trkpt lat="59.200257" lon="18.141781">
        <ele>28</ele>
        <time>2020-01-16T16:14:54Z</time>
      </trkpt>
      <trkpt lat="59.20029" lon="18.141747">
        <ele>28</ele>
        <time>2020-01-16T16:14:56Z</time>
      </trkpt>
      <trkpt lat="59.200323" lon="18.141712">
        <ele>28</ele>
        <time>2020-01-16T16:14:57Z</time>
      </trkpt>
      <trkpt lat="59.200356" lon="18.141678">
        <ele>28</ele>
        <time>2020-01-16T16:14:58Z</time>
      </trkpt>
      <trkpt lat="59.200389" lon="18.141643">
        <ele>28</ele>
        <time>2020-01-16T16:14:59Z</time>
      </trkpt>
      <trkpt lat="59.200421" lon="18.14161">
        <ele>28</ele>
        <time>2020-01-16T16:15:00Z</time>
      </trkpt>
      <trkpt lat="59.200454" lon="18.141577">
        <ele>29</ele>
        <time>2020-01-16T16:15:01Z</time>
      </trkpt>
      <trkpt lat="59.200486" lon="18.141543">
        <ele>28</ele>
        <time>2020-01-16T16:15:01Z</time>
      </trkpt>
      <trkpt lat="59.200518" lon="18.141509">
        <ele>29</ele>
        <time>2020-01-16T16:15:02Z</time>
      </trkpt>
      <trkpt lat="59.20055" lon="18.141476">
        <ele>29</ele>
        <time>2020-01-16T16:15:04Z</time>
      </trkpt>
      <trkpt lat="59.200582" lon="18.141444">
        <ele>29</ele>
        <time>2020-01-16T16:15:05Z</time>
      </trkpt>
      <trkpt lat="59.200615" lon="18.141415">
        <ele>29</ele>
        <time>2020-01-16T16:15:06Z</time>
      </trkpt>
      <trkpt lat="59.200649" lon="18.141391">
        <ele>29</ele>
        <time>2020-01-16T16:15:07Z</time>
      </trkpt>
      <trkpt lat="59.200684" lon="18.141371">
        <ele>0</ele>
        <time>2020-01-16T16:15:07Z</time>
      </trkpt>
      <trkpt lat="59.200719" lon="18.141357">
        <ele>29</ele>
        <time>2020-01-16T16:15:08Z</time>
      </trkpt>
      <trkpt lat="59.200755" lon="18.141353">
        <ele>30</ele>
        <time>2020-01-16T16:15:10Z</time>
      </trkpt>
      <trkpt lat="59.200792" lon="18.141359">
        <ele>30</ele>
        <time>2020-01-16T16:15:11Z</time>
      </trkpt>
      <trkpt lat="59.200827" lon="18.141374">
        <ele>30</ele>
        <time>2020-01-16T16:15:12Z</time>
      </trkpt>
      <trkpt lat="59.200862" lon="18.141396">
        <ele>30</ele>
        <time>2020-01-16T16:15:13Z</time>
      </trkpt>
      <trkpt lat="59.200898" lon="18.14142">
        <ele>30</ele>
        <time>2020-01-16T16:15:14Z</time>
      </trkpt>
      <trkpt lat="59.200933" lon="18.141448">
        <ele>30</ele>
        <time>2020-01-16T16:15:15Z</time>
      </trkpt>
      <trkpt lat="59.200967" lon="18.141481">
        <ele>31</ele>
        <time>2020-01-16T16:15:16Z</time>
      </trkpt>
      <trkpt lat="59.201" lon="18.141509">
        <ele>31</ele>
        <time>2020-01-16T16:15:17Z</time>
      </trkpt>
      <trkpt lat="59.201032" lon="18.141538">
        <ele>31</ele>
        <time>2020-01-16T16:15:18Z</time>
      </trkpt>
      <trkpt lat="59.201065" lon="18.141573">
        <ele>31</ele>
        <time>2020-01-16T16:15:19Z</time>
      </trkpt>
      <trkpt lat="59.201097" lon="18.141607">
        <ele>32</ele>
        <time>2020-01-16T16:15:20Z</time>
      </trkpt>
      <trkpt lat="59.201131" lon="18.141639">
        <ele>0</ele>
        <time>2020-01-16T16:15:20Z</time>
      </trkpt>
      <trkpt lat="59.201167" lon="18.141669">
        <ele>32</ele>
        <time>2020-01-16T16:15:21Z</time>
      </trkpt>
      <trkpt lat="59.201202" lon="18.141699">
        <ele>32</ele>
        <time>2020-01-16T16:15:22Z</time>
      </trkpt>
      <trkpt lat="59.201236" lon="18.141726">
        <ele>32</ele>
        <time>2020-01-16T16:15:24Z</time>
      </trkpt>
      <trkpt lat="59.20127" lon="18.141756">
        <ele>32</ele>
        <time>2020-01-16T16:15:25Z</time>
      </trkpt>
      <trkpt lat="59.201304" lon="18.141788">
        <ele>32</ele>
        <time>2020-01-16T16:15:26Z</time>
      </trkpt>
      <trkpt lat="59.201338" lon="18.141817">
        <ele>32</ele>
        <time>2020-01-16T16:15:27Z</time>
      </trkpt>
      <trkpt lat="59.201372" lon="18.141842">
        <ele>32</ele>
        <time>2020-01-16T16:15:28Z</time>
      </trkpt>
      <trkpt lat="59.201407" lon="18.141865">
        <ele>33</ele>
        <time>2020-01-16T16:15:29Z</time>
      </trkpt>
      <trkpt lat="59.201443" lon="18.141888">
        <ele>33</ele>
        <time>2020-01-16T16:15:30Z</time>
      </trkpt>
      <trkpt lat="59.201479" lon="18.141911">
        <ele>33</ele>
        <time>2020-01-16T16:15:31Z</time>
      </trkpt>
      <trkpt lat="59.201516" lon="18.141933">
        <ele>33</ele>
        <time>2020-01-16T16:15:32Z</time>
      </trkpt>
      <trkpt lat="59.201554" lon="18.141954">
        <ele>33</ele>
        <time>2020-01-16T16:15:33Z</time>
      </trkpt>
      <trkpt lat="59.201592" lon="18.141975">
        <ele>33</ele>
        <time>2020-01-16T16:15:34Z</time>
      </trkpt>
      <trkpt lat="59.201631" lon="18.141989">
        <ele>33</ele>
        <time>2020-01-16T16:15:35Z</time>
      </trkpt>
      <trkpt lat="59.201671" lon="18.142003">
        <ele>0</ele>
        <time>2020-01-16T16:15:35Z</time>
      </trkpt>
      <trkpt lat="59.201711" lon="18.142023">
        <ele>33</ele>
        <time>2020-01-16T16:15:36Z</time>
      </trkpt>
      <trkpt lat="59.201749" lon="18.142044">
        <ele>34</ele>
        <time>2020-01-16T16:15:38Z</time>
      </trkpt>
      <trkpt lat="59.201788" lon="18.142063">
        <ele>34</ele>
        <time>2020-01-16T16:15:39Z</time>
      </trkpt>
      <trkpt lat="59.201829" lon="18.142081">
        <ele>0</ele>
        <time>2020-01-16T16:15:39Z</time>
      </trkpt>
      <trkpt lat="59.201868" lon="18.1421">
        <ele>34</ele>
        <time>2020-01-16T16:15:40Z</time>
      </trkpt>
      <trkpt lat="59.201908" lon="18.142117">
        <ele>34</ele>
        <time>2020-01-16T16:15:42Z</time>
      </trkpt>
      <trkpt lat="59.201948" lon="18.142134">
        <ele>34</ele>
        <time>2020-01-16T16:15:43Z</time>
      </trkpt>
      <trkpt lat="59.201988" lon="18.142153">
        <ele>35</ele>
        <time>2020-01-16T16:15:44Z</time>
      </trkpt>
      <trkpt lat="59.202029" lon="18.142172">
        <ele>0</ele>
        <time>2020-01-16T16:15:44Z</time>
      </trkpt>
      <trkpt lat="59.20207" lon="18.142189">
        <ele>35</ele>
        <time>2020-01-16T16:15:45Z</time>
      </trkpt>
      <trkpt lat="59.202111" lon="18.142207">
        <ele>35</ele>
        <time>2020-01-16T16:15:47Z</time>
      </trkpt>
      <trkpt lat="59.202152" lon="18.142224">
        <ele>0</ele>
        <time>2020-01-16T16:15:47Z</time>
      </trkpt>
      <trkpt lat="59.202193" lon="18.142241">
        <ele>35</ele>
        <time>2020-01-16T16:15:48Z</time>
      </trkpt>
      <trkpt lat="59.202233" lon="18.142256">
        <ele>35</ele>
        <time>2020-01-16T16:15:50Z</time>
      </trkpt>
      <trkpt lat="59.202274" lon="18.142268">
        <ele>35</ele>
        <time>2020-01-16T16:15:51Z</time>
      </trkpt>
      <trkpt lat="59.202314" lon="18.14228">
        <ele>36</ele>
        <time>2020-01-16T16:15:52Z</time>
      </trkpt>
      <trkpt lat="59.202354" lon="18.142289">
        <ele>36</ele>
        <time>2020-01-16T16:15:53Z</time>
      </trkpt>
      <trkpt lat="59.202394" lon="18.142292">
        <ele>36</ele>
        <time>2020-01-16T16:15:54Z</time>
      </trkpt>
      <trkpt lat="59.202435" lon="18.142292">
        <ele>36</ele>
        <time>2020-01-16T16:15:55Z</time>
      </trkpt>
      <trkpt lat="59.202476" lon="18.142287">
        <ele>36</ele>
        <time>2020-01-16T16:15:56Z</time>
      </trkpt>
      <trkpt lat="59.202517" lon="18.142283">
        <ele>36</ele>
        <time>2020-01-16T16:15:57Z</time>
      </trkpt>
      <trkpt lat="59.202558" lon="18.142278">
        <ele>36</ele>
        <time>2020-01-16T16:15:58Z</time>
      </trkpt>
      <trkpt lat="59.202597" lon="18.142269">
        <ele>0</ele>
        <time>2020-01-16T16:15:58Z</time>
      </trkpt>
      <trkpt lat="59.202635" lon="18.14226">
        <ele>36</ele>
        <time>2020-01-16T16:15:59Z</time>
      </trkpt>
      <trkpt lat="59.202672" lon="18.142254">
        <ele>37</ele>
        <time>2020-01-16T16:16:00Z</time>
      </trkpt>
      <trkpt lat="59.202712" lon="18.142248">
        <ele>37</ele>
        <time>2020-01-16T16:16:02Z</time>
      </trkpt>
      <trkpt lat="59.202753" lon="18.142245">
        <ele>37</ele>
        <time>2020-01-16T16:16:03Z</time>
      </trkpt>
      <trkpt lat="59.202794" lon="18.142249">
        <ele>37</ele>
        <time>2020-01-16T16:16:04Z</time>
      </trkpt>
      <trkpt lat="59.202835" lon="18.142253">
        <ele>37</ele>
        <time>2020-01-16T16:16:05Z</time>
      </trkpt>
      <trkpt lat="59.202878" lon="18.142253">
        <ele>37</ele>
        <time>2020-01-16T16:16:06Z</time>
      </trkpt>
      <trkpt lat="59.202922" lon="18.142256">
        <ele>37</ele>
        <time>2020-01-16T16:16:07Z</time>
      </trkpt>
      <trkpt lat="59.202966" lon="18.14226">
        <ele>37</ele>
        <time>2020-01-16T16:16:08Z</time>
      </trkpt>
      <trkpt lat="59.203012" lon="18.142265">
        <ele>37</ele>
        <time>2020-01-16T16:16:09Z</time>
      </trkpt>
      <trkpt lat="59.203059" lon="18.142272">
        <ele>38</ele>
        <time>2020-01-16T16:16:10Z</time>
      </trkpt>
      <trkpt lat="59.203108" lon="18.14228">
        <ele>38</ele>
        <time>2020-01-16T16:16:11Z</time>
      </trkpt>
      <trkpt lat="59.203156" lon="18.142288">
        <ele>0</ele>
        <time>2020-01-16T16:16:11Z</time>
      </trkpt>
      <trkpt lat="59.203206" lon="18.142294">
        <ele>38</ele>
        <time>2020-01-16T16:16:12Z</time>
      </trkpt>
      <trkpt lat="59.203256" lon="18.142299">
        <ele>38</ele>
        <time>2020-01-16T16:16:14Z</time>
      </trkpt>
      <trkpt lat="59.203306" lon="18.142306">
        <ele>38</ele>
        <time>2020-01-16T16:16:15Z</time>
      </trkpt>
      <trkpt lat="59.203356" lon="18.14231">
        <ele>38</ele>
        <time>2020-01-16T16:16:16Z</time>
      </trkpt>
      <trkpt lat="59.203407" lon="18.142312">
        <ele>38</ele>
        <time>2020-01-16T16:16:17Z</time>
      </trkpt>
      <trkpt lat="59.203458" lon="18.142312">
        <ele>0</ele>
        <time>2020-01-16T16:16:17Z</time>
      </trkpt>
      <trkpt lat="59.203512" lon="18.142313">
        <ele>38</ele>
        <time>2020-01-16T16:16:18Z</time>
      </trkpt>
      <trkpt lat="59.203564" lon="18.142313">
        <ele>38</ele>
        <time>2020-01-16T16:16:20Z</time>
      </trkpt>
      <trkpt lat="59.203617" lon="18.14231">
        <ele>0</ele>
        <time>2020-01-16T16:16:20Z</time>
      </trkpt>
      <trkpt lat="59.203671" lon="18.142304">
        <ele>38</ele>
        <time>2020-01-16T16:16:21Z</time>
      </trkpt>
      <trkpt lat="59.203724" lon="18.142293">
        <ele>38</ele>
        <time>2020-01-16T16:16:23Z</time>
      </trkpt>
      <trkpt lat="59.203778" lon="18.142279">
        <ele>38</ele>
        <time>2020-01-16T16:16:24Z</time>
      </trkpt>
      <trkpt lat="59.20383" lon="18.142263">
        <ele>38</ele>
        <time>2020-01-16T16:16:25Z</time>
      </trkpt>
      <trkpt lat="59.203883" lon="18.142245">
        <ele>38</ele>
        <time>2020-01-16T16:16:26Z</time>
      </trkpt>
      <trkpt lat="59.203936" lon="18.142227">
        <ele>38</ele>
        <time>2020-01-16T16:16:27Z</time>
      </trkpt>
      <trkpt lat="59.203989" lon="18.142208">
        <ele>38</ele>
        <time>2020-01-16T16:16:28Z</time>
      </trkpt>
      <trkpt lat="59.204042" lon="18.142189">
        <ele>38</ele>
        <time>2020-01-16T16:16:29Z</time>
      </trkpt>
      <trkpt lat="59.204096" lon="18.142168">
        <ele>0</ele>
        <time>2020-01-16T16:16:29Z</time>
      </trkpt>
      <trkpt lat="59.20415" lon="18.142145">
        <ele>38</ele>
        <time>2020-01-16T16:16:30Z</time>
      </trkpt>
      <trkpt lat="59.204203" lon="18.142123">
        <ele>38</ele>
        <time>2020-01-16T16:16:32Z</time>
      </trkpt>
      <trkpt lat="59.204255" lon="18.142102">
        <ele>38</ele>
        <time>2020-01-16T16:16:33Z</time>
      </trkpt>
      <trkpt lat="59.204306" lon="18.142083">
        <ele>38</ele>
        <time>2020-01-16T16:16:34Z</time>
      </trkpt>
      <trkpt lat="59.204356" lon="18.142062">
        <ele>39</ele>
        <time>2020-01-16T16:16:35Z</time>
      </trkpt>
      <trkpt lat="59.204406" lon="18.142041">
        <ele>39</ele>
        <time>2020-01-16T16:16:36Z</time>
      </trkpt>
      <trkpt lat="59.204455" lon="18.142018">
        <ele>0</ele>
        <time>2020-01-16T16:16:36Z</time>
      </trkpt>
      <trkpt lat="59.204503" lon="18.141994">
        <ele>39</ele>
        <time>2020-01-16T16:16:37Z</time>
      </trkpt>
      <trkpt lat="59.20455" lon="18.141972">
        <ele>39</ele>
        <time>2020-01-16T16:16:39Z</time>
      </trkpt>
      <trkpt lat="59.204597" lon="18.14195">
        <ele>0</ele>
        <time>2020-01-16T16:16:39Z</time>
      </trkpt>
      <trkpt lat="59.204643" lon="18.141927">
        <ele>39</ele>
        <time>2020-01-16T16:16:40Z</time>
      </trkpt>
      <trkpt lat="59.204687" lon="18.141902">
        <ele>40</ele>
        <time>2020-01-16T16:16:42Z</time>
      </trkpt>
      <trkpt lat="59.20473" lon="18.141877">
        <ele>40</ele>
        <time>2020-01-16T16:16:43Z</time>
      </trkpt>
      <trkpt lat="59.204774" lon="18.141853">
        <ele>40</ele>
        <time>2020-01-16T16:16:44Z</time>
      </trkpt>
      <trkpt lat="59.204816" lon="18.141828">
        <ele>40</ele>
        <time>2020-01-16T16:16:45Z</time>
      </trkpt>
      <trkpt lat="59.204857" lon="18.141804">
        <ele>40</ele>
        <time>2020-01-16T16:16:46Z</time>
      </trkpt>
      <trkpt lat="59.204898" lon="18.141778">
        <ele>40</ele>
        <time>2020-01-16T16:16:47Z</time>
      </trkpt>
      <trkpt lat="59.204938" lon="18.141752">
        <ele>41</ele>
        <time>2020-01-16T16:16:48Z</time>
      </trkpt>
      <trkpt lat="59.20498" lon="18.141727">
        <ele>41</ele>
        <time>2020-01-16T16:16:49Z</time>
      </trkpt>
      <trkpt lat="59.205022" lon="18.141698">
        <ele>41</ele>
        <time>2020-01-16T16:16:50Z</time>
      </trkpt>
      <trkpt lat="59.205063" lon="18.141667">
        <ele>0</ele>
        <time>2020-01-16T16:16:50Z</time>
      </trkpt>
      <trkpt lat="59.205105" lon="18.141637">
        <ele>41</ele>
        <time>2020-01-16T16:16:51Z</time>
      </trkpt>
      <trkpt lat="59.205147" lon="18.141607">
        <ele>41</ele>
        <time>2020-01-16T16:16:53Z</time>
      </trkpt>
      <trkpt lat="59.20519" lon="18.141575">
        <ele>41</ele>
        <time>2020-01-16T16:16:54Z</time>
      </trkpt>
      <trkpt lat="59.205232" lon="18.141543">
        <ele>42</ele>
        <time>2020-01-16T16:16:55Z</time>
      </trkpt>
      <trkpt lat="59.205271" lon="18.14151">
        <ele>0</ele>
        <time>2020-01-16T16:16:55Z</time>
      </trkpt>
      <trkpt lat="59.205308" lon="18.14148">
        <ele>42</ele>
        <time>2020-01-16T16:16:56Z</time>
      </trkpt>
      <trkpt lat="59.205345" lon="18.14145">
        <ele>43</ele>
        <time>2020-01-16T16:16:58Z</time>
      </trkpt>
      <trkpt lat="59.205378" lon="18.141421">
        <ele>43</ele>
        <time>2020-01-16T16:16:59Z</time>
      </trkpt>
      <trkpt lat="59.205412" lon="18.141392">
        <ele>43</ele>
        <time>2020-01-16T16:17:00Z</time>
      </trkpt>
      <trkpt lat="59.205446" lon="18.141362">
        <ele>44</ele>
        <time>2020-01-16T16:17:01Z</time>
      </trkpt>
      <trkpt lat="59.205481" lon="18.141332">
        <ele>44</ele>
        <time>2020-01-16T16:17:02Z</time>
      </trkpt>
      <trkpt lat="59.205519" lon="18.141301">
        <ele>0</ele>
        <time>2020-01-16T16:17:02Z</time>
      </trkpt>
      <trkpt lat="59.20556" lon="18.141267">
        <ele>44</ele>
        <time>2020-01-16T16:17:03Z</time>
      </trkpt>
      <trkpt lat="59.2056" lon="18.141231">
        <ele>44</ele>
        <time>2020-01-16T16:17:05Z</time>
      </trkpt>
      <trkpt lat="59.205642" lon="18.141192">
        <ele>44</ele>
        <time>2020-01-16T16:17:06Z</time>
      </trkpt>
      <trkpt lat="59.205686" lon="18.141153">
        <ele>44</ele>
        <time>2020-01-16T16:17:07Z</time>
      </trkpt>
      <trkpt lat="59.205732" lon="18.141113">
        <ele>44</ele>
        <time>2020-01-16T16:17:08Z</time>
      </trkpt>
      <trkpt lat="59.205776" lon="18.141076">
        <ele>44</ele>
        <time>2020-01-16T16:17:09Z</time>
      </trkpt>
      <trkpt lat="59.205822" lon="18.141037">
        <ele>44</ele>
        <time>2020-01-16T16:17:10Z</time>
      </trkpt>
      <trkpt lat="59.205867" lon="18.140999">
        <ele>44</ele>
        <time>2020-01-16T16:17:11Z</time>
      </trkpt>
      <trkpt lat="59.205913" lon="18.140964">
        <ele>44</ele>
        <time>2020-01-16T16:17:12Z</time>
      </trkpt>
      <trkpt lat="59.205954" lon="18.140933">
        <ele>44</ele>
        <time>2020-01-16T16:17:13Z</time>
      </trkpt>
      <trkpt lat="59.205989" lon="18.140909">
        <ele>44</ele>
        <time>2020-01-16T16:17:14Z</time>
      </trkpt>
      <trkpt lat="59.206018" lon="18.140894">
        <ele>0</ele>
        <time>2020-01-16T16:17:14Z</time>
      </trkpt>
      <trkpt lat="59.206043" lon="18.140884">
        <ele>44</ele>
        <time>2020-01-16T16:17:15Z</time>
      </trkpt>
      <trkpt lat="59.206087" lon="18.140866">
        <ele>44</ele>
        <time>2020-01-16T16:17:18Z</time>
      </trkpt>
      <trkpt lat="59.206109" lon="18.140856">
        <ele>44</ele>
        <time>2020-01-16T16:17:19Z</time>
      </trkpt>
      <trkpt lat="59.206132" lon="18.140847">
        <ele>44</ele>
        <time>2020-01-16T16:17:20Z</time>
      </trkpt>
      <trkpt lat="59.206157" lon="18.140839">
        <ele>44</ele>
        <time>2020-01-16T16:17:21Z</time>
      </trkpt>
      <trkpt lat="59.206181" lon="18.140822">
        <ele>44</ele>
        <time>2020-01-16T16:17:22Z</time>
      </trkpt>
      <trkpt lat="59.206206" lon="18.140792">
        <ele>44</ele>
        <time>2020-01-16T16:17:23Z</time>
      </trkpt>
      <trkpt lat="59.20623" lon="18.140752">
        <ele>44</ele>
        <time>2020-01-16T16:17:24Z</time>
      </trkpt>
      <trkpt lat="59.206249" lon="18.140703">
        <ele>44</ele>
        <time>2020-01-16T16:17:25Z</time>
      </trkpt>
      <trkpt lat="59.206265" lon="18.140646">
        <ele>44</ele>
        <time>2020-01-16T16:17:26Z</time>
      </trkpt>
      <trkpt lat="59.206281" lon="18.140584">
        <ele>44</ele>
        <time>2020-01-16T16:17:27Z</time>
      </trkpt>
      <trkpt lat="59.206301" lon="18.140523">
        <ele>45</ele>
        <time>2020-01-16T16:17:28Z</time>
      </trkpt>
      <trkpt lat="59.206327" lon="18.14047">
        <ele>45</ele>
        <time>2020-01-16T16:17:29Z</time>
      </trkpt>
      <trkpt lat="59.206359" lon="18.140428">
        <ele>45</ele>
        <time>2020-01-16T16:17:30Z</time>
      </trkpt>
      <trkpt lat="59.206397" lon="18.140398">
        <ele>0</ele>
        <time>2020-01-16T16:17:30Z</time>
      </trkpt>
      <trkpt lat="59.206439" lon="18.140375">
        <ele>45</ele>
        <time>2020-01-16T16:17:31Z</time>
      </trkpt>
      <trkpt lat="59.206482" lon="18.140358">
        <ele>45</ele>
        <time>2020-01-16T16:17:33Z</time>
      </trkpt>
      <trkpt lat="59.206525" lon="18.140347">
        <ele>0</ele>
        <time>2020-01-16T16:17:33Z</time>
      </trkpt>
      <trkpt lat="59.206568" lon="18.14034">
        <ele>45</ele>
        <time>2020-01-16T16:17:34Z</time>
      </trkpt>
      <trkpt lat="59.20661" lon="18.140337">
        <ele>45</ele>
        <time>2020-01-16T16:17:36Z</time>
      </trkpt>
      <trkpt lat="59.206652" lon="18.140339">
        <ele>45</ele>
        <time>2020-01-16T16:17:37Z</time>
      </trkpt>
      <trkpt lat="59.206695" lon="18.140343">
        <ele>46</ele>
        <time>2020-01-16T16:17:38Z</time>
      </trkpt>
      <trkpt lat="59.206739" lon="18.140349">
        <ele>46</ele>
        <time>2020-01-16T16:17:39Z</time>
      </trkpt>
      <trkpt lat="59.206784" lon="18.140357">
        <ele>46</ele>
        <time>2020-01-16T16:17:40Z</time>
      </trkpt>
      <trkpt lat="59.206829" lon="18.140366">
        <ele>46</ele>
        <time>2020-01-16T16:17:41Z</time>
      </trkpt>
      <trkpt lat="59.206874" lon="18.140375">
        <ele>46</ele>
        <time>2020-01-16T16:17:42Z</time>
      </trkpt>
      <trkpt lat="59.206918" lon="18.140387">
        <ele>0</ele>
        <time>2020-01-16T16:17:42Z</time>
      </trkpt>
      <trkpt lat="59.206962" lon="18.1404">
        <ele>46</ele>
        <time>2020-01-16T16:17:43Z</time>
      </trkpt>
      <trkpt lat="59.207006" lon="18.140413">
        <ele>46</ele>
        <time>2020-01-16T16:17:45Z</time>
      </trkpt>
      <trkpt lat="59.207049" lon="18.140425">
        <ele>46</ele>
        <time>2020-01-16T16:17:46Z</time>
      </trkpt>
      <trkpt lat="59.207093" lon="18.14044">
        <ele>47</ele>
        <time>2020-01-16T16:17:47Z</time>
      </trkpt>
      <trkpt lat="59.207136" lon="18.140457">
        <ele>47</ele>
        <time>2020-01-16T16:17:48Z</time>
      </trkpt>
      <trkpt lat="59.207179" lon="18.140472">
        <ele>47</ele>
        <time>2020-01-16T16:17:49Z</time>
      </trkpt>
      <trkpt lat="59.207222" lon="18.14049">
        <ele>47</ele>
        <time>2020-01-16T16:17:50Z</time>
      </trkpt>
      <trkpt lat="59.207265" lon="18.140514">
        <ele>47</ele>
        <time>2020-01-16T16:17:51Z</time>
      </trkpt>
      <trkpt lat="59.207308" lon="18.14054">
        <ele>47</ele>
        <time>2020-01-16T16:17:52Z</time>
      </trkpt>
      <trkpt lat="59.20735" lon="18.140568">
        <ele>0</ele>
        <time>2020-01-16T16:17:52Z</time>
      </trkpt>
      <trkpt lat="59.207393" lon="18.140595">
        <ele>47</ele>
        <time>2020-01-16T16:17:53Z</time>
      </trkpt>
      <trkpt lat="59.207437" lon="18.140622">
        <ele>47</ele>
        <time>2020-01-16T16:17:55Z</time>
      </trkpt>
      <trkpt lat="59.20748" lon="18.140649">
        <ele>47</ele>
        <time>2020-01-16T16:17:56Z</time>
      </trkpt>
      <trkpt lat="59.207522" lon="18.140678">
        <ele>47</ele>
        <time>2020-01-16T16:17:57Z</time>
      </trkpt>
      <trkpt lat="59.207564" lon="18.140706">
        <ele>48</ele>
        <time>2020-01-16T16:17:58Z</time>
      </trkpt>
      <trkpt lat="59.207605" lon="18.140736">
        <ele>48</ele>
        <time>2020-01-16T16:17:59Z</time>
      </trkpt>
      <trkpt lat="59.207644" lon="18.14077">
        <ele>48</ele>
        <time>2020-01-16T16:18:00Z</time>
      </trkpt>
      <trkpt lat="59.207682" lon="18.140803">
        <ele>48</ele>
        <time>2020-01-16T16:18:01Z</time>
      </trkpt>
      <trkpt lat="59.207719" lon="18.140839">
        <ele>48</ele>
        <time>2020-01-16T16:18:02Z</time>
      </trkpt>
      <trkpt lat="59.207757" lon="18.140878">
        <ele>48</ele>
        <time>2020-01-16T16:18:03Z</time>
      </trkpt>
      <trkpt lat="59.207794" lon="18.140917">
        <ele>49</ele>
        <time>2020-01-16T16:18:04Z</time>
      </trkpt>
      <trkpt lat="59.207832" lon="18.140954">
        <ele>0</ele>
        <time>2020-01-16T16:18:04Z</time>
      </trkpt>
      <trkpt lat="59.20787" lon="18.14099">
        <ele>49</ele>
        <time>2020-01-16T16:18:05Z</time>
      </trkpt>
      <trkpt lat="59.207908" lon="18.141027">
        <ele>49</ele>
        <time>2020-01-16T16:18:07Z</time>
      </trkpt>
      <trkpt lat="59.207944" lon="18.141066">
        <ele>50</ele>
        <time>2020-01-16T16:18:08Z</time>
      </trkpt>
      <trkpt lat="59.207979" lon="18.141109">
        <ele>50</ele>
        <time>2020-01-16T16:18:09Z</time>
      </trkpt>
      <trkpt lat="59.208013" lon="18.141154">
        <ele>50</ele>
        <time>2020-01-16T16:18:10Z</time>
      </trkpt>
      <trkpt lat="59.208047" lon="18.141198">
        <ele>50</ele>
        <time>2020-01-16T16:18:11Z</time>
      </trkpt>
      <trkpt lat="59.208082" lon="18.141245">
        <ele>0</ele>
        <time>2020-01-16T16:18:11Z</time>
      </trkpt>
      <trkpt lat="59.208117" lon="18.141291">
        <ele>50</ele>
        <time>2020-01-16T16:18:12Z</time>
      </trkpt>
      <trkpt lat="59.208149" lon="18.141342">
        <ele>51</ele>
        <time>2020-01-16T16:18:14Z</time>
      </trkpt>
      <trkpt lat="59.20818" lon="18.141395">
        <ele>51</ele>
        <time>2020-01-16T16:18:15Z</time>
      </trkpt>
      <trkpt lat="59.208214" lon="18.141447">
        <ele>51</ele>
        <time>2020-01-16T16:18:16Z</time>
      </trkpt>
      <trkpt lat="59.20825" lon="18.141499">
        <ele>0</ele>
        <time>2020-01-16T16:18:16Z</time>
      </trkpt>
      <trkpt lat="59.208286" lon="18.141553">
        <ele>51</ele>
        <time>2020-01-16T16:18:17Z</time>
      </trkpt>
      <trkpt lat="59.20832" lon="18.141609">
        <ele>52</ele>
        <time>2020-01-16T16:18:19Z</time>
      </trkpt>
      <trkpt lat="59.208353" lon="18.141665">
        <ele>52</ele>
        <time>2020-01-16T16:18:20Z</time>
      </trkpt>
      <trkpt lat="59.208384" lon="18.141721">
        <ele>52</ele>
        <time>2020-01-16T16:18:21Z</time>
      </trkpt>
      <trkpt lat="59.208414" lon="18.141778">
        <ele>52</ele>
        <time>2020-01-16T16:18:22Z</time>
      </trkpt>
      <trkpt lat="59.208439" lon="18.141832">
        <ele>52</ele>
        <time>2020-01-16T16:18:23Z</time>
      </trkpt>
      <trkpt lat="59.208465" lon="18.14189">
        <ele>52</ele>
        <time>2020-01-16T16:18:24Z</time>
      </trkpt>
      <trkpt lat="59.20849" lon="18.141945">
        <ele>52</ele>
        <time>2020-01-16T16:18:25Z</time>
      </trkpt>
      <trkpt lat="59.208514" lon="18.142">
        <ele>52</ele>
        <time>2020-01-16T16:18:26Z</time>
      </trkpt>
      <trkpt lat="59.208543" lon="18.142062">
        <ele>53</ele>
        <time>2020-01-16T16:18:27Z</time>
      </trkpt>
      <trkpt lat="59.208572" lon="18.142128">
        <ele>0</ele>
        <time>2020-01-16T16:18:27Z</time>
      </trkpt>
      <trkpt lat="59.208606" lon="18.142196">
        <ele>53</ele>
        <time>2020-01-16T16:18:28Z</time>
      </trkpt>
      <trkpt lat="59.208636" lon="18.142261">
        <ele>53</ele>
        <time>2020-01-16T16:18:30Z</time>
      </trkpt>
      <trkpt lat="59.208668" lon="18.142328">
        <ele>0</ele>
        <time>2020-01-16T16:18:30Z</time>
      </trkpt>
      <trkpt lat="59.208697" lon="18.142396">
        <ele>53</ele>
        <time>2020-01-16T16:18:31Z</time>
      </trkpt>
      <trkpt lat="59.208728" lon="18.142465">
        <ele>53</ele>
        <time>2020-01-16T16:18:33Z</time>
      </trkpt>
      <trkpt lat="59.208757" lon="18.142535">
        <ele>53</ele>
        <time>2020-01-16T16:18:34Z</time>
      </trkpt>
      <trkpt lat="59.208786" lon="18.142605">
        <ele>54</ele>
        <time>2020-01-16T16:18:35Z</time>
      </trkpt>
      <trkpt lat="59.208814" lon="18.142677">
        <ele>54</ele>
        <time>2020-01-16T16:18:36Z</time>
      </trkpt>
      <trkpt lat="59.208842" lon="18.142751">
        <ele>54</ele>
        <time>2020-01-16T16:18:37Z</time>
      </trkpt>
      <trkpt lat="59.208872" lon="18.142825">
        <ele>54</ele>
        <time>2020-01-16T16:18:38Z</time>
      </trkpt>
      <trkpt lat="59.208903" lon="18.142899">
        <ele>0</ele>
        <time>2020-01-16T16:18:38Z</time>
      </trkpt>
      <trkpt lat="59.208934" lon="18.142973">
        <ele>54</ele>
        <time>2020-01-16T16:18:39Z</time>
      </trkpt>
      <trkpt lat="59.208967" lon="18.143047">
        <ele>54</ele>
        <time>2020-01-16T16:18:41Z</time>
      </trkpt>
      <trkpt lat="59.208999" lon="18.143122">
        <ele>54</ele>
        <time>2020-01-16T16:18:42Z</time>
      </trkpt>
      <trkpt lat="59.209032" lon="18.143198">
        <ele>54</ele>
        <time>2020-01-16T16:18:43Z</time>
      </trkpt>
      <trkpt lat="59.209066" lon="18.143275">
        <ele>54</ele>
        <time>2020-01-16T16:18:44Z</time>
      </trkpt>
      <trkpt lat="59.209099" lon="18.143354">
        <ele>54</ele>
        <time>2020-01-16T16:18:45Z</time>
      </trkpt>
      <trkpt lat="59.209131" lon="18.143434">
        <ele>54</ele>
        <time>2020-01-16T16:18:46Z</time>
      </trkpt>
      <trkpt lat="59.209165" lon="18.143515">
        <ele>54</ele>
        <time>2020-01-16T16:18:47Z</time>
      </trkpt>
      <trkpt lat="59.209199" lon="18.143595">
        <ele>54</ele>
        <time>2020-01-16T16:18:48Z</time>
      </trkpt>
      <trkpt lat="59.209234" lon="18.143678">
        <ele>0</ele>
        <time>2020-01-16T16:18:48Z</time>
      </trkpt>
      <trkpt lat="59.209269" lon="18.143762">
        <ele>54</ele>
        <time>2020-01-16T16:18:49Z</time>
      </trkpt>
      <trkpt lat="59.209303" lon="18.143846">
        <ele>54</ele>
        <time>2020-01-16T16:18:50Z</time>
      </trkpt>
      <trkpt lat="59.209337" lon="18.14393">
        <ele>54</ele>
        <time>2020-01-16T16:18:52Z</time>
      </trkpt>
      <trkpt lat="59.209373" lon="18.144014">
        <ele>54</ele>
        <time>2020-01-16T16:18:53Z</time>
      </trkpt>
      <trkpt lat="59.209407" lon="18.144099">
        <ele>55</ele>
        <time>2020-01-16T16:18:54Z</time>
      </trkpt>
      <trkpt lat="59.209441" lon="18.144187">
        <ele>55</ele>
        <time>2020-01-16T16:18:55Z</time>
      </trkpt>
      <trkpt lat="59.209469" lon="18.144278">
        <ele>54</ele>
        <time>2020-01-16T16:18:56Z</time>
      </trkpt>
      <trkpt lat="59.209492" lon="18.144373">
        <ele>54</ele>
        <time>2020-01-16T16:18:57Z</time>
      </trkpt>
      <trkpt lat="59.209509" lon="18.144471">
        <ele>54</ele>
        <time>2020-01-16T16:18:58Z</time>
      </trkpt>
      <trkpt lat="59.209517" lon="18.144568">
        <ele>0</ele>
        <time>2020-01-16T16:18:58Z</time>
      </trkpt>
      <trkpt lat="59.20952" lon="18.144653">
        <ele>54</ele>
        <time>2020-01-16T16:18:59Z</time>
      </trkpt>
      <trkpt lat="59.209526" lon="18.144727">
        <ele>54</ele>
        <time>2020-01-16T16:19:01Z</time>
      </trkpt>
      <trkpt lat="59.209546" lon="18.144781">
        <ele>54</ele>
        <time>2020-01-16T16:19:02Z</time>
      </trkpt>
      <trkpt lat="59.209571" lon="18.144826">
        <ele>54</ele>
        <time>2020-01-16T16:19:03Z</time>
      </trkpt>
      <trkpt lat="59.209599" lon="18.144878">
        <ele>54</ele>
        <time>2020-01-16T16:19:04Z</time>
      </trkpt>
      <trkpt lat="59.209633" lon="18.144924">
        <ele>54</ele>
        <time>2020-01-16T16:19:05Z</time>
      </trkpt>
      <trkpt lat="59.209674" lon="18.144956">
        <ele>54</ele>
        <time>2020-01-16T16:19:06Z</time>
      </trkpt>
      <trkpt lat="59.209716" lon="18.144991">
        <ele>54</ele>
        <time>2020-01-16T16:19:07Z</time>
      </trkpt>
      <trkpt lat="59.209758" lon="18.145038">
        <ele>54</ele>
        <time>2020-01-16T16:19:08Z</time>
      </trkpt>
      <trkpt lat="59.209802" lon="18.145093">
        <ele>0</ele>
        <time>2020-01-16T16:19:08Z</time>
      </trkpt>
      <trkpt lat="59.209844" lon="18.145161">
        <ele>54</ele>
        <time>2020-01-16T16:19:09Z</time>
      </trkpt>
      <trkpt lat="59.209882" lon="18.145242">
        <ele>54</ele>
        <time>2020-01-16T16:19:10Z</time>
      </trkpt>
      <trkpt lat="59.209918" lon="18.145331">
        <ele>54</ele>
        <time>2020-01-16T16:19:12Z</time>
      </trkpt>
      <trkpt lat="59.209952" lon="18.145427">
        <ele>54</ele>
        <time>2020-01-16T16:19:13Z</time>
      </trkpt>
      <trkpt lat="59.209986" lon="18.145527">
        <ele>53</ele>
        <time>2020-01-16T16:19:14Z</time>
      </trkpt>
      <trkpt lat="59.21002" lon="18.145627">
        <ele>53</ele>
        <time>2020-01-16T16:19:15Z</time>
      </trkpt>
      <trkpt lat="59.210059" lon="18.145723">
        <ele>53</ele>
        <time>2020-01-16T16:19:16Z</time>
      </trkpt>
      <trkpt lat="59.210104" lon="18.14581">
        <ele>53</ele>
        <time>2020-01-16T16:19:17Z</time>
      </trkpt>
      <trkpt lat="59.210156" lon="18.145883">
        <ele>0</ele>
        <time>2020-01-16T16:19:17Z</time>
      </trkpt>
      <trkpt lat="59.210216" lon="18.145936">
        <ele>53</ele>
        <time>2020-01-16T16:19:18Z</time>
      </trkpt>
      <trkpt lat="59.210282" lon="18.145982">
        <ele>53</ele>
        <time>2020-01-16T16:19:20Z</time>
      </trkpt>
      <trkpt lat="59.210348" lon="18.146038">
        <ele>52</ele>
        <time>2020-01-16T16:19:21Z</time>
      </trkpt>
      <trkpt lat="59.210413" lon="18.146108">
        <ele>52</ele>
        <time>2020-01-16T16:19:22Z</time>
      </trkpt>
      <trkpt lat="59.210482" lon="18.146185">
        <ele>52</ele>
        <time>2020-01-16T16:19:23Z</time>
      </trkpt>
      <trkpt lat="59.210552" lon="18.146266">
        <ele>0</ele>
        <time>2020-01-16T16:19:23Z</time>
      </trkpt>
      <trkpt lat="59.210625" lon="18.14635">
        <ele>52</ele>
        <time>2020-01-16T16:19:24Z</time>
      </trkpt>
      <trkpt lat="59.2107" lon="18.146433">
        <ele>52</ele>
        <time>2020-01-16T16:19:26Z</time>
      </trkpt>
      <trkpt lat="59.210777" lon="18.146513">
        <ele>51</ele>
        <time>2020-01-16T16:19:27Z</time>
      </trkpt>
      <trkpt lat="59.210857" lon="18.146589">
        <ele>0</ele>
        <time>2020-01-16T16:19:27Z</time>
      </trkpt>
      <trkpt lat="59.210937" lon="18.146664">
        <ele>51</ele>
        <time>2020-01-16T16:19:28Z</time>
      </trkpt>
      <trkpt lat="59.21102" lon="18.14674">
        <ele>51</ele>
        <time>2020-01-16T16:19:29Z</time>
      </trkpt>
      <trkpt lat="59.211105" lon="18.146812">
        <ele>51</ele>
        <time>2020-01-16T16:19:31Z</time>
      </trkpt>
      <trkpt lat="59.211192" lon="18.146878">
        <ele>50</ele>
        <time>2020-01-16T16:19:32Z</time>
      </trkpt>
      <trkpt lat="59.211279" lon="18.146938">
        <ele>50</ele>
        <time>2020-01-16T16:19:33Z</time>
      </trkpt>
      <trkpt lat="59.211368" lon="18.146994">
        <ele>50</ele>
        <time>2020-01-16T16:19:34Z</time>
      </trkpt>
      <trkpt lat="59.211457" lon="18.147047">
        <ele>50</ele>
        <time>2020-01-16T16:19:35Z</time>
      </trkpt>
      <trkpt lat="59.211549" lon="18.147096">
        <ele>0</ele>
        <time>2020-01-16T16:19:35Z</time>
      </trkpt>
      <trkpt lat="59.211639" lon="18.147141">
        <ele>50</ele>
        <time>2020-01-16T16:19:36Z</time>
      </trkpt>
      <trkpt lat="59.21173" lon="18.147179">
        <ele>50</ele>
        <time>2020-01-16T16:19:38Z</time>
      </trkpt>
      <trkpt lat="59.211829" lon="18.147199">
        <ele>50</ele>
        <time>2020-01-16T16:19:39Z</time>
      </trkpt>
      <trkpt lat="59.211934" lon="18.147204">
        <ele>0</ele>
        <time>2020-01-16T16:19:39Z</time>
      </trkpt>
      <trkpt lat="59.212034" lon="18.147211">
        <ele>50</ele>
        <time>2020-01-16T16:19:40Z</time>
      </trkpt>
      <trkpt lat="59.212133" lon="18.147222">
        <ele>50</ele>
        <time>2020-01-16T16:19:42Z</time>
      </trkpt>
      <trkpt lat="59.212236" lon="18.147228">
        <ele>49</ele>
        <time>2020-01-16T16:19:43Z</time>
      </trkpt>
      <trkpt lat="59.212338" lon="18.14723">
        <ele>49</ele>
        <time>2020-01-16T16:19:44Z</time>
      </trkpt>
      <trkpt lat="59.21245" lon="18.147213">
        <ele>0</ele>
        <time>2020-01-16T16:19:44Z</time>
      </trkpt>
      <trkpt lat="59.212563" lon="18.147188">
        <ele>48</ele>
        <time>2020-01-16T16:19:45Z</time>
      </trkpt>
      <trkpt lat="59.212683" lon="18.147155">
        <ele>0</ele>
        <time>2020-01-16T16:19:46Z</time>
      </trkpt>
      <trkpt lat="59.212797" lon="18.147123">
        <ele>45</ele>
        <time>2020-01-16T16:19:47Z</time>
      </trkpt>
      <trkpt lat="59.212909" lon="18.147087">
        <ele>0</ele>
        <time>2020-01-16T16:19:48Z</time>
      </trkpt>
      <trkpt lat="59.213021" lon="18.147046">
        <ele>43</ele>
        <time>2020-01-16T16:19:49Z</time>
      </trkpt>
      <trkpt lat="59.213131" lon="18.146999">
        <ele>42</ele>
        <time>2020-01-16T16:19:51Z</time>
      </trkpt>
      <trkpt lat="59.213239" lon="18.146947">
        <ele>41</ele>
        <time>2020-01-16T16:19:52Z</time>
      </trkpt>
      <trkpt lat="59.213344" lon="18.146888">
        <ele>40</ele>
        <time>2020-01-16T16:19:53Z</time>
      </trkpt>
      <trkpt lat="59.213446" lon="18.14682">
        <ele>0</ele>
        <time>2020-01-16T16:19:53Z</time>
      </trkpt>
      <trkpt lat="59.213545" lon="18.146748">
        <ele>40</ele>
        <time>2020-01-16T16:19:54Z</time>
      </trkpt>
      <trkpt lat="59.21364" lon="18.146673">
        <ele>38</ele>
        <time>2020-01-16T16:19:56Z</time>
      </trkpt>
      <trkpt lat="59.213732" lon="18.146592">
        <ele>38</ele>
        <time>2020-01-16T16:19:57Z</time>
      </trkpt>
      <trkpt lat="59.21382" lon="18.146507">
        <ele>0</ele>
        <time>2020-01-16T16:19:57Z</time>
      </trkpt>
      <trkpt lat="59.213905" lon="18.146419">
        <ele>37</ele>
        <time>2020-01-16T16:19:58Z</time>
      </trkpt>
      <trkpt lat="59.213986" lon="18.146327">
        <ele>37</ele>
        <time>2020-01-16T16:20:00Z</time>
      </trkpt>
      <trkpt lat="59.214064" lon="18.146233">
        <ele>36</ele>
        <time>2020-01-16T16:20:01Z</time>
      </trkpt>
      <trkpt lat="59.214143" lon="18.146138">
        <ele>36</ele>
        <time>2020-01-16T16:20:02Z</time>
      </trkpt>
      <trkpt lat="59.214221" lon="18.146045">
        <ele>35</ele>
        <time>2020-01-16T16:20:03Z</time>
      </trkpt>
      <trkpt lat="59.214298" lon="18.145955">
        <ele>35</ele>
        <time>2020-01-16T16:20:04Z</time>
      </trkpt>
      <trkpt lat="59.214375" lon="18.145865">
        <ele>0</ele>
        <time>2020-01-16T16:20:04Z</time>
      </trkpt>
      <trkpt lat="59.214451" lon="18.145774">
        <ele>35</ele>
        <time>2020-01-16T16:20:05Z</time>
      </trkpt>
      <trkpt lat="59.214527" lon="18.145686">
        <ele>34</ele>
        <time>2020-01-16T16:20:06Z</time>
      </trkpt>
      <trkpt lat="59.214601" lon="18.145598">
        <ele>33</ele>
        <time>2020-01-16T16:20:08Z</time>
      </trkpt>
      <trkpt lat="59.214673" lon="18.145513">
        <ele>32</ele>
        <time>2020-01-16T16:20:09Z</time>
      </trkpt>
      <trkpt lat="59.214745" lon="18.145431">
        <ele>0</ele>
        <time>2020-01-16T16:20:09Z</time>
      </trkpt>
      <trkpt lat="59.214815" lon="18.145348">
        <ele>32</ele>
        <time>2020-01-16T16:20:10Z</time>
      </trkpt>
      <trkpt lat="59.214884" lon="18.145268">
        <ele>32</ele>
        <time>2020-01-16T16:20:12Z</time>
      </trkpt>
      <trkpt lat="59.214953" lon="18.145186">
        <ele>31</ele>
        <time>2020-01-16T16:20:13Z</time>
      </trkpt>
      <trkpt lat="59.215019" lon="18.145105">
        <ele>31</ele>
        <time>2020-01-16T16:20:14Z</time>
      </trkpt>
      <trkpt lat="59.215084" lon="18.145025">
        <ele>31</ele>
        <time>2020-01-16T16:20:15Z</time>
      </trkpt>
      <trkpt lat="59.215149" lon="18.144947">
        <ele>30</ele>
        <time>2020-01-16T16:20:16Z</time>
      </trkpt>
      <trkpt lat="59.215212" lon="18.144872">
        <ele>0</ele>
        <time>2020-01-16T16:20:16Z</time>
      </trkpt>
      <trkpt lat="59.215273" lon="18.144795">
        <ele>30</ele>
        <time>2020-01-16T16:20:17Z</time>
      </trkpt>
      <trkpt lat="59.215334" lon="18.144716">
        <ele>29</ele>
        <time>2020-01-16T16:20:19Z</time>
      </trkpt>
      <trkpt lat="59.215393" lon="18.144641">
        <ele>29</ele>
        <time>2020-01-16T16:20:20Z</time>
      </trkpt>
      <trkpt lat="59.215451" lon="18.144572">
        <ele>29</ele>
        <time>2020-01-16T16:20:21Z</time>
      </trkpt>
      <trkpt lat="59.215508" lon="18.144504">
        <ele>29</ele>
        <time>2020-01-16T16:20:22Z</time>
      </trkpt>
      <trkpt lat="59.215565" lon="18.144438">
        <ele>0</ele>
        <time>2020-01-16T16:20:22Z</time>
      </trkpt>
      <trkpt lat="59.215623" lon="18.144374">
        <ele>28</ele>
        <time>2020-01-16T16:20:23Z</time>
      </trkpt>
      <trkpt lat="59.21568" lon="18.144308">
        <ele>0</ele>
        <time>2020-01-16T16:20:24Z</time>
      </trkpt>
      <trkpt lat="59.215738" lon="18.144236">
        <ele>28</ele>
        <time>2020-01-16T16:20:25Z</time>
      </trkpt>
      <trkpt lat="59.215796" lon="18.144164">
        <ele>27</ele>
        <time>2020-01-16T16:20:27Z</time>
      </trkpt>
      <trkpt lat="59.215855" lon="18.14409">
        <ele>27</ele>
        <time>2020-01-16T16:20:28Z</time>
      </trkpt>
      <trkpt lat="59.215916" lon="18.144018">
        <ele>27</ele>
        <time>2020-01-16T16:20:29Z</time>
      </trkpt>
      <trkpt lat="59.215979" lon="18.143947">
        <ele>0</ele>
        <time>2020-01-16T16:20:29Z</time>
      </trkpt>
      <trkpt lat="59.216042" lon="18.143874">
        <ele>27</ele>
        <time>2020-01-16T16:20:30Z</time>
      </trkpt>
      <trkpt lat="59.216105" lon="18.143798">
        <ele>26</ele>
        <time>2020-01-16T16:20:32Z</time>
      </trkpt>
      <trkpt lat="59.21617" lon="18.143722">
        <ele>26</ele>
        <time>2020-01-16T16:20:33Z</time>
      </trkpt>
      <trkpt lat="59.216234" lon="18.143644">
        <ele>26</ele>
        <time>2020-01-16T16:20:34Z</time>
      </trkpt>
      <trkpt lat="59.216298" lon="18.143566">
        <ele>26</ele>
        <time>2020-01-16T16:20:35Z</time>
      </trkpt>
      <trkpt lat="59.216363" lon="18.143493">
        <ele>26</ele>
        <time>2020-01-16T16:20:36Z</time>
      </trkpt>
      <trkpt lat="59.216428" lon="18.143424">
        <ele>26</ele>
        <time>2020-01-16T16:20:37Z</time>
      </trkpt>
      <trkpt lat="59.216493" lon="18.143355">
        <ele>0</ele>
        <time>2020-01-16T16:20:37Z</time>
      </trkpt>
      <trkpt lat="59.216556" lon="18.143285">
        <ele>26</ele>
        <time>2020-01-16T16:20:38Z</time>
      </trkpt>
      <trkpt lat="59.216618" lon="18.143216">
        <ele>26</ele>
        <time>2020-01-16T16:20:40Z</time>
      </trkpt>
      <trkpt lat="59.216677" lon="18.143149">
        <ele>26</ele>
        <time>2020-01-16T16:20:41Z</time>
      </trkpt>
      <trkpt lat="59.216733" lon="18.143081">
        <ele>26</ele>
        <time>2020-01-16T16:20:42Z</time>
      </trkpt>
      <trkpt lat="59.216788" lon="18.143014">
        <ele>26</ele>
        <time>2020-01-16T16:20:43Z</time>
      </trkpt>
      <trkpt lat="59.216842" lon="18.142951">
        <ele>0</ele>
        <time>2020-01-16T16:20:43Z</time>
      </trkpt>
      <trkpt lat="59.216894" lon="18.142892">
        <ele>26</ele>
        <time>2020-01-16T16:20:44Z</time>
      </trkpt>
      <trkpt lat="59.216944" lon="18.142832">
        <ele>26</ele>
        <time>2020-01-16T16:20:45Z</time>
      </trkpt>
      <trkpt lat="59.216994" lon="18.142777">
        <ele>26</ele>
        <time>2020-01-16T16:20:47Z</time>
      </trkpt>
      <trkpt lat="59.217043" lon="18.142722">
        <ele>26</ele>
        <time>2020-01-16T16:20:48Z</time>
      </trkpt>
      <trkpt lat="59.217091" lon="18.142667">
        <ele>26</ele>
        <time>2020-01-16T16:20:49Z</time>
      </trkpt>
      <trkpt lat="59.217139" lon="18.142612">
        <ele>25</ele>
        <time>2020-01-16T16:20:50Z</time>
      </trkpt>
      <trkpt lat="59.217187" lon="18.142557">
        <ele>25</ele>
        <time>2020-01-16T16:20:51Z</time>
      </trkpt>
      <trkpt lat="59.217234" lon="18.142502">
        <ele>25</ele>
        <time>2020-01-16T16:20:52Z</time>
      </trkpt>
      <trkpt lat="59.21728" lon="18.142447">
        <ele>25</ele>
        <time>2020-01-16T16:20:53Z</time>
      </trkpt>
      <trkpt lat="59.217326" lon="18.142394">
        <ele>25</ele>
        <time>2020-01-16T16:20:54Z</time>
      </trkpt>
      <trkpt lat="59.217373" lon="18.142341">
        <ele>0</ele>
        <time>2020-01-16T16:20:54Z</time>
      </trkpt>
      <trkpt lat="59.217419" lon="18.142287">
        <ele>25</ele>
        <time>2020-01-16T16:20:55Z</time>
      </trkpt>
      <trkpt lat="59.217466" lon="18.142231">
        <ele>25</ele>
        <time>2020-01-16T16:20:57Z</time>
      </trkpt>
      <trkpt lat="59.217514" lon="18.142173">
        <ele>25</ele>
        <time>2020-01-16T16:20:58Z</time>
      </trkpt>
      <trkpt lat="59.217563" lon="18.142116">
        <ele>25</ele>
        <time>2020-01-16T16:20:59Z</time>
      </trkpt>
      <trkpt lat="59.217612" lon="18.142061">
        <ele>25</ele>
        <time>2020-01-16T16:21:00Z</time>
      </trkpt>
      <trkpt lat="59.217662" lon="18.142006">
        <ele>25</ele>
        <time>2020-01-16T16:21:01Z</time>
      </trkpt>
      <trkpt lat="59.217712" lon="18.141953">
        <ele>25</ele>
        <time>2020-01-16T16:21:02Z</time>
      </trkpt>
      <trkpt lat="59.217762" lon="18.1419">
        <ele>0</ele>
        <time>2020-01-16T16:21:02Z</time>
      </trkpt>
      <trkpt lat="59.217812" lon="18.141846">
        <ele>25</ele>
        <time>2020-01-16T16:21:03Z</time>
      </trkpt>
      <trkpt lat="59.217861" lon="18.141791">
        <ele>25</ele>
        <time>2020-01-16T16:21:04Z</time>
      </trkpt>
      <trkpt lat="59.21791" lon="18.141734">
        <ele>25</ele>
        <time>2020-01-16T16:21:06Z</time>
      </trkpt>
      <trkpt lat="59.217959" lon="18.141676">
        <ele>25</ele>
        <time>2020-01-16T16:21:07Z</time>
      </trkpt>
      <trkpt lat="59.218007" lon="18.141617">
        <ele>25</ele>
        <time>2020-01-16T16:21:08Z</time>
      </trkpt>
      <trkpt lat="59.218055" lon="18.141561">
        <ele>25</ele>
        <time>2020-01-16T16:21:09Z</time>
      </trkpt>
      <trkpt lat="59.218106" lon="18.14151">
        <ele>25</ele>
        <time>2020-01-16T16:21:10Z</time>
      </trkpt>
      <trkpt lat="59.218159" lon="18.14148">
        <ele>25</ele>
        <time>2020-01-16T16:21:11Z</time>
      </trkpt>
      <trkpt lat="59.218212" lon="18.141486">
        <ele>0</ele>
        <time>2020-01-16T16:21:11Z</time>
      </trkpt>
      <trkpt lat="59.21826" lon="18.141529">
        <ele>25</ele>
        <time>2020-01-16T16:21:12Z</time>
      </trkpt>
      <trkpt lat="59.218303" lon="18.141585">
        <ele>25</ele>
        <time>2020-01-16T16:21:14Z</time>
      </trkpt>
      <trkpt lat="59.218344" lon="18.14162">
        <ele>25</ele>
        <time>2020-01-16T16:21:15Z</time>
      </trkpt>
      <trkpt lat="59.218381" lon="18.141617">
        <ele>25</ele>
        <time>2020-01-16T16:21:16Z</time>
      </trkpt>
      <trkpt lat="59.218409" lon="18.141601">
        <ele>25</ele>
        <time>2020-01-16T16:21:17Z</time>
      </trkpt>
      <trkpt lat="59.218437" lon="18.141585">
        <ele>25</ele>
        <time>2020-01-16T16:21:18Z</time>
      </trkpt>
      <trkpt lat="59.218472" lon="18.141567">
        <ele>25</ele>
        <time>2020-01-16T16:21:19Z</time>
      </trkpt>
      <trkpt lat="59.218514" lon="18.141553">
        <ele>25</ele>
        <time>2020-01-16T16:21:20Z</time>
      </trkpt>
      <trkpt lat="59.218558" lon="18.141539">
        <ele>25</ele>
        <time>2020-01-16T16:21:21Z</time>
      </trkpt>
      <trkpt lat="59.218598" lon="18.141499">
        <ele>0</ele>
        <time>2020-01-16T16:21:21Z</time>
      </trkpt>
      <trkpt lat="59.218623" lon="18.141425">
        <ele>24</ele>
        <time>2020-01-16T16:21:22Z</time>
      </trkpt>
      <trkpt lat="59.218633" lon="18.141332">
        <ele>0</ele>
        <time>2020-01-16T16:21:23Z</time>
      </trkpt>
      <trkpt lat="59.218641" lon="18.141231">
        <ele>25</ele>
        <time>2020-01-16T16:21:24Z</time>
      </trkpt>
      <trkpt lat="59.218653" lon="18.14113">
        <ele>25</ele>
        <time>2020-01-16T16:21:26Z</time>
      </trkpt>
      <trkpt lat="59.218666" lon="18.141025">
        <ele>25</ele>
        <time>2020-01-16T16:21:27Z</time>
      </trkpt>
      <trkpt lat="59.218684" lon="18.140921">
        <ele>25</ele>
        <time>2020-01-16T16:21:28Z</time>
      </trkpt>
      <trkpt lat="59.218712" lon="18.140826">
        <ele>25</ele>
        <time>2020-01-16T16:21:29Z</time>
      </trkpt>
      <trkpt lat="59.218749" lon="18.140745">
        <ele>25</ele>
        <time>2020-01-16T16:21:30Z</time>
      </trkpt>
      <trkpt lat="59.218793" lon="18.140672">
        <ele>25</ele>
        <time>2020-01-16T16:21:31Z</time>
      </trkpt>
      <trkpt lat="59.218843" lon="18.140607">
        <ele>25</ele>
        <time>2020-01-16T16:21:32Z</time>
      </trkpt>
      <trkpt lat="59.218893" lon="18.140546">
        <ele>0</ele>
        <time>2020-01-16T16:21:32Z</time>
      </trkpt>
      <trkpt lat="59.218944" lon="18.140486">
        <ele>25</ele>
        <time>2020-01-16T16:21:33Z</time>
      </trkpt>
      <trkpt lat="59.218995" lon="18.140426">
        <ele>25</ele>
        <time>2020-01-16T16:21:35Z</time>
      </trkpt>
      <trkpt lat="59.219045" lon="18.140367">
        <ele>25</ele>
        <time>2020-01-16T16:21:36Z</time>
      </trkpt>
      <trkpt lat="59.219095" lon="18.140308">
        <ele>25</ele>
        <time>2020-01-16T16:21:37Z</time>
      </trkpt>
      <trkpt lat="59.219144" lon="18.140249">
        <ele>25</ele>
        <time>2020-01-16T16:21:38Z</time>
      </trkpt>
      <trkpt lat="59.219192" lon="18.14019">
        <ele>25</ele>
        <time>2020-01-16T16:21:39Z</time>
      </trkpt>
      <trkpt lat="59.219242" lon="18.140132">
        <ele>25</ele>
        <time>2020-01-16T16:21:40Z</time>
      </trkpt>
      <trkpt lat="59.219291" lon="18.140074">
        <ele>0</ele>
        <time>2020-01-16T16:21:40Z</time>
      </trkpt>
      <trkpt lat="59.219341" lon="18.140016">
        <ele>25</ele>
        <time>2020-01-16T16:21:41Z</time>
      </trkpt>
      <trkpt lat="59.219389" lon="18.139959">
        <ele>25</ele>
        <time>2020-01-16T16:21:42Z</time>
      </trkpt>
      <trkpt lat="59.219437" lon="18.139902">
        <ele>25</ele>
        <time>2020-01-16T16:21:44Z</time>
      </trkpt>
      <trkpt lat="59.219485" lon="18.139846">
        <ele>25</ele>
        <time>2020-01-16T16:21:45Z</time>
      </trkpt>
      <trkpt lat="59.219532" lon="18.139793">
        <ele>25</ele>
        <time>2020-01-16T16:21:46Z</time>
      </trkpt>
      <trkpt lat="59.219578" lon="18.139741">
        <ele>26</ele>
        <time>2020-01-16T16:21:47Z</time>
      </trkpt>
      <trkpt lat="59.219622" lon="18.13969">
        <ele>26</ele>
        <time>2020-01-16T16:21:48Z</time>
      </trkpt>
      <trkpt lat="59.219666" lon="18.139641">
        <ele>26</ele>
        <time>2020-01-16T16:21:49Z</time>
      </trkpt>
      <trkpt lat="59.219709" lon="18.139595">
        <ele>26</ele>
        <time>2020-01-16T16:21:50Z</time>
      </trkpt>
      <trkpt lat="59.219751" lon="18.139553">
        <ele>26</ele>
        <time>2020-01-16T16:21:51Z</time>
      </trkpt>
      <trkpt lat="59.21979" lon="18.13951">
        <ele>0</ele>
        <time>2020-01-16T16:21:51Z</time>
      </trkpt>
      <trkpt lat="59.219825" lon="18.139466">
        <ele>26</ele>
        <time>2020-01-16T16:21:52Z</time>
      </trkpt>
      <trkpt lat="59.219857" lon="18.139424">
        <ele>26</ele>
        <time>2020-01-16T16:21:54Z</time>
      </trkpt>
      <trkpt lat="59.219891" lon="18.139382">
        <ele>26</ele>
        <time>2020-01-16T16:21:55Z</time>
      </trkpt>
      <trkpt lat="59.219929" lon="18.139337">
        <ele>26</ele>
        <time>2020-01-16T16:21:56Z</time>
      </trkpt>
      <trkpt lat="59.219968" lon="18.139286">
        <ele>26</ele>
        <time>2020-01-16T16:21:57Z</time>
      </trkpt>
      <trkpt lat="59.220005" lon="18.139237">
        <ele>27</ele>
        <time>2020-01-16T16:21:58Z</time>
      </trkpt>
      <trkpt lat="59.220042" lon="18.139189">
        <ele>27</ele>
        <time>2020-01-16T16:21:59Z</time>
      </trkpt>
      <trkpt lat="59.220076" lon="18.139144">
        <ele>0</ele>
        <time>2020-01-16T16:21:59Z</time>
      </trkpt>
      <trkpt lat="59.22011" lon="18.139099">
        <ele>27</ele>
        <time>2020-01-16T16:22:00Z</time>
      </trkpt>
      <trkpt lat="59.220146" lon="18.139055">
        <ele>27</ele>
        <time>2020-01-16T16:22:02Z</time>
      </trkpt>
      <trkpt lat="59.220181" lon="18.139013">
        <ele>0</ele>
        <time>2020-01-16T16:22:02Z</time>
      </trkpt>
      <trkpt lat="59.220214" lon="18.138969">
        <ele>28</ele>
        <time>2020-01-16T16:22:03Z</time>
      </trkpt>
      <trkpt lat="59.220246" lon="18.138927">
        <ele>28</ele>
        <time>2020-01-16T16:22:05Z</time>
      </trkpt>
      <trkpt lat="59.220275" lon="18.138891">
        <ele>28</ele>
        <time>2020-01-16T16:22:06Z</time>
      </trkpt>
      <trkpt lat="59.220302" lon="18.138862">
        <ele>28</ele>
        <time>2020-01-16T16:22:07Z</time>
      </trkpt>
      <trkpt lat="59.22033" lon="18.138839">
        <ele>28</ele>
        <time>2020-01-16T16:22:08Z</time>
      </trkpt>
      <trkpt lat="59.220361" lon="18.138816">
        <ele>28</ele>
        <time>2020-01-16T16:22:09Z</time>
      </trkpt>
      <trkpt lat="59.220392" lon="18.138793">
        <ele>29</ele>
        <time>2020-01-16T16:22:10Z</time>
      </trkpt>
      <trkpt lat="59.220426" lon="18.138769">
        <ele>29</ele>
        <time>2020-01-16T16:22:11Z</time>
      </trkpt>
      <trkpt lat="59.22046" lon="18.138745">
        <ele>29</ele>
        <time>2020-01-16T16:22:12Z</time>
      </trkpt>
      <trkpt lat="59.220494" lon="18.13872">
        <ele>29</ele>
        <time>2020-01-16T16:22:13Z</time>
      </trkpt>
      <trkpt lat="59.22053" lon="18.138698">
        <ele>29</ele>
        <time>2020-01-16T16:22:14Z</time>
      </trkpt>
      <trkpt lat="59.220564" lon="18.138676">
        <ele>30</ele>
        <time>2020-01-16T16:22:15Z</time>
      </trkpt>
      <trkpt lat="59.220598" lon="18.138656">
        <ele>30</ele>
        <time>2020-01-16T16:22:16Z</time>
      </trkpt>
      <trkpt lat="59.220633" lon="18.138637">
        <ele>30</ele>
        <time>2020-01-16T16:22:17Z</time>
      </trkpt>
      <trkpt lat="59.220667" lon="18.138618">
        <ele>0</ele>
        <time>2020-01-16T16:22:17Z</time>
      </trkpt>
      <trkpt lat="59.220701" lon="18.1386">
        <ele>30</ele>
        <time>2020-01-16T16:22:18Z</time>
      </trkpt>
      <trkpt lat="59.220736" lon="18.138583">
        <ele>30</ele>
        <time>2020-01-16T16:22:19Z</time>
      </trkpt>
      <trkpt lat="59.220771" lon="18.138568">
        <ele>31</ele>
        <time>2020-01-16T16:22:21Z</time>
      </trkpt>
      <trkpt lat="59.220807" lon="18.138554">
        <ele>31</ele>
        <time>2020-01-16T16:22:22Z</time>
      </trkpt>
      <trkpt lat="59.220844" lon="18.138539">
        <ele>31</ele>
        <time>2020-01-16T16:22:23Z</time>
      </trkpt>
      <trkpt lat="59.220882" lon="18.138523">
        <ele>31</ele>
        <time>2020-01-16T16:22:24Z</time>
      </trkpt>
      <trkpt lat="59.22092" lon="18.138508">
        <ele>31</ele>
        <time>2020-01-16T16:22:25Z</time>
      </trkpt>
      <trkpt lat="59.220959" lon="18.138493">
        <ele>31</ele>
        <time>2020-01-16T16:22:26Z</time>
      </trkpt>
      <trkpt lat="59.220998" lon="18.138476">
        <ele>32</ele>
        <time>2020-01-16T16:22:27Z</time>
      </trkpt>
      <trkpt lat="59.221038" lon="18.13846">
        <ele>32</ele>
        <time>2020-01-16T16:22:28Z</time>
      </trkpt>
      <trkpt lat="59.221076" lon="18.138443">
        <ele>32</ele>
        <time>2020-01-16T16:22:29Z</time>
      </trkpt>
      <trkpt lat="59.221115" lon="18.138423">
        <ele>0</ele>
        <time>2020-01-16T16:22:29Z</time>
      </trkpt>
      <trkpt lat="59.221154" lon="18.138405">
        <ele>32</ele>
        <time>2020-01-16T16:22:30Z</time>
      </trkpt>
      <trkpt lat="59.221194" lon="18.138388">
        <ele>32</ele>
        <time>2020-01-16T16:22:32Z</time>
      </trkpt>
      <trkpt lat="59.221235" lon="18.138373">
        <ele>33</ele>
        <time>2020-01-16T16:22:33Z</time>
      </trkpt>
      <trkpt lat="59.221276" lon="18.138356">
        <ele>33</ele>
        <time>2020-01-16T16:22:34Z</time>
      </trkpt>
      <trkpt lat="59.221318" lon="18.13834">
        <ele>33</ele>
        <time>2020-01-16T16:22:35Z</time>
      </trkpt>
      <trkpt lat="59.22136" lon="18.138323">
        <ele>33</ele>
        <time>2020-01-16T16:22:36Z</time>
      </trkpt>
      <trkpt lat="59.221401" lon="18.138305">
        <ele>33</ele>
        <time>2020-01-16T16:22:37Z</time>
      </trkpt>
      <trkpt lat="59.221439" lon="18.13829">
        <ele>0</ele>
        <time>2020-01-16T16:22:37Z</time>
      </trkpt>
      <trkpt lat="59.221477" lon="18.138277">
        <ele>33</ele>
        <time>2020-01-16T16:22:38Z</time>
      </trkpt>
      <trkpt lat="59.221516" lon="18.138264">
        <ele>34</ele>
        <time>2020-01-16T16:22:40Z</time>
      </trkpt>
      <trkpt lat="59.221558" lon="18.138245">
        <ele>34</ele>
        <time>2020-01-16T16:22:41Z</time>
      </trkpt>
      <trkpt lat="59.221599" lon="18.138225">
        <ele>34</ele>
        <time>2020-01-16T16:22:42Z</time>
      </trkpt>
      <trkpt lat="59.221641" lon="18.138206">
        <ele>0</ele>
        <time>2020-01-16T16:22:42Z</time>
      </trkpt>
      <trkpt lat="59.221685" lon="18.138185">
        <ele>34</ele>
        <time>2020-01-16T16:22:43Z</time>
      </trkpt>
      <trkpt lat="59.221729" lon="18.138166">
        <ele>34</ele>
        <time>2020-01-16T16:22:45Z</time>
      </trkpt>
      <trkpt lat="59.221774" lon="18.13815">
        <ele>34</ele>
        <time>2020-01-16T16:22:46Z</time>
      </trkpt>
      <trkpt lat="59.221818" lon="18.138133">
        <ele>35</ele>
        <time>2020-01-16T16:22:47Z</time>
      </trkpt>
      <trkpt lat="59.221863" lon="18.138114">
        <ele>35</ele>
        <time>2020-01-16T16:22:48Z</time>
      </trkpt>
      <trkpt lat="59.22191" lon="18.138094">
        <ele>35</ele>
        <time>2020-01-16T16:22:49Z</time>
      </trkpt>
      <trkpt lat="59.221956" lon="18.138075">
        <ele>35</ele>
        <time>2020-01-16T16:22:50Z</time>
      </trkpt>
      <trkpt lat="59.222003" lon="18.138056">
        <ele>35</ele>
        <time>2020-01-16T16:22:51Z</time>
      </trkpt>
      <trkpt lat="59.222058" lon="18.138033">
        <ele>35</ele>
        <time>2020-01-16T16:22:52Z</time>
      </trkpt>
      <trkpt lat="59.222107" lon="18.138011">
        <ele>0</ele>
        <time>2020-01-16T16:22:52Z</time>
      </trkpt>
      <trkpt lat="59.222155" lon="18.137991">
        <ele>36</ele>
        <time>2020-01-16T16:22:53Z</time>
      </trkpt>
      <trkpt lat="59.222213" lon="18.13796">
        <ele>36</ele>
        <time>2020-01-16T16:22:55Z</time>
      </trkpt>
      <trkpt lat="59.222266" lon="18.137935">
        <ele>36</ele>
        <time>2020-01-16T16:22:56Z</time>
      </trkpt>
      <trkpt lat="59.222326" lon="18.137905">
        <ele>0</ele>
        <time>2020-01-16T16:22:56Z</time>
      </trkpt>
      <trkpt lat="59.222381" lon="18.137872">
        <ele>37</ele>
        <time>2020-01-16T16:22:57Z</time>
      </trkpt>
      <trkpt lat="59.22244" lon="18.137831">
        <ele>36</ele>
        <time>2020-01-16T16:22:59Z</time>
      </trkpt>
      <trkpt lat="59.2225" lon="18.137784">
        <ele>0</ele>
        <time>2020-01-16T16:22:59Z</time>
      </trkpt>
      <trkpt lat="59.222562" lon="18.137734">
        <ele>36</ele>
        <time>2020-01-16T16:23:00Z</time>
      </trkpt>
      <trkpt lat="59.222629" lon="18.137682">
        <ele>35</ele>
        <time>2020-01-16T16:23:02Z</time>
      </trkpt>
      <trkpt lat="59.222693" lon="18.137632">
        <ele>35</ele>
        <time>2020-01-16T16:23:03Z</time>
      </trkpt>
      <trkpt lat="59.222755" lon="18.13758">
        <ele>35</ele>
        <time>2020-01-16T16:23:04Z</time>
      </trkpt>
      <trkpt lat="59.222818" lon="18.137526">
        <ele>35</ele>
        <time>2020-01-16T16:23:05Z</time>
      </trkpt>
      <trkpt lat="59.222879" lon="18.13747">
        <ele>35</ele>
        <time>2020-01-16T16:23:06Z</time>
      </trkpt>
      <trkpt lat="59.22294" lon="18.137412">
        <ele>34</ele>
        <time>2020-01-16T16:23:07Z</time>
      </trkpt>
      <trkpt lat="59.223001" lon="18.13735">
        <ele>34</ele>
        <time>2020-01-16T16:23:08Z</time>
      </trkpt>
      <trkpt lat="59.223061" lon="18.137285">
        <ele>0</ele>
        <time>2020-01-16T16:23:08Z</time>
      </trkpt>
      <trkpt lat="59.223119" lon="18.137218">
        <ele>34</ele>
        <time>2020-01-16T16:23:09Z</time>
      </trkpt>
      <trkpt lat="59.223177" lon="18.137145">
        <ele>34</ele>
        <time>2020-01-16T16:23:11Z</time>
      </trkpt>
      <trkpt lat="59.223233" lon="18.137067">
        <ele>34</ele>
        <time>2020-01-16T16:23:12Z</time>
      </trkpt>
      <trkpt lat="59.223289" lon="18.136985">
        <ele>34</ele>
        <time>2020-01-16T16:23:13Z</time>
      </trkpt>
      <trkpt lat="59.223342" lon="18.136901">
        <ele>34</ele>
        <time>2020-01-16T16:23:14Z</time>
      </trkpt>
      <trkpt lat="59.22339" lon="18.136817">
        <ele>34</ele>
        <time>2020-01-16T16:23:15Z</time>
      </trkpt>
      <trkpt lat="59.223434" lon="18.136735">
        <ele>0</ele>
        <time>2020-01-16T16:23:15Z</time>
      </trkpt>
      <trkpt lat="59.223476" lon="18.136649">
        <ele>34</ele>
        <time>2020-01-16T16:23:16Z</time>
      </trkpt>
      <trkpt lat="59.223518" lon="18.136556">
        <ele>34</ele>
        <time>2020-01-16T16:23:18Z</time>
      </trkpt>
      <trkpt lat="59.223564" lon="18.136458">
        <ele>35</ele>
        <time>2020-01-16T16:23:19Z</time>
      </trkpt>
      <trkpt lat="59.223607" lon="18.13636">
        <ele>35</ele>
        <time>2020-01-16T16:23:20Z</time>
      </trkpt>
      <trkpt lat="59.223641" lon="18.136268">
        <ele>35</ele>
        <time>2020-01-16T16:23:21Z</time>
      </trkpt>
      <trkpt lat="59.223673" lon="18.136177">
        <ele>35</ele>
        <time>2020-01-16T16:23:22Z</time>
      </trkpt>
      <trkpt lat="59.223705" lon="18.136083">
        <ele>35</ele>
        <time>2020-01-16T16:23:23Z</time>
      </trkpt>
      <trkpt lat="59.22373" lon="18.13599">
        <ele>0</ele>
        <time>2020-01-16T16:23:23Z</time>
      </trkpt>
      <trkpt lat="59.223754" lon="18.135896">
        <ele>36</ele>
        <time>2020-01-16T16:23:24Z</time>
      </trkpt>
      <trkpt lat="59.22379" lon="18.135791">
        <ele>36</ele>
        <time>2020-01-16T16:23:26Z</time>
      </trkpt>
      <trkpt lat="59.223831" lon="18.135682">
        <ele>36</ele>
        <time>2020-01-16T16:23:27Z</time>
      </trkpt>
      <trkpt lat="59.223879" lon="18.135566">
        <ele>36</ele>
        <time>2020-01-16T16:23:28Z</time>
      </trkpt>
      <trkpt lat="59.223923" lon="18.13545">
        <ele>36</ele>
        <time>2020-01-16T16:23:29Z</time>
      </trkpt>
      <trkpt lat="59.223969" lon="18.135329">
        <ele>36</ele>
        <time>2020-01-16T16:23:30Z</time>
      </trkpt>
      <trkpt lat="59.224073" lon="18.135077">
        <ele>36</ele>
        <time>2020-01-16T16:23:31Z</time>
      </trkpt>
      <trkpt lat="59.224121" lon="18.134959">
        <ele>37</ele>
        <time>2020-01-16T16:23:33Z</time>
      </trkpt>
      <trkpt lat="59.224168" lon="18.13485">
        <ele>37</ele>
        <time>2020-01-16T16:23:34Z</time>
      </trkpt>
      <trkpt lat="59.224213" lon="18.134736">
        <ele>0</ele>
        <time>2020-01-16T16:23:34Z</time>
      </trkpt>
      <trkpt lat="59.224267" lon="18.134614">
        <ele>37</ele>
        <time>2020-01-16T16:23:35Z</time>
      </trkpt>
      <trkpt lat="59.224316" lon="18.134502">
        <ele>38</ele>
        <time>2020-01-16T16:23:37Z</time>
      </trkpt>
      <trkpt lat="59.224361" lon="18.13439">
        <ele>0</ele>
        <time>2020-01-16T16:23:37Z</time>
      </trkpt>
      <trkpt lat="59.224405" lon="18.134283">
        <ele>37</ele>
        <time>2020-01-16T16:23:38Z</time>
      </trkpt>
      <trkpt lat="59.224449" lon="18.134174">
        <ele>37</ele>
        <time>2020-01-16T16:23:40Z</time>
      </trkpt>
      <trkpt lat="59.224493" lon="18.134068">
        <ele>37</ele>
        <time>2020-01-16T16:23:41Z</time>
      </trkpt>
      <trkpt lat="59.224533" lon="18.133973">
        <ele>37</ele>
        <time>2020-01-16T16:23:42Z</time>
      </trkpt>
      <trkpt lat="59.22457" lon="18.133885">
        <ele>38</ele>
        <time>2020-01-16T16:23:43Z</time>
      </trkpt>
      <trkpt lat="59.22461" lon="18.133796">
        <ele>38</ele>
        <time>2020-01-16T16:23:44Z</time>
      </trkpt>
      <trkpt lat="59.224646" lon="18.133716">
        <ele>38</ele>
        <time>2020-01-16T16:23:45Z</time>
      </trkpt>
      <trkpt lat="59.224684" lon="18.133638">
        <ele>0</ele>
        <time>2020-01-16T16:23:45Z</time>
      </trkpt>
      <trkpt lat="59.224718" lon="18.133563">
        <ele>38</ele>
        <time>2020-01-16T16:23:46Z</time>
      </trkpt>
      <trkpt lat="59.22475" lon="18.133493">
        <ele>38</ele>
        <time>2020-01-16T16:23:48Z</time>
      </trkpt>
      <trkpt lat="59.22478" lon="18.133429">
        <ele>38</ele>
        <time>2020-01-16T16:23:49Z</time>
      </trkpt>
      <trkpt lat="59.224811" lon="18.133365">
        <ele>38</ele>
        <time>2020-01-16T16:23:50Z</time>
      </trkpt>
      <trkpt lat="59.224846" lon="18.133301">
        <ele>38</ele>
        <time>2020-01-16T16:23:51Z</time>
      </trkpt>
      <trkpt lat="59.22488" lon="18.133238">
        <ele>38</ele>
        <time>2020-01-16T16:23:52Z</time>
      </trkpt>
      <trkpt lat="59.224911" lon="18.133182">
        <ele>38</ele>
        <time>2020-01-16T16:23:53Z</time>
      </trkpt>
      <trkpt lat="59.224937" lon="18.133134">
        <ele>0</ele>
        <time>2020-01-16T16:23:53Z</time>
      </trkpt>
      <trkpt lat="59.224961" lon="18.133091">
        <ele>38</ele>
        <time>2020-01-16T16:23:54Z</time>
      </trkpt>
      <trkpt lat="59.224985" lon="18.133047">
        <ele>37</ele>
        <time>2020-01-16T16:23:56Z</time>
      </trkpt>
      <trkpt lat="59.225007" lon="18.133006">
        <ele>0</ele>
        <time>2020-01-16T16:23:56Z</time>
      </trkpt>
      <trkpt lat="59.225026" lon="18.132966">
        <ele>38</ele>
        <time>2020-01-16T16:23:57Z</time>
      </trkpt>
      <trkpt lat="59.225043" lon="18.132929">
        <ele>38</ele>
        <time>2020-01-16T16:23:59Z</time>
      </trkpt>
      <trkpt lat="59.225062" lon="18.132883">
        <ele>37</ele>
        <time>2020-01-16T16:24:00Z</time>
      </trkpt>
      <trkpt lat="59.225096" lon="18.132836">
        <ele>37</ele>
        <time>2020-01-16T16:24:03Z</time>
      </trkpt>
      <trkpt lat="59.225129" lon="18.132795">
        <ele>37</ele>
        <time>2020-01-16T16:24:04Z</time>
      </trkpt>
      <trkpt lat="59.225153" lon="18.13276">
        <ele>37</ele>
        <time>2020-01-16T16:24:05Z</time>
      </trkpt>
      <trkpt lat="59.22518" lon="18.132723">
        <ele>37</ele>
        <time>2020-01-16T16:24:06Z</time>
      </trkpt>
      <trkpt lat="59.225203" lon="18.132685">
        <ele>37</ele>
        <time>2020-01-16T16:24:07Z</time>
      </trkpt>
      <trkpt lat="59.225236" lon="18.132639">
        <ele>37</ele>
        <time>2020-01-16T16:24:08Z</time>
      </trkpt>
      <trkpt lat="59.225264" lon="18.1326">
        <ele>37</ele>
        <time>2020-01-16T16:24:09Z</time>
      </trkpt>
      <trkpt lat="59.225288" lon="18.132565">
        <ele>37</ele>
        <time>2020-01-16T16:24:10Z</time>
      </trkpt>
      <trkpt lat="59.225312" lon="18.132531">
        <ele>37</ele>
        <time>2020-01-16T16:24:11Z</time>
      </trkpt>
      <trkpt lat="59.225334" lon="18.1325">
        <ele>37</ele>
        <time>2020-01-16T16:24:12Z</time>
      </trkpt>
      <trkpt lat="59.225362" lon="18.132463">
        <ele>0</ele>
        <time>2020-01-16T16:24:12Z</time>
      </trkpt>
      <trkpt lat="59.225392" lon="18.132427">
        <ele>37</ele>
        <time>2020-01-16T16:24:13Z</time>
      </trkpt>
      <trkpt lat="59.225424" lon="18.132386">
        <ele>37</ele>
        <time>2020-01-16T16:24:14Z</time>
      </trkpt>
      <trkpt lat="59.225463" lon="18.132332">
        <ele>38</ele>
        <time>2020-01-16T16:24:16Z</time>
      </trkpt>
      <trkpt lat="59.2255" lon="18.132279">
        <ele>38</ele>
        <time>2020-01-16T16:24:17Z</time>
      </trkpt>
      <trkpt lat="59.225537" lon="18.132232">
        <ele>38</ele>
        <time>2020-01-16T16:24:18Z</time>
      </trkpt>
      <trkpt lat="59.225572" lon="18.132186">
        <ele>38</ele>
        <time>2020-01-16T16:24:19Z</time>
      </trkpt>
      <trkpt lat="59.225606" lon="18.132144">
        <ele>38</ele>
        <time>2020-01-16T16:24:20Z</time>
      </trkpt>
      <trkpt lat="59.225638" lon="18.132095">
        <ele>38</ele>
        <time>2020-01-16T16:24:21Z</time>
      </trkpt>
      <trkpt lat="59.225665" lon="18.132044">
        <ele>38</ele>
        <time>2020-01-16T16:24:22Z</time>
      </trkpt>
      <trkpt lat="59.22569" lon="18.132">
        <ele>38</ele>
        <time>2020-01-16T16:24:23Z</time>
      </trkpt>
      <trkpt lat="59.225713" lon="18.131962">
        <ele>38</ele>
        <time>2020-01-16T16:24:24Z</time>
      </trkpt>
      <trkpt lat="59.22574" lon="18.131923">
        <ele>38</ele>
        <time>2020-01-16T16:24:25Z</time>
      </trkpt>
      <trkpt lat="59.225762" lon="18.131871">
        <ele>38</ele>
        <time>2020-01-16T16:24:26Z</time>
      </trkpt>
      <trkpt lat="59.225768" lon="18.131802">
        <ele>0</ele>
        <time>2020-01-16T16:24:26Z</time>
      </trkpt>
      <trkpt lat="59.225762" lon="18.131728">
        <ele>38</ele>
        <time>2020-01-16T16:24:27Z</time>
      </trkpt>
      <trkpt lat="59.225755" lon="18.131652">
        <ele>38</ele>
        <time>2020-01-16T16:24:29Z</time>
      </trkpt>
      <trkpt lat="59.225756" lon="18.131579">
        <ele>38</ele>
        <time>2020-01-16T16:24:30Z</time>
      </trkpt>
      <trkpt lat="59.225772" lon="18.131512">
        <ele>38</ele>
        <time>2020-01-16T16:24:31Z</time>
      </trkpt>
      <trkpt lat="59.225797" lon="18.131451">
        <ele>0</ele>
        <time>2020-01-16T16:24:31Z</time>
      </trkpt>
      <trkpt lat="59.225827" lon="18.131397">
        <ele>38</ele>
        <time>2020-01-16T16:24:32Z</time>
      </trkpt>
      <trkpt lat="59.225859" lon="18.131351">
        <ele>39</ele>
        <time>2020-01-16T16:24:34Z</time>
      </trkpt>
      <trkpt lat="59.22589" lon="18.13131">
        <ele>39</ele>
        <time>2020-01-16T16:24:35Z</time>
      </trkpt>
      <trkpt lat="59.225924" lon="18.131267">
        <ele>39</ele>
        <time>2020-01-16T16:24:36Z</time>
      </trkpt>
      <trkpt lat="59.225955" lon="18.131222">
        <ele>39</ele>
        <time>2020-01-16T16:24:37Z</time>
      </trkpt>
      <trkpt lat="59.225985" lon="18.13118">
        <ele>39</ele>
        <time>2020-01-16T16:24:38Z</time>
      </trkpt>
      <trkpt lat="59.226015" lon="18.131139">
        <ele>39</ele>
        <time>2020-01-16T16:24:39Z</time>
      </trkpt>
      <trkpt lat="59.226045" lon="18.131096">
        <ele>0</ele>
        <time>2020-01-16T16:24:39Z</time>
      </trkpt>
      <trkpt lat="59.226078" lon="18.13105">
        <ele>39</ele>
        <time>2020-01-16T16:24:40Z</time>
      </trkpt>
      <trkpt lat="59.226111" lon="18.131005">
        <ele>39</ele>
        <time>2020-01-16T16:24:42Z</time>
      </trkpt>
      <trkpt lat="59.226144" lon="18.13096">
        <ele>39</ele>
        <time>2020-01-16T16:24:43Z</time>
      </trkpt>
      <trkpt lat="59.226173" lon="18.130914">
        <ele>39</ele>
        <time>2020-01-16T16:24:44Z</time>
      </trkpt>
      <trkpt lat="59.226202" lon="18.130872">
        <ele>40</ele>
        <time>2020-01-16T16:24:45Z</time>
      </trkpt>
      <trkpt lat="59.226233" lon="18.130827">
        <ele>40</ele>
        <time>2020-01-16T16:24:46Z</time>
      </trkpt>
      <trkpt lat="59.226264" lon="18.130779">
        <ele>40</ele>
        <time>2020-01-16T16:24:47Z</time>
      </trkpt>
      <trkpt lat="59.226293" lon="18.130732">
        <ele>40</ele>
        <time>2020-01-16T16:24:48Z</time>
      </trkpt>
      <trkpt lat="59.226325" lon="18.130682">
        <ele>40</ele>
        <time>2020-01-16T16:24:49Z</time>
      </trkpt>
      <trkpt lat="59.226355" lon="18.130638">
        <ele>40</ele>
        <time>2020-01-16T16:24:50Z</time>
      </trkpt>
      <trkpt lat="59.226386" lon="18.130591">
        <ele>0</ele>
        <time>2020-01-16T16:24:50Z</time>
      </trkpt>
      <trkpt lat="59.22642" lon="18.130541">
        <ele>40</ele>
        <time>2020-01-16T16:24:51Z</time>
      </trkpt>
      <trkpt lat="59.226453" lon="18.130485">
        <ele>40</ele>
        <time>2020-01-16T16:24:53Z</time>
      </trkpt>
      <trkpt lat="59.226484" lon="18.130429">
        <ele>0</ele>
        <time>2020-01-16T16:24:53Z</time>
      </trkpt>
      <trkpt lat="59.226514" lon="18.13037">
        <ele>40</ele>
        <time>2020-01-16T16:24:54Z</time>
      </trkpt>
      <trkpt lat="59.226542" lon="18.130312">
        <ele>41</ele>
        <time>2020-01-16T16:24:56Z</time>
      </trkpt>
      <trkpt lat="59.226571" lon="18.130248">
        <ele>41</ele>
        <time>2020-01-16T16:24:57Z</time>
      </trkpt>
      <trkpt lat="59.226598" lon="18.130181">
        <ele>41</ele>
        <time>2020-01-16T16:24:58Z</time>
      </trkpt>
      <trkpt lat="59.226623" lon="18.130112">
        <ele>41</ele>
        <time>2020-01-16T16:24:59Z</time>
      </trkpt>
      <trkpt lat="59.22665" lon="18.130042">
        <ele>42</ele>
        <time>2020-01-16T16:25:00Z</time>
      </trkpt>
      <trkpt lat="59.226678" lon="18.129971">
        <ele>42</ele>
        <time>2020-01-16T16:25:01Z</time>
      </trkpt>
      <trkpt lat="59.226704" lon="18.1299">
        <ele>42</ele>
        <time>2020-01-16T16:25:02Z</time>
      </trkpt>
      <trkpt lat="59.226728" lon="18.129831">
        <ele>42</ele>
        <time>2020-01-16T16:25:03Z</time>
      </trkpt>
      <trkpt lat="59.226754" lon="18.12976">
        <ele>42</ele>
        <time>2020-01-16T16:25:04Z</time>
      </trkpt>
      <trkpt lat="59.226779" lon="18.12969">
        <ele>0</ele>
        <time>2020-01-16T16:25:04Z</time>
      </trkpt>
      <trkpt lat="59.226803" lon="18.12962">
        <ele>42</ele>
        <time>2020-01-16T16:25:05Z</time>
      </trkpt>
      <trkpt lat="59.226831" lon="18.129548">
        <ele>42</ele>
        <time>2020-01-16T16:25:07Z</time>
      </trkpt>
      <trkpt lat="59.226854" lon="18.12948">
        <ele>43</ele>
        <time>2020-01-16T16:25:08Z</time>
      </trkpt>
      <trkpt lat="59.226879" lon="18.129411">
        <ele>43</ele>
        <time>2020-01-16T16:25:09Z</time>
      </trkpt>
      <trkpt lat="59.226901" lon="18.129341">
        <ele>0</ele>
        <time>2020-01-16T16:25:09Z</time>
      </trkpt>
      <trkpt lat="59.226922" lon="18.129269">
        <ele>43</ele>
        <time>2020-01-16T16:25:10Z</time>
      </trkpt>
      <trkpt lat="59.226946" lon="18.129193">
        <ele>43</ele>
        <time>2020-01-16T16:25:12Z</time>
      </trkpt>
      <trkpt lat="59.226968" lon="18.12912">
        <ele>43</ele>
        <time>2020-01-16T16:25:13Z</time>
      </trkpt>
      <trkpt lat="59.226985" lon="18.12905">
        <ele>43</ele>
        <time>2020-01-16T16:25:14Z</time>
      </trkpt>
      <trkpt lat="59.227003" lon="18.12898">
        <ele>44</ele>
        <time>2020-01-16T16:25:15Z</time>
      </trkpt>
      <trkpt lat="59.227022" lon="18.128912">
        <ele>0</ele>
        <time>2020-01-16T16:25:15Z</time>
      </trkpt>
      <trkpt lat="59.227037" lon="18.128848">
        <ele>44</ele>
        <time>2020-01-16T16:25:16Z</time>
      </trkpt>
      <trkpt lat="59.22705" lon="18.128789">
        <ele>44</ele>
        <time>2020-01-16T16:25:18Z</time>
      </trkpt>
      <trkpt lat="59.227065" lon="18.128731">
        <ele>44</ele>
        <time>2020-01-16T16:25:19Z</time>
      </trkpt>
      <trkpt lat="59.227078" lon="18.128674">
        <ele>44</ele>
        <time>2020-01-16T16:25:20Z</time>
      </trkpt>
      <trkpt lat="59.227098" lon="18.128612">
        <ele>45</ele>
        <time>2020-01-16T16:25:21Z</time>
      </trkpt>
      <trkpt lat="59.227118" lon="18.128544">
        <ele>45</ele>
        <time>2020-01-16T16:25:22Z</time>
      </trkpt>
      <trkpt lat="59.227138" lon="18.128478">
        <ele>45</ele>
        <time>2020-01-16T16:25:23Z</time>
      </trkpt>
      <trkpt lat="59.227166" lon="18.128402">
        <ele>44</ele>
        <time>2020-01-16T16:25:24Z</time>
      </trkpt>
      <trkpt lat="59.2272" lon="18.128318">
        <ele>44</ele>
        <time>2020-01-16T16:25:25Z</time>
      </trkpt>
      <trkpt lat="59.227234" lon="18.128232">
        <ele>44</ele>
        <time>2020-01-16T16:25:26Z</time>
      </trkpt>
      <trkpt lat="59.227269" lon="18.128153">
        <ele>0</ele>
        <time>2020-01-16T16:25:26Z</time>
      </trkpt>
      <trkpt lat="59.227304" lon="18.128072">
        <ele>44</ele>
        <time>2020-01-16T16:25:27Z</time>
      </trkpt>
      <trkpt lat="59.22734" lon="18.127987">
        <ele>0</ele>
        <time>2020-01-16T16:25:28Z</time>
      </trkpt>
      <trkpt lat="59.227375" lon="18.127903">
        <ele>44</ele>
        <time>2020-01-16T16:25:29Z</time>
      </trkpt>
      <trkpt lat="59.227412" lon="18.127821">
        <ele>44</ele>
        <time>2020-01-16T16:25:31Z</time>
      </trkpt>
      <trkpt lat="59.227448" lon="18.127738">
        <ele>44</ele>
        <time>2020-01-16T16:25:32Z</time>
      </trkpt>
      <trkpt lat="59.227482" lon="18.12766">
        <ele>44</ele>
        <time>2020-01-16T16:25:33Z</time>
      </trkpt>
      <trkpt lat="59.227514" lon="18.127585">
        <ele>44</ele>
        <time>2020-01-16T16:25:34Z</time>
      </trkpt>
      <trkpt lat="59.227544" lon="18.127514">
        <ele>44</ele>
        <time>2020-01-16T16:25:35Z</time>
      </trkpt>
      <trkpt lat="59.227566" lon="18.127448">
        <ele>44</ele>
        <time>2020-01-16T16:25:36Z</time>
      </trkpt>
      <trkpt lat="59.227592" lon="18.127378">
        <ele>0</ele>
        <time>2020-01-16T16:25:36Z</time>
      </trkpt>
      <trkpt lat="59.227624" lon="18.127307">
        <ele>44</ele>
        <time>2020-01-16T16:25:37Z</time>
      </trkpt>
      <trkpt lat="59.22765" lon="18.127234">
        <ele>44</ele>
        <time>2020-01-16T16:25:39Z</time>
      </trkpt>
      <trkpt lat="59.227672" lon="18.12716">
        <ele>44</ele>
        <time>2020-01-16T16:25:40Z</time>
      </trkpt>
      <trkpt lat="59.22769" lon="18.127086">
        <ele>44</ele>
        <time>2020-01-16T16:25:41Z</time>
      </trkpt>
      <trkpt lat="59.227711" lon="18.127007">
        <ele>45</ele>
        <time>2020-01-16T16:25:42Z</time>
      </trkpt>
      <trkpt lat="59.227726" lon="18.12693">
        <ele>45</ele>
        <time>2020-01-16T16:25:43Z</time>
      </trkpt>
      <trkpt lat="59.227736" lon="18.126851">
        <ele>45</ele>
        <time>2020-01-16T16:25:44Z</time>
      </trkpt>
      <trkpt lat="59.227748" lon="18.126768">
        <ele>45</ele>
        <time>2020-01-16T16:25:45Z</time>
      </trkpt>
      <trkpt lat="59.227761" lon="18.126682">
        <ele>45</ele>
        <time>2020-01-16T16:25:46Z</time>
      </trkpt>
      <trkpt lat="59.227779" lon="18.126604">
        <ele>45</ele>
        <time>2020-01-16T16:25:47Z</time>
      </trkpt>
      <trkpt lat="59.227811" lon="18.126541">
        <ele>0</ele>
        <time>2020-01-16T16:25:47Z</time>
      </trkpt>
      <trkpt lat="59.227853" lon="18.126502">
        <ele>44</ele>
        <time>2020-01-16T16:25:48Z</time>
      </trkpt>
      <trkpt lat="59.227898" lon="18.126485">
        <ele>44</ele>
        <time>2020-01-16T16:25:49Z</time>
      </trkpt>
      <trkpt lat="59.227948" lon="18.126473">
        <ele>44</ele>
        <time>2020-01-16T16:25:51Z</time>
      </trkpt>
      <trkpt lat="59.227999" lon="18.126464">
        <ele>44</ele>
        <time>2020-01-16T16:25:52Z</time>
      </trkpt>
      <trkpt lat="59.22805" lon="18.126454">
        <ele>43</ele>
        <time>2020-01-16T16:25:53Z</time>
      </trkpt>
      <trkpt lat="59.228103" lon="18.126445">
        <ele>43</ele>
        <time>2020-01-16T16:25:54Z</time>
      </trkpt>
      <trkpt lat="59.228159" lon="18.126438">
        <ele>43</ele>
        <time>2020-01-16T16:25:55Z</time>
      </trkpt>
      <trkpt lat="59.228217" lon="18.12643">
        <ele>42</ele>
        <time>2020-01-16T16:25:56Z</time>
      </trkpt>
      <trkpt lat="59.228276" lon="18.126422">
        <ele>42</ele>
        <time>2020-01-16T16:25:57Z</time>
      </trkpt>
      <trkpt lat="59.228339" lon="18.126415">
        <ele>0</ele>
        <time>2020-01-16T16:25:57Z</time>
      </trkpt>
      <trkpt lat="59.228406" lon="18.126415">
        <ele>42</ele>
        <time>2020-01-16T16:25:58Z</time>
      </trkpt>
      <trkpt lat="59.228472" lon="18.126421">
        <ele>41</ele>
        <time>2020-01-16T16:26:00Z</time>
      </trkpt>
      <trkpt lat="59.228539" lon="18.126414">
        <ele>41</ele>
        <time>2020-01-16T16:26:01Z</time>
      </trkpt>
      <trkpt lat="59.228603" lon="18.126378">
        <ele>40</ele>
        <time>2020-01-16T16:26:02Z</time>
      </trkpt>
      <trkpt lat="59.228659" lon="18.12631">
        <ele>40</ele>
        <time>2020-01-16T16:26:03Z</time>
      </trkpt>
      <trkpt lat="59.228708" lon="18.126221">
        <ele>40</ele>
        <time>2020-01-16T16:26:04Z</time>
      </trkpt>
      <trkpt lat="59.228758" lon="18.126119">
        <ele>40</ele>
        <time>2020-01-16T16:26:05Z</time>
      </trkpt>
      <trkpt lat="59.228808" lon="18.126011">
        <ele>0</ele>
        <time>2020-01-16T16:26:05Z</time>
      </trkpt>
      <trkpt lat="59.228863" lon="18.125861">
        <ele>40</ele>
        <time>2020-01-16T16:26:06Z</time>
      </trkpt>
      <trkpt lat="59.228916" lon="18.125723">
        <ele>40</ele>
        <time>2020-01-16T16:26:07Z</time>
      </trkpt>
      <trkpt lat="59.228971" lon="18.1256">
        <ele>41</ele>
        <time>2020-01-16T16:26:09Z</time>
      </trkpt>
      <trkpt lat="59.229028" lon="18.125483">
        <ele>0</ele>
        <time>2020-01-16T16:26:09Z</time>
      </trkpt>
      <trkpt lat="59.229085" lon="18.125378">
        <ele>41</ele>
        <time>2020-01-16T16:26:10Z</time>
      </trkpt>
      <trkpt lat="59.229145" lon="18.12527">
        <ele>41</ele>
        <time>2020-01-16T16:26:12Z</time>
      </trkpt>
      <trkpt lat="59.229208" lon="18.125159">
        <ele>41</ele>
        <time>2020-01-16T16:26:13Z</time>
      </trkpt>
      <trkpt lat="59.229256" lon="18.125036">
        <ele>40</ele>
        <time>2020-01-16T16:26:14Z</time>
      </trkpt>
      <trkpt lat="59.229285" lon="18.124906">
        <ele>41</ele>
        <time>2020-01-16T16:26:15Z</time>
      </trkpt>
      <trkpt lat="59.229312" lon="18.124771">
        <ele>41</ele>
        <time>2020-01-16T16:26:16Z</time>
      </trkpt>
      <trkpt lat="59.22933" lon="18.124652">
        <ele>41</ele>
        <time>2020-01-16T16:26:17Z</time>
      </trkpt>
      <trkpt lat="59.229332" lon="18.124533">
        <ele>41</ele>
        <time>2020-01-16T16:26:18Z</time>
      </trkpt>
      <trkpt lat="59.229331" lon="18.124409">
        <ele>0</ele>
        <time>2020-01-16T16:26:18Z</time>
      </trkpt>
      <trkpt lat="59.229331" lon="18.124294">
        <ele>41</ele>
        <time>2020-01-16T16:26:19Z</time>
      </trkpt>
      <trkpt lat="59.229343" lon="18.124192">
        <ele>41</ele>
        <time>2020-01-16T16:26:21Z</time>
      </trkpt>
      <trkpt lat="59.229371" lon="18.124099">
        <ele>41</ele>
        <time>2020-01-16T16:26:22Z</time>
      </trkpt>
      <trkpt lat="59.229419" lon="18.124026">
        <ele>41</ele>
        <time>2020-01-16T16:26:23Z</time>
      </trkpt>
      <trkpt lat="59.229467" lon="18.123977">
        <ele>41</ele>
        <time>2020-01-16T16:26:24Z</time>
      </trkpt>
      <trkpt lat="59.229517" lon="18.123934">
        <ele>41</ele>
        <time>2020-01-16T16:26:25Z</time>
      </trkpt>
      <trkpt lat="59.229566" lon="18.123888">
        <ele>0</ele>
        <time>2020-01-16T16:26:25Z</time>
      </trkpt>
      <trkpt lat="59.229619" lon="18.123836">
        <ele>41</ele>
        <time>2020-01-16T16:26:27Z</time>
      </trkpt>
      <trkpt lat="59.229669" lon="18.123786">
        <ele>41</ele>
        <time>2020-01-16T16:26:28Z</time>
      </trkpt>
      <trkpt lat="59.22972" lon="18.123735">
        <ele>41</ele>
        <time>2020-01-16T16:26:29Z</time>
      </trkpt>
      <trkpt lat="59.229771" lon="18.123684">
        <ele>41</ele>
        <time>2020-01-16T16:26:30Z</time>
      </trkpt>
      <trkpt lat="59.229824" lon="18.123631">
        <ele>41</ele>
        <time>2020-01-16T16:26:31Z</time>
      </trkpt>
      <trkpt lat="59.229876" lon="18.12358">
        <ele>40</ele>
        <time>2020-01-16T16:26:32Z</time>
      </trkpt>
      <trkpt lat="59.229928" lon="18.123531">
        <ele>40</ele>
        <time>2020-01-16T16:26:33Z</time>
      </trkpt>
      <trkpt lat="59.229978" lon="18.123473">
        <ele>40</ele>
        <time>2020-01-16T16:26:34Z</time>
      </trkpt>
      <trkpt lat="59.230016" lon="18.123394">
        <ele>0</ele>
        <time>2020-01-16T16:26:34Z</time>
      </trkpt>
      <trkpt lat="59.23004" lon="18.123294">
        <ele>40</ele>
        <time>2020-01-16T16:26:35Z</time>
      </trkpt>
      <trkpt lat="59.230052" lon="18.12318">
        <ele>40</ele>
        <time>2020-01-16T16:26:37Z</time>
      </trkpt>
      <trkpt lat="59.230058" lon="18.123057">
        <ele>40</ele>
        <time>2020-01-16T16:26:38Z</time>
      </trkpt>
      <trkpt lat="59.23005" lon="18.122926">
        <ele>39</ele>
        <time>2020-01-16T16:26:39Z</time>
      </trkpt>
      <trkpt lat="59.230026" lon="18.1228">
        <ele>39</ele>
        <time>2020-01-16T16:26:40Z</time>
      </trkpt>
      <trkpt lat="59.229994" lon="18.122676">
        <ele>39</ele>
        <time>2020-01-16T16:26:41Z</time>
      </trkpt>
      <trkpt lat="59.229959" lon="18.122549">
        <ele>39</ele>
        <time>2020-01-16T16:26:42Z</time>
      </trkpt>
      <trkpt lat="59.229919" lon="18.122423">
        <ele>0</ele>
        <time>2020-01-16T16:26:42Z</time>
      </trkpt>
      <trkpt lat="59.229872" lon="18.122304">
        <ele>39</ele>
        <time>2020-01-16T16:26:43Z</time>
      </trkpt>
      <trkpt lat="59.229828" lon="18.122187">
        <ele>0</ele>
        <time>2020-01-16T16:26:44Z</time>
      </trkpt>
      <trkpt lat="59.229791" lon="18.122069">
        <ele>38</ele>
        <time>2020-01-16T16:26:45Z</time>
      </trkpt>
      <trkpt lat="59.229761" lon="18.12195">
        <ele>38</ele>
        <time>2020-01-16T16:26:47Z</time>
      </trkpt>
      <trkpt lat="59.229745" lon="18.121827">
        <ele>39</ele>
        <time>2020-01-16T16:26:48Z</time>
      </trkpt>
      <trkpt lat="59.229754" lon="18.121709">
        <ele>39</ele>
        <time>2020-01-16T16:26:49Z</time>
      </trkpt>
      <trkpt lat="59.229783" lon="18.121612">
        <ele>0</ele>
        <time>2020-01-16T16:26:49Z</time>
      </trkpt>
      <trkpt lat="59.229821" lon="18.121543">
        <ele>39</ele>
        <time>2020-01-16T16:26:50Z</time>
      </trkpt>
      <trkpt lat="59.229863" lon="18.121497">
        <ele>39</ele>
        <time>2020-01-16T16:26:52Z</time>
      </trkpt>
      <trkpt lat="59.229907" lon="18.121455">
        <ele>39</ele>
        <time>2020-01-16T16:26:53Z</time>
      </trkpt>
      <trkpt lat="59.229948" lon="18.121413">
        <ele>39</ele>
        <time>2020-01-16T16:26:54Z</time>
      </trkpt>
      <trkpt lat="59.229991" lon="18.121373">
        <ele>39</ele>
        <time>2020-01-16T16:26:55Z</time>
      </trkpt>
      <trkpt lat="59.230032" lon="18.121335">
        <ele>39</ele>
        <time>2020-01-16T16:26:56Z</time>
      </trkpt>
      <trkpt lat="59.230077" lon="18.121297">
        <ele>39</ele>
        <time>2020-01-16T16:26:57Z</time>
      </trkpt>
      <trkpt lat="59.230125" lon="18.121267">
        <ele>40</ele>
        <time>2020-01-16T16:26:58Z</time>
      </trkpt>
      <trkpt lat="59.230173" lon="18.121242">
        <ele>40</ele>
        <time>2020-01-16T16:26:59Z</time>
      </trkpt>
      <trkpt lat="59.230221" lon="18.121216">
        <ele>40</ele>
        <time>2020-01-16T16:27:00Z</time>
      </trkpt>
      <trkpt lat="59.230274" lon="18.12119">
        <ele>0</ele>
        <time>2020-01-16T16:27:00Z</time>
      </trkpt>
      <trkpt lat="59.230324" lon="18.121174">
        <ele>40</ele>
        <time>2020-01-16T16:27:01Z</time>
      </trkpt>
      <trkpt lat="59.230375" lon="18.121171">
        <ele>40</ele>
        <time>2020-01-16T16:27:03Z</time>
      </trkpt>
      <trkpt lat="59.230426" lon="18.121169">
        <ele>0</ele>
        <time>2020-01-16T16:27:03Z</time>
      </trkpt>
      <trkpt lat="59.230476" lon="18.121165">
        <ele>40</ele>
        <time>2020-01-16T16:27:04Z</time>
      </trkpt>
      <trkpt lat="59.230526" lon="18.12116">
        <ele>40</ele>
        <time>2020-01-16T16:27:06Z</time>
      </trkpt>
      <trkpt lat="59.230576" lon="18.121151">
        <ele>40</ele>
        <time>2020-01-16T16:27:07Z</time>
      </trkpt>
      <trkpt lat="59.230625" lon="18.121138">
        <ele>40</ele>
        <time>2020-01-16T16:27:08Z</time>
      </trkpt>
      <trkpt lat="59.230666" lon="18.121122">
        <ele>40</ele>
        <time>2020-01-16T16:27:09Z</time>
      </trkpt>
      <trkpt lat="59.230708" lon="18.121102">
        <ele>40</ele>
        <time>2020-01-16T16:27:10Z</time>
      </trkpt>
      <trkpt lat="59.230752" lon="18.121084">
        <ele>0</ele>
        <time>2020-01-16T16:27:10Z</time>
      </trkpt>
      <trkpt lat="59.230795" lon="18.121065">
        <ele>40</ele>
        <time>2020-01-16T16:27:11Z</time>
      </trkpt>
      <trkpt lat="59.230839" lon="18.121044">
        <ele>41</ele>
        <time>2020-01-16T16:27:13Z</time>
      </trkpt>
      <trkpt lat="59.230882" lon="18.12102">
        <ele>41</ele>
        <time>2020-01-16T16:27:14Z</time>
      </trkpt>
      <trkpt lat="59.230927" lon="18.120989">
        <ele>41</ele>
        <time>2020-01-16T16:27:15Z</time>
      </trkpt>
      <trkpt lat="59.230972" lon="18.120957">
        <ele>41</ele>
        <time>2020-01-16T16:27:16Z</time>
      </trkpt>
      <trkpt lat="59.231015" lon="18.120926">
        <ele>42</ele>
        <time>2020-01-16T16:27:17Z</time>
      </trkpt>
      <trkpt lat="59.231058" lon="18.120895">
        <ele>42</ele>
        <time>2020-01-16T16:27:18Z</time>
      </trkpt>
      <trkpt lat="59.2311" lon="18.120868">
        <ele>41</ele>
        <time>2020-01-16T16:27:19Z</time>
      </trkpt>
      <trkpt lat="59.23114" lon="18.120841">
        <ele>42</ele>
        <time>2020-01-16T16:27:20Z</time>
      </trkpt>
      <trkpt lat="59.231179" lon="18.120811">
        <ele>42</ele>
        <time>2020-01-16T16:27:21Z</time>
      </trkpt>
      <trkpt lat="59.231223" lon="18.120779">
        <ele>0</ele>
        <time>2020-01-16T16:27:21Z</time>
      </trkpt>
      <trkpt lat="59.231263" lon="18.120753">
        <ele>42</ele>
        <time>2020-01-16T16:27:22Z</time>
      </trkpt>
      <trkpt lat="59.231304" lon="18.120718">
        <ele>42</ele>
        <time>2020-01-16T16:27:23Z</time>
      </trkpt>
      <trkpt lat="59.231344" lon="18.120684">
        <ele>42</ele>
        <time>2020-01-16T16:27:25Z</time>
      </trkpt>
      <trkpt lat="59.231386" lon="18.120652">
        <ele>42</ele>
        <time>2020-01-16T16:27:26Z</time>
      </trkpt>
      <trkpt lat="59.231428" lon="18.120624">
        <ele>42</ele>
        <time>2020-01-16T16:27:27Z</time>
      </trkpt>
      <trkpt lat="59.231471" lon="18.120592">
        <ele>41</ele>
        <time>2020-01-16T16:27:28Z</time>
      </trkpt>
      <trkpt lat="59.231512" lon="18.12056">
        <ele>41</ele>
        <time>2020-01-16T16:27:29Z</time>
      </trkpt>
      <trkpt lat="59.231556" lon="18.120527">
        <ele>42</ele>
        <time>2020-01-16T16:27:30Z</time>
      </trkpt>
      <trkpt lat="59.231604" lon="18.120494">
        <ele>42</ele>
        <time>2020-01-16T16:27:31Z</time>
      </trkpt>
      <trkpt lat="59.231652" lon="18.12046">
        <ele>42</ele>
        <time>2020-01-16T16:27:32Z</time>
      </trkpt>
      <trkpt lat="59.231699" lon="18.120429">
        <ele>0</ele>
        <time>2020-01-16T16:27:32Z</time>
      </trkpt>
      <trkpt lat="59.231742" lon="18.120406">
        <ele>42</ele>
        <time>2020-01-16T16:27:33Z</time>
      </trkpt>
      <trkpt lat="59.231791" lon="18.120383">
        <ele>43</ele>
        <time>2020-01-16T16:27:35Z</time>
      </trkpt>
      <trkpt lat="59.231836" lon="18.120369">
        <ele>0</ele>
        <time>2020-01-16T16:27:35Z</time>
      </trkpt>
      <trkpt lat="59.231894" lon="18.120352">
        <ele>43</ele>
        <time>2020-01-16T16:27:36Z</time>
      </trkpt>
      <trkpt lat="59.231953" lon="18.120341">
        <ele>43</ele>
        <time>2020-01-16T16:27:38Z</time>
      </trkpt>
      <trkpt lat="59.232008" lon="18.120337">
        <ele>0</ele>
        <time>2020-01-16T16:27:38Z</time>
      </trkpt>
      <trkpt lat="59.232066" lon="18.120336">
        <ele>43</ele>
        <time>2020-01-16T16:27:39Z</time>
      </trkpt>
      <trkpt lat="59.232122" lon="18.120337">
        <ele>43</ele>
        <time>2020-01-16T16:27:41Z</time>
      </trkpt>
      <trkpt lat="59.232183" lon="18.120342">
        <ele>0</ele>
        <time>2020-01-16T16:27:41Z</time>
      </trkpt>
      <trkpt lat="59.232244" lon="18.120356">
        <ele>43</ele>
        <time>2020-01-16T16:27:42Z</time>
      </trkpt>
      <trkpt lat="59.232294" lon="18.120382">
        <ele>43</ele>
        <time>2020-01-16T16:27:44Z</time>
      </trkpt>
      <trkpt lat="59.23233" lon="18.120413">
        <ele>43</ele>
        <time>2020-01-16T16:27:45Z</time>
      </trkpt>
      <trkpt lat="59.232361" lon="18.120449">
        <ele>43</ele>
        <time>2020-01-16T16:27:46Z</time>
      </trkpt>
      <trkpt lat="59.232394" lon="18.120482">
        <ele>43</ele>
        <time>2020-01-16T16:27:47Z</time>
      </trkpt>
      <trkpt lat="59.232412" lon="18.120522">
        <ele>43</ele>
        <time>2020-01-16T16:27:48Z</time>
      </trkpt>
      <trkpt lat="59.232424" lon="18.120563">
        <ele>43</ele>
        <time>2020-01-16T16:27:49Z</time>
      </trkpt>
      <trkpt lat="59.232431" lon="18.120602">
        <ele>42</ele>
        <time>2020-01-16T16:27:50Z</time>
      </trkpt>
      <trkpt lat="59.232444" lon="18.120661">
        <ele>42</ele>
        <time>2020-01-16T16:27:52Z</time>
      </trkpt>
      <trkpt lat="59.232457" lon="18.120702">
        <ele>42</ele>
        <time>2020-01-16T16:27:54Z</time>
      </trkpt>
      <trkpt lat="59.232466" lon="18.120723">
        <ele>0</ele>
        <time>2020-01-16T16:27:59Z</time>
      </trkpt>
      <trkpt lat="59.232516" lon="18.120804">
        <ele>42</ele>
        <time>2020-01-16T16:28:52Z</time>
      </trkpt>
      <trkpt lat="59.232537" lon="18.12085">
        <ele>42</ele>
        <time>2020-01-16T16:28:54Z</time>
      </trkpt>
      <trkpt lat="59.23256" lon="18.120906">
        <ele>42</ele>
        <time>2020-01-16T16:28:55Z</time>
      </trkpt>
      <trkpt lat="59.232584" lon="18.120968">
        <ele>42</ele>
        <time>2020-01-16T16:28:56Z</time>
      </trkpt>
      <trkpt lat="59.232612" lon="18.12102">
        <ele>0</ele>
        <time>2020-01-16T16:28:56Z</time>
      </trkpt>
      <trkpt lat="59.232648" lon="18.121058">
        <ele>42</ele>
        <time>2020-01-16T16:28:57Z</time>
      </trkpt>
      <trkpt lat="59.23269" lon="18.12109">
        <ele>42</ele>
        <time>2020-01-16T16:28:59Z</time>
      </trkpt>
      <trkpt lat="59.232733" lon="18.121134">
        <ele>42</ele>
        <time>2020-01-16T16:29:00Z</time>
      </trkpt>
      <trkpt lat="59.232773" lon="18.121186">
        <ele>42</ele>
        <time>2020-01-16T16:29:01Z</time>
      </trkpt>
      <trkpt lat="59.232812" lon="18.121241">
        <ele>42</ele>
        <time>2020-01-16T16:29:02Z</time>
      </trkpt>
      <trkpt lat="59.232853" lon="18.121296">
        <ele>42</ele>
        <time>2020-01-16T16:29:03Z</time>
      </trkpt>
      <trkpt lat="59.232899" lon="18.121345">
        <ele>42</ele>
        <time>2020-01-16T16:29:04Z</time>
      </trkpt>
      <trkpt lat="59.232951" lon="18.121381">
        <ele>42</ele>
        <time>2020-01-16T16:29:05Z</time>
      </trkpt>
      <trkpt lat="59.233008" lon="18.121401">
        <ele>42</ele>
        <time>2020-01-16T16:29:06Z</time>
      </trkpt>
      <trkpt lat="59.233068" lon="18.121402">
        <ele>42</ele>
        <time>2020-01-16T16:29:07Z</time>
      </trkpt>
      <trkpt lat="59.233129" lon="18.121384">
        <ele>0</ele>
        <time>2020-01-16T16:29:07Z</time>
      </trkpt>
      <trkpt lat="59.233189" lon="18.121351">
        <ele>42</ele>
        <time>2020-01-16T16:29:08Z</time>
      </trkpt>
      <trkpt lat="59.233248" lon="18.121305">
        <ele>42</ele>
        <time>2020-01-16T16:29:10Z</time>
      </trkpt>
      <trkpt lat="59.233312" lon="18.121253">
        <ele>0</ele>
        <time>2020-01-16T16:29:10Z</time>
      </trkpt>
      <trkpt lat="59.233379" lon="18.121206">
        <ele>42</ele>
        <time>2020-01-16T16:29:11Z</time>
      </trkpt>
      <trkpt lat="59.233451" lon="18.121164">
        <ele>42</ele>
        <time>2020-01-16T16:29:13Z</time>
      </trkpt>
      <trkpt lat="59.23352" lon="18.121122">
        <ele>0</ele>
        <time>2020-01-16T16:29:13Z</time>
      </trkpt>
      <trkpt lat="59.233583" lon="18.121079">
        <ele>42</ele>
        <time>2020-01-16T16:29:14Z</time>
      </trkpt>
      <trkpt lat="59.233648" lon="18.121031">
        <ele>42</ele>
        <time>2020-01-16T16:29:16Z</time>
      </trkpt>
      <trkpt lat="59.233728" lon="18.120976">
        <ele>42</ele>
        <time>2020-01-16T16:29:17Z</time>
      </trkpt>
      <trkpt lat="59.233811" lon="18.120911">
        <ele>42</ele>
        <time>2020-01-16T16:29:18Z</time>
      </trkpt>
      <trkpt lat="59.233894" lon="18.12085">
        <ele>42</ele>
        <time>2020-01-16T16:29:19Z</time>
      </trkpt>
      <trkpt lat="59.233996" lon="18.120784">
        <ele>0</ele>
        <time>2020-01-16T16:29:19Z</time>
      </trkpt>
      <trkpt lat="59.234107" lon="18.120706">
        <ele>41</ele>
        <time>2020-01-16T16:29:20Z</time>
      </trkpt>
      <trkpt lat="59.234212" lon="18.120635">
        <ele>40</ele>
        <time>2020-01-16T16:29:22Z</time>
      </trkpt>
      <trkpt lat="59.234314" lon="18.120562">
        <ele>39</ele>
        <time>2020-01-16T16:29:23Z</time>
      </trkpt>
      <trkpt lat="59.234415" lon="18.120495">
        <ele>39</ele>
        <time>2020-01-16T16:29:24Z</time>
      </trkpt>
      <trkpt lat="59.234513" lon="18.120429">
        <ele>0</ele>
        <time>2020-01-16T16:29:24Z</time>
      </trkpt>
      <trkpt lat="59.234609" lon="18.120363">
        <ele>38</ele>
        <time>2020-01-16T16:29:25Z</time>
      </trkpt>
      <trkpt lat="59.234704" lon="18.120297">
        <ele>36</ele>
        <time>2020-01-16T16:29:27Z</time>
      </trkpt>
      <trkpt lat="59.234799" lon="18.120235">
        <ele>36</ele>
        <time>2020-01-16T16:29:28Z</time>
      </trkpt>
      <trkpt lat="59.234892" lon="18.120175">
        <ele>35</ele>
        <time>2020-01-16T16:29:29Z</time>
      </trkpt>
      <trkpt lat="59.234984" lon="18.12012">
        <ele>0</ele>
        <time>2020-01-16T16:29:29Z</time>
      </trkpt>
      <trkpt lat="59.235075" lon="18.12008">
        <ele>34</ele>
        <time>2020-01-16T16:29:30Z</time>
      </trkpt>
      <trkpt lat="59.235167" lon="18.12006">
        <ele>34</ele>
        <time>2020-01-16T16:29:32Z</time>
      </trkpt>
      <trkpt lat="59.235258" lon="18.12004">
        <ele>33</ele>
        <time>2020-01-16T16:29:33Z</time>
      </trkpt>
      <trkpt lat="59.235346" lon="18.120011">
        <ele>33</ele>
        <time>2020-01-16T16:29:34Z</time>
      </trkpt>
      <trkpt lat="59.23543" lon="18.119977">
        <ele>33</ele>
        <time>2020-01-16T16:29:35Z</time>
      </trkpt>
      <trkpt lat="59.235511" lon="18.119942">
        <ele>0</ele>
        <time>2020-01-16T16:29:35Z</time>
      </trkpt>
      <trkpt lat="59.235589" lon="18.119897">
        <ele>32</ele>
        <time>2020-01-16T16:29:36Z</time>
      </trkpt>
      <trkpt lat="59.235661" lon="18.119845">
        <ele>32</ele>
        <time>2020-01-16T16:29:38Z</time>
      </trkpt>
      <trkpt lat="59.235733" lon="18.119795">
        <ele>31</ele>
        <time>2020-01-16T16:29:39Z</time>
      </trkpt>
      <trkpt lat="59.235804" lon="18.119753">
        <ele>31</ele>
        <time>2020-01-16T16:29:40Z</time>
      </trkpt>
      <trkpt lat="59.235875" lon="18.119717">
        <ele>31</ele>
        <time>2020-01-16T16:29:41Z</time>
      </trkpt>
      <trkpt lat="59.235946" lon="18.11969">
        <ele>0</ele>
        <time>2020-01-16T16:29:41Z</time>
      </trkpt>
      <trkpt lat="59.236017" lon="18.119668">
        <ele>31</ele>
        <time>2020-01-16T16:29:42Z</time>
      </trkpt>
      <trkpt lat="59.236087" lon="18.119647">
        <ele>30</ele>
        <time>2020-01-16T16:29:44Z</time>
      </trkpt>
      <trkpt lat="59.236157" lon="18.119626">
        <ele>30</ele>
        <time>2020-01-16T16:29:45Z</time>
      </trkpt>
      <trkpt lat="59.236228" lon="18.11961">
        <ele>30</ele>
        <time>2020-01-16T16:29:46Z</time>
      </trkpt>
      <trkpt lat="59.236298" lon="18.1196">
        <ele>30</ele>
        <time>2020-01-16T16:29:47Z</time>
      </trkpt>
      <trkpt lat="59.236368" lon="18.119589">
        <ele>29</ele>
        <time>2020-01-16T16:29:48Z</time>
      </trkpt>
      <trkpt lat="59.236438" lon="18.119579">
        <ele>0</ele>
        <time>2020-01-16T16:29:48Z</time>
      </trkpt>
      <trkpt lat="59.236508" lon="18.119573">
        <ele>29</ele>
        <time>2020-01-16T16:29:49Z</time>
      </trkpt>
      <trkpt lat="59.236577" lon="18.11957">
        <ele>29</ele>
        <time>2020-01-16T16:29:51Z</time>
      </trkpt>
      <trkpt lat="59.236647" lon="18.119566">
        <ele>29</ele>
        <time>2020-01-16T16:29:52Z</time>
      </trkpt>
      <trkpt lat="59.236717" lon="18.119561">
        <ele>29</ele>
        <time>2020-01-16T16:29:53Z</time>
      </trkpt>
      <trkpt lat="59.236786" lon="18.11956">
        <ele>29</ele>
        <time>2020-01-16T16:29:54Z</time>
      </trkpt>
      <trkpt lat="59.236855" lon="18.119564">
        <ele>29</ele>
        <time>2020-01-16T16:29:55Z</time>
      </trkpt>
      <trkpt lat="59.236923" lon="18.119569">
        <ele>29</ele>
        <time>2020-01-16T16:29:56Z</time>
      </trkpt>
      <trkpt lat="59.236991" lon="18.119575">
        <ele>0</ele>
        <time>2020-01-16T16:29:56Z</time>
      </trkpt>
      <trkpt lat="59.237058" lon="18.119583">
        <ele>29</ele>
        <time>2020-01-16T16:29:57Z</time>
      </trkpt>
      <trkpt lat="59.237127" lon="18.119591">
        <ele>29</ele>
        <time>2020-01-16T16:29:59Z</time>
      </trkpt>
      <trkpt lat="59.237197" lon="18.1196">
        <ele>29</ele>
        <time>2020-01-16T16:30:00Z</time>
      </trkpt>
      <trkpt lat="59.237266" lon="18.119609">
        <ele>29</ele>
        <time>2020-01-16T16:30:01Z</time>
      </trkpt>
      <trkpt lat="59.237334" lon="18.119621">
        <ele>29</ele>
        <time>2020-01-16T16:30:02Z</time>
      </trkpt>
      <trkpt lat="59.237403" lon="18.119633">
        <ele>0</ele>
        <time>2020-01-16T16:30:02Z</time>
      </trkpt>
      <trkpt lat="59.237472" lon="18.119645">
        <ele>28</ele>
        <time>2020-01-16T16:30:03Z</time>
      </trkpt>
      <trkpt lat="59.237541" lon="18.119655">
        <ele>28</ele>
        <time>2020-01-16T16:30:05Z</time>
      </trkpt>
      <trkpt lat="59.237609" lon="18.119667">
        <ele>28</ele>
        <time>2020-01-16T16:30:06Z</time>
      </trkpt>
      <trkpt lat="59.237678" lon="18.119678">
        <ele>28</ele>
        <time>2020-01-16T16:30:07Z</time>
      </trkpt>
      <trkpt lat="59.237747" lon="18.119687">
        <ele>0</ele>
        <time>2020-01-16T16:30:07Z</time>
      </trkpt>
      <trkpt lat="59.237816" lon="18.119699">
        <ele>28</ele>
        <time>2020-01-16T16:30:08Z</time>
      </trkpt>
      <trkpt lat="59.237885" lon="18.11971">
        <ele>28</ele>
        <time>2020-01-16T16:30:10Z</time>
      </trkpt>
      <trkpt lat="59.237954" lon="18.119719">
        <ele>0</ele>
        <time>2020-01-16T16:30:10Z</time>
      </trkpt>
      <trkpt lat="59.238025" lon="18.119733">
        <ele>28</ele>
        <time>2020-01-16T16:30:11Z</time>
      </trkpt>
      <trkpt lat="59.238096" lon="18.119748">
        <ele>28</ele>
        <time>2020-01-16T16:30:13Z</time>
      </trkpt>
      <trkpt lat="59.238167" lon="18.119761">
        <ele>28</ele>
        <time>2020-01-16T16:30:14Z</time>
      </trkpt>
      <trkpt lat="59.238239" lon="18.119774">
        <ele>28</ele>
        <time>2020-01-16T16:30:15Z</time>
      </trkpt>
      <trkpt lat="59.238309" lon="18.119789">
        <ele>28</ele>
        <time>2020-01-16T16:30:16Z</time>
      </trkpt>
      <trkpt lat="59.23838" lon="18.119803">
        <ele>29</ele>
        <time>2020-01-16T16:30:17Z</time>
      </trkpt>
      <trkpt lat="59.238451" lon="18.119817">
        <ele>0</ele>
        <time>2020-01-16T16:30:17Z</time>
      </trkpt>
      <trkpt lat="59.238524" lon="18.119826">
        <ele>29</ele>
        <time>2020-01-16T16:30:18Z</time>
      </trkpt>
      <trkpt lat="59.238597" lon="18.119838">
        <ele>28</ele>
        <time>2020-01-16T16:30:20Z</time>
      </trkpt>
      <trkpt lat="59.23867" lon="18.119852">
        <ele>28</ele>
        <time>2020-01-16T16:30:21Z</time>
      </trkpt>
      <trkpt lat="59.238742" lon="18.119865">
        <ele>28</ele>
        <time>2020-01-16T16:30:22Z</time>
      </trkpt>
      <trkpt lat="59.238814" lon="18.119874">
        <ele>28</ele>
        <time>2020-01-16T16:30:23Z</time>
      </trkpt>
      <trkpt lat="59.238885" lon="18.119881">
        <ele>28</ele>
        <time>2020-01-16T16:30:24Z</time>
      </trkpt>
      <trkpt lat="59.238958" lon="18.119885">
        <ele>0</ele>
        <time>2020-01-16T16:30:24Z</time>
      </trkpt>
      <trkpt lat="59.239032" lon="18.119883">
        <ele>28</ele>
        <time>2020-01-16T16:30:25Z</time>
      </trkpt>
      <trkpt lat="59.239104" lon="18.119876">
        <ele>0</ele>
        <time>2020-01-16T16:30:26Z</time>
      </trkpt>
      <trkpt lat="59.239174" lon="18.119865">
        <ele>28</ele>
        <time>2020-01-16T16:30:27Z</time>
      </trkpt>
      <trkpt lat="59.239244" lon="18.119851">
        <ele>28</ele>
        <time>2020-01-16T16:30:29Z</time>
      </trkpt>
      <trkpt lat="59.239315" lon="18.119836">
        <ele>28</ele>
        <time>2020-01-16T16:30:30Z</time>
      </trkpt>
      <trkpt lat="59.239384" lon="18.119817">
        <ele>0</ele>
        <time>2020-01-16T16:30:30Z</time>
      </trkpt>
      <trkpt lat="59.23945" lon="18.119793">
        <ele>28</ele>
        <time>2020-01-16T16:30:31Z</time>
      </trkpt>
      <trkpt lat="59.239519" lon="18.119766">
        <ele>28</ele>
        <time>2020-01-16T16:30:33Z</time>
      </trkpt>
      <trkpt lat="59.239588" lon="18.11974">
        <ele>28</ele>
        <time>2020-01-16T16:30:34Z</time>
      </trkpt>
      <trkpt lat="59.239657" lon="18.119714">
        <ele>28</ele>
        <time>2020-01-16T16:30:35Z</time>
      </trkpt>
      <trkpt lat="59.239725" lon="18.119687">
        <ele>28</ele>
        <time>2020-01-16T16:30:36Z</time>
      </trkpt>
      <trkpt lat="59.239794" lon="18.119659">
        <ele>28</ele>
        <time>2020-01-16T16:30:37Z</time>
      </trkpt>
      <trkpt lat="59.239865" lon="18.119629">
        <ele>0</ele>
        <time>2020-01-16T16:30:37Z</time>
      </trkpt>
      <trkpt lat="59.239934" lon="18.1196">
        <ele>27</ele>
        <time>2020-01-16T16:30:38Z</time>
      </trkpt>
      <trkpt lat="59.240007" lon="18.11957">
        <ele>27</ele>
        <time>2020-01-16T16:30:40Z</time>
      </trkpt>
      <trkpt lat="59.240079" lon="18.119537">
        <ele>27</ele>
        <time>2020-01-16T16:30:41Z</time>
      </trkpt>
      <trkpt lat="59.240148" lon="18.119506">
        <ele>27</ele>
        <time>2020-01-16T16:30:42Z</time>
      </trkpt>
      <trkpt lat="59.240211" lon="18.119477">
        <ele>27</ele>
        <time>2020-01-16T16:30:43Z</time>
      </trkpt>
      <trkpt lat="59.240274" lon="18.11945">
        <ele>27</ele>
        <time>2020-01-16T16:30:44Z</time>
      </trkpt>
      <trkpt lat="59.240334" lon="18.119424">
        <ele>27</ele>
        <time>2020-01-16T16:30:45Z</time>
      </trkpt>
      <trkpt lat="59.240389" lon="18.119411">
        <ele>0</ele>
        <time>2020-01-16T16:30:45Z</time>
      </trkpt>
      <trkpt lat="59.240438" lon="18.119432">
        <ele>27</ele>
        <time>2020-01-16T16:30:46Z</time>
      </trkpt>
      <trkpt lat="59.240481" lon="18.119485">
        <ele>26</ele>
        <time>2020-01-16T16:30:47Z</time>
      </trkpt>
      <trkpt lat="59.240525" lon="18.119543">
        <ele>26</ele>
        <time>2020-01-16T16:30:49Z</time>
      </trkpt>
      <trkpt lat="59.240578" lon="18.119576">
        <ele>26</ele>
        <time>2020-01-16T16:30:50Z</time>
      </trkpt>
      <trkpt lat="59.240635" lon="18.11958">
        <ele>26</ele>
        <time>2020-01-16T16:30:51Z</time>
      </trkpt>
      <trkpt lat="59.240693" lon="18.119575">
        <ele>26</ele>
        <time>2020-01-16T16:30:52Z</time>
      </trkpt>
      <trkpt lat="59.240751" lon="18.119576">
        <ele>26</ele>
        <time>2020-01-16T16:30:53Z</time>
      </trkpt>
      <trkpt lat="59.240809" lon="18.119591">
        <ele>26</ele>
        <time>2020-01-16T16:30:54Z</time>
      </trkpt>
      <trkpt lat="59.240865" lon="18.119623">
        <ele>26</ele>
        <time>2020-01-16T16:30:55Z</time>
      </trkpt>
      <trkpt lat="59.240918" lon="18.119667">
        <ele>0</ele>
        <time>2020-01-16T16:30:55Z</time>
      </trkpt>
      <trkpt lat="59.240968" lon="18.119717">
        <ele>26</ele>
        <time>2020-01-16T16:30:56Z</time>
      </trkpt>
      <trkpt lat="59.241014" lon="18.119773">
        <ele>25</ele>
        <time>2020-01-16T16:30:58Z</time>
      </trkpt>
      <trkpt lat="59.241054" lon="18.119823">
        <ele>25</ele>
        <time>2020-01-16T16:30:59Z</time>
      </trkpt>
      <trkpt lat="59.241085" lon="18.119851">
        <ele>25</ele>
        <time>2020-01-16T16:31:00Z</time>
      </trkpt>
      <trkpt lat="59.241109" lon="18.119866">
        <ele>25</ele>
        <time>2020-01-16T16:31:01Z</time>
      </trkpt>
      <trkpt lat="59.241111" lon="18.119603">
        <ele>24</ele>
        <time>2020-01-16T16:31:04Z</time>
      </trkpt>
      <trkpt lat="59.241125" lon="18.119332">
        <ele>25</ele>
        <time>2020-01-16T16:31:06Z</time>
      </trkpt>
      <trkpt lat="59.241166" lon="18.119251">
        <ele>25</ele>
        <time>2020-01-16T16:31:08Z</time>
      </trkpt>
      <trkpt lat="59.241228" lon="18.119199">
        <ele>25</ele>
        <time>2020-01-16T16:31:09Z</time>
      </trkpt>
      <trkpt lat="59.24128" lon="18.119187">
        <ele>25</ele>
        <time>2020-01-16T16:31:10Z</time>
      </trkpt>
      <trkpt lat="59.241329" lon="18.119196">
        <ele>25</ele>
        <time>2020-01-16T16:31:11Z</time>
      </trkpt>
      <trkpt lat="59.241378" lon="18.119215">
        <ele>24</ele>
        <time>2020-01-16T16:31:12Z</time>
      </trkpt>
      <trkpt lat="59.241429" lon="18.119235">
        <ele>24</ele>
        <time>2020-01-16T16:31:13Z</time>
      </trkpt>
      <trkpt lat="59.241477" lon="18.119259">
        <ele>24</ele>
        <time>2020-01-16T16:31:14Z</time>
      </trkpt>
      <trkpt lat="59.241523" lon="18.119281">
        <ele>24</ele>
        <time>2020-01-16T16:31:15Z</time>
      </trkpt>
      <trkpt lat="59.241565" lon="18.119331">
        <ele>24</ele>
        <time>2020-01-16T16:31:16Z</time>
      </trkpt>
      <trkpt lat="59.241614" lon="18.119363">
        <ele>0</ele>
        <time>2020-01-16T16:31:16Z</time>
      </trkpt>
      <trkpt lat="59.241672" lon="18.11938">
        <ele>24</ele>
        <time>2020-01-16T16:31:17Z</time>
      </trkpt>
      <trkpt lat="59.241739" lon="18.119392">
        <ele>24</ele>
        <time>2020-01-16T16:31:19Z</time>
      </trkpt>
      <trkpt lat="59.241799" lon="18.119401">
        <ele>24</ele>
        <time>2020-01-16T16:31:20Z</time>
      </trkpt>
      <trkpt lat="59.241857" lon="18.119406">
        <ele>24</ele>
        <time>2020-01-16T16:31:21Z</time>
      </trkpt>
      <trkpt lat="59.241913" lon="18.1194">
        <ele>24</ele>
        <time>2020-01-16T16:31:22Z</time>
      </trkpt>
      <trkpt lat="59.241968" lon="18.11938">
        <ele>24</ele>
        <time>2020-01-16T16:31:23Z</time>
      </trkpt>
      <trkpt lat="59.242023" lon="18.119355">
        <ele>0</ele>
        <time>2020-01-16T16:31:23Z</time>
      </trkpt>
      <trkpt lat="59.242077" lon="18.119331">
        <ele>24</ele>
        <time>2020-01-16T16:31:24Z</time>
      </trkpt>
      <trkpt lat="59.24213" lon="18.119303">
        <ele>24</ele>
        <time>2020-01-16T16:31:25Z</time>
      </trkpt>
      <trkpt lat="59.242182" lon="18.119271">
        <ele>24</ele>
        <time>2020-01-16T16:31:27Z</time>
      </trkpt>
      <trkpt lat="59.242232" lon="18.119236">
        <ele>24</ele>
        <time>2020-01-16T16:31:28Z</time>
      </trkpt>
      <trkpt lat="59.242283" lon="18.119197">
        <ele>24</ele>
        <time>2020-01-16T16:31:29Z</time>
      </trkpt>
      <trkpt lat="59.242333" lon="18.119154">
        <ele>24</ele>
        <time>2020-01-16T16:31:30Z</time>
      </trkpt>
      <trkpt lat="59.242382" lon="18.119103">
        <ele>25</ele>
        <time>2020-01-16T16:31:31Z</time>
      </trkpt>
      <trkpt lat="59.242431" lon="18.119049">
        <ele>25</ele>
        <time>2020-01-16T16:31:32Z</time>
      </trkpt>
      <trkpt lat="59.242477" lon="18.118987">
        <ele>25</ele>
        <time>2020-01-16T16:31:33Z</time>
      </trkpt>
      <trkpt lat="59.242521" lon="18.118913">
        <ele>0</ele>
        <time>2020-01-16T16:31:33Z</time>
      </trkpt>
      <trkpt lat="59.242562" lon="18.118826">
        <ele>25</ele>
        <time>2020-01-16T16:31:34Z</time>
      </trkpt>
      <trkpt lat="59.2426" lon="18.118733">
        <ele>25</ele>
        <time>2020-01-16T16:31:36Z</time>
      </trkpt>
      <trkpt lat="59.242634" lon="18.118637">
        <ele>25</ele>
        <time>2020-01-16T16:31:37Z</time>
      </trkpt>
      <trkpt lat="59.242665" lon="18.118538">
        <ele>25</ele>
        <time>2020-01-16T16:31:38Z</time>
      </trkpt>
      <trkpt lat="59.242695" lon="18.118439">
        <ele>25</ele>
        <time>2020-01-16T16:31:39Z</time>
      </trkpt>
      <trkpt lat="59.242725" lon="18.11834">
        <ele>25</ele>
        <time>2020-01-16T16:31:40Z</time>
      </trkpt>
      <trkpt lat="59.242755" lon="18.11824">
        <ele>25</ele>
        <time>2020-01-16T16:31:41Z</time>
      </trkpt>
      <trkpt lat="59.242786" lon="18.118141">
        <ele>0</ele>
        <time>2020-01-16T16:31:41Z</time>
      </trkpt>
      <trkpt lat="59.242817" lon="18.118043">
        <ele>25</ele>
        <time>2020-01-16T16:31:42Z</time>
      </trkpt>
      <trkpt lat="59.242847" lon="18.117946">
        <ele>25</ele>
        <time>2020-01-16T16:31:43Z</time>
      </trkpt>
      <trkpt lat="59.242876" lon="18.117845">
        <ele>25</ele>
        <time>2020-01-16T16:31:45Z</time>
      </trkpt>
      <trkpt lat="59.242905" lon="18.117743">
        <ele>25</ele>
        <time>2020-01-16T16:31:46Z</time>
      </trkpt>
      <trkpt lat="59.242933" lon="18.117642">
        <ele>25</ele>
        <time>2020-01-16T16:31:47Z</time>
      </trkpt>
      <trkpt lat="59.242961" lon="18.117542">
        <ele>25</ele>
        <time>2020-01-16T16:31:48Z</time>
      </trkpt>
      <trkpt lat="59.242992" lon="18.117442">
        <ele>25</ele>
        <time>2020-01-16T16:31:49Z</time>
      </trkpt>
      <trkpt lat="59.243021" lon="18.117342">
        <ele>0</ele>
        <time>2020-01-16T16:31:49Z</time>
      </trkpt>
      <trkpt lat="59.243051" lon="18.117243">
        <ele>25</ele>
        <time>2020-01-16T16:31:50Z</time>
      </trkpt>
      <trkpt lat="59.243081" lon="18.117144">
        <ele>25</ele>
        <time>2020-01-16T16:31:52Z</time>
      </trkpt>
      <trkpt lat="59.243113" lon="18.117047">
        <ele>25</ele>
        <time>2020-01-16T16:31:53Z</time>
      </trkpt>
      <trkpt lat="59.243142" lon="18.11695">
        <ele>25</ele>
        <time>2020-01-16T16:31:54Z</time>
      </trkpt>
      <trkpt lat="59.243171" lon="18.116854">
        <ele>25</ele>
        <time>2020-01-16T16:31:55Z</time>
      </trkpt>
      <trkpt lat="59.243201" lon="18.11676">
        <ele>25</ele>
        <time>2020-01-16T16:31:56Z</time>
      </trkpt>
      <trkpt lat="59.243231" lon="18.116669">
        <ele>25</ele>
        <time>2020-01-16T16:31:57Z</time>
      </trkpt>
      <trkpt lat="59.24326" lon="18.11658">
        <ele>25</ele>
        <time>2020-01-16T16:31:58Z</time>
      </trkpt>
      <trkpt lat="59.243288" lon="18.116489">
        <ele>0</ele>
        <time>2020-01-16T16:31:58Z</time>
      </trkpt>
      <trkpt lat="59.243317" lon="18.116398">
        <ele>25</ele>
        <time>2020-01-16T16:31:59Z</time>
      </trkpt>
      <trkpt lat="59.243347" lon="18.116307">
        <ele>25</ele>
        <time>2020-01-16T16:32:01Z</time>
      </trkpt>
      <trkpt lat="59.243376" lon="18.116215">
        <ele>24</ele>
        <time>2020-01-16T16:32:01Z</time>
      </trkpt>
      <trkpt lat="59.243404" lon="18.116123">
        <ele>25</ele>
        <time>2020-01-16T16:32:02Z</time>
      </trkpt>
      <trkpt lat="59.243433" lon="18.116031">
        <ele>25</ele>
        <time>2020-01-16T16:32:04Z</time>
      </trkpt>
      <trkpt lat="59.243461" lon="18.115942">
        <ele>25</ele>
        <time>2020-01-16T16:32:05Z</time>
      </trkpt>
      <trkpt lat="59.243489" lon="18.115853">
        <ele>25</ele>
        <time>2020-01-16T16:32:06Z</time>
      </trkpt>
      <trkpt lat="59.243516" lon="18.115764">
        <ele>25</ele>
        <time>2020-01-16T16:32:07Z</time>
      </trkpt>
      <trkpt lat="59.243542" lon="18.115674">
        <ele>0</ele>
        <time>2020-01-16T16:32:07Z</time>
      </trkpt>
      <trkpt lat="59.243565" lon="18.115582">
        <ele>25</ele>
        <time>2020-01-16T16:32:08Z</time>
      </trkpt>
      <trkpt lat="59.243582" lon="18.115488">
        <ele>25</ele>
        <time>2020-01-16T16:32:10Z</time>
      </trkpt>
      <trkpt lat="59.243593" lon="18.115391">
        <ele>25</ele>
        <time>2020-01-16T16:32:11Z</time>
      </trkpt>
      <trkpt lat="59.2436" lon="18.115297">
        <ele>25</ele>
        <time>2020-01-16T16:32:12Z</time>
      </trkpt>
      <trkpt lat="59.243605" lon="18.115204">
        <ele>25</ele>
        <time>2020-01-16T16:32:13Z</time>
      </trkpt>
      <trkpt lat="59.243612" lon="18.115115">
        <ele>26</ele>
        <time>2020-01-16T16:32:14Z</time>
      </trkpt>
      <trkpt lat="59.24362" lon="18.115029">
        <ele>26</ele>
        <time>2020-01-16T16:32:15Z</time>
      </trkpt>
      <trkpt lat="59.243629" lon="18.114944">
        <ele>26</ele>
        <time>2020-01-16T16:32:16Z</time>
      </trkpt>
      <trkpt lat="59.243636" lon="18.114861">
        <ele>26</ele>
        <time>2020-01-16T16:32:17Z</time>
      </trkpt>
      <trkpt lat="59.243648" lon="18.114774">
        <ele>26</ele>
        <time>2020-01-16T16:32:18Z</time>
      </trkpt>
      <trkpt lat="59.24366" lon="18.114685">
        <ele>26</ele>
        <time>2020-01-16T16:32:19Z</time>
      </trkpt>
      <trkpt lat="59.243674" lon="18.114597">
        <ele>0</ele>
        <time>2020-01-16T16:32:19Z</time>
      </trkpt>
      <trkpt lat="59.243689" lon="18.114508">
        <ele>26</ele>
        <time>2020-01-16T16:32:20Z</time>
      </trkpt>
      <trkpt lat="59.243701" lon="18.114422">
        <ele>27</ele>
        <time>2020-01-16T16:32:21Z</time>
      </trkpt>
      <trkpt lat="59.243715" lon="18.114339">
        <ele>27</ele>
        <time>2020-01-16T16:32:23Z</time>
      </trkpt>
      <trkpt lat="59.243728" lon="18.114258">
        <ele>27</ele>
        <time>2020-01-16T16:32:24Z</time>
      </trkpt>
      <trkpt lat="59.243739" lon="18.114177">
        <ele>27</ele>
        <time>2020-01-16T16:32:25Z</time>
      </trkpt>
      <trkpt lat="59.243754" lon="18.114091">
        <ele>27</ele>
        <time>2020-01-16T16:32:26Z</time>
      </trkpt>
      <trkpt lat="59.243765" lon="18.114006">
        <ele>28</ele>
        <time>2020-01-16T16:32:27Z</time>
      </trkpt>
      <trkpt lat="59.24377" lon="18.113924">
        <ele>28</ele>
        <time>2020-01-16T16:32:28Z</time>
      </trkpt>
      <trkpt lat="59.243778" lon="18.113841">
        <ele>28</ele>
        <time>2020-01-16T16:32:29Z</time>
      </trkpt>
      <trkpt lat="59.243787" lon="18.113756">
        <ele>0</ele>
        <time>2020-01-16T16:32:29Z</time>
      </trkpt>
      <trkpt lat="59.2438" lon="18.113667">
        <ele>28</ele>
        <time>2020-01-16T16:32:30Z</time>
      </trkpt>
      <trkpt lat="59.243812" lon="18.11358">
        <ele>28</ele>
        <time>2020-01-16T16:32:32Z</time>
      </trkpt>
      <trkpt lat="59.243817" lon="18.113495">
        <ele>28</ele>
        <time>2020-01-16T16:32:33Z</time>
      </trkpt>
      <trkpt lat="59.243823" lon="18.113412">
        <ele>28</ele>
        <time>2020-01-16T16:32:34Z</time>
      </trkpt>
      <trkpt lat="59.243828" lon="18.113332">
        <ele>28</ele>
        <time>2020-01-16T16:32:35Z</time>
      </trkpt>
      <trkpt lat="59.243834" lon="18.113248">
        <ele>28</ele>
        <time>2020-01-16T16:32:36Z</time>
      </trkpt>
      <trkpt lat="59.243843" lon="18.113161">
        <ele>28</ele>
        <time>2020-01-16T16:32:37Z</time>
      </trkpt>
      <trkpt lat="59.243858" lon="18.113072">
        <ele>28</ele>
        <time>2020-01-16T16:32:38Z</time>
      </trkpt>
      <trkpt lat="59.24387" lon="18.112979">
        <ele>28</ele>
        <time>2020-01-16T16:32:39Z</time>
      </trkpt>
      <trkpt lat="59.24388" lon="18.112885">
        <ele>0</ele>
        <time>2020-01-16T16:32:39Z</time>
      </trkpt>
      <trkpt lat="59.243886" lon="18.11279">
        <ele>28</ele>
        <time>2020-01-16T16:32:40Z</time>
      </trkpt>
      <trkpt lat="59.243891" lon="18.112696">
        <ele>27</ele>
        <time>2020-01-16T16:32:41Z</time>
      </trkpt>
      <trkpt lat="59.243894" lon="18.112607">
        <ele>28</ele>
        <time>2020-01-16T16:32:43Z</time>
      </trkpt>
      <trkpt lat="59.243897" lon="18.112516">
        <ele>28</ele>
        <time>2020-01-16T16:32:44Z</time>
      </trkpt>
      <trkpt lat="59.243899" lon="18.112425">
        <ele>28</ele>
        <time>2020-01-16T16:32:45Z</time>
      </trkpt>
      <trkpt lat="59.243901" lon="18.112336">
        <ele>28</ele>
        <time>2020-01-16T16:32:46Z</time>
      </trkpt>
      <trkpt lat="59.2439" lon="18.11225">
        <ele>28</ele>
        <time>2020-01-16T16:32:47Z</time>
      </trkpt>
      <trkpt lat="59.243896" lon="18.112164">
        <ele>28</ele>
        <time>2020-01-16T16:32:48Z</time>
      </trkpt>
      <trkpt lat="59.243893" lon="18.112079">
        <ele>28</ele>
        <time>2020-01-16T16:32:49Z</time>
      </trkpt>
      <trkpt lat="59.243894" lon="18.111995">
        <ele>28</ele>
        <time>2020-01-16T16:32:50Z</time>
      </trkpt>
      <trkpt lat="59.243897" lon="18.111913">
        <ele>28</ele>
        <time>2020-01-16T16:32:51Z</time>
      </trkpt>
      <trkpt lat="59.243898" lon="18.111834">
        <ele>28</ele>
        <time>2020-01-16T16:32:52Z</time>
      </trkpt>
      <trkpt lat="59.243898" lon="18.111756">
        <ele>0</ele>
        <time>2020-01-16T16:32:52Z</time>
      </trkpt>
      <trkpt lat="59.243898" lon="18.111679">
        <ele>28</ele>
        <time>2020-01-16T16:32:53Z</time>
      </trkpt>
      <trkpt lat="59.243898" lon="18.111605">
        <ele>28</ele>
        <time>2020-01-16T16:32:55Z</time>
      </trkpt>
      <trkpt lat="59.243897" lon="18.111529">
        <ele>28</ele>
        <time>2020-01-16T16:32:56Z</time>
      </trkpt>
      <trkpt lat="59.243897" lon="18.111456">
        <ele>28</ele>
        <time>2020-01-16T16:32:57Z</time>
      </trkpt>
      <trkpt lat="59.243898" lon="18.111382">
        <ele>28</ele>
        <time>2020-01-16T16:32:58Z</time>
      </trkpt>
      <trkpt lat="59.2439" lon="18.111308">
        <ele>0</ele>
        <time>2020-01-16T16:32:58Z</time>
      </trkpt>
      <trkpt lat="59.243902" lon="18.111236">
        <ele>28</ele>
        <time>2020-01-16T16:32:59Z</time>
      </trkpt>
      <trkpt lat="59.243903" lon="18.111166">
        <ele>28</ele>
        <time>2020-01-16T16:33:01Z</time>
      </trkpt>
      <trkpt lat="59.243904" lon="18.111096">
        <ele>28</ele>
        <time>2020-01-16T16:33:02Z</time>
      </trkpt>
      <trkpt lat="59.243904" lon="18.111027">
        <ele>28</ele>
        <time>2020-01-16T16:33:03Z</time>
      </trkpt>
      <trkpt lat="59.243906" lon="18.110957">
        <ele>28</ele>
        <time>2020-01-16T16:33:04Z</time>
      </trkpt>
      <trkpt lat="59.243908" lon="18.110889">
        <ele>28</ele>
        <time>2020-01-16T16:33:05Z</time>
      </trkpt>
      <trkpt lat="59.243909" lon="18.110824">
        <ele>28</ele>
        <time>2020-01-16T16:33:06Z</time>
      </trkpt>
      <trkpt lat="59.243911" lon="18.110759">
        <ele>0</ele>
        <time>2020-01-16T16:33:06Z</time>
      </trkpt>
      <trkpt lat="59.24391" lon="18.110695">
        <ele>28</ele>
        <time>2020-01-16T16:33:07Z</time>
      </trkpt>
      <trkpt lat="59.24391" lon="18.110629">
        <ele>29</ele>
        <time>2020-01-16T16:33:09Z</time>
      </trkpt>
      <trkpt lat="59.243909" lon="18.110561">
        <ele>29</ele>
        <time>2020-01-16T16:33:10Z</time>
      </trkpt>
      <trkpt lat="59.243911" lon="18.110493">
        <ele>29</ele>
        <time>2020-01-16T16:33:11Z</time>
      </trkpt>
      <trkpt lat="59.243913" lon="18.110425">
        <ele>29</ele>
        <time>2020-01-16T16:33:12Z</time>
      </trkpt>
      <trkpt lat="59.243918" lon="18.110357">
        <ele>29</ele>
        <time>2020-01-16T16:33:13Z</time>
      </trkpt>
      <trkpt lat="59.243922" lon="18.110291">
        <ele>29</ele>
        <time>2020-01-16T16:33:14Z</time>
      </trkpt>
      <trkpt lat="59.243925" lon="18.110223">
        <ele>29</ele>
        <time>2020-01-16T16:33:15Z</time>
      </trkpt>
      <trkpt lat="59.243926" lon="18.110157">
        <ele>29</ele>
        <time>2020-01-16T16:33:16Z</time>
      </trkpt>
      <trkpt lat="59.243927" lon="18.110089">
        <ele>29</ele>
        <time>2020-01-16T16:33:17Z</time>
      </trkpt>
      <trkpt lat="59.24393" lon="18.11002">
        <ele>0</ele>
        <time>2020-01-16T16:33:17Z</time>
      </trkpt>
      <trkpt lat="59.243935" lon="18.10995">
        <ele>29</ele>
        <time>2020-01-16T16:33:18Z</time>
      </trkpt>
      <trkpt lat="59.243942" lon="18.109879">
        <ele>0</ele>
        <time>2020-01-16T16:33:19Z</time>
      </trkpt>
      <trkpt lat="59.243952" lon="18.109806">
        <ele>29</ele>
        <time>2020-01-16T16:33:20Z</time>
      </trkpt>
      <trkpt lat="59.243963" lon="18.109735">
        <ele>29</ele>
        <time>2020-01-16T16:33:22Z</time>
      </trkpt>
      <trkpt lat="59.243975" lon="18.109661">
        <ele>29</ele>
        <time>2020-01-16T16:33:23Z</time>
      </trkpt>
      <trkpt lat="59.243987" lon="18.109587">
        <ele>29</ele>
        <time>2020-01-16T16:33:24Z</time>
      </trkpt>
      <trkpt lat="59.244002" lon="18.109515">
        <ele>29</ele>
        <time>2020-01-16T16:33:25Z</time>
      </trkpt>
      <trkpt lat="59.244018" lon="18.109445">
        <ele>29</ele>
        <time>2020-01-16T16:33:26Z</time>
      </trkpt>
      <trkpt lat="59.244035" lon="18.109377">
        <ele>29</ele>
        <time>2020-01-16T16:33:27Z</time>
      </trkpt>
      <trkpt lat="59.244053" lon="18.109309">
        <ele>29</ele>
        <time>2020-01-16T16:33:28Z</time>
      </trkpt>
      <trkpt lat="59.244072" lon="18.109245">
        <ele>29</ele>
        <time>2020-01-16T16:33:29Z</time>
      </trkpt>
      <trkpt lat="59.244095" lon="18.109186">
        <ele>29</ele>
        <time>2020-01-16T16:33:30Z</time>
      </trkpt>
      <trkpt lat="59.244116" lon="18.109127">
        <ele>29</ele>
        <time>2020-01-16T16:33:31Z</time>
      </trkpt>
      <trkpt lat="59.244137" lon="18.109068">
        <ele>29</ele>
        <time>2020-01-16T16:33:32Z</time>
      </trkpt>
      <trkpt lat="59.244161" lon="18.109013">
        <ele>30</ele>
        <time>2020-01-16T16:33:33Z</time>
      </trkpt>
      <trkpt lat="59.244186" lon="18.108959">
        <ele>0</ele>
        <time>2020-01-16T16:33:33Z</time>
      </trkpt>
      <trkpt lat="59.244212" lon="18.108905">
        <ele>30</ele>
        <time>2020-01-16T16:33:34Z</time>
      </trkpt>
      <trkpt lat="59.244238" lon="18.108851">
        <ele>30</ele>
        <time>2020-01-16T16:33:36Z</time>
      </trkpt>
      <trkpt lat="59.244265" lon="18.108797">
        <ele>0</ele>
        <time>2020-01-16T16:33:36Z</time>
      </trkpt>
      <trkpt lat="59.244291" lon="18.108743">
        <ele>30</ele>
        <time>2020-01-16T16:33:37Z</time>
      </trkpt>
      <trkpt lat="59.244319" lon="18.108689">
        <ele>30</ele>
        <time>2020-01-16T16:33:39Z</time>
      </trkpt>
      <trkpt lat="59.244348" lon="18.108635">
        <ele>30</ele>
        <time>2020-01-16T16:33:40Z</time>
      </trkpt>
      <trkpt lat="59.244378" lon="18.108579">
        <ele>30</ele>
        <time>2020-01-16T16:33:41Z</time>
      </trkpt>
      <trkpt lat="59.244407" lon="18.108521">
        <ele>30</ele>
        <time>2020-01-16T16:33:42Z</time>
      </trkpt>
      <trkpt lat="59.244437" lon="18.108463">
        <ele>31</ele>
        <time>2020-01-16T16:33:43Z</time>
      </trkpt>
      <trkpt lat="59.244467" lon="18.108407">
        <ele>31</ele>
        <time>2020-01-16T16:33:44Z</time>
      </trkpt>
      <trkpt lat="59.244496" lon="18.108349">
        <ele>31</ele>
        <time>2020-01-16T16:33:45Z</time>
      </trkpt>
      <trkpt lat="59.244526" lon="18.108292">
        <ele>0</ele>
        <time>2020-01-16T16:33:45Z</time>
      </trkpt>
      <trkpt lat="59.244555" lon="18.108236">
        <ele>31</ele>
        <time>2020-01-16T16:33:46Z</time>
      </trkpt>
      <trkpt lat="59.244583" lon="18.10818">
        <ele>31</ele>
        <time>2020-01-16T16:33:48Z</time>
      </trkpt>
      <trkpt lat="59.244611" lon="18.108122">
        <ele>31</ele>
        <time>2020-01-16T16:33:49Z</time>
      </trkpt>
      <trkpt lat="59.244638" lon="18.108066">
        <ele>31</ele>
        <time>2020-01-16T16:33:50Z</time>
      </trkpt>
      <trkpt lat="59.244666" lon="18.108009">
        <ele>31</ele>
        <time>2020-01-16T16:33:51Z</time>
      </trkpt>
      <trkpt lat="59.244695" lon="18.107954">
        <ele>31</ele>
        <time>2020-01-16T16:33:52Z</time>
      </trkpt>
      <trkpt lat="59.244725" lon="18.107901">
        <ele>31</ele>
        <time>2020-01-16T16:33:53Z</time>
      </trkpt>
      <trkpt lat="59.244754" lon="18.107849">
        <ele>31</ele>
        <time>2020-01-16T16:33:54Z</time>
      </trkpt>
      <trkpt lat="59.244781" lon="18.107797">
        <ele>32</ele>
        <time>2020-01-16T16:33:55Z</time>
      </trkpt>
      <trkpt lat="59.244809" lon="18.107742">
        <ele>0</ele>
        <time>2020-01-16T16:33:55Z</time>
      </trkpt>
      <trkpt lat="59.244837" lon="18.107688">
        <ele>32</ele>
        <time>2020-01-16T16:33:56Z</time>
      </trkpt>
      <trkpt lat="59.244864" lon="18.107633">
        <ele>0</ele>
        <time>2020-01-16T16:33:57Z</time>
      </trkpt>
      <trkpt lat="59.244893" lon="18.107579">
        <ele>32</ele>
        <time>2020-01-16T16:33:58Z</time>
      </trkpt>
      <trkpt lat="59.244924" lon="18.107527">
        <ele>32</ele>
        <time>2020-01-16T16:34:00Z</time>
      </trkpt>
      <trkpt lat="59.244957" lon="18.107479">
        <ele>32</ele>
        <time>2020-01-16T16:34:01Z</time>
      </trkpt>
      <trkpt lat="59.24499" lon="18.107429">
        <ele>32</ele>
        <time>2020-01-16T16:34:02Z</time>
      </trkpt>
      <trkpt lat="59.245024" lon="18.107377">
        <ele>32</ele>
        <time>2020-01-16T16:34:03Z</time>
      </trkpt>
      <trkpt lat="59.245059" lon="18.107321">
        <ele>32</ele>
        <time>2020-01-16T16:34:04Z</time>
      </trkpt>
      <trkpt lat="59.245095" lon="18.107262">
        <ele>32</ele>
        <time>2020-01-16T16:34:05Z</time>
      </trkpt>
      <trkpt lat="59.245131" lon="18.107203">
        <ele>32</ele>
        <time>2020-01-16T16:34:06Z</time>
      </trkpt>
      <trkpt lat="59.245167" lon="18.10714">
        <ele>32</ele>
        <time>2020-01-16T16:34:07Z</time>
      </trkpt>
      <trkpt lat="59.245204" lon="18.107069">
        <ele>31</ele>
        <time>2020-01-16T16:34:08Z</time>
      </trkpt>
      <trkpt lat="59.245243" lon="18.106996">
        <ele>31</ele>
        <time>2020-01-16T16:34:09Z</time>
      </trkpt>
      <trkpt lat="59.245283" lon="18.106921">
        <ele>0</ele>
        <time>2020-01-16T16:34:09Z</time>
      </trkpt>
      <trkpt lat="59.245323" lon="18.106844">
        <ele>31</ele>
        <time>2020-01-16T16:34:10Z</time>
      </trkpt>
      <trkpt lat="59.245363" lon="18.106768">
        <ele>31</ele>
        <time>2020-01-16T16:34:12Z</time>
      </trkpt>
      <trkpt lat="59.245404" lon="18.106688">
        <ele>31</ele>
        <time>2020-01-16T16:34:13Z</time>
      </trkpt>
      <trkpt lat="59.245447" lon="18.106607">
        <ele>31</ele>
        <time>2020-01-16T16:34:14Z</time>
      </trkpt>
      <trkpt lat="59.245492" lon="18.106523">
        <ele>0</ele>
        <time>2020-01-16T16:34:14Z</time>
      </trkpt>
      <trkpt lat="59.245538" lon="18.106439">
        <ele>31</ele>
        <time>2020-01-16T16:34:15Z</time>
      </trkpt>
      <trkpt lat="59.245583" lon="18.10636">
        <ele>0</ele>
        <time>2020-01-16T16:34:16Z</time>
      </trkpt>
      <trkpt lat="59.245628" lon="18.106285">
        <ele>31</ele>
        <time>2020-01-16T16:34:17Z</time>
      </trkpt>
      <trkpt lat="59.245676" lon="18.106214">
        <ele>31</ele>
        <time>2020-01-16T16:34:19Z</time>
      </trkpt>
      <trkpt lat="59.245729" lon="18.106138">
        <ele>30</ele>
        <time>2020-01-16T16:34:20Z</time>
      </trkpt>
      <trkpt lat="59.24579" lon="18.106048">
        <ele>30</ele>
        <time>2020-01-16T16:34:21Z</time>
      </trkpt>
      <trkpt lat="59.245852" lon="18.105958">
        <ele>30</ele>
        <time>2020-01-16T16:34:22Z</time>
      </trkpt>
      <trkpt lat="59.245914" lon="18.105872">
        <ele>30</ele>
        <time>2020-01-16T16:34:23Z</time>
      </trkpt>
      <trkpt lat="59.245974" lon="18.105786">
        <ele>30</ele>
        <time>2020-01-16T16:34:24Z</time>
      </trkpt>
      <trkpt lat="59.246033" lon="18.105702">
        <ele>0</ele>
        <time>2020-01-16T16:34:24Z</time>
      </trkpt>
      <trkpt lat="59.246092" lon="18.105617">
        <ele>30</ele>
        <time>2020-01-16T16:34:25Z</time>
      </trkpt>
      <trkpt lat="59.246153" lon="18.105534">
        <ele>29</ele>
        <time>2020-01-16T16:34:27Z</time>
      </trkpt>
      <trkpt lat="59.246218" lon="18.105461">
        <ele>29</ele>
        <time>2020-01-16T16:34:28Z</time>
      </trkpt>
      <trkpt lat="59.246289" lon="18.105409">
        <ele>29</ele>
        <time>2020-01-16T16:34:29Z</time>
      </trkpt>
      <trkpt lat="59.246366" lon="18.105381">
        <ele>0</ele>
        <time>2020-01-16T16:34:29Z</time>
      </trkpt>
      <trkpt lat="59.246444" lon="18.105361">
        <ele>28</ele>
        <time>2020-01-16T16:34:30Z</time>
      </trkpt>
      <trkpt lat="59.246526" lon="18.10533">
        <ele>28</ele>
        <time>2020-01-16T16:34:32Z</time>
      </trkpt>
      <trkpt lat="59.246603" lon="18.105276">
        <ele>28</ele>
        <time>2020-01-16T16:34:33Z</time>
      </trkpt>
      <trkpt lat="59.246677" lon="18.105193">
        <ele>0</ele>
        <time>2020-01-16T16:34:33Z</time>
      </trkpt>
      <trkpt lat="59.246745" lon="18.105101">
        <ele>27</ele>
        <time>2020-01-16T16:34:34Z</time>
      </trkpt>
      <trkpt lat="59.246808" lon="18.105016">
        <ele>27</ele>
        <time>2020-01-16T16:34:36Z</time>
      </trkpt>
      <trkpt lat="59.246867" lon="18.104934">
        <ele>0</ele>
        <time>2020-01-16T16:34:36Z</time>
      </trkpt>
      <trkpt lat="59.246919" lon="18.104856">
        <ele>27</ele>
        <time>2020-01-16T16:34:37Z</time>
      </trkpt>
      <trkpt lat="59.246955" lon="18.104771">
        <ele>27</ele>
        <time>2020-01-16T16:34:39Z</time>
      </trkpt>
      <trkpt lat="59.246967" lon="18.104673">
        <ele>27</ele>
        <time>2020-01-16T16:34:40Z</time>
      </trkpt>
      <trkpt lat="59.246965" lon="18.104568">
        <ele>27</ele>
        <time>2020-01-16T16:34:41Z</time>
      </trkpt>
      <trkpt lat="59.246961" lon="18.104468">
        <ele>27</ele>
        <time>2020-01-16T16:34:42Z</time>
      </trkpt>
      <trkpt lat="59.24696" lon="18.104374">
        <ele>28</ele>
        <time>2020-01-16T16:34:43Z</time>
      </trkpt>
      <trkpt lat="59.246939" lon="18.104168">
        <ele>28</ele>
        <time>2020-01-16T16:34:45Z</time>
      </trkpt>
      <trkpt lat="59.246939" lon="18.104063">
        <ele>28</ele>
        <time>2020-01-16T16:34:46Z</time>
      </trkpt>
      <trkpt lat="59.246949" lon="18.10396">
        <ele>0</ele>
        <time>2020-01-16T16:34:46Z</time>
      </trkpt>
      <trkpt lat="59.246969" lon="18.10386">
        <ele>28</ele>
        <time>2020-01-16T16:34:47Z</time>
      </trkpt>
      <trkpt lat="59.246988" lon="18.103777">
        <ele>28</ele>
        <time>2020-01-16T16:34:49Z</time>
      </trkpt>
      <trkpt lat="59.247014" lon="18.103698">
        <ele>28</ele>
        <time>2020-01-16T16:34:50Z</time>
      </trkpt>
      <trkpt lat="59.24705" lon="18.103619">
        <ele>28</ele>
        <time>2020-01-16T16:34:51Z</time>
      </trkpt>
      <trkpt lat="59.247084" lon="18.103553">
        <ele>28</ele>
        <time>2020-01-16T16:34:52Z</time>
      </trkpt>
      <trkpt lat="59.247119" lon="18.103494">
        <ele>0</ele>
        <time>2020-01-16T16:34:52Z</time>
      </trkpt>
      <trkpt lat="59.247153" lon="18.10344">
        <ele>29</ele>
        <time>2020-01-16T16:34:53Z</time>
      </trkpt>
      <trkpt lat="59.247186" lon="18.103395">
        <ele>29</ele>
        <time>2020-01-16T16:34:55Z</time>
      </trkpt>
      <trkpt lat="59.247209" lon="18.103359">
        <ele>29</ele>
        <time>2020-01-16T16:34:56Z</time>
      </trkpt>
      <trkpt lat="59.247234" lon="18.103321">
        <ele>29</ele>
        <time>2020-01-16T16:34:57Z</time>
      </trkpt>
      <trkpt lat="59.247262" lon="18.103279">
        <ele>29</ele>
        <time>2020-01-16T16:34:58Z</time>
      </trkpt>
      <trkpt lat="59.247298" lon="18.103228">
        <ele>0</ele>
        <time>2020-01-16T16:34:58Z</time>
      </trkpt>
      <trkpt lat="59.247331" lon="18.103178">
        <ele>29</ele>
        <time>2020-01-16T16:34:59Z</time>
      </trkpt>
      <trkpt lat="59.247356" lon="18.103129">
        <ele>29</ele>
        <time>2020-01-16T16:35:01Z</time>
      </trkpt>
      <trkpt lat="59.247382" lon="18.103082">
        <ele>29</ele>
        <time>2020-01-16T16:35:02Z</time>
      </trkpt>
      <trkpt lat="59.247408" lon="18.103032">
        <ele>29</ele>
        <time>2020-01-16T16:35:03Z</time>
      </trkpt>
      <trkpt lat="59.247434" lon="18.102972">
        <ele>30</ele>
        <time>2020-01-16T16:35:04Z</time>
      </trkpt>
      <trkpt lat="59.24746" lon="18.102908">
        <ele>30</ele>
        <time>2020-01-16T16:35:05Z</time>
      </trkpt>
      <trkpt lat="59.247485" lon="18.102842">
        <ele>0</ele>
        <time>2020-01-16T16:35:05Z</time>
      </trkpt>
      <trkpt lat="59.247508" lon="18.102774">
        <ele>30</ele>
        <time>2020-01-16T16:35:06Z</time>
      </trkpt>
      <trkpt lat="59.247528" lon="18.102706">
        <ele>31</ele>
        <time>2020-01-16T16:35:08Z</time>
      </trkpt>
      <trkpt lat="59.247544" lon="18.102638">
        <ele>31</ele>
        <time>2020-01-16T16:35:09Z</time>
      </trkpt>
      <trkpt lat="59.24756" lon="18.102567">
        <ele>31</ele>
        <time>2020-01-16T16:35:10Z</time>
      </trkpt>
      <trkpt lat="59.24758" lon="18.10249">
        <ele>0</ele>
        <time>2020-01-16T16:35:10Z</time>
      </trkpt>
      <trkpt lat="59.247599" lon="18.102415">
        <ele>31</ele>
        <time>2020-01-16T16:35:11Z</time>
      </trkpt>
      <trkpt lat="59.247619" lon="18.102339">
        <ele>31</ele>
        <time>2020-01-16T16:35:12Z</time>
      </trkpt>
      <trkpt lat="59.247636" lon="18.102263">
        <ele>31</ele>
        <time>2020-01-16T16:35:14Z</time>
      </trkpt>
      <trkpt lat="59.247652" lon="18.102188">
        <ele>31</ele>
        <time>2020-01-16T16:35:15Z</time>
      </trkpt>
      <trkpt lat="59.247665" lon="18.102115">
        <ele>31</ele>
        <time>2020-01-16T16:35:16Z</time>
      </trkpt>
      <trkpt lat="59.247679" lon="18.102042">
        <ele>31</ele>
        <time>2020-01-16T16:35:17Z</time>
      </trkpt>
      <trkpt lat="59.247689" lon="18.101971">
        <ele>31</ele>
        <time>2020-01-16T16:35:18Z</time>
      </trkpt>
      <trkpt lat="59.247701" lon="18.101896">
        <ele>32</ele>
        <time>2020-01-16T16:35:19Z</time>
      </trkpt>
      <trkpt lat="59.247715" lon="18.101821">
        <ele>32</ele>
        <time>2020-01-16T16:35:20Z</time>
      </trkpt>
      <trkpt lat="59.247745" lon="18.101732">
        <ele>32</ele>
        <time>2020-01-16T16:35:21Z</time>
      </trkpt>
      <trkpt lat="59.247762" lon="18.101655">
        <ele>0</ele>
        <time>2020-01-16T16:35:21Z</time>
      </trkpt>
      <trkpt lat="59.247795" lon="18.10158">
        <ele>33</ele>
        <time>2020-01-16T16:35:22Z</time>
      </trkpt>
      <trkpt lat="59.247835" lon="18.101506">
        <ele>33</ele>
        <time>2020-01-16T16:35:24Z</time>
      </trkpt>
      <trkpt lat="59.247863" lon="18.101432">
        <ele>33</ele>
        <time>2020-01-16T16:35:25Z</time>
      </trkpt>
      <trkpt lat="59.247907" lon="18.10134">
        <ele>33</ele>
        <time>2020-01-16T16:35:26Z</time>
      </trkpt>
      <trkpt lat="59.247949" lon="18.101251">
        <ele>33</ele>
        <time>2020-01-16T16:35:27Z</time>
      </trkpt>
      <trkpt lat="59.247984" lon="18.101166">
        <ele>33</ele>
        <time>2020-01-16T16:35:28Z</time>
      </trkpt>
      <trkpt lat="59.248018" lon="18.101082">
        <ele>32</ele>
        <time>2020-01-16T16:35:29Z</time>
      </trkpt>
      <trkpt lat="59.248052" lon="18.100999">
        <ele>32</ele>
        <time>2020-01-16T16:35:30Z</time>
      </trkpt>
      <trkpt lat="59.248088" lon="18.100919">
        <ele>0</ele>
        <time>2020-01-16T16:35:30Z</time>
      </trkpt>
      <trkpt lat="59.248125" lon="18.10084">
        <ele>32</ele>
        <time>2020-01-16T16:35:31Z</time>
      </trkpt>
      <trkpt lat="59.248165" lon="18.100766">
        <ele>32</ele>
        <time>2020-01-16T16:35:32Z</time>
      </trkpt>
      <trkpt lat="59.248207" lon="18.100698">
        <ele>31</ele>
        <time>2020-01-16T16:35:34Z</time>
      </trkpt>
      <trkpt lat="59.248252" lon="18.100638">
        <ele>31</ele>
        <time>2020-01-16T16:35:35Z</time>
      </trkpt>
      <trkpt lat="59.248302" lon="18.100585">
        <ele>31</ele>
        <time>2020-01-16T16:35:36Z</time>
      </trkpt>
      <trkpt lat="59.248356" lon="18.100537">
        <ele>31</ele>
        <time>2020-01-16T16:35:37Z</time>
      </trkpt>
      <trkpt lat="59.248414" lon="18.100487">
        <ele>30</ele>
        <time>2020-01-16T16:35:38Z</time>
      </trkpt>
      <trkpt lat="59.248474" lon="18.100432">
        <ele>30</ele>
        <time>2020-01-16T16:35:39Z</time>
      </trkpt>
      <trkpt lat="59.248532" lon="18.10037">
        <ele>0</ele>
        <time>2020-01-16T16:35:39Z</time>
      </trkpt>
      <trkpt lat="59.248587" lon="18.100307">
        <ele>30</ele>
        <time>2020-01-16T16:35:40Z</time>
      </trkpt>
      <trkpt lat="59.248637" lon="18.100238">
        <ele>30</ele>
        <time>2020-01-16T16:35:42Z</time>
      </trkpt>
      <trkpt lat="59.248685" lon="18.100169">
        <ele>30</ele>
        <time>2020-01-16T16:35:43Z</time>
      </trkpt>
      <trkpt lat="59.248733" lon="18.100101">
        <ele>29</ele>
        <time>2020-01-16T16:35:44Z</time>
      </trkpt>
      <trkpt lat="59.248781" lon="18.100034">
        <ele>29</ele>
        <time>2020-01-16T16:35:45Z</time>
      </trkpt>
      <trkpt lat="59.248829" lon="18.099969">
        <ele>29</ele>
        <time>2020-01-16T16:35:46Z</time>
      </trkpt>
      <trkpt lat="59.248879" lon="18.099907">
        <ele>29</ele>
        <time>2020-01-16T16:35:47Z</time>
      </trkpt>
      <trkpt lat="59.248931" lon="18.099848">
        <ele>0</ele>
        <time>2020-01-16T16:35:47Z</time>
      </trkpt>
      <trkpt lat="59.248986" lon="18.099794">
        <ele>29</ele>
        <time>2020-01-16T16:35:48Z</time>
      </trkpt>
      <trkpt lat="59.249044" lon="18.099743">
        <ele>0</ele>
        <time>2020-01-16T16:35:49Z</time>
      </trkpt>
      <trkpt lat="59.249102" lon="18.099696">
        <ele>29</ele>
        <time>2020-01-16T16:35:50Z</time>
      </trkpt>
      <trkpt lat="59.249164" lon="18.099659">
        <ele>28</ele>
        <time>2020-01-16T16:35:52Z</time>
      </trkpt>
      <trkpt lat="59.249229" lon="18.099627">
        <ele>28</ele>
        <time>2020-01-16T16:35:53Z</time>
      </trkpt>
      <trkpt lat="59.249294" lon="18.0996">
        <ele>28</ele>
        <time>2020-01-16T16:35:54Z</time>
      </trkpt>
      <trkpt lat="59.249359" lon="18.099573">
        <ele>0</ele>
        <time>2020-01-16T16:35:54Z</time>
      </trkpt>
      <trkpt lat="59.249423" lon="18.099544">
        <ele>28</ele>
        <time>2020-01-16T16:35:55Z</time>
      </trkpt>
      <trkpt lat="59.249489" lon="18.099517">
        <ele>28</ele>
        <time>2020-01-16T16:35:57Z</time>
      </trkpt>
      <trkpt lat="59.249555" lon="18.099494">
        <ele>28</ele>
        <time>2020-01-16T16:35:58Z</time>
      </trkpt>
      <trkpt lat="59.249621" lon="18.099476">
        <ele>28</ele>
        <time>2020-01-16T16:35:59Z</time>
      </trkpt>
      <trkpt lat="59.249689" lon="18.099474">
        <ele>28</ele>
        <time>2020-01-16T16:36:00Z</time>
      </trkpt>
      <trkpt lat="59.249756" lon="18.099486">
        <ele>28</ele>
        <time>2020-01-16T16:36:01Z</time>
      </trkpt>
      <trkpt lat="59.249819" lon="18.099504">
        <ele>28</ele>
        <time>2020-01-16T16:36:02Z</time>
      </trkpt>
      <trkpt lat="59.249877" lon="18.099527">
        <ele>28</ele>
        <time>2020-01-16T16:36:03Z</time>
      </trkpt>
      <trkpt lat="59.249931" lon="18.099553">
        <ele>0</ele>
        <time>2020-01-16T16:36:03Z</time>
      </trkpt>
      <trkpt lat="59.249981" lon="18.099581">
        <ele>28</ele>
        <time>2020-01-16T16:36:04Z</time>
      </trkpt>
      <trkpt lat="59.25003" lon="18.099606">
        <ele>28</ele>
        <time>2020-01-16T16:36:06Z</time>
      </trkpt>
      <trkpt lat="59.25008" lon="18.099626">
        <ele>29</ele>
        <time>2020-01-16T16:36:07Z</time>
      </trkpt>
      <trkpt lat="59.250127" lon="18.099646">
        <ele>29</ele>
        <time>2020-01-16T16:36:08Z</time>
      </trkpt>
      <trkpt lat="59.250174" lon="18.099667">
        <ele>0</ele>
        <time>2020-01-16T16:36:08Z</time>
      </trkpt>
      <trkpt lat="59.250219" lon="18.099687">
        <ele>29</ele>
        <time>2020-01-16T16:36:09Z</time>
      </trkpt>
      <trkpt lat="59.250264" lon="18.099707">
        <ele>29</ele>
        <time>2020-01-16T16:36:11Z</time>
      </trkpt>
      <trkpt lat="59.250308" lon="18.099728">
        <ele>29</ele>
        <time>2020-01-16T16:36:12Z</time>
      </trkpt>
      <trkpt lat="59.250352" lon="18.099748">
        <ele>29</ele>
        <time>2020-01-16T16:36:13Z</time>
      </trkpt>
      <trkpt lat="59.250395" lon="18.099771">
        <ele>0</ele>
        <time>2020-01-16T16:36:13Z</time>
      </trkpt>
      <trkpt lat="59.250435" lon="18.099795">
        <ele>30</ele>
        <time>2020-01-16T16:36:14Z</time>
      </trkpt>
      <trkpt lat="59.250473" lon="18.099823">
        <ele>30</ele>
        <time>2020-01-16T16:36:16Z</time>
      </trkpt>
      <trkpt lat="59.25051" lon="18.099855">
        <ele>30</ele>
        <time>2020-01-16T16:36:17Z</time>
      </trkpt>
      <trkpt lat="59.250545" lon="18.099892">
        <ele>30</ele>
        <time>2020-01-16T16:36:18Z</time>
      </trkpt>
      <trkpt lat="59.250579" lon="18.099935">
        <ele>30</ele>
        <time>2020-01-16T16:36:19Z</time>
      </trkpt>
      <trkpt lat="59.250611" lon="18.099981">
        <ele>30</ele>
        <time>2020-01-16T16:36:20Z</time>
      </trkpt>
      <trkpt lat="59.250642" lon="18.10003">
        <ele>30</ele>
        <time>2020-01-16T16:36:21Z</time>
      </trkpt>
      <trkpt lat="59.250673" lon="18.100082">
        <ele>30</ele>
        <time>2020-01-16T16:36:22Z</time>
      </trkpt>
      <trkpt lat="59.250704" lon="18.10014">
        <ele>30</ele>
        <time>2020-01-16T16:36:23Z</time>
      </trkpt>
      <trkpt lat="59.250735" lon="18.100205">
        <ele>30</ele>
        <time>2020-01-16T16:36:24Z</time>
      </trkpt>
      <trkpt lat="59.250764" lon="18.100278">
        <ele>30</ele>
        <time>2020-01-16T16:36:25Z</time>
      </trkpt>
      <trkpt lat="59.250795" lon="18.100355">
        <ele>30</ele>
        <time>2020-01-16T16:36:26Z</time>
      </trkpt>
      <trkpt lat="59.250829" lon="18.100431">
        <ele>0</ele>
        <time>2020-01-16T16:36:26Z</time>
      </trkpt>
      <trkpt lat="59.250869" lon="18.100504">
        <ele>30</ele>
        <time>2020-01-16T16:36:27Z</time>
      </trkpt>
      <trkpt lat="59.250912" lon="18.100575">
        <ele>30</ele>
        <time>2020-01-16T16:36:28Z</time>
      </trkpt>
      <trkpt lat="59.250959" lon="18.100645">
        <ele>29</ele>
        <time>2020-01-16T16:36:30Z</time>
      </trkpt>
      <trkpt lat="59.25101" lon="18.100709">
        <ele>29</ele>
        <time>2020-01-16T16:36:31Z</time>
      </trkpt>
      <trkpt lat="59.251066" lon="18.100768">
        <ele>29</ele>
        <time>2020-01-16T16:36:32Z</time>
      </trkpt>
      <trkpt lat="59.251124" lon="18.100825">
        <ele>29</ele>
        <time>2020-01-16T16:36:33Z</time>
      </trkpt>
      <trkpt lat="59.251185" lon="18.100875">
        <ele>0</ele>
        <time>2020-01-16T16:36:33Z</time>
      </trkpt>
      <trkpt lat="59.251249" lon="18.100918">
        <ele>29</ele>
        <time>2020-01-16T16:36:34Z</time>
      </trkpt>
      <trkpt lat="59.251316" lon="18.10095">
        <ele>29</ele>
        <time>2020-01-16T16:36:36Z</time>
      </trkpt>
      <trkpt lat="59.251384" lon="18.100967">
        <ele>29</ele>
        <time>2020-01-16T16:36:37Z</time>
      </trkpt>
      <trkpt lat="59.251454" lon="18.100961">
        <ele>29</ele>
        <time>2020-01-16T16:36:38Z</time>
      </trkpt>
      <trkpt lat="59.251523" lon="18.100935">
        <ele>29</ele>
        <time>2020-01-16T16:36:39Z</time>
      </trkpt>
      <trkpt lat="59.251591" lon="18.100897">
        <ele>29</ele>
        <time>2020-01-16T16:36:40Z</time>
      </trkpt>
      <trkpt lat="59.25166" lon="18.100854">
        <ele>29</ele>
        <time>2020-01-16T16:36:41Z</time>
      </trkpt>
      <trkpt lat="59.25173" lon="18.100811">
        <ele>0</ele>
        <time>2020-01-16T16:36:41Z</time>
      </trkpt>
      <trkpt lat="59.251801" lon="18.100767">
        <ele>28</ele>
        <time>2020-01-16T16:36:42Z</time>
      </trkpt>
      <trkpt lat="59.251873" lon="18.10072">
        <ele>27</ele>
        <time>2020-01-16T16:36:44Z</time>
      </trkpt>
      <trkpt lat="59.251947" lon="18.100673">
        <ele>27</ele>
        <time>2020-01-16T16:36:45Z</time>
      </trkpt>
      <trkpt lat="59.252023" lon="18.100625">
        <ele>26</ele>
        <time>2020-01-16T16:36:46Z</time>
      </trkpt>
      <trkpt lat="59.252101" lon="18.100575">
        <ele>0</ele>
        <time>2020-01-16T16:36:46Z</time>
      </trkpt>
      <trkpt lat="59.252181" lon="18.100525">
        <ele>26</ele>
        <time>2020-01-16T16:36:47Z</time>
      </trkpt>
      <trkpt lat="59.252262" lon="18.100475">
        <ele>26</ele>
        <time>2020-01-16T16:36:49Z</time>
      </trkpt>
      <trkpt lat="59.252345" lon="18.100424">
        <ele>25</ele>
        <time>2020-01-16T16:36:50Z</time>
      </trkpt>
      <trkpt lat="59.252429" lon="18.100375">
        <ele>25</ele>
        <time>2020-01-16T16:36:51Z</time>
      </trkpt>
      <trkpt lat="59.252513" lon="18.100329">
        <ele>25</ele>
        <time>2020-01-16T16:36:52Z</time>
      </trkpt>
      <trkpt lat="59.252596" lon="18.100286">
        <ele>25</ele>
        <time>2020-01-16T16:36:53Z</time>
      </trkpt>
      <trkpt lat="59.25268" lon="18.100247">
        <ele>0</ele>
        <time>2020-01-16T16:36:53Z</time>
      </trkpt>
      <trkpt lat="59.252761" lon="18.100215">
        <ele>25</ele>
        <time>2020-01-16T16:36:54Z</time>
      </trkpt>
      <trkpt lat="59.252841" lon="18.100192">
        <ele>24</ele>
        <time>2020-01-16T16:36:56Z</time>
      </trkpt>
      <trkpt lat="59.252921" lon="18.100178">
        <ele>24</ele>
        <time>2020-01-16T16:36:57Z</time>
      </trkpt>
      <trkpt lat="59.252998" lon="18.10017">
        <ele>24</ele>
        <time>2020-01-16T16:36:58Z</time>
      </trkpt>
      <trkpt lat="59.253074" lon="18.10017">
        <ele>24</ele>
        <time>2020-01-16T16:36:59Z</time>
      </trkpt>
      <trkpt lat="59.253147" lon="18.100178">
        <ele>0</ele>
        <time>2020-01-16T16:36:59Z</time>
      </trkpt>
      <trkpt lat="59.253215" lon="18.100199">
        <ele>24</ele>
        <time>2020-01-16T16:37:00Z</time>
      </trkpt>
      <trkpt lat="59.253278" lon="18.100235">
        <ele>24</ele>
        <time>2020-01-16T16:37:02Z</time>
      </trkpt>
      <trkpt lat="59.253338" lon="18.100279">
        <ele>25</ele>
        <time>2020-01-16T16:37:03Z</time>
      </trkpt>
      <trkpt lat="59.253397" lon="18.100326">
        <ele>24</ele>
        <time>2020-01-16T16:37:04Z</time>
      </trkpt>
      <trkpt lat="59.253456" lon="18.100371">
        <ele>24</ele>
        <time>2020-01-16T16:37:05Z</time>
      </trkpt>
      <trkpt lat="59.253516" lon="18.100412">
        <ele>0</ele>
        <time>2020-01-16T16:37:05Z</time>
      </trkpt>
      <trkpt lat="59.253574" lon="18.100451">
        <ele>24</ele>
        <time>2020-01-16T16:37:06Z</time>
      </trkpt>
      <trkpt lat="59.253634" lon="18.100488">
        <ele>24</ele>
        <time>2020-01-16T16:37:07Z</time>
      </trkpt>
      <trkpt lat="59.253692" lon="18.100521">
        <ele>24</ele>
        <time>2020-01-16T16:37:09Z</time>
      </trkpt>
      <trkpt lat="59.25375" lon="18.100547">
        <ele>25</ele>
        <time>2020-01-16T16:37:10Z</time>
      </trkpt>
      <trkpt lat="59.253809" lon="18.100569">
        <ele>25</ele>
        <time>2020-01-16T16:37:11Z</time>
      </trkpt>
      <trkpt lat="59.253867" lon="18.100587">
        <ele>25</ele>
        <time>2020-01-16T16:37:12Z</time>
      </trkpt>
      <trkpt lat="59.253924" lon="18.100607">
        <ele>25</ele>
        <time>2020-01-16T16:37:13Z</time>
      </trkpt>
      <trkpt lat="59.25398" lon="18.100629">
        <ele>25</ele>
        <time>2020-01-16T16:37:14Z</time>
      </trkpt>
      <trkpt lat="59.254036" lon="18.100648">
        <ele>25</ele>
        <time>2020-01-16T16:37:15Z</time>
      </trkpt>
      <trkpt lat="59.254091" lon="18.100661">
        <ele>25</ele>
        <time>2020-01-16T16:37:16Z</time>
      </trkpt>
      <trkpt lat="59.254146" lon="18.100667">
        <ele>0</ele>
        <time>2020-01-16T16:37:16Z</time>
      </trkpt>
      <trkpt lat="59.254204" lon="18.100671">
        <ele>25</ele>
        <time>2020-01-16T16:37:17Z</time>
      </trkpt>
      <trkpt lat="59.25426" lon="18.100677">
        <ele>25</ele>
        <time>2020-01-16T16:37:19Z</time>
      </trkpt>
      <trkpt lat="59.254318" lon="18.100692">
        <ele>25</ele>
        <time>2020-01-16T16:37:20Z</time>
      </trkpt>
      <trkpt lat="59.254376" lon="18.100711">
        <ele>25</ele>
        <time>2020-01-16T16:37:21Z</time>
      </trkpt>
      <trkpt lat="59.254434" lon="18.10073">
        <ele>25</ele>
        <time>2020-01-16T16:37:22Z</time>
      </trkpt>
      <trkpt lat="59.254492" lon="18.100752">
        <ele>25</ele>
        <time>2020-01-16T16:37:23Z</time>
      </trkpt>
      <trkpt lat="59.25455" lon="18.100773">
        <ele>25</ele>
        <time>2020-01-16T16:37:24Z</time>
      </trkpt>
      <trkpt lat="59.254608" lon="18.100794">
        <ele>0</ele>
        <time>2020-01-16T16:37:24Z</time>
      </trkpt>
      <trkpt lat="59.254665" lon="18.100815">
        <ele>25</ele>
        <time>2020-01-16T16:37:25Z</time>
      </trkpt>
      <trkpt lat="59.254722" lon="18.100834">
        <ele>25</ele>
        <time>2020-01-16T16:37:27Z</time>
      </trkpt>
      <trkpt lat="59.254776" lon="18.100851">
        <ele>25</ele>
        <time>2020-01-16T16:37:28Z</time>
      </trkpt>
      <trkpt lat="59.254828" lon="18.100868">
        <ele>25</ele>
        <time>2020-01-16T16:37:29Z</time>
      </trkpt>
      <trkpt lat="59.254878" lon="18.100887">
        <ele>25</ele>
        <time>2020-01-16T16:37:30Z</time>
      </trkpt>
      <trkpt lat="59.25493" lon="18.100905">
        <ele>25</ele>
        <time>2020-01-16T16:37:31Z</time>
      </trkpt>
      <trkpt lat="59.254988" lon="18.100919">
        <ele>25</ele>
        <time>2020-01-16T16:37:32Z</time>
      </trkpt>
      <trkpt lat="59.255042" lon="18.100932">
        <ele>25</ele>
        <time>2020-01-16T16:37:33Z</time>
      </trkpt>
      <trkpt lat="59.255096" lon="18.100947">
        <ele>0</ele>
        <time>2020-01-16T16:37:33Z</time>
      </trkpt>
      <trkpt lat="59.255154" lon="18.100959">
        <ele>26</ele>
        <time>2020-01-16T16:37:34Z</time>
      </trkpt>
      <trkpt lat="59.25521" lon="18.10097">
        <ele>26</ele>
        <time>2020-01-16T16:37:36Z</time>
      </trkpt>
      <trkpt lat="59.255264" lon="18.100983">
        <ele>26</ele>
        <time>2020-01-16T16:37:37Z</time>
      </trkpt>
      <trkpt lat="59.255328" lon="18.100992">
        <ele>26</ele>
        <time>2020-01-16T16:37:38Z</time>
      </trkpt>
      <trkpt lat="59.255389" lon="18.101">
        <ele>26</ele>
        <time>2020-01-16T16:37:39Z</time>
      </trkpt>
      <trkpt lat="59.255448" lon="18.101007">
        <ele>26</ele>
        <time>2020-01-16T16:37:40Z</time>
      </trkpt>
      <trkpt lat="59.255506" lon="18.101017">
        <ele>26</ele>
        <time>2020-01-16T16:37:41Z</time>
      </trkpt>
      <trkpt lat="59.255564" lon="18.101027">
        <ele>26</ele>
        <time>2020-01-16T16:37:42Z</time>
      </trkpt>
      <trkpt lat="59.255622" lon="18.101038">
        <ele>0</ele>
        <time>2020-01-16T16:37:42Z</time>
      </trkpt>
      <trkpt lat="59.255677" lon="18.101051">
        <ele>26</ele>
        <time>2020-01-16T16:37:43Z</time>
      </trkpt>
      <trkpt lat="59.255731" lon="18.101061">
        <ele>26</ele>
        <time>2020-01-16T16:37:44Z</time>
      </trkpt>
      <trkpt lat="59.255787" lon="18.101068">
        <ele>26</ele>
        <time>2020-01-16T16:37:46Z</time>
      </trkpt>
      <trkpt lat="59.25584" lon="18.101076">
        <ele>27</ele>
        <time>2020-01-16T16:37:47Z</time>
      </trkpt>
      <trkpt lat="59.255889" lon="18.101088">
        <ele>27</ele>
        <time>2020-01-16T16:37:48Z</time>
      </trkpt>
      <trkpt lat="59.25594" lon="18.101102">
        <ele>27</ele>
        <time>2020-01-16T16:37:49Z</time>
      </trkpt>
      <trkpt lat="59.255993" lon="18.10111">
        <ele>27</ele>
        <time>2020-01-16T16:37:50Z</time>
      </trkpt>
      <trkpt lat="59.256048" lon="18.101117">
        <ele>0</ele>
        <time>2020-01-16T16:37:50Z</time>
      </trkpt>
      <trkpt lat="59.256104" lon="18.101124">
        <ele>27</ele>
        <time>2020-01-16T16:37:51Z</time>
      </trkpt>
      <trkpt lat="59.256162" lon="18.101129">
        <ele>27</ele>
        <time>2020-01-16T16:37:53Z</time>
      </trkpt>
      <trkpt lat="59.25622" lon="18.101134">
        <ele>27</ele>
        <time>2020-01-16T16:37:54Z</time>
      </trkpt>
      <trkpt lat="59.256278" lon="18.10114">
        <ele>27</ele>
        <time>2020-01-16T16:37:55Z</time>
      </trkpt>
      <trkpt lat="59.256339" lon="18.101147">
        <ele>27</ele>
        <time>2020-01-16T16:37:56Z</time>
      </trkpt>
      <trkpt lat="59.256396" lon="18.101155">
        <ele>28</ele>
        <time>2020-01-16T16:37:57Z</time>
      </trkpt>
      <trkpt lat="59.256444" lon="18.101165">
        <ele>28</ele>
        <time>2020-01-16T16:37:58Z</time>
      </trkpt>
      <trkpt lat="59.256502" lon="18.101167">
        <ele>28</ele>
        <time>2020-01-16T16:37:59Z</time>
      </trkpt>
      <trkpt lat="59.256562" lon="18.101173">
        <ele>28</ele>
        <time>2020-01-16T16:38:00Z</time>
      </trkpt>
      <trkpt lat="59.256621" lon="18.101175">
        <ele>0</ele>
        <time>2020-01-16T16:38:00Z</time>
      </trkpt>
      <trkpt lat="59.256682" lon="18.101176">
        <ele>28</ele>
        <time>2020-01-16T16:38:01Z</time>
      </trkpt>
      <trkpt lat="59.256743" lon="18.10117">
        <ele>0</ele>
        <time>2020-01-16T16:38:02Z</time>
      </trkpt>
      <trkpt lat="59.256801" lon="18.101166">
        <ele>28</ele>
        <time>2020-01-16T16:38:03Z</time>
      </trkpt>
      <trkpt lat="59.256855" lon="18.101165">
        <ele>28</ele>
        <time>2020-01-16T16:38:05Z</time>
      </trkpt>
      <trkpt lat="59.256906" lon="18.101149">
        <ele>28</ele>
        <time>2020-01-16T16:38:06Z</time>
      </trkpt>
      <trkpt lat="59.256954" lon="18.101099">
        <ele>29</ele>
        <time>2020-01-16T16:38:07Z</time>
      </trkpt>
      <trkpt lat="59.256987" lon="18.101021">
        <ele>29</ele>
        <time>2020-01-16T16:38:08Z</time>
      </trkpt>
      <trkpt lat="59.257012" lon="18.100918">
        <ele>0</ele>
        <time>2020-01-16T16:38:08Z</time>
      </trkpt>
      <trkpt lat="59.257031" lon="18.100819">
        <ele>29</ele>
        <time>2020-01-16T16:38:09Z</time>
      </trkpt>
      <trkpt lat="59.257054" lon="18.100731">
        <ele>29</ele>
        <time>2020-01-16T16:38:11Z</time>
      </trkpt>
      <trkpt lat="59.257073" lon="18.100667">
        <ele>29</ele>
        <time>2020-01-16T16:38:12Z</time>
      </trkpt>
      <trkpt lat="59.25723" lon="18.100556">
        <ele>29</ele>
        <time>2020-01-16T16:38:16Z</time>
      </trkpt>
      <trkpt lat="59.257245" lon="18.100284">
        <ele>0</ele>
        <time>2020-01-16T16:38:16Z</time>
      </trkpt>
      <trkpt lat="59.257301" lon="18.100038">
        <ele>28</ele>
        <time>2020-01-16T16:38:17Z</time>
      </trkpt>
      <trkpt lat="59.257353" lon="18.099785">
        <ele>30</ele>
        <time>2020-01-16T16:38:20Z</time>
      </trkpt>
      <trkpt lat="59.257411" lon="18.099606">
        <ele>0</ele>
        <time>2020-01-16T16:38:21Z</time>
      </trkpt>
      <trkpt lat="59.257449" lon="18.099518">
        <ele>30</ele>
        <time>2020-01-16T16:38:22Z</time>
      </trkpt>
      <trkpt lat="59.257482" lon="18.099452">
        <ele>30</ele>
        <time>2020-01-16T16:38:24Z</time>
      </trkpt>
      <trkpt lat="59.25751" lon="18.099404">
        <ele>0</ele>
        <time>2020-01-16T16:38:24Z</time>
      </trkpt>
      <trkpt lat="59.257546" lon="18.099361">
        <ele>30</ele>
        <time>2020-01-16T16:38:25Z</time>
      </trkpt>
      <trkpt lat="59.25759" lon="18.09932">
        <ele>30</ele>
        <time>2020-01-16T16:38:27Z</time>
      </trkpt>
      <trkpt lat="59.257642" lon="18.099279">
        <ele>30</ele>
        <time>2020-01-16T16:38:28Z</time>
      </trkpt>
      <trkpt lat="59.257684" lon="18.099254">
        <ele>30</ele>
        <time>2020-01-16T16:38:29Z</time>
      </trkpt>
      <trkpt lat="59.257724" lon="18.099236">
        <ele>31</ele>
        <time>2020-01-16T16:38:30Z</time>
      </trkpt>
      <trkpt lat="59.257772" lon="18.099225">
        <ele>32</ele>
        <time>2020-01-16T16:38:31Z</time>
      </trkpt>
      <trkpt lat="59.257829" lon="18.099221">
        <ele>32</ele>
        <time>2020-01-16T16:38:32Z</time>
      </trkpt>
      <trkpt lat="59.25788" lon="18.099226">
        <ele>33</ele>
        <time>2020-01-16T16:38:33Z</time>
      </trkpt>
      <trkpt lat="59.257925" lon="18.099236">
        <ele>33</ele>
        <time>2020-01-16T16:38:34Z</time>
      </trkpt>
      <trkpt lat="59.257969" lon="18.099248">
        <ele>33</ele>
        <time>2020-01-16T16:38:35Z</time>
      </trkpt>
      <trkpt lat="59.258012" lon="18.099259">
        <ele>33</ele>
        <time>2020-01-16T16:38:36Z</time>
      </trkpt>
      <trkpt lat="59.258047" lon="18.099272">
        <ele>0</ele>
        <time>2020-01-16T16:38:36Z</time>
      </trkpt>
      <trkpt lat="59.258084" lon="18.099286">
        <ele>34</ele>
        <time>2020-01-16T16:38:37Z</time>
      </trkpt>
      <trkpt lat="59.258122" lon="18.099298">
        <ele>35</ele>
        <time>2020-01-16T16:38:39Z</time>
      </trkpt>
      <trkpt lat="59.258166" lon="18.099305">
        <ele>35</ele>
        <time>2020-01-16T16:38:40Z</time>
      </trkpt>
      <trkpt lat="59.258209" lon="18.099308">
        <ele>0</ele>
        <time>2020-01-16T16:38:40Z</time>
      </trkpt>
      <trkpt lat="59.25826" lon="18.099305">
        <ele>36</ele>
        <time>2020-01-16T16:38:41Z</time>
      </trkpt>
      <trkpt lat="59.258315" lon="18.099303">
        <ele>35</ele>
        <time>2020-01-16T16:38:43Z</time>
      </trkpt>
      <trkpt lat="59.258376" lon="18.099303">
        <ele>36</ele>
        <time>2020-01-16T16:38:44Z</time>
      </trkpt>
      <trkpt lat="59.258436" lon="18.099308">
        <ele>36</ele>
        <time>2020-01-16T16:38:45Z</time>
      </trkpt>
      <trkpt lat="59.258494" lon="18.099313">
        <ele>0</ele>
        <time>2020-01-16T16:38:45Z</time>
      </trkpt>
      <trkpt lat="59.25855" lon="18.09932">
        <ele>35</ele>
        <time>2020-01-16T16:38:46Z</time>
      </trkpt>
      <trkpt lat="59.258607" lon="18.099321">
        <ele>35</ele>
        <time>2020-01-16T16:38:48Z</time>
      </trkpt>
      <trkpt lat="59.258658" lon="18.099321">
        <ele>35</ele>
        <time>2020-01-16T16:38:49Z</time>
      </trkpt>
      <trkpt lat="59.258708" lon="18.099318">
        <ele>35</ele>
        <time>2020-01-16T16:38:50Z</time>
      </trkpt>
      <trkpt lat="59.258761" lon="18.099312">
        <ele>35</ele>
        <time>2020-01-16T16:38:51Z</time>
      </trkpt>
      <trkpt lat="59.258817" lon="18.099306">
        <ele>35</ele>
        <time>2020-01-16T16:38:52Z</time>
      </trkpt>
      <trkpt lat="59.258874" lon="18.099297">
        <ele>35</ele>
        <time>2020-01-16T16:38:53Z</time>
      </trkpt>
      <trkpt lat="59.25893" lon="18.099291">
        <ele>35</ele>
        <time>2020-01-16T16:38:54Z</time>
      </trkpt>
      <trkpt lat="59.258984" lon="18.099288">
        <ele>35</ele>
        <time>2020-01-16T16:38:55Z</time>
      </trkpt>
      <trkpt lat="59.25904" lon="18.099282">
        <ele>0</ele>
        <time>2020-01-16T16:38:55Z</time>
      </trkpt>
      <trkpt lat="59.259101" lon="18.099273">
        <ele>34</ele>
        <time>2020-01-16T16:38:56Z</time>
      </trkpt>
      <trkpt lat="59.259162" lon="18.099269">
        <ele>33</ele>
        <time>2020-01-16T16:38:58Z</time>
      </trkpt>
      <trkpt lat="59.259224" lon="18.099265">
        <ele>33</ele>
        <time>2020-01-16T16:38:59Z</time>
      </trkpt>
      <trkpt lat="59.259285" lon="18.09925">
        <ele>0</ele>
        <time>2020-01-16T16:38:59Z</time>
      </trkpt>
      <trkpt lat="59.259345" lon="18.099215">
        <ele>33</ele>
        <time>2020-01-16T16:39:00Z</time>
      </trkpt>
      <trkpt lat="59.259402" lon="18.099168">
        <ele>32</ele>
        <time>2020-01-16T16:39:02Z</time>
      </trkpt>
      <trkpt lat="59.259455" lon="18.099107">
        <ele>0</ele>
        <time>2020-01-16T16:39:02Z</time>
      </trkpt>
      <trkpt lat="59.259506" lon="18.099028">
        <ele>31</ele>
        <time>2020-01-16T16:39:03Z</time>
      </trkpt>
      <trkpt lat="59.25955" lon="18.09894">
        <ele>31</ele>
        <time>2020-01-16T16:39:05Z</time>
      </trkpt>
      <trkpt lat="59.259584" lon="18.098847">
        <ele>31</ele>
        <time>2020-01-16T16:39:06Z</time>
      </trkpt>
      <trkpt lat="59.25961" lon="18.098747">
        <ele>31</ele>
        <time>2020-01-16T16:39:07Z</time>
      </trkpt>
      <trkpt lat="59.259628" lon="18.098645">
        <ele>31</ele>
        <time>2020-01-16T16:39:08Z</time>
      </trkpt>
      <trkpt lat="59.259645" lon="18.098539">
        <ele>31</ele>
        <time>2020-01-16T16:39:09Z</time>
      </trkpt>
      <trkpt lat="59.259655" lon="18.098433">
        <ele>31</ele>
        <time>2020-01-16T16:39:10Z</time>
      </trkpt>
      <trkpt lat="59.259662" lon="18.098328">
        <ele>31</ele>
        <time>2020-01-16T16:39:11Z</time>
      </trkpt>
      <trkpt lat="59.259665" lon="18.098224">
        <ele>31</ele>
        <time>2020-01-16T16:39:12Z</time>
      </trkpt>
      <trkpt lat="59.259671" lon="18.098121">
        <ele>0</ele>
        <time>2020-01-16T16:39:12Z</time>
      </trkpt>
      <trkpt lat="59.259672" lon="18.098028">
        <ele>31</ele>
        <time>2020-01-16T16:39:13Z</time>
      </trkpt>
      <trkpt lat="59.259677" lon="18.097941">
        <ele>32</ele>
        <time>2020-01-16T16:39:15Z</time>
      </trkpt>
      <trkpt lat="59.259677" lon="18.097862">
        <ele>32</ele>
        <time>2020-01-16T16:39:16Z</time>
      </trkpt>
      <trkpt lat="59.259676" lon="18.097774">
        <ele>32</ele>
        <time>2020-01-16T16:39:17Z</time>
      </trkpt>
      <trkpt lat="59.259675" lon="18.097678">
        <ele>32</ele>
        <time>2020-01-16T16:39:18Z</time>
      </trkpt>
      <trkpt lat="59.25967" lon="18.097581">
        <ele>0</ele>
        <time>2020-01-16T16:39:18Z</time>
      </trkpt>
      <trkpt lat="59.259682" lon="18.097481">
        <ele>32</ele>
        <time>2020-01-16T16:39:19Z</time>
      </trkpt>
      <trkpt lat="59.259697" lon="18.097382">
        <ele>32</ele>
        <time>2020-01-16T16:39:21Z</time>
      </trkpt>
      <trkpt lat="59.259721" lon="18.097286">
        <ele>0</ele>
        <time>2020-01-16T16:39:21Z</time>
      </trkpt>
      <trkpt lat="59.259759" lon="18.097189">
        <ele>32</ele>
        <time>2020-01-16T16:39:22Z</time>
      </trkpt>
      <trkpt lat="59.259803" lon="18.097099">
        <ele>31</ele>
        <time>2020-01-16T16:39:24Z</time>
      </trkpt>
      <trkpt lat="59.259849" lon="18.097022">
        <ele>31</ele>
        <time>2020-01-16T16:39:25Z</time>
      </trkpt>
      <trkpt lat="59.259902" lon="18.096953">
        <ele>31</ele>
        <time>2020-01-16T16:39:26Z</time>
      </trkpt>
      <trkpt lat="59.259957" lon="18.096889">
        <ele>30</ele>
        <time>2020-01-16T16:39:27Z</time>
      </trkpt>
      <trkpt lat="59.260015" lon="18.09683">
        <ele>30</ele>
        <time>2020-01-16T16:39:28Z</time>
      </trkpt>
      <trkpt lat="59.260075" lon="18.09678">
        <ele>30</ele>
        <time>2020-01-16T16:39:29Z</time>
      </trkpt>
      <trkpt lat="59.260137" lon="18.096736">
        <ele>30</ele>
        <time>2020-01-16T16:39:30Z</time>
      </trkpt>
      <trkpt lat="59.260199" lon="18.096696">
        <ele>0</ele>
        <time>2020-01-16T16:39:30Z</time>
      </trkpt>
      <trkpt lat="59.260258" lon="18.096666">
        <ele>30</ele>
        <time>2020-01-16T16:39:31Z</time>
      </trkpt>
      <trkpt lat="59.260316" lon="18.096632">
        <ele>30</ele>
        <time>2020-01-16T16:39:33Z</time>
      </trkpt>
      <trkpt lat="59.260431" lon="18.096569">
        <ele>30</ele>
        <time>2020-01-16T16:39:35Z</time>
      </trkpt>
      <trkpt lat="59.260494" lon="18.096559">
        <ele>30</ele>
        <time>2020-01-16T16:39:36Z</time>
      </trkpt>
      <trkpt lat="59.260553" lon="18.096559">
        <ele>30</ele>
        <time>2020-01-16T16:39:37Z</time>
      </trkpt>
      <trkpt lat="59.260609" lon="18.09655">
        <ele>0</ele>
        <time>2020-01-16T16:39:37Z</time>
      </trkpt>
      <trkpt lat="59.260669" lon="18.096529">
        <ele>30</ele>
        <time>2020-01-16T16:39:38Z</time>
      </trkpt>
      <trkpt lat="59.26072" lon="18.096511">
        <ele>29</ele>
        <time>2020-01-16T16:39:39Z</time>
      </trkpt>
      <trkpt lat="59.260766" lon="18.0965">
        <ele>30</ele>
        <time>2020-01-16T16:39:41Z</time>
      </trkpt>
      <trkpt lat="59.260806" lon="18.096489">
        <ele>29</ele>
        <time>2020-01-16T16:39:42Z</time>
      </trkpt>
      <trkpt lat="59.260844" lon="18.09648">
        <ele>29</ele>
        <time>2020-01-16T16:39:43Z</time>
      </trkpt>
      <trkpt lat="59.26088" lon="18.096475">
        <ele>29</ele>
        <time>2020-01-16T16:39:44Z</time>
      </trkpt>
      <trkpt lat="59.260912" lon="18.096473">
        <ele>29</ele>
        <time>2020-01-16T16:39:45Z</time>
      </trkpt>
      <trkpt lat="59.260947" lon="18.096476">
        <ele>29</ele>
        <time>2020-01-16T16:39:46Z</time>
      </trkpt>
      <trkpt lat="59.260983" lon="18.096486">
        <ele>29</ele>
        <time>2020-01-16T16:39:47Z</time>
      </trkpt>
      <trkpt lat="59.261022" lon="18.096499">
        <ele>29</ele>
        <time>2020-01-16T16:39:48Z</time>
      </trkpt>
      <trkpt lat="59.261062" lon="18.096519">
        <ele>29</ele>
        <time>2020-01-16T16:39:49Z</time>
      </trkpt>
      <trkpt lat="59.261104" lon="18.096541">
        <ele>29</ele>
        <time>2020-01-16T16:39:50Z</time>
      </trkpt>
      <trkpt lat="59.261147" lon="18.096565">
        <ele>0</ele>
        <time>2020-01-16T16:39:50Z</time>
      </trkpt>
      <trkpt lat="59.261189" lon="18.09659">
        <ele>29</ele>
        <time>2020-01-16T16:39:51Z</time>
      </trkpt>
      <trkpt lat="59.261233" lon="18.09662">
        <ele>29</ele>
        <time>2020-01-16T16:39:53Z</time>
      </trkpt>
      <trkpt lat="59.261278" lon="18.096655">
        <ele>29</ele>
        <time>2020-01-16T16:39:54Z</time>
      </trkpt>
      <trkpt lat="59.261323" lon="18.096693">
        <ele>29</ele>
        <time>2020-01-16T16:39:55Z</time>
      </trkpt>
      <trkpt lat="59.261369" lon="18.096734">
        <ele>29</ele>
        <time>2020-01-16T16:39:56Z</time>
      </trkpt>
      <trkpt lat="59.261413" lon="18.096782">
        <ele>0</ele>
        <time>2020-01-16T16:39:56Z</time>
      </trkpt>
      <trkpt lat="59.261457" lon="18.096836">
        <ele>29</ele>
        <time>2020-01-16T16:39:57Z</time>
      </trkpt>
      <trkpt lat="59.261499" lon="18.096895">
        <ele>29</ele>
        <time>2020-01-16T16:39:59Z</time>
      </trkpt>
      <trkpt lat="59.26154" lon="18.096956">
        <ele>29</ele>
        <time>2020-01-16T16:40:00Z</time>
      </trkpt>
      <trkpt lat="59.261581" lon="18.097019">
        <ele>29</ele>
        <time>2020-01-16T16:40:01Z</time>
      </trkpt>
      <trkpt lat="59.261622" lon="18.097084">
        <ele>28</ele>
        <time>2020-01-16T16:40:01Z</time>
      </trkpt>
      <trkpt lat="59.261663" lon="18.097149">
        <ele>29</ele>
        <time>2020-01-16T16:40:02Z</time>
      </trkpt>
      <trkpt lat="59.261703" lon="18.097214">
        <ele>29</ele>
        <time>2020-01-16T16:40:04Z</time>
      </trkpt>
      <trkpt lat="59.261743" lon="18.09728">
        <ele>29</ele>
        <time>2020-01-16T16:40:05Z</time>
      </trkpt>
      <trkpt lat="59.261784" lon="18.097345">
        <ele>29</ele>
        <time>2020-01-16T16:40:06Z</time>
      </trkpt>
      <trkpt lat="59.261825" lon="18.097409">
        <ele>29</ele>
        <time>2020-01-16T16:40:07Z</time>
      </trkpt>
      <trkpt lat="59.261864" lon="18.097474">
        <ele>29</ele>
        <time>2020-01-16T16:40:08Z</time>
      </trkpt>
      <trkpt lat="59.261904" lon="18.09754">
        <ele>29</ele>
        <time>2020-01-16T16:40:09Z</time>
      </trkpt>
      <trkpt lat="59.261944" lon="18.097607">
        <ele>29</ele>
        <time>2020-01-16T16:40:10Z</time>
      </trkpt>
      <trkpt lat="59.261983" lon="18.097676">
        <ele>0</ele>
        <time>2020-01-16T16:40:10Z</time>
      </trkpt>
      <trkpt lat="59.262022" lon="18.097744">
        <ele>29</ele>
        <time>2020-01-16T16:40:11Z</time>
      </trkpt>
      <trkpt lat="59.262063" lon="18.097809">
        <ele>29</ele>
        <time>2020-01-16T16:40:13Z</time>
      </trkpt>
      <trkpt lat="59.262105" lon="18.097871">
        <ele>29</ele>
        <time>2020-01-16T16:40:14Z</time>
      </trkpt>
      <trkpt lat="59.262146" lon="18.097932">
        <ele>29</ele>
        <time>2020-01-16T16:40:15Z</time>
      </trkpt>
      <trkpt lat="59.262186" lon="18.097992">
        <ele>0</ele>
        <time>2020-01-16T16:40:15Z</time>
      </trkpt>
      <trkpt lat="59.262229" lon="18.098048">
        <ele>29</ele>
        <time>2020-01-16T16:40:16Z</time>
      </trkpt>
      <trkpt lat="59.262275" lon="18.098095">
        <ele>29</ele>
        <time>2020-01-16T16:40:18Z</time>
      </trkpt>
      <trkpt lat="59.262322" lon="18.09813">
        <ele>29</ele>
        <time>2020-01-16T16:40:19Z</time>
      </trkpt>
      <trkpt lat="59.262371" lon="18.098155">
        <ele>29</ele>
        <time>2020-01-16T16:40:20Z</time>
      </trkpt>
      <trkpt lat="59.26242" lon="18.098173">
        <ele>0</ele>
        <time>2020-01-16T16:40:20Z</time>
      </trkpt>
      <trkpt lat="59.262468" lon="18.098183">
        <ele>29</ele>
        <time>2020-01-16T16:40:21Z</time>
      </trkpt>
      <trkpt lat="59.262516" lon="18.098188">
        <ele>29</ele>
        <time>2020-01-16T16:40:23Z</time>
      </trkpt>
      <trkpt lat="59.262562" lon="18.098191">
        <ele>29</ele>
        <time>2020-01-16T16:40:24Z</time>
      </trkpt>
      <trkpt lat="59.262607" lon="18.098193">
        <ele>29</ele>
        <time>2020-01-16T16:40:25Z</time>
      </trkpt>
      <trkpt lat="59.262652" lon="18.098196">
        <ele>29</ele>
        <time>2020-01-16T16:40:26Z</time>
      </trkpt>
      <trkpt lat="59.262695" lon="18.098196">
        <ele>30</ele>
        <time>2020-01-16T16:40:27Z</time>
      </trkpt>
      <trkpt lat="59.262737" lon="18.098194">
        <ele>30</ele>
        <time>2020-01-16T16:40:28Z</time>
      </trkpt>
      <trkpt lat="59.262778" lon="18.098192">
        <ele>30</ele>
        <time>2020-01-16T16:40:29Z</time>
      </trkpt>
      <trkpt lat="59.262816" lon="18.098194">
        <ele>30</ele>
        <time>2020-01-16T16:40:30Z</time>
      </trkpt>
      <trkpt lat="59.262853" lon="18.098197">
        <ele>30</ele>
        <time>2020-01-16T16:40:31Z</time>
      </trkpt>
      <trkpt lat="59.262893" lon="18.098197">
        <ele>30</ele>
        <time>2020-01-16T16:40:32Z</time>
      </trkpt>
      <trkpt lat="59.262936" lon="18.098194">
        <ele>0</ele>
        <time>2020-01-16T16:40:32Z</time>
      </trkpt>
      <trkpt lat="59.262974" lon="18.09819">
        <ele>31</ele>
        <time>2020-01-16T16:40:33Z</time>
      </trkpt>
      <trkpt lat="59.263011" lon="18.098189">
        <ele>0</ele>
        <time>2020-01-16T16:40:34Z</time>
      </trkpt>
      <trkpt lat="59.263051" lon="18.098183">
        <ele>31</ele>
        <time>2020-01-16T16:40:35Z</time>
      </trkpt>
      <trkpt lat="59.263086" lon="18.098181">
        <ele>31</ele>
        <time>2020-01-16T16:40:37Z</time>
      </trkpt>
      <trkpt lat="59.263127" lon="18.098176">
        <ele>31</ele>
        <time>2020-01-16T16:40:38Z</time>
      </trkpt>
      <trkpt lat="59.263159" lon="18.098173">
        <ele>32</ele>
        <time>2020-01-16T16:40:39Z</time>
      </trkpt>
      <trkpt lat="59.263192" lon="18.098164">
        <ele>32</ele>
        <time>2020-01-16T16:40:40Z</time>
      </trkpt>
      <trkpt lat="59.263228" lon="18.098156">
        <ele>32</ele>
        <time>2020-01-16T16:40:41Z</time>
      </trkpt>
      <trkpt lat="59.26325" lon="18.098154">
        <ele>32</ele>
        <time>2020-01-16T16:40:42Z</time>
      </trkpt>
      <trkpt lat="59.263284" lon="18.098145">
        <ele>32</ele>
        <time>2020-01-16T16:40:43Z</time>
      </trkpt>
      <trkpt lat="59.26332" lon="18.098132">
        <ele>32</ele>
        <time>2020-01-16T16:40:44Z</time>
      </trkpt>
      <trkpt lat="59.263357" lon="18.098122">
        <ele>32</ele>
        <time>2020-01-16T16:40:45Z</time>
      </trkpt>
      <trkpt lat="59.263391" lon="18.098114">
        <ele>0</ele>
        <time>2020-01-16T16:40:45Z</time>
      </trkpt>
      <trkpt lat="59.263434" lon="18.098103">
        <ele>33</ele>
        <time>2020-01-16T16:40:46Z</time>
      </trkpt>
      <trkpt lat="59.263477" lon="18.09809">
        <ele>33</ele>
        <time>2020-01-16T16:40:48Z</time>
      </trkpt>
      <trkpt lat="59.263514" lon="18.09808">
        <ele>33</ele>
        <time>2020-01-16T16:40:49Z</time>
      </trkpt>
      <trkpt lat="59.263544" lon="18.098072">
        <ele>33</ele>
        <time>2020-01-16T16:40:50Z</time>
      </trkpt>
      <trkpt lat="59.263578" lon="18.098061">
        <ele>34</ele>
        <time>2020-01-16T16:40:51Z</time>
      </trkpt>
      <trkpt lat="59.263615" lon="18.098051">
        <ele>34</ele>
        <time>2020-01-16T16:40:52Z</time>
      </trkpt>
      <trkpt lat="59.263666" lon="18.098033">
        <ele>34</ele>
        <time>2020-01-16T16:40:53Z</time>
      </trkpt>
      <trkpt lat="59.26371" lon="18.098018">
        <ele>0</ele>
        <time>2020-01-16T16:40:53Z</time>
      </trkpt>
      <trkpt lat="59.263761" lon="18.098">
        <ele>34</ele>
        <time>2020-01-16T16:40:54Z</time>
      </trkpt>
      <trkpt lat="59.263806" lon="18.097983">
        <ele>35</ele>
        <time>2020-01-16T16:40:56Z</time>
      </trkpt>
      <trkpt lat="59.263849" lon="18.097968">
        <ele>35</ele>
        <time>2020-01-16T16:40:57Z</time>
      </trkpt>
      <trkpt lat="59.26389" lon="18.097953">
        <ele>0</ele>
        <time>2020-01-16T16:40:57Z</time>
      </trkpt>
      <trkpt lat="59.263929" lon="18.097937">
        <ele>35</ele>
        <time>2020-01-16T16:40:58Z</time>
      </trkpt>
      <trkpt lat="59.263968" lon="18.097922">
        <ele>35</ele>
        <time>2020-01-16T16:41:00Z</time>
      </trkpt>
      <trkpt lat="59.264005" lon="18.097907">
        <ele>35</ele>
        <time>2020-01-16T16:41:01Z</time>
      </trkpt>
      <trkpt lat="59.264042" lon="18.097893">
        <ele>35</ele>
        <time>2020-01-16T16:41:02Z</time>
      </trkpt>
      <trkpt lat="59.264079" lon="18.09788">
        <ele>36</ele>
        <time>2020-01-16T16:41:03Z</time>
      </trkpt>
      <trkpt lat="59.264121" lon="18.097863">
        <ele>36</ele>
        <time>2020-01-16T16:41:04Z</time>
      </trkpt>
      <trkpt lat="59.264167" lon="18.097846">
        <ele>36</ele>
        <time>2020-01-16T16:41:05Z</time>
      </trkpt>
      <trkpt lat="59.264211" lon="18.097827">
        <ele>36</ele>
        <time>2020-01-16T16:41:06Z</time>
      </trkpt>
      <trkpt lat="59.264256" lon="18.097807">
        <ele>36</ele>
        <time>2020-01-16T16:41:07Z</time>
      </trkpt>
      <trkpt lat="59.264302" lon="18.097788">
        <ele>36</ele>
        <time>2020-01-16T16:41:08Z</time>
      </trkpt>
      <trkpt lat="59.264348" lon="18.097769">
        <ele>36</ele>
        <time>2020-01-16T16:41:09Z</time>
      </trkpt>
      <trkpt lat="59.264392" lon="18.097751">
        <ele>0</ele>
        <time>2020-01-16T16:41:09Z</time>
      </trkpt>
      <trkpt lat="59.264438" lon="18.097731">
        <ele>36</ele>
        <time>2020-01-16T16:41:10Z</time>
      </trkpt>
      <trkpt lat="59.264484" lon="18.097711">
        <ele>36</ele>
        <time>2020-01-16T16:41:12Z</time>
      </trkpt>
      <trkpt lat="59.26453" lon="18.097688">
        <ele>0</ele>
        <time>2020-01-16T16:41:12Z</time>
      </trkpt>
      <trkpt lat="59.264577" lon="18.097668">
        <ele>36</ele>
        <time>2020-01-16T16:41:13Z</time>
      </trkpt>
      <trkpt lat="59.264628" lon="18.097649">
        <ele>36</ele>
        <time>2020-01-16T16:41:15Z</time>
      </trkpt>
      <trkpt lat="59.264684" lon="18.097624">
        <ele>36</ele>
        <time>2020-01-16T16:41:16Z</time>
      </trkpt>
      <trkpt lat="59.264742" lon="18.097598">
        <ele>36</ele>
        <time>2020-01-16T16:41:17Z</time>
      </trkpt>
      <trkpt lat="59.264796" lon="18.097577">
        <ele>0</ele>
        <time>2020-01-16T16:41:17Z</time>
      </trkpt>
      <trkpt lat="59.264851" lon="18.097552">
        <ele>36</ele>
        <time>2020-01-16T16:41:18Z</time>
      </trkpt>
      <trkpt lat="59.264907" lon="18.097522">
        <ele>36</ele>
        <time>2020-01-16T16:41:20Z</time>
      </trkpt>
      <trkpt lat="59.264963" lon="18.097494">
        <ele>36</ele>
        <time>2020-01-16T16:41:21Z</time>
      </trkpt>
      <trkpt lat="59.265027" lon="18.097464">
        <ele>36</ele>
        <time>2020-01-16T16:41:22Z</time>
      </trkpt>
      <trkpt lat="59.265092" lon="18.097431">
        <ele>36</ele>
        <time>2020-01-16T16:41:23Z</time>
      </trkpt>
      <trkpt lat="59.265156" lon="18.097402">
        <ele>36</ele>
        <time>2020-01-16T16:41:24Z</time>
      </trkpt>
      <trkpt lat="59.265208" lon="18.09739">
        <ele>36</ele>
        <time>2020-01-16T16:41:25Z</time>
      </trkpt>
      <trkpt lat="59.265258" lon="18.097393">
        <ele>36</ele>
        <time>2020-01-16T16:41:26Z</time>
      </trkpt>
      <trkpt lat="59.265301" lon="18.09743">
        <ele>36</ele>
        <time>2020-01-16T16:41:27Z</time>
      </trkpt>
      <trkpt lat="59.265341" lon="18.097494">
        <ele>0</ele>
        <time>2020-01-16T16:41:27Z</time>
      </trkpt>
      <trkpt lat="59.265369" lon="18.097566">
        <ele>36</ele>
        <time>2020-01-16T16:41:28Z</time>
      </trkpt>
      <trkpt lat="59.265386" lon="18.097647">
        <ele>36</ele>
        <time>2020-01-16T16:41:30Z</time>
      </trkpt>
      <trkpt lat="59.265422" lon="18.097825">
        <ele>0</ele>
        <time>2020-01-16T16:41:31Z</time>
      </trkpt>
      <trkpt lat="59.26546" lon="18.098044">
        <ele>36</ele>
        <time>2020-01-16T16:41:34Z</time>
      </trkpt>
      <trkpt lat="59.265535" lon="18.098164">
        <ele>37</ele>
        <time>2020-01-16T16:41:36Z</time>
      </trkpt>
      <trkpt lat="59.265592" lon="18.098171">
        <ele>37</ele>
        <time>2020-01-16T16:41:38Z</time>
      </trkpt>
      <trkpt lat="59.265624" lon="18.098151">
        <ele>0</ele>
        <time>2020-01-16T16:41:38Z</time>
      </trkpt>
      <trkpt lat="59.265659" lon="18.098126">
        <ele>37</ele>
        <time>2020-01-16T16:41:39Z</time>
      </trkpt>
      <trkpt lat="59.265694" lon="18.098104">
        <ele>37</ele>
        <time>2020-01-16T16:41:41Z</time>
      </trkpt>
      <trkpt lat="59.265732" lon="18.098076">
        <ele>37</ele>
        <time>2020-01-16T16:41:42Z</time>
      </trkpt>
      <trkpt lat="59.26577" lon="18.098047">
        <ele>37</ele>
        <time>2020-01-16T16:41:43Z</time>
      </trkpt>
      <trkpt lat="59.265809" lon="18.098017">
        <ele>37</ele>
        <time>2020-01-16T16:41:44Z</time>
      </trkpt>
      <trkpt lat="59.265847" lon="18.097991">
        <ele>37</ele>
        <time>2020-01-16T16:41:45Z</time>
      </trkpt>
      <trkpt lat="59.265885" lon="18.097965">
        <ele>37</ele>
        <time>2020-01-16T16:41:46Z</time>
      </trkpt>
      <trkpt lat="59.265922" lon="18.09794">
        <ele>37</ele>
        <time>2020-01-16T16:41:47Z</time>
      </trkpt>
      <trkpt lat="59.265959" lon="18.097914">
        <ele>37</ele>
        <time>2020-01-16T16:41:48Z</time>
      </trkpt>
      <trkpt lat="59.265998" lon="18.097889">
        <ele>37</ele>
        <time>2020-01-16T16:41:49Z</time>
      </trkpt>
      <trkpt lat="59.266037" lon="18.097865">
        <ele>37</ele>
        <time>2020-01-16T16:41:50Z</time>
      </trkpt>
      <trkpt lat="59.266075" lon="18.097843">
        <ele>0</ele>
        <time>2020-01-16T16:41:50Z</time>
      </trkpt>
      <trkpt lat="59.266111" lon="18.097843">
        <ele>37</ele>
        <time>2020-01-16T16:41:51Z</time>
      </trkpt>
      <trkpt lat="59.266142" lon="18.097874">
        <ele>37</ele>
        <time>2020-01-16T16:41:53Z</time>
      </trkpt>
      <trkpt lat="59.266162" lon="18.097927">
        <ele>37</ele>
        <time>2020-01-16T16:41:54Z</time>
      </trkpt>
      <trkpt lat="59.266177" lon="18.097985">
        <ele>37</ele>
        <time>2020-01-16T16:41:55Z</time>
      </trkpt>
      <trkpt lat="59.266201" lon="18.09803">
        <ele>37</ele>
        <time>2020-01-16T16:41:56Z</time>
      </trkpt>
      <trkpt lat="59.266234" lon="18.098049">
        <ele>37</ele>
        <time>2020-01-16T16:41:57Z</time>
      </trkpt>
      <trkpt lat="59.266269" lon="18.098038">
        <ele>37</ele>
        <time>2020-01-16T16:41:58Z</time>
      </trkpt>
      <trkpt lat="59.266307" lon="18.09802">
        <ele>37</ele>
        <time>2020-01-16T16:41:59Z</time>
      </trkpt>
      <trkpt lat="59.266346" lon="18.098004">
        <ele>37</ele>
        <time>2020-01-16T16:42:00Z</time>
      </trkpt>
      <trkpt lat="59.266386" lon="18.097987">
        <ele>37</ele>
        <time>2020-01-16T16:42:01Z</time>
      </trkpt>
      <trkpt lat="59.266427" lon="18.097972">
        <ele>38</ele>
        <time>2020-01-16T16:42:02Z</time>
      </trkpt>
      <trkpt lat="59.266469" lon="18.097957">
        <ele>38</ele>
        <time>2020-01-16T16:42:03Z</time>
      </trkpt>
      <trkpt lat="59.266512" lon="18.097941">
        <ele>0</ele>
        <time>2020-01-16T16:42:03Z</time>
      </trkpt>
      <trkpt lat="59.266556" lon="18.097922">
        <ele>38</ele>
        <time>2020-01-16T16:42:04Z</time>
      </trkpt>
      <trkpt lat="59.2666" lon="18.097902">
        <ele>38</ele>
        <time>2020-01-16T16:42:06Z</time>
      </trkpt>
      <trkpt lat="59.266644" lon="18.097877">
        <ele>38</ele>
        <time>2020-01-16T16:42:07Z</time>
      </trkpt>
      <trkpt lat="59.266688" lon="18.097849">
        <ele>38</ele>
        <time>2020-01-16T16:42:08Z</time>
      </trkpt>
      <trkpt lat="59.266733" lon="18.097823">
        <ele>38</ele>
        <time>2020-01-16T16:42:09Z</time>
      </trkpt>
      <trkpt lat="59.266777" lon="18.097796">
        <ele>0</ele>
        <time>2020-01-16T16:42:09Z</time>
      </trkpt>
      <trkpt lat="59.266822" lon="18.097768">
        <ele>38</ele>
        <time>2020-01-16T16:42:10Z</time>
      </trkpt>
      <trkpt lat="59.266866" lon="18.097742">
        <ele>38</ele>
        <time>2020-01-16T16:42:12Z</time>
      </trkpt>
      <trkpt lat="59.266911" lon="18.097715">
        <ele>38</ele>
        <time>2020-01-16T16:42:13Z</time>
      </trkpt>
      <trkpt lat="59.266957" lon="18.097688">
        <ele>38</ele>
        <time>2020-01-16T16:42:14Z</time>
      </trkpt>
      <trkpt lat="59.267003" lon="18.097659">
        <ele>0</ele>
        <time>2020-01-16T16:42:14Z</time>
      </trkpt>
      <trkpt lat="59.26705" lon="18.097628">
        <ele>38</ele>
        <time>2020-01-16T16:42:15Z</time>
      </trkpt>
      <trkpt lat="59.267094" lon="18.0976">
        <ele>38</ele>
        <time>2020-01-16T16:42:17Z</time>
      </trkpt>
      <trkpt lat="59.26714" lon="18.097572">
        <ele>38</ele>
        <time>2020-01-16T16:42:18Z</time>
      </trkpt>
      <trkpt lat="59.267186" lon="18.09754">
        <ele>38</ele>
        <time>2020-01-16T16:42:19Z</time>
      </trkpt>
      <trkpt lat="59.267235" lon="18.097506">
        <ele>38</ele>
        <time>2020-01-16T16:42:20Z</time>
      </trkpt>
      <trkpt lat="59.267284" lon="18.09747">
        <ele>38</ele>
        <time>2020-01-16T16:42:21Z</time>
      </trkpt>
      <trkpt lat="59.267333" lon="18.097432">
        <ele>38</ele>
        <time>2020-01-16T16:42:22Z</time>
      </trkpt>
      <trkpt lat="59.26738" lon="18.0974">
        <ele>38</ele>
        <time>2020-01-16T16:42:23Z</time>
      </trkpt>
      <trkpt lat="59.267429" lon="18.097362">
        <ele>38</ele>
        <time>2020-01-16T16:42:24Z</time>
      </trkpt>
      <trkpt lat="59.267476" lon="18.097328">
        <ele>0</ele>
        <time>2020-01-16T16:42:24Z</time>
      </trkpt>
      <trkpt lat="59.267528" lon="18.097294">
        <ele>38</ele>
        <time>2020-01-16T16:42:25Z</time>
      </trkpt>
      <trkpt lat="59.267579" lon="18.09726">
        <ele>38</ele>
        <time>2020-01-16T16:42:27Z</time>
      </trkpt>
      <trkpt lat="59.267631" lon="18.097223">
        <ele>38</ele>
        <time>2020-01-16T16:42:28Z</time>
      </trkpt>
      <trkpt lat="59.26768" lon="18.09719">
        <ele>0</ele>
        <time>2020-01-16T16:42:28Z</time>
      </trkpt>
      <trkpt lat="59.267731" lon="18.097159">
        <ele>38</ele>
        <time>2020-01-16T16:42:29Z</time>
      </trkpt>
      <trkpt lat="59.26778" lon="18.097133">
        <ele>38</ele>
        <time>2020-01-16T16:42:31Z</time>
      </trkpt>
      <trkpt lat="59.267829" lon="18.097109">
        <ele>38</ele>
        <time>2020-01-16T16:42:32Z</time>
      </trkpt>
      <trkpt lat="59.267879" lon="18.097086">
        <ele>38</ele>
        <time>2020-01-16T16:42:33Z</time>
      </trkpt>
      <trkpt lat="59.267928" lon="18.097067">
        <ele>0</ele>
        <time>2020-01-16T16:42:33Z</time>
      </trkpt>
      <trkpt lat="59.267974" lon="18.097048">
        <ele>38</ele>
        <time>2020-01-16T16:42:34Z</time>
      </trkpt>
      <trkpt lat="59.268019" lon="18.097029">
        <ele>0</ele>
        <time>2020-01-16T16:42:35Z</time>
      </trkpt>
      <trkpt lat="59.268062" lon="18.097006">
        <ele>38</ele>
        <time>2020-01-16T16:42:36Z</time>
      </trkpt>
      <trkpt lat="59.268105" lon="18.096978">
        <ele>39</ele>
        <time>2020-01-16T16:42:38Z</time>
      </trkpt>
      <trkpt lat="59.26815" lon="18.096943">
        <ele>39</ele>
        <time>2020-01-16T16:42:39Z</time>
      </trkpt>
      <trkpt lat="59.268195" lon="18.096907">
        <ele>39</ele>
        <time>2020-01-16T16:42:40Z</time>
      </trkpt>
      <trkpt lat="59.268237" lon="18.096871">
        <ele>39</ele>
        <time>2020-01-16T16:42:41Z</time>
      </trkpt>
      <trkpt lat="59.268281" lon="18.096837">
        <ele>39</ele>
        <time>2020-01-16T16:42:42Z</time>
      </trkpt>
      <trkpt lat="59.268325" lon="18.096801">
        <ele>39</ele>
        <time>2020-01-16T16:42:43Z</time>
      </trkpt>
      <trkpt lat="59.26837" lon="18.096774">
        <ele>39</ele>
        <time>2020-01-16T16:42:44Z</time>
      </trkpt>
      <trkpt lat="59.268418" lon="18.09675">
        <ele>0</ele>
        <time>2020-01-16T16:42:44Z</time>
      </trkpt>
      <trkpt lat="59.268471" lon="18.096718">
        <ele>39</ele>
        <time>2020-01-16T16:42:45Z</time>
      </trkpt>
      <trkpt lat="59.268523" lon="18.096683">
        <ele>39</ele>
        <time>2020-01-16T16:42:47Z</time>
      </trkpt>
      <trkpt lat="59.268572" lon="18.096647">
        <ele>0</ele>
        <time>2020-01-16T16:42:47Z</time>
      </trkpt>
      <trkpt lat="59.268621" lon="18.096615">
        <ele>40</ele>
        <time>2020-01-16T16:42:48Z</time>
      </trkpt>
      <trkpt lat="59.268671" lon="18.096585">
        <ele>40</ele>
        <time>2020-01-16T16:42:50Z</time>
      </trkpt>
      <trkpt lat="59.26872" lon="18.096556">
        <ele>40</ele>
        <time>2020-01-16T16:42:51Z</time>
      </trkpt>
      <trkpt lat="59.268769" lon="18.096527">
        <ele>40</ele>
        <time>2020-01-16T16:42:52Z</time>
      </trkpt>
      <trkpt lat="59.268818" lon="18.096499">
        <ele>40</ele>
        <time>2020-01-16T16:42:53Z</time>
      </trkpt>
      <trkpt lat="59.268867" lon="18.096472">
        <ele>0</ele>
        <time>2020-01-16T16:42:53Z</time>
      </trkpt>
      <trkpt lat="59.268917" lon="18.096448">
        <ele>40</ele>
        <time>2020-01-16T16:42:54Z</time>
      </trkpt>
      <trkpt lat="59.268967" lon="18.096426">
        <ele>40</ele>
        <time>2020-01-16T16:42:56Z</time>
      </trkpt>
      <trkpt lat="59.269018" lon="18.096405">
        <ele>40</ele>
        <time>2020-01-16T16:42:57Z</time>
      </trkpt>
      <trkpt lat="59.269066" lon="18.096384">
        <ele>40</ele>
        <time>2020-01-16T16:42:58Z</time>
      </trkpt>
      <trkpt lat="59.269111" lon="18.096364">
        <ele>40</ele>
        <time>2020-01-16T16:42:59Z</time>
      </trkpt>
      <trkpt lat="59.269154" lon="18.096342">
        <ele>40</ele>
        <time>2020-01-16T16:43:00Z</time>
      </trkpt>
      <trkpt lat="59.269199" lon="18.09632">
        <ele>40</ele>
        <time>2020-01-16T16:43:01Z</time>
      </trkpt>
      <trkpt lat="59.269244" lon="18.096294">
        <ele>41</ele>
        <time>2020-01-16T16:43:02Z</time>
      </trkpt>
      <trkpt lat="59.269294" lon="18.096266">
        <ele>41</ele>
        <time>2020-01-16T16:43:03Z</time>
      </trkpt>
      <trkpt lat="59.269339" lon="18.09624">
        <ele>41</ele>
        <time>2020-01-16T16:43:04Z</time>
      </trkpt>
      <trkpt lat="59.269383" lon="18.096216">
        <ele>0</ele>
        <time>2020-01-16T16:43:04Z</time>
      </trkpt>
      <trkpt lat="59.269426" lon="18.096193">
        <ele>41</ele>
        <time>2020-01-16T16:43:05Z</time>
      </trkpt>
      <trkpt lat="59.26947" lon="18.096169">
        <ele>0</ele>
        <time>2020-01-16T16:43:06Z</time>
      </trkpt>
      <trkpt lat="59.269514" lon="18.096145">
        <ele>41</ele>
        <time>2020-01-16T16:43:07Z</time>
      </trkpt>
      <trkpt lat="59.269561" lon="18.09612">
        <ele>41</ele>
        <time>2020-01-16T16:43:09Z</time>
      </trkpt>
      <trkpt lat="59.269608" lon="18.096095">
        <ele>41</ele>
        <time>2020-01-16T16:43:10Z</time>
      </trkpt>
      <trkpt lat="59.269654" lon="18.096067">
        <ele>41</ele>
        <time>2020-01-16T16:43:11Z</time>
      </trkpt>
      <trkpt lat="59.269701" lon="18.096035">
        <ele>41</ele>
        <time>2020-01-16T16:43:12Z</time>
      </trkpt>
      <trkpt lat="59.269751" lon="18.096001">
        <ele>41</ele>
        <time>2020-01-16T16:43:13Z</time>
      </trkpt>
      <trkpt lat="59.269798" lon="18.09597">
        <ele>41</ele>
        <time>2020-01-16T16:43:14Z</time>
      </trkpt>
      <trkpt lat="59.269845" lon="18.09594">
        <ele>0</ele>
        <time>2020-01-16T16:43:14Z</time>
      </trkpt>
      <trkpt lat="59.269893" lon="18.095911">
        <ele>41</ele>
        <time>2020-01-16T16:43:15Z</time>
      </trkpt>
      <trkpt lat="59.26994" lon="18.09588">
        <ele>41</ele>
        <time>2020-01-16T16:43:17Z</time>
      </trkpt>
      <trkpt lat="59.269986" lon="18.095848">
        <ele>41</ele>
        <time>2020-01-16T16:43:18Z</time>
      </trkpt>
      <trkpt lat="59.270032" lon="18.095817">
        <ele>41</ele>
        <time>2020-01-16T16:43:19Z</time>
      </trkpt>
      <trkpt lat="59.270078" lon="18.095787">
        <ele>41</ele>
        <time>2020-01-16T16:43:20Z</time>
      </trkpt>
      <trkpt lat="59.270126" lon="18.095765">
        <ele>41</ele>
        <time>2020-01-16T16:43:21Z</time>
      </trkpt>
      <trkpt lat="59.27017" lon="18.095748">
        <ele>41</ele>
        <time>2020-01-16T16:43:22Z</time>
      </trkpt>
      <trkpt lat="59.270215" lon="18.095729">
        <ele>41</ele>
        <time>2020-01-16T16:43:23Z</time>
      </trkpt>
      <trkpt lat="59.270265" lon="18.095709">
        <ele>41</ele>
        <time>2020-01-16T16:43:24Z</time>
      </trkpt>
      <trkpt lat="59.270321" lon="18.095691">
        <ele>0</ele>
        <time>2020-01-16T16:43:24Z</time>
      </trkpt>
      <trkpt lat="59.270377" lon="18.095675">
        <ele>41</ele>
        <time>2020-01-16T16:43:25Z</time>
      </trkpt>
      <trkpt lat="59.270431" lon="18.095656">
        <ele>41</ele>
        <time>2020-01-16T16:43:26Z</time>
      </trkpt>
      <trkpt lat="59.270484" lon="18.095641">
        <ele>41</ele>
        <time>2020-01-16T16:43:28Z</time>
      </trkpt>
      <trkpt lat="59.270535" lon="18.095625">
        <ele>40</ele>
        <time>2020-01-16T16:43:29Z</time>
      </trkpt>
      <trkpt lat="59.270585" lon="18.095603">
        <ele>40</ele>
        <time>2020-01-16T16:43:30Z</time>
      </trkpt>
      <trkpt lat="59.270636" lon="18.095575">
        <ele>40</ele>
        <time>2020-01-16T16:43:31Z</time>
      </trkpt>
      <trkpt lat="59.270686" lon="18.095544">
        <ele>40</ele>
        <time>2020-01-16T16:43:32Z</time>
      </trkpt>
      <trkpt lat="59.270735" lon="18.095512">
        <ele>40</ele>
        <time>2020-01-16T16:43:33Z</time>
      </trkpt>
      <trkpt lat="59.270786" lon="18.095476">
        <ele>0</ele>
        <time>2020-01-16T16:43:33Z</time>
      </trkpt>
      <trkpt lat="59.270842" lon="18.095436">
        <ele>40</ele>
        <time>2020-01-16T16:43:34Z</time>
      </trkpt>
      <trkpt lat="59.270896" lon="18.095398">
        <ele>40</ele>
        <time>2020-01-16T16:43:36Z</time>
      </trkpt>
      <trkpt lat="59.270949" lon="18.095365">
        <ele>40</ele>
        <time>2020-01-16T16:43:37Z</time>
      </trkpt>
      <trkpt lat="59.271001" lon="18.095335">
        <ele>40</ele>
        <time>2020-01-16T16:43:38Z</time>
      </trkpt>
      <trkpt lat="59.271054" lon="18.095306">
        <ele>40</ele>
        <time>2020-01-16T16:43:39Z</time>
      </trkpt>
      <trkpt lat="59.271106" lon="18.095278">
        <ele>40</ele>
        <time>2020-01-16T16:43:40Z</time>
      </trkpt>
      <trkpt lat="59.271156" lon="18.09525">
        <ele>40</ele>
        <time>2020-01-16T16:43:41Z</time>
      </trkpt>
      <trkpt lat="59.271206" lon="18.095221">
        <ele>40</ele>
        <time>2020-01-16T16:43:42Z</time>
      </trkpt>
      <trkpt lat="59.271257" lon="18.095194">
        <ele>40</ele>
        <time>2020-01-16T16:43:43Z</time>
      </trkpt>
      <trkpt lat="59.271307" lon="18.095172">
        <ele>40</ele>
        <time>2020-01-16T16:43:44Z</time>
      </trkpt>
      <trkpt lat="59.271355" lon="18.095151">
        <ele>0</ele>
        <time>2020-01-16T16:43:44Z</time>
      </trkpt>
      <trkpt lat="59.271401" lon="18.095136">
        <ele>41</ele>
        <time>2020-01-16T16:43:45Z</time>
      </trkpt>
      <trkpt lat="59.271446" lon="18.09512">
        <ele>41</ele>
        <time>2020-01-16T16:43:47Z</time>
      </trkpt>
      <trkpt lat="59.271492" lon="18.095101">
        <ele>41</ele>
        <time>2020-01-16T16:43:48Z</time>
      </trkpt>
      <trkpt lat="59.271533" lon="18.095086">
        <ele>41</ele>
        <time>2020-01-16T16:43:49Z</time>
      </trkpt>
      <trkpt lat="59.271575" lon="18.095074">
        <ele>41</ele>
        <time>2020-01-16T16:43:50Z</time>
      </trkpt>
      <trkpt lat="59.271621" lon="18.095055">
        <ele>41</ele>
        <time>2020-01-16T16:43:51Z</time>
      </trkpt>
      <trkpt lat="59.271664" lon="18.095037">
        <ele>41</ele>
        <time>2020-01-16T16:43:52Z</time>
      </trkpt>
      <trkpt lat="59.27171" lon="18.095015">
        <ele>41</ele>
        <time>2020-01-16T16:43:53Z</time>
      </trkpt>
      <trkpt lat="59.271752" lon="18.094994">
        <ele>41</ele>
        <time>2020-01-16T16:43:54Z</time>
      </trkpt>
      <trkpt lat="59.271793" lon="18.094964">
        <ele>41</ele>
        <time>2020-01-16T16:43:55Z</time>
      </trkpt>
      <trkpt lat="59.271828" lon="18.094931">
        <ele>0</ele>
        <time>2020-01-16T16:43:55Z</time>
      </trkpt>
      <trkpt lat="59.271867" lon="18.094891">
        <ele>41</ele>
        <time>2020-01-16T16:43:56Z</time>
      </trkpt>
      <trkpt lat="59.271915" lon="18.09485">
        <ele>42</ele>
        <time>2020-01-16T16:43:58Z</time>
      </trkpt>
      <trkpt lat="59.271965" lon="18.094821">
        <ele>42</ele>
        <time>2020-01-16T16:43:59Z</time>
      </trkpt>
      <trkpt lat="59.272011" lon="18.094801">
        <ele>42</ele>
        <time>2020-01-16T16:44:00Z</time>
      </trkpt>
      <trkpt lat="59.272057" lon="18.094788">
        <ele>42</ele>
        <time>2020-01-16T16:44:01Z</time>
      </trkpt>
      <trkpt lat="59.272102" lon="18.094777">
        <ele>42</ele>
        <time>2020-01-16T16:44:02Z</time>
      </trkpt>
      <trkpt lat="59.272147" lon="18.094769">
        <ele>42</ele>
        <time>2020-01-16T16:44:03Z</time>
      </trkpt>
      <trkpt lat="59.272192" lon="18.094759">
        <ele>0</ele>
        <time>2020-01-16T16:44:03Z</time>
      </trkpt>
      <trkpt lat="59.272238" lon="18.094743">
        <ele>42</ele>
        <time>2020-01-16T16:44:04Z</time>
      </trkpt>
      <trkpt lat="59.272283" lon="18.094726">
        <ele>0</ele>
        <time>2020-01-16T16:44:05Z</time>
      </trkpt>
      <trkpt lat="59.272328" lon="18.094711">
        <ele>42</ele>
        <time>2020-01-16T16:44:06Z</time>
      </trkpt>
      <trkpt lat="59.272373" lon="18.094697">
        <ele>43</ele>
        <time>2020-01-16T16:44:08Z</time>
      </trkpt>
      <trkpt lat="59.272417" lon="18.094683">
        <ele>43</ele>
        <time>2020-01-16T16:44:09Z</time>
      </trkpt>
      <trkpt lat="59.272461" lon="18.094672">
        <ele>43</ele>
        <time>2020-01-16T16:44:10Z</time>
      </trkpt>
      <trkpt lat="59.272504" lon="18.09466">
        <ele>43</ele>
        <time>2020-01-16T16:44:11Z</time>
      </trkpt>
      <trkpt lat="59.272548" lon="18.094646">
        <ele>43</ele>
        <time>2020-01-16T16:44:12Z</time>
      </trkpt>
      <trkpt lat="59.272591" lon="18.094637">
        <ele>43</ele>
        <time>2020-01-16T16:44:13Z</time>
      </trkpt>
      <trkpt lat="59.272634" lon="18.094626">
        <ele>43</ele>
        <time>2020-01-16T16:44:14Z</time>
      </trkpt>
      <trkpt lat="59.272678" lon="18.094615">
        <ele>43</ele>
        <time>2020-01-16T16:44:15Z</time>
      </trkpt>
      <trkpt lat="59.272722" lon="18.094605">
        <ele>43</ele>
        <time>2020-01-16T16:44:16Z</time>
      </trkpt>
      <trkpt lat="59.272765" lon="18.094592">
        <ele>0</ele>
        <time>2020-01-16T16:44:16Z</time>
      </trkpt>
      <trkpt lat="59.27281" lon="18.094576">
        <ele>43</ele>
        <time>2020-01-16T16:44:17Z</time>
      </trkpt>
      <trkpt lat="59.272854" lon="18.094558">
        <ele>43</ele>
        <time>2020-01-16T16:44:19Z</time>
      </trkpt>
      <trkpt lat="59.272897" lon="18.094538">
        <ele>43</ele>
        <time>2020-01-16T16:44:20Z</time>
      </trkpt>
      <trkpt lat="59.272941" lon="18.094519">
        <ele>43</ele>
        <time>2020-01-16T16:44:21Z</time>
      </trkpt>
      <trkpt lat="59.272987" lon="18.094502">
        <ele>43</ele>
        <time>2020-01-16T16:44:22Z</time>
      </trkpt>
      <trkpt lat="59.273033" lon="18.094484">
        <ele>0</ele>
        <time>2020-01-16T16:44:22Z</time>
      </trkpt>
      <trkpt lat="59.273081" lon="18.094468">
        <ele>43</ele>
        <time>2020-01-16T16:44:23Z</time>
      </trkpt>
      <trkpt lat="59.27313" lon="18.094454">
        <ele>43</ele>
        <time>2020-01-16T16:44:25Z</time>
      </trkpt>
      <trkpt lat="59.273183" lon="18.094443">
        <ele>43</ele>
        <time>2020-01-16T16:44:26Z</time>
      </trkpt>
      <trkpt lat="59.273237" lon="18.094432">
        <ele>0</ele>
        <time>2020-01-16T16:44:26Z</time>
      </trkpt>
      <trkpt lat="59.273295" lon="18.094414">
        <ele>43</ele>
        <time>2020-01-16T16:44:27Z</time>
      </trkpt>
      <trkpt lat="59.273354" lon="18.094388">
        <ele>43</ele>
        <time>2020-01-16T16:44:29Z</time>
      </trkpt>
      <trkpt lat="59.273414" lon="18.094359">
        <ele>42</ele>
        <time>2020-01-16T16:44:30Z</time>
      </trkpt>
      <trkpt lat="59.273475" lon="18.09433">
        <ele>42</ele>
        <time>2020-01-16T16:44:31Z</time>
      </trkpt>
      <trkpt lat="59.27354" lon="18.094295">
        <ele>42</ele>
        <time>2020-01-16T16:44:32Z</time>
      </trkpt>
      <trkpt lat="59.273606" lon="18.094251">
        <ele>42</ele>
        <time>2020-01-16T16:44:33Z</time>
      </trkpt>
      <trkpt lat="59.273672" lon="18.094202">
        <ele>41</ele>
        <time>2020-01-16T16:44:34Z</time>
      </trkpt>
      <trkpt lat="59.27374" lon="18.094155">
        <ele>0</ele>
        <time>2020-01-16T16:44:34Z</time>
      </trkpt>
      <trkpt lat="59.273812" lon="18.094115">
        <ele>41</ele>
        <time>2020-01-16T16:44:35Z</time>
      </trkpt>
      <trkpt lat="59.273886" lon="18.094079">
        <ele>40</ele>
        <time>2020-01-16T16:44:37Z</time>
      </trkpt>
      <trkpt lat="59.273962" lon="18.094045">
        <ele>40</ele>
        <time>2020-01-16T16:44:38Z</time>
      </trkpt>
      <trkpt lat="59.274041" lon="18.094013">
        <ele>40</ele>
        <time>2020-01-16T16:44:39Z</time>
      </trkpt>
      <trkpt lat="59.274122" lon="18.093979">
        <ele>39</ele>
        <time>2020-01-16T16:44:40Z</time>
      </trkpt>
      <trkpt lat="59.274204" lon="18.093943">
        <ele>39</ele>
        <time>2020-01-16T16:44:41Z</time>
      </trkpt>
      <trkpt lat="59.274287" lon="18.093906">
        <ele>0</ele>
        <time>2020-01-16T16:44:41Z</time>
      </trkpt>
      <trkpt lat="59.27437" lon="18.093871">
        <ele>38</ele>
        <time>2020-01-16T16:44:42Z</time>
      </trkpt>
      <trkpt lat="59.274452" lon="18.093838">
        <ele>38</ele>
        <time>2020-01-16T16:44:44Z</time>
      </trkpt>
      <trkpt lat="59.274534" lon="18.093802">
        <ele>37</ele>
        <time>2020-01-16T16:44:45Z</time>
      </trkpt>
      <trkpt lat="59.274615" lon="18.093768">
        <ele>0</ele>
        <time>2020-01-16T16:44:45Z</time>
      </trkpt>
      <trkpt lat="59.274695" lon="18.093737">
        <ele>37</ele>
        <time>2020-01-16T16:44:46Z</time>
      </trkpt>
      <trkpt lat="59.274774" lon="18.093705">
        <ele>37</ele>
        <time>2020-01-16T16:44:48Z</time>
      </trkpt>
      <trkpt lat="59.274851" lon="18.093674">
        <ele>37</ele>
        <time>2020-01-16T16:44:49Z</time>
      </trkpt>
      <trkpt lat="59.274926" lon="18.093645">
        <ele>37</ele>
        <time>2020-01-16T16:44:50Z</time>
      </trkpt>
      <trkpt lat="59.274999" lon="18.093617">
        <ele>37</ele>
        <time>2020-01-16T16:44:51Z</time>
      </trkpt>
      <trkpt lat="59.275071" lon="18.093592">
        <ele>37</ele>
        <time>2020-01-16T16:44:52Z</time>
      </trkpt>
      <trkpt lat="59.275143" lon="18.093569">
        <ele>37</ele>
        <time>2020-01-16T16:44:53Z</time>
      </trkpt>
      <trkpt lat="59.275218" lon="18.093541">
        <ele>0</ele>
        <time>2020-01-16T16:44:53Z</time>
      </trkpt>
      <trkpt lat="59.275289" lon="18.09352">
        <ele>37</ele>
        <time>2020-01-16T16:44:54Z</time>
      </trkpt>
      <trkpt lat="59.275363" lon="18.093496">
        <ele>37</ele>
        <time>2020-01-16T16:44:56Z</time>
      </trkpt>
      <trkpt lat="59.275438" lon="18.093475">
        <ele>37</ele>
        <time>2020-01-16T16:44:57Z</time>
      </trkpt>
      <trkpt lat="59.275512" lon="18.093454">
        <ele>37</ele>
        <time>2020-01-16T16:44:58Z</time>
      </trkpt>
      <trkpt lat="59.275586" lon="18.093436">
        <ele>37</ele>
        <time>2020-01-16T16:44:59Z</time>
      </trkpt>
      <trkpt lat="59.27566" lon="18.093419">
        <ele>37</ele>
        <time>2020-01-16T16:45:00Z</time>
      </trkpt>
      <trkpt lat="59.275734" lon="18.093402">
        <ele>0</ele>
        <time>2020-01-16T16:45:00Z</time>
      </trkpt>
      <trkpt lat="59.275807" lon="18.093384">
        <ele>38</ele>
        <time>2020-01-16T16:45:01Z</time>
      </trkpt>
      <trkpt lat="59.275879" lon="18.093366">
        <ele>38</ele>
        <time>2020-01-16T16:45:03Z</time>
      </trkpt>
      <trkpt lat="59.275951" lon="18.093349">
        <ele>38</ele>
        <time>2020-01-16T16:45:04Z</time>
      </trkpt>
      <trkpt lat="59.276023" lon="18.093331">
        <ele>38</ele>
        <time>2020-01-16T16:45:05Z</time>
      </trkpt>
      <trkpt lat="59.276094" lon="18.093314">
        <ele>38</ele>
        <time>2020-01-16T16:45:06Z</time>
      </trkpt>
      <trkpt lat="59.276164" lon="18.093302">
        <ele>0</ele>
        <time>2020-01-16T16:45:06Z</time>
      </trkpt>
      <trkpt lat="59.276233" lon="18.093294">
        <ele>38</ele>
        <time>2020-01-16T16:45:07Z</time>
      </trkpt>
      <trkpt lat="59.276301" lon="18.093281">
        <ele>38</ele>
        <time>2020-01-16T16:45:09Z</time>
      </trkpt>
      <trkpt lat="59.276368" lon="18.093267">
        <ele>38</ele>
        <time>2020-01-16T16:45:10Z</time>
      </trkpt>
      <trkpt lat="59.276435" lon="18.093252">
        <ele>38</ele>
        <time>2020-01-16T16:45:11Z</time>
      </trkpt>
      <trkpt lat="59.2765" lon="18.093238">
        <ele>38</ele>
        <time>2020-01-16T16:45:12Z</time>
      </trkpt>
      <trkpt lat="59.276566" lon="18.093227">
        <ele>38</ele>
        <time>2020-01-16T16:45:13Z</time>
      </trkpt>
      <trkpt lat="59.27663" lon="18.093219">
        <ele>38</ele>
        <time>2020-01-16T16:45:14Z</time>
      </trkpt>
      <trkpt lat="59.276695" lon="18.093209">
        <ele>37</ele>
        <time>2020-01-16T16:45:15Z</time>
      </trkpt>
      <trkpt lat="59.276759" lon="18.093196">
        <ele>0</ele>
        <time>2020-01-16T16:45:15Z</time>
      </trkpt>
      <trkpt lat="59.276821" lon="18.093184">
        <ele>37</ele>
        <time>2020-01-16T16:45:16Z</time>
      </trkpt>
      <trkpt lat="59.276883" lon="18.093172">
        <ele>37</ele>
        <time>2020-01-16T16:45:18Z</time>
      </trkpt>
      <trkpt lat="59.276945" lon="18.093158">
        <ele>37</ele>
        <time>2020-01-16T16:45:19Z</time>
      </trkpt>
      <trkpt lat="59.277007" lon="18.093142">
        <ele>0</ele>
        <time>2020-01-16T16:45:19Z</time>
      </trkpt>
      <trkpt lat="59.277071" lon="18.093123">
        <ele>37</ele>
        <time>2020-01-16T16:45:20Z</time>
      </trkpt>
      <trkpt lat="59.277135" lon="18.0931">
        <ele>0</ele>
        <time>2020-01-16T16:45:21Z</time>
      </trkpt>
      <trkpt lat="59.277199" lon="18.093076">
        <ele>37</ele>
        <time>2020-01-16T16:45:22Z</time>
      </trkpt>
      <trkpt lat="59.277262" lon="18.093052">
        <ele>36</ele>
        <time>2020-01-16T16:45:24Z</time>
      </trkpt>
      <trkpt lat="59.277326" lon="18.093028">
        <ele>36</ele>
        <time>2020-01-16T16:45:25Z</time>
      </trkpt>
      <trkpt lat="59.277392" lon="18.093008">
        <ele>36</ele>
        <time>2020-01-16T16:45:26Z</time>
      </trkpt>
      <trkpt lat="59.277456" lon="18.09299">
        <ele>36</ele>
        <time>2020-01-16T16:45:27Z</time>
      </trkpt>
      <trkpt lat="59.27752" lon="18.092969">
        <ele>36</ele>
        <time>2020-01-16T16:45:28Z</time>
      </trkpt>
      <trkpt lat="59.277584" lon="18.092947">
        <ele>36</ele>
        <time>2020-01-16T16:45:29Z</time>
      </trkpt>
      <trkpt lat="59.277648" lon="18.092927">
        <ele>36</ele>
        <time>2020-01-16T16:45:30Z</time>
      </trkpt>
      <trkpt lat="59.277712" lon="18.092905">
        <ele>0</ele>
        <time>2020-01-16T16:45:30Z</time>
      </trkpt>
      <trkpt lat="59.277774" lon="18.09288">
        <ele>36</ele>
        <time>2020-01-16T16:45:31Z</time>
      </trkpt>
      <trkpt lat="59.277835" lon="18.092857">
        <ele>36</ele>
        <time>2020-01-16T16:45:33Z</time>
      </trkpt>
      <trkpt lat="59.277896" lon="18.092836">
        <ele>36</ele>
        <time>2020-01-16T16:45:34Z</time>
      </trkpt>
      <trkpt lat="59.277956" lon="18.092811">
        <ele>36</ele>
        <time>2020-01-16T16:45:35Z</time>
      </trkpt>
      <trkpt lat="59.278017" lon="18.092783">
        <ele>36</ele>
        <time>2020-01-16T16:45:36Z</time>
      </trkpt>
      <trkpt lat="59.278077" lon="18.092756">
        <ele>36</ele>
        <time>2020-01-16T16:45:37Z</time>
      </trkpt>
      <trkpt lat="59.278137" lon="18.092731">
        <ele>35</ele>
        <time>2020-01-16T16:45:38Z</time>
      </trkpt>
      <trkpt lat="59.278198" lon="18.092706">
        <ele>0</ele>
        <time>2020-01-16T16:45:38Z</time>
      </trkpt>
      <trkpt lat="59.278259" lon="18.092681">
        <ele>35</ele>
        <time>2020-01-16T16:45:39Z</time>
      </trkpt>
      <trkpt lat="59.278322" lon="18.092653">
        <ele>35</ele>
        <time>2020-01-16T16:45:41Z</time>
      </trkpt>
      <trkpt lat="59.278384" lon="18.092626">
        <ele>35</ele>
        <time>2020-01-16T16:45:42Z</time>
      </trkpt>
      <trkpt lat="59.278447" lon="18.092599">
        <ele>35</ele>
        <time>2020-01-16T16:45:43Z</time>
      </trkpt>
      <trkpt lat="59.278511" lon="18.092574">
        <ele>35</ele>
        <time>2020-01-16T16:45:44Z</time>
      </trkpt>
      <trkpt lat="59.278575" lon="18.092547">
        <ele>35</ele>
        <time>2020-01-16T16:45:45Z</time>
      </trkpt>
      <trkpt lat="59.278639" lon="18.092517">
        <ele>35</ele>
        <time>2020-01-16T16:45:46Z</time>
      </trkpt>
      <trkpt lat="59.278705" lon="18.09249">
        <ele>0</ele>
        <time>2020-01-16T16:45:46Z</time>
      </trkpt>
      <trkpt lat="59.27877" lon="18.092464">
        <ele>35</ele>
        <time>2020-01-16T16:45:47Z</time>
      </trkpt>
      <trkpt lat="59.278834" lon="18.092437">
        <ele>35</ele>
        <time>2020-01-16T16:45:49Z</time>
      </trkpt>
      <trkpt lat="59.278896" lon="18.092414">
        <ele>34</ele>
        <time>2020-01-16T16:45:50Z</time>
      </trkpt>
      <trkpt lat="59.278956" lon="18.092391">
        <ele>34</ele>
        <time>2020-01-16T16:45:51Z</time>
      </trkpt>
      <trkpt lat="59.279014" lon="18.092367">
        <ele>34</ele>
        <time>2020-01-16T16:45:52Z</time>
      </trkpt>
      <trkpt lat="59.279069" lon="18.092345">
        <ele>34</ele>
        <time>2020-01-16T16:45:53Z</time>
      </trkpt>
      <trkpt lat="59.279117" lon="18.092327">
        <ele>34</ele>
        <time>2020-01-16T16:45:54Z</time>
      </trkpt>
      <trkpt lat="59.279159" lon="18.092314">
        <ele>34</ele>
        <time>2020-01-16T16:45:55Z</time>
      </trkpt>
      <trkpt lat="59.279193" lon="18.092311">
        <ele>0</ele>
        <time>2020-01-16T16:45:55Z</time>
      </trkpt>
      <trkpt lat="59.279219" lon="18.092318">
        <ele>34</ele>
        <time>2020-01-16T16:45:56Z</time>
      </trkpt>
      <trkpt lat="59.279238" lon="18.092324">
        <ele>0</ele>
        <time>2020-01-16T16:45:57Z</time>
      </trkpt>
      <trkpt lat="59.279256" lon="18.092325">
        <ele>34</ele>
        <time>2020-01-16T16:46:00Z</time>
      </trkpt>
      <trkpt lat="59.279255" lon="18.092325">
        <ele>33</ele>
        <time>2020-01-16T16:46:03Z</time>
      </trkpt>
      <trkpt lat="59.279294" lon="18.092311">
        <ele>33</ele>
        <time>2020-01-16T16:46:08Z</time>
      </trkpt>
      <trkpt lat="59.279313" lon="18.092304">
        <ele>33</ele>
        <time>2020-01-16T16:46:10Z</time>
      </trkpt>
      <trkpt lat="59.279338" lon="18.092299">
        <ele>33</ele>
        <time>2020-01-16T16:46:12Z</time>
      </trkpt>
      <trkpt lat="59.279341" lon="18.092299">
        <ele>0</ele>
        <time>2020-01-16T16:46:15Z</time>
      </trkpt>
      <trkpt lat="59.279432" lon="18.092259">
        <ele>34</ele>
        <time>2020-01-16T16:46:24Z</time>
      </trkpt>
      <trkpt lat="59.279471" lon="18.092238">
        <ele>34</ele>
        <time>2020-01-16T16:46:26Z</time>
      </trkpt>
      <trkpt lat="59.279513" lon="18.092214">
        <ele>34</ele>
        <time>2020-01-16T16:46:27Z</time>
      </trkpt>
      <trkpt lat="59.279556" lon="18.092192">
        <ele>34</ele>
        <time>2020-01-16T16:46:28Z</time>
      </trkpt>
      <trkpt lat="59.279599" lon="18.092174">
        <ele>34</ele>
        <time>2020-01-16T16:46:29Z</time>
      </trkpt>
      <trkpt lat="59.279644" lon="18.092158">
        <ele>34</ele>
        <time>2020-01-16T16:46:30Z</time>
      </trkpt>
      <trkpt lat="59.279693" lon="18.092133">
        <ele>34</ele>
        <time>2020-01-16T16:46:31Z</time>
      </trkpt>
      <trkpt lat="59.279743" lon="18.0921">
        <ele>34</ele>
        <time>2020-01-16T16:46:32Z</time>
      </trkpt>
      <trkpt lat="59.279795" lon="18.092067">
        <ele>0</ele>
        <time>2020-01-16T16:46:32Z</time>
      </trkpt>
      <trkpt lat="59.279847" lon="18.092041">
        <ele>34</ele>
        <time>2020-01-16T16:46:33Z</time>
      </trkpt>
      <trkpt lat="59.279898" lon="18.092022">
        <ele>34</ele>
        <time>2020-01-16T16:46:35Z</time>
      </trkpt>
      <trkpt lat="59.27995" lon="18.092007">
        <ele>34</ele>
        <time>2020-01-16T16:46:36Z</time>
      </trkpt>
      <trkpt lat="59.280003" lon="18.091992">
        <ele>34</ele>
        <time>2020-01-16T16:46:37Z</time>
      </trkpt>
      <trkpt lat="59.280056" lon="18.091974">
        <ele>34</ele>
        <time>2020-01-16T16:46:38Z</time>
      </trkpt>
      <trkpt lat="59.28011" lon="18.091958">
        <ele>34</ele>
        <time>2020-01-16T16:46:39Z</time>
      </trkpt>
      <trkpt lat="59.280166" lon="18.091941">
        <ele>34</ele>
        <time>2020-01-16T16:46:40Z</time>
      </trkpt>
      <trkpt lat="59.280223" lon="18.091921">
        <ele>34</ele>
        <time>2020-01-16T16:46:41Z</time>
      </trkpt>
      <trkpt lat="59.28028" lon="18.091901">
        <ele>0</ele>
        <time>2020-01-16T16:46:41Z</time>
      </trkpt>
      <trkpt lat="59.280338" lon="18.091881">
        <ele>34</ele>
        <time>2020-01-16T16:46:42Z</time>
      </trkpt>
      <trkpt lat="59.280396" lon="18.09186">
        <ele>34</ele>
        <time>2020-01-16T16:46:43Z</time>
      </trkpt>
      <trkpt lat="59.280454" lon="18.091839">
        <ele>35</ele>
        <time>2020-01-16T16:46:45Z</time>
      </trkpt>
      <trkpt lat="59.280512" lon="18.091817">
        <ele>35</ele>
        <time>2020-01-16T16:46:46Z</time>
      </trkpt>
      <trkpt lat="59.28057" lon="18.091796">
        <ele>34</ele>
        <time>2020-01-16T16:46:47Z</time>
      </trkpt>
      <trkpt lat="59.280628" lon="18.091778">
        <ele>34</ele>
        <time>2020-01-16T16:46:48Z</time>
      </trkpt>
      <trkpt lat="59.280688" lon="18.091759">
        <ele>34</ele>
        <time>2020-01-16T16:46:49Z</time>
      </trkpt>
      <trkpt lat="59.280747" lon="18.091735">
        <ele>0</ele>
        <time>2020-01-16T16:46:49Z</time>
      </trkpt>
      <trkpt lat="59.280806" lon="18.091706">
        <ele>35</ele>
        <time>2020-01-16T16:46:50Z</time>
      </trkpt>
      <trkpt lat="59.280865" lon="18.091682">
        <ele>35</ele>
        <time>2020-01-16T16:46:52Z</time>
      </trkpt>
      <trkpt lat="59.280923" lon="18.091662">
        <ele>34</ele>
        <time>2020-01-16T16:46:53Z</time>
      </trkpt>
      <trkpt lat="59.28098" lon="18.09164">
        <ele>34</ele>
        <time>2020-01-16T16:46:54Z</time>
      </trkpt>
      <trkpt lat="59.281035" lon="18.09162">
        <ele>34</ele>
        <time>2020-01-16T16:46:55Z</time>
      </trkpt>
      <trkpt lat="59.281095" lon="18.091599">
        <ele>34</ele>
        <time>2020-01-16T16:46:56Z</time>
      </trkpt>
      <trkpt lat="59.281158" lon="18.091583">
        <ele>34</ele>
        <time>2020-01-16T16:46:57Z</time>
      </trkpt>
      <trkpt lat="59.281217" lon="18.091564">
        <ele>0</ele>
        <time>2020-01-16T16:46:57Z</time>
      </trkpt>
      <trkpt lat="59.281275" lon="18.091539">
        <ele>34</ele>
        <time>2020-01-16T16:46:58Z</time>
      </trkpt>
      <trkpt lat="59.281334" lon="18.091521">
        <ele>34</ele>
        <time>2020-01-16T16:47:00Z</time>
      </trkpt>
      <trkpt lat="59.281392" lon="18.091503">
        <ele>34</ele>
        <time>2020-01-16T16:47:01Z</time>
      </trkpt>
      <trkpt lat="59.281451" lon="18.091485">
        <ele>34</ele>
        <time>2020-01-16T16:47:01Z</time>
      </trkpt>
      <trkpt lat="59.281509" lon="18.091467">
        <ele>34</ele>
        <time>2020-01-16T16:47:02Z</time>
      </trkpt>
      <trkpt lat="59.281566" lon="18.091451">
        <ele>34</ele>
        <time>2020-01-16T16:47:04Z</time>
      </trkpt>
      <trkpt lat="59.281622" lon="18.091433">
        <ele>34</ele>
        <time>2020-01-16T16:47:05Z</time>
      </trkpt>
      <trkpt lat="59.28168" lon="18.091417">
        <ele>34</ele>
        <time>2020-01-16T16:47:06Z</time>
      </trkpt>
      <trkpt lat="59.281736" lon="18.091396">
        <ele>0</ele>
        <time>2020-01-16T16:47:06Z</time>
      </trkpt>
      <trkpt lat="59.281794" lon="18.091376">
        <ele>34</ele>
        <time>2020-01-16T16:47:07Z</time>
      </trkpt>
      <trkpt lat="59.281851" lon="18.091353">
        <ele>34</ele>
        <time>2020-01-16T16:47:09Z</time>
      </trkpt>
      <trkpt lat="59.281909" lon="18.091332">
        <ele>34</ele>
        <time>2020-01-16T16:47:10Z</time>
      </trkpt>
      <trkpt lat="59.28197" lon="18.091311">
        <ele>34</ele>
        <time>2020-01-16T16:47:11Z</time>
      </trkpt>
      <trkpt lat="59.282029" lon="18.09129">
        <ele>34</ele>
        <time>2020-01-16T16:47:12Z</time>
      </trkpt>
      <trkpt lat="59.282089" lon="18.091266">
        <ele>34</ele>
        <time>2020-01-16T16:47:13Z</time>
      </trkpt>
      <trkpt lat="59.282146" lon="18.091246">
        <ele>34</ele>
        <time>2020-01-16T16:47:14Z</time>
      </trkpt>
      <trkpt lat="59.282206" lon="18.09123">
        <ele>34</ele>
        <time>2020-01-16T16:47:15Z</time>
      </trkpt>
      <trkpt lat="59.282263" lon="18.091207">
        <ele>0</ele>
        <time>2020-01-16T16:47:15Z</time>
      </trkpt>
      <trkpt lat="59.282321" lon="18.091186">
        <ele>34</ele>
        <time>2020-01-16T16:47:16Z</time>
      </trkpt>
      <trkpt lat="59.282379" lon="18.09116">
        <ele>34</ele>
        <time>2020-01-16T16:47:18Z</time>
      </trkpt>
      <trkpt lat="59.282435" lon="18.09113">
        <ele>34</ele>
        <time>2020-01-16T16:47:19Z</time>
      </trkpt>
      <trkpt lat="59.282485" lon="18.091102">
        <ele>35</ele>
        <time>2020-01-16T16:47:20Z</time>
      </trkpt>
      <trkpt lat="59.282532" lon="18.091076">
        <ele>0</ele>
        <time>2020-01-16T16:47:20Z</time>
      </trkpt>
      <trkpt lat="59.282579" lon="18.091047">
        <ele>35</ele>
        <time>2020-01-16T16:47:21Z</time>
      </trkpt>
      <trkpt lat="59.282627" lon="18.091012">
        <ele>35</ele>
        <time>2020-01-16T16:47:23Z</time>
      </trkpt>
      <trkpt lat="59.282681" lon="18.09098">
        <ele>35</ele>
        <time>2020-01-16T16:47:24Z</time>
      </trkpt>
      <trkpt lat="59.282739" lon="18.090951">
        <ele>0</ele>
        <time>2020-01-16T16:47:24Z</time>
      </trkpt>
      <trkpt lat="59.282796" lon="18.090925">
        <ele>35</ele>
        <time>2020-01-16T16:47:25Z</time>
      </trkpt>
      <trkpt lat="59.282853" lon="18.090899">
        <ele>35</ele>
        <time>2020-01-16T16:47:27Z</time>
      </trkpt>
      <trkpt lat="59.282908" lon="18.09087">
        <ele>36</ele>
        <time>2020-01-16T16:47:28Z</time>
      </trkpt>
      <trkpt lat="59.282962" lon="18.09084">
        <ele>36</ele>
        <time>2020-01-16T16:47:29Z</time>
      </trkpt>
      <trkpt lat="59.283018" lon="18.090818">
        <ele>35</ele>
        <time>2020-01-16T16:47:30Z</time>
      </trkpt>
      <trkpt lat="59.283079" lon="18.090811">
        <ele>35</ele>
        <time>2020-01-16T16:47:31Z</time>
      </trkpt>
      <trkpt lat="59.283137" lon="18.090794">
        <ele>35</ele>
        <time>2020-01-16T16:47:32Z</time>
      </trkpt>
      <trkpt lat="59.283193" lon="18.090759">
        <ele>36</ele>
        <time>2020-01-16T16:47:33Z</time>
      </trkpt>
      <trkpt lat="59.283247" lon="18.090727">
        <ele>0</ele>
        <time>2020-01-16T16:47:33Z</time>
      </trkpt>
      <trkpt lat="59.283302" lon="18.090696">
        <ele>36</ele>
        <time>2020-01-16T16:47:34Z</time>
      </trkpt>
      <trkpt lat="59.283355" lon="18.090663">
        <ele>36</ele>
        <time>2020-01-16T16:47:36Z</time>
      </trkpt>
      <trkpt lat="59.283409" lon="18.090633">
        <ele>36</ele>
        <time>2020-01-16T16:47:37Z</time>
      </trkpt>
      <trkpt lat="59.283467" lon="18.090612">
        <ele>35</ele>
        <time>2020-01-16T16:47:38Z</time>
      </trkpt>
      <trkpt lat="59.283521" lon="18.090589">
        <ele>36</ele>
        <time>2020-01-16T16:47:39Z</time>
      </trkpt>
      <trkpt lat="59.283575" lon="18.090565">
        <ele>0</ele>
        <time>2020-01-16T16:47:39Z</time>
      </trkpt>
      <trkpt lat="59.283631" lon="18.09054">
        <ele>36</ele>
        <time>2020-01-16T16:47:40Z</time>
      </trkpt>
      <trkpt lat="59.283685" lon="18.090512">
        <ele>36</ele>
        <time>2020-01-16T16:47:42Z</time>
      </trkpt>
      <trkpt lat="59.283739" lon="18.090481">
        <ele>0</ele>
        <time>2020-01-16T16:47:42Z</time>
      </trkpt>
      <trkpt lat="59.283794" lon="18.090451">
        <ele>36</ele>
        <time>2020-01-16T16:47:43Z</time>
      </trkpt>
      <trkpt lat="59.283854" lon="18.09043">
        <ele>36</ele>
        <time>2020-01-16T16:47:45Z</time>
      </trkpt>
      <trkpt lat="59.283917" lon="18.090407">
        <ele>35</ele>
        <time>2020-01-16T16:47:46Z</time>
      </trkpt>
      <trkpt lat="59.283971" lon="18.09038">
        <ele>35</ele>
        <time>2020-01-16T16:47:47Z</time>
      </trkpt>
      <trkpt lat="59.284022" lon="18.090354">
        <ele>36</ele>
        <time>2020-01-16T16:47:48Z</time>
      </trkpt>
      <trkpt lat="59.284068" lon="18.090327">
        <ele>36</ele>
        <time>2020-01-16T16:47:49Z</time>
      </trkpt>
      <trkpt lat="59.284111" lon="18.090309">
        <ele>36</ele>
        <time>2020-01-16T16:47:50Z</time>
      </trkpt>
      <trkpt lat="59.284156" lon="18.090284">
        <ele>36</ele>
        <time>2020-01-16T16:47:51Z</time>
      </trkpt>
      <trkpt lat="59.284203" lon="18.090262">
        <ele>0</ele>
        <time>2020-01-16T16:47:51Z</time>
      </trkpt>
      <trkpt lat="59.28425" lon="18.090236">
        <ele>36</ele>
        <time>2020-01-16T16:47:52Z</time>
      </trkpt>
      <trkpt lat="59.284301" lon="18.090205">
        <ele>36</ele>
        <time>2020-01-16T16:47:54Z</time>
      </trkpt>
      <trkpt lat="59.284362" lon="18.090175">
        <ele>36</ele>
        <time>2020-01-16T16:47:55Z</time>
      </trkpt>
      <trkpt lat="59.284427" lon="18.090149">
        <ele>36</ele>
        <time>2020-01-16T16:47:56Z</time>
      </trkpt>
      <trkpt lat="59.284487" lon="18.090118">
        <ele>36</ele>
        <time>2020-01-16T16:47:57Z</time>
      </trkpt>
      <trkpt lat="59.284544" lon="18.090085">
        <ele>36</ele>
        <time>2020-01-16T16:47:58Z</time>
      </trkpt>
      <trkpt lat="59.284599" lon="18.090055">
        <ele>0</ele>
        <time>2020-01-16T16:47:58Z</time>
      </trkpt>
      <trkpt lat="59.284654" lon="18.09003">
        <ele>36</ele>
        <time>2020-01-16T16:47:59Z</time>
      </trkpt>
      <trkpt lat="59.284707" lon="18.089999">
        <ele>0</ele>
        <time>2020-01-16T16:48:00Z</time>
      </trkpt>
      <trkpt lat="59.284762" lon="18.089976">
        <ele>36</ele>
        <time>2020-01-16T16:48:01Z</time>
      </trkpt>
      <trkpt lat="59.284818" lon="18.08995">
        <ele>36</ele>
        <time>2020-01-16T16:48:03Z</time>
      </trkpt>
      <trkpt lat="59.284874" lon="18.089923">
        <ele>36</ele>
        <time>2020-01-16T16:48:04Z</time>
      </trkpt>
      <trkpt lat="59.284924" lon="18.089894">
        <ele>36</ele>
        <time>2020-01-16T16:48:05Z</time>
      </trkpt>
      <trkpt lat="59.284972" lon="18.089859">
        <ele>36</ele>
        <time>2020-01-16T16:48:06Z</time>
      </trkpt>
      <trkpt lat="59.285018" lon="18.089819">
        <ele>36</ele>
        <time>2020-01-16T16:48:07Z</time>
      </trkpt>
      <trkpt lat="59.285064" lon="18.089787">
        <ele>36</ele>
        <time>2020-01-16T16:48:08Z</time>
      </trkpt>
      <trkpt lat="59.285115" lon="18.089759">
        <ele>36</ele>
        <time>2020-01-16T16:48:09Z</time>
      </trkpt>
      <trkpt lat="59.285171" lon="18.089741">
        <ele>0</ele>
        <time>2020-01-16T16:48:09Z</time>
      </trkpt>
      <trkpt lat="59.285223" lon="18.089717">
        <ele>37</ele>
        <time>2020-01-16T16:48:10Z</time>
      </trkpt>
      <trkpt lat="59.285275" lon="18.0897">
        <ele>36</ele>
        <time>2020-01-16T16:48:12Z</time>
      </trkpt>
      <trkpt lat="59.285328" lon="18.08967">
        <ele>37</ele>
        <time>2020-01-16T16:48:13Z</time>
      </trkpt>
      <trkpt lat="59.28538" lon="18.089646">
        <ele>37</ele>
        <time>2020-01-16T16:48:14Z</time>
      </trkpt>
      <trkpt lat="59.285423" lon="18.089623">
        <ele>37</ele>
        <time>2020-01-16T16:48:15Z</time>
      </trkpt>
      <trkpt lat="59.285468" lon="18.089606">
        <ele>37</ele>
        <time>2020-01-16T16:48:16Z</time>
      </trkpt>
      <trkpt lat="59.28552" lon="18.089586">
        <ele>37</ele>
        <time>2020-01-16T16:48:17Z</time>
      </trkpt>
      <trkpt lat="59.285571" lon="18.089559">
        <ele>0</ele>
        <time>2020-01-16T16:48:17Z</time>
      </trkpt>
      <trkpt lat="59.28562" lon="18.089531">
        <ele>37</ele>
        <time>2020-01-16T16:48:18Z</time>
      </trkpt>
      <trkpt lat="59.285671" lon="18.089506">
        <ele>0</ele>
        <time>2020-01-16T16:48:19Z</time>
      </trkpt>
      <trkpt lat="59.285722" lon="18.089484">
        <ele>37</ele>
        <time>2020-01-16T16:48:20Z</time>
      </trkpt>
      <trkpt lat="59.285773" lon="18.08946">
        <ele>37</ele>
        <time>2020-01-16T16:48:22Z</time>
      </trkpt>
      <trkpt lat="59.285819" lon="18.089442">
        <ele>37</ele>
        <time>2020-01-16T16:48:23Z</time>
      </trkpt>
      <trkpt lat="59.285862" lon="18.089428">
        <ele>37</ele>
        <time>2020-01-16T16:48:24Z</time>
      </trkpt>
      <trkpt lat="59.285908" lon="18.089408">
        <ele>37</ele>
        <time>2020-01-16T16:48:25Z</time>
      </trkpt>
      <trkpt lat="59.285957" lon="18.089388">
        <ele>37</ele>
        <time>2020-01-16T16:48:26Z</time>
      </trkpt>
      <trkpt lat="59.286007" lon="18.089364">
        <ele>37</ele>
        <time>2020-01-16T16:48:27Z</time>
      </trkpt>
      <trkpt lat="59.286065" lon="18.089333">
        <ele>37</ele>
        <time>2020-01-16T16:48:28Z</time>
      </trkpt>
      <trkpt lat="59.286123" lon="18.089307">
        <ele>0</ele>
        <time>2020-01-16T16:48:28Z</time>
      </trkpt>
      <trkpt lat="59.28618" lon="18.089281">
        <ele>37</ele>
        <time>2020-01-16T16:48:29Z</time>
      </trkpt>
      <trkpt lat="59.286238" lon="18.089252">
        <ele>37</ele>
        <time>2020-01-16T16:48:31Z</time>
      </trkpt>
      <trkpt lat="59.286294" lon="18.089223">
        <ele>37</ele>
        <time>2020-01-16T16:48:32Z</time>
      </trkpt>
      <trkpt lat="59.28635" lon="18.089198">
        <ele>37</ele>
        <time>2020-01-16T16:48:33Z</time>
      </trkpt>
      <trkpt lat="59.286407" lon="18.089172">
        <ele>37</ele>
        <time>2020-01-16T16:48:34Z</time>
      </trkpt>
      <trkpt lat="59.286464" lon="18.089146">
        <ele>37</ele>
        <time>2020-01-16T16:48:35Z</time>
      </trkpt>
      <trkpt lat="59.286522" lon="18.089131">
        <ele>37</ele>
        <time>2020-01-16T16:48:36Z</time>
      </trkpt>
      <trkpt lat="59.286578" lon="18.089115">
        <ele>0</ele>
        <time>2020-01-16T16:48:36Z</time>
      </trkpt>
      <trkpt lat="59.286631" lon="18.089098">
        <ele>37</ele>
        <time>2020-01-16T16:48:37Z</time>
      </trkpt>
      <trkpt lat="59.286682" lon="18.089078">
        <ele>37</ele>
        <time>2020-01-16T16:48:38Z</time>
      </trkpt>
      <trkpt lat="59.286732" lon="18.089055">
        <ele>37</ele>
        <time>2020-01-16T16:48:40Z</time>
      </trkpt>
      <trkpt lat="59.286783" lon="18.08903">
        <ele>37</ele>
        <time>2020-01-16T16:48:41Z</time>
      </trkpt>
      <trkpt lat="59.286836" lon="18.08901">
        <ele>37</ele>
        <time>2020-01-16T16:48:42Z</time>
      </trkpt>
      <trkpt lat="59.286888" lon="18.088987">
        <ele>37</ele>
        <time>2020-01-16T16:48:43Z</time>
      </trkpt>
      <trkpt lat="59.286939" lon="18.088958">
        <ele>37</ele>
        <time>2020-01-16T16:48:44Z</time>
      </trkpt>
      <trkpt lat="59.286992" lon="18.088927">
        <ele>37</ele>
        <time>2020-01-16T16:48:45Z</time>
      </trkpt>
      <trkpt lat="59.287042" lon="18.088889">
        <ele>37</ele>
        <time>2020-01-16T16:48:46Z</time>
      </trkpt>
      <trkpt lat="59.287096" lon="18.088858">
        <ele>0</ele>
        <time>2020-01-16T16:48:46Z</time>
      </trkpt>
      <trkpt lat="59.287146" lon="18.088821">
        <ele>37</ele>
        <time>2020-01-16T16:48:47Z</time>
      </trkpt>
      <trkpt lat="59.287199" lon="18.088796">
        <ele>37</ele>
        <time>2020-01-16T16:48:49Z</time>
      </trkpt>
      <trkpt lat="59.287249" lon="18.088769">
        <ele>37</ele>
        <time>2020-01-16T16:48:50Z</time>
      </trkpt>
      <trkpt lat="59.287299" lon="18.088745">
        <ele>37</ele>
        <time>2020-01-16T16:48:51Z</time>
      </trkpt>
      <trkpt lat="59.287349" lon="18.088726">
        <ele>37</ele>
        <time>2020-01-16T16:48:52Z</time>
      </trkpt>
      <trkpt lat="59.287396" lon="18.088705">
        <ele>38</ele>
        <time>2020-01-16T16:48:53Z</time>
      </trkpt>
      <trkpt lat="59.287441" lon="18.088722">
        <ele>38</ele>
        <time>2020-01-16T16:48:54Z</time>
      </trkpt>
      <trkpt lat="59.287479" lon="18.088787">
        <ele>38</ele>
        <time>2020-01-16T16:48:55Z</time>
      </trkpt>
      <trkpt lat="59.287506" lon="18.088876">
        <ele>0</ele>
        <time>2020-01-16T16:48:55Z</time>
      </trkpt>
      <trkpt lat="59.287535" lon="18.088964">
        <ele>38</ele>
        <time>2020-01-16T16:48:56Z</time>
      </trkpt>
      <trkpt lat="59.287565" lon="18.089038">
        <ele>38</ele>
        <time>2020-01-16T16:48:57Z</time>
      </trkpt>
      <trkpt lat="59.287594" lon="18.089093">
        <ele>38</ele>
        <time>2020-01-16T16:48:59Z</time>
      </trkpt>
      <trkpt lat="59.287619" lon="18.089131">
        <ele>38</ele>
        <time>2020-01-16T16:49:00Z</time>
      </trkpt>
      <trkpt lat="59.287686" lon="18.089136">
        <ele>38</ele>
        <time>2020-01-16T16:49:01Z</time>
      </trkpt>
      <trkpt lat="59.287742" lon="18.089145">
        <ele>38</ele>
        <time>2020-01-16T16:49:02Z</time>
      </trkpt>
      <trkpt lat="59.287794" lon="18.089149">
        <ele>39</ele>
        <time>2020-01-16T16:49:03Z</time>
      </trkpt>
      <trkpt lat="59.287847" lon="18.089137">
        <ele>39</ele>
        <time>2020-01-16T16:49:04Z</time>
      </trkpt>
      <trkpt lat="59.287902" lon="18.08911">
        <ele>39</ele>
        <time>2020-01-16T16:49:05Z</time>
      </trkpt>
      <trkpt lat="59.287954" lon="18.089076">
        <ele>0</ele>
        <time>2020-01-16T16:49:05Z</time>
      </trkpt>
      <trkpt lat="59.288002" lon="18.089051">
        <ele>39</ele>
        <time>2020-01-16T16:49:06Z</time>
      </trkpt>
      <trkpt lat="59.288051" lon="18.089025">
        <ele>40</ele>
        <time>2020-01-16T16:49:08Z</time>
      </trkpt>
      <trkpt lat="59.288101" lon="18.088993">
        <ele>40</ele>
        <time>2020-01-16T16:49:09Z</time>
      </trkpt>
      <trkpt lat="59.288153" lon="18.088958">
        <ele>40</ele>
        <time>2020-01-16T16:49:10Z</time>
      </trkpt>
      <trkpt lat="59.288201" lon="18.088928">
        <ele>40</ele>
        <time>2020-01-16T16:49:11Z</time>
      </trkpt>
      <trkpt lat="59.288253" lon="18.088903">
        <ele>41</ele>
        <time>2020-01-16T16:49:12Z</time>
      </trkpt>
      <trkpt lat="59.288312" lon="18.088876">
        <ele>41</ele>
        <time>2020-01-16T16:49:13Z</time>
      </trkpt>
      <trkpt lat="59.288364" lon="18.088852">
        <ele>41</ele>
        <time>2020-01-16T16:49:14Z</time>
      </trkpt>
      <trkpt lat="59.288414" lon="18.088826">
        <ele>0</ele>
        <time>2020-01-16T16:49:14Z</time>
      </trkpt>
      <trkpt lat="59.288455" lon="18.088808">
        <ele>41</ele>
        <time>2020-01-16T16:49:15Z</time>
      </trkpt>
      <trkpt lat="59.288491" lon="18.088793">
        <ele>41</ele>
        <time>2020-01-16T16:49:16Z</time>
      </trkpt>
      <trkpt lat="59.288521" lon="18.088786">
        <ele>41</ele>
        <time>2020-01-16T16:49:18Z</time>
      </trkpt>
      <trkpt lat="59.28855" lon="18.088777">
        <ele>41</ele>
        <time>2020-01-16T16:49:19Z</time>
      </trkpt>
      <trkpt lat="59.288574" lon="18.088769">
        <ele>42</ele>
        <time>2020-01-16T16:49:20Z</time>
      </trkpt>
      <trkpt lat="59.288597" lon="18.088763">
        <ele>43</ele>
        <time>2020-01-16T16:49:22Z</time>
      </trkpt>
      <trkpt lat="59.288615" lon="18.088757">
        <ele>0</ele>
        <time>2020-01-16T16:49:26Z</time>
      </trkpt>
      <trkpt lat="59.288703" lon="18.088724">
        <ele>41</ele>
        <time>2020-01-16T16:49:33Z</time>
      </trkpt>
      <trkpt lat="59.288736" lon="18.088716">
        <ele>41</ele>
        <time>2020-01-16T16:49:35Z</time>
      </trkpt>
      <trkpt lat="59.288764" lon="18.088683">
        <ele>41</ele>
        <time>2020-01-16T16:49:36Z</time>
      </trkpt>
      <trkpt lat="59.288779" lon="18.088611">
        <ele>40</ele>
        <time>2020-01-16T16:49:37Z</time>
      </trkpt>
      <trkpt lat="59.28878" lon="18.088537">
        <ele>40</ele>
        <time>2020-01-16T16:49:38Z</time>
      </trkpt>
      <trkpt lat="59.288788" lon="18.088455">
        <ele>39</ele>
        <time>2020-01-16T16:49:39Z</time>
      </trkpt>
      <trkpt lat="59.288816" lon="18.088371">
        <ele>39</ele>
        <time>2020-01-16T16:49:40Z</time>
      </trkpt>
      <trkpt lat="59.288851" lon="18.088317">
        <ele>39</ele>
        <time>2020-01-16T16:49:41Z</time>
      </trkpt>
      <trkpt lat="59.288899" lon="18.088286">
        <ele>0</ele>
        <time>2020-01-16T16:49:41Z</time>
      </trkpt>
      <trkpt lat="59.288949" lon="18.088256">
        <ele>39</ele>
        <time>2020-01-16T16:49:42Z</time>
      </trkpt>
      <trkpt lat="59.289003" lon="18.088231">
        <ele>39</ele>
        <time>2020-01-16T16:49:44Z</time>
      </trkpt>
      <trkpt lat="59.289059" lon="18.088206">
        <ele>39</ele>
        <time>2020-01-16T16:49:45Z</time>
      </trkpt>
      <trkpt lat="59.289117" lon="18.088179">
        <ele>38</ele>
        <time>2020-01-16T16:49:46Z</time>
      </trkpt>
      <trkpt lat="59.289173" lon="18.088149">
        <ele>38</ele>
        <time>2020-01-16T16:49:47Z</time>
      </trkpt>
      <trkpt lat="59.289228" lon="18.088119">
        <ele>38</ele>
        <time>2020-01-16T16:49:48Z</time>
      </trkpt>
      <trkpt lat="59.289284" lon="18.088093">
        <ele>38</ele>
        <time>2020-01-16T16:49:49Z</time>
      </trkpt>
      <trkpt lat="59.28934" lon="18.088069">
        <ele>38</ele>
        <time>2020-01-16T16:49:50Z</time>
      </trkpt>
      <trkpt lat="59.289395" lon="18.088043">
        <ele>0</ele>
        <time>2020-01-16T16:49:50Z</time>
      </trkpt>
      <trkpt lat="59.289451" lon="18.088015">
        <ele>38</ele>
        <time>2020-01-16T16:49:51Z</time>
      </trkpt>
      <trkpt lat="59.289508" lon="18.087988">
        <ele>38</ele>
        <time>2020-01-16T16:49:52Z</time>
      </trkpt>
      <trkpt lat="59.289565" lon="18.087963">
        <ele>38</ele>
        <time>2020-01-16T16:49:54Z</time>
      </trkpt>
      <trkpt lat="59.289622" lon="18.087935">
        <ele>38</ele>
        <time>2020-01-16T16:49:55Z</time>
      </trkpt>
      <trkpt lat="59.289677" lon="18.087907">
        <ele>38</ele>
        <time>2020-01-16T16:49:56Z</time>
      </trkpt>
      <trkpt lat="59.289731" lon="18.087879">
        <ele>38</ele>
        <time>2020-01-16T16:49:57Z</time>
      </trkpt>
      <trkpt lat="59.289785" lon="18.08785">
        <ele>38</ele>
        <time>2020-01-16T16:49:58Z</time>
      </trkpt>
      <trkpt lat="59.289839" lon="18.087821">
        <ele>38</ele>
        <time>2020-01-16T16:49:59Z</time>
      </trkpt>
      <trkpt lat="59.289892" lon="18.087791">
        <ele>0</ele>
        <time>2020-01-16T16:49:59Z</time>
      </trkpt>
      <trkpt lat="59.289944" lon="18.087757">
        <ele>38</ele>
        <time>2020-01-16T16:50:00Z</time>
      </trkpt>
      <trkpt lat="59.289994" lon="18.087715">
        <ele>38</ele>
        <time>2020-01-16T16:50:02Z</time>
      </trkpt>
      <trkpt lat="59.290042" lon="18.087665">
        <ele>38</ele>
        <time>2020-01-16T16:50:03Z</time>
      </trkpt>
      <trkpt lat="59.290091" lon="18.087616">
        <ele>38</ele>
        <time>2020-01-16T16:50:04Z</time>
      </trkpt>
      <trkpt lat="59.290139" lon="18.087572">
        <ele>38</ele>
        <time>2020-01-16T16:50:05Z</time>
      </trkpt>
      <trkpt lat="59.290188" lon="18.087532">
        <ele>0</ele>
        <time>2020-01-16T16:50:05Z</time>
      </trkpt>
      <trkpt lat="59.290237" lon="18.087495">
        <ele>38</ele>
        <time>2020-01-16T16:50:06Z</time>
      </trkpt>
      <trkpt lat="59.290285" lon="18.08746">
        <ele>38</ele>
        <time>2020-01-16T16:50:08Z</time>
      </trkpt>
      <trkpt lat="59.290332" lon="18.087426">
        <ele>0</ele>
        <time>2020-01-16T16:50:08Z</time>
      </trkpt>
      <trkpt lat="59.290379" lon="18.087393">
        <ele>38</ele>
        <time>2020-01-16T16:50:09Z</time>
      </trkpt>
      <trkpt lat="59.290425" lon="18.087361">
        <ele>0</ele>
        <time>2020-01-16T16:50:10Z</time>
      </trkpt>
      <trkpt lat="59.29047" lon="18.087331">
        <ele>39</ele>
        <time>2020-01-16T16:50:11Z</time>
      </trkpt>
      <trkpt lat="59.290515" lon="18.087302">
        <ele>39</ele>
        <time>2020-01-16T16:50:13Z</time>
      </trkpt>
      <trkpt lat="59.290559" lon="18.087275">
        <ele>39</ele>
        <time>2020-01-16T16:50:14Z</time>
      </trkpt>
      <trkpt lat="59.290602" lon="18.087248">
        <ele>39</ele>
        <time>2020-01-16T16:50:15Z</time>
      </trkpt>
      <trkpt lat="59.290645" lon="18.08722">
        <ele>39</ele>
        <time>2020-01-16T16:50:16Z</time>
      </trkpt>
      <trkpt lat="59.290687" lon="18.087196">
        <ele>39</ele>
        <time>2020-01-16T16:50:17Z</time>
      </trkpt>
      <trkpt lat="59.290728" lon="18.087176">
        <ele>39</ele>
        <time>2020-01-16T16:50:18Z</time>
      </trkpt>
      <trkpt lat="59.290769" lon="18.087155">
        <ele>39</ele>
        <time>2020-01-16T16:50:19Z</time>
      </trkpt>
      <trkpt lat="59.290811" lon="18.087132">
        <ele>0</ele>
        <time>2020-01-16T16:50:19Z</time>
      </trkpt>
      <trkpt lat="59.290854" lon="18.087109">
        <ele>39</ele>
        <time>2020-01-16T16:50:20Z</time>
      </trkpt>
      <trkpt lat="59.290895" lon="18.087086">
        <ele>39</ele>
        <time>2020-01-16T16:50:22Z</time>
      </trkpt>
      <trkpt lat="59.290935" lon="18.087067">
        <ele>39</ele>
        <time>2020-01-16T16:50:23Z</time>
      </trkpt>
      <trkpt lat="59.290972" lon="18.087049">
        <ele>39</ele>
        <time>2020-01-16T16:50:24Z</time>
      </trkpt>
      <trkpt lat="59.291005" lon="18.087033">
        <ele>39</ele>
        <time>2020-01-16T16:50:25Z</time>
      </trkpt>
      <trkpt lat="59.291038" lon="18.087017">
        <ele>39</ele>
        <time>2020-01-16T16:50:26Z</time>
      </trkpt>
      <trkpt lat="59.291072" lon="18.087001">
        <ele>39</ele>
        <time>2020-01-16T16:50:27Z</time>
      </trkpt>
      <trkpt lat="59.291104" lon="18.086982">
        <ele>39</ele>
        <time>2020-01-16T16:50:28Z</time>
      </trkpt>
      <trkpt lat="59.291136" lon="18.086961">
        <ele>39</ele>
        <time>2020-01-16T16:50:29Z</time>
      </trkpt>
      <trkpt lat="59.291163" lon="18.086942">
        <ele>0</ele>
        <time>2020-01-16T16:50:29Z</time>
      </trkpt>
      <trkpt lat="59.291204" lon="18.086923">
        <ele>39</ele>
        <time>2020-01-16T16:50:30Z</time>
      </trkpt>
      <trkpt lat="59.291244" lon="18.086904">
        <ele>39</ele>
        <time>2020-01-16T16:50:32Z</time>
      </trkpt>
      <trkpt lat="59.291285" lon="18.086883">
        <ele>39</ele>
        <time>2020-01-16T16:50:33Z</time>
      </trkpt>
      <trkpt lat="59.291326" lon="18.086862">
        <ele>39</ele>
        <time>2020-01-16T16:50:34Z</time>
      </trkpt>
      <trkpt lat="59.291362" lon="18.086844">
        <ele>0</ele>
        <time>2020-01-16T16:50:34Z</time>
      </trkpt>
      <trkpt lat="59.291389" lon="18.086831">
        <ele>39</ele>
        <time>2020-01-16T16:50:35Z</time>
      </trkpt>
      <trkpt lat="59.29142" lon="18.08681">
        <ele>39</ele>
        <time>2020-01-16T16:50:37Z</time>
      </trkpt>
      <trkpt lat="59.291459" lon="18.086786">
        <ele>40</ele>
        <time>2020-01-16T16:50:38Z</time>
      </trkpt>
      <trkpt lat="59.291495" lon="18.086767">
        <ele>40</ele>
        <time>2020-01-16T16:50:39Z</time>
      </trkpt>
      <trkpt lat="59.291535" lon="18.086747">
        <ele>40</ele>
        <time>2020-01-16T16:50:40Z</time>
      </trkpt>
      <trkpt lat="59.291573" lon="18.086732">
        <ele>40</ele>
        <time>2020-01-16T16:50:41Z</time>
      </trkpt>
      <trkpt lat="59.291607" lon="18.086714">
        <ele>40</ele>
        <time>2020-01-16T16:50:42Z</time>
      </trkpt>
      <trkpt lat="59.291643" lon="18.086692">
        <ele>41</ele>
        <time>2020-01-16T16:50:43Z</time>
      </trkpt>
      <trkpt lat="59.29168" lon="18.086671">
        <ele>41</ele>
        <time>2020-01-16T16:50:44Z</time>
      </trkpt>
      <trkpt lat="59.29172" lon="18.086652">
        <ele>41</ele>
        <time>2020-01-16T16:50:45Z</time>
      </trkpt>
      <trkpt lat="59.291759" lon="18.086634">
        <ele>41</ele>
        <time>2020-01-16T16:50:46Z</time>
      </trkpt>
      <trkpt lat="59.291799" lon="18.086615">
        <ele>41</ele>
        <time>2020-01-16T16:50:47Z</time>
      </trkpt>
      <trkpt lat="59.29184" lon="18.086593">
        <ele>0</ele>
        <time>2020-01-16T16:50:47Z</time>
      </trkpt>
      <trkpt lat="59.291876" lon="18.08657">
        <ele>41</ele>
        <time>2020-01-16T16:50:48Z</time>
      </trkpt>
      <trkpt lat="59.291918" lon="18.086544">
        <ele>41</ele>
        <time>2020-01-16T16:50:49Z</time>
      </trkpt>
      <trkpt lat="59.291964" lon="18.086521">
        <ele>41</ele>
        <time>2020-01-16T16:50:51Z</time>
      </trkpt>
      <trkpt lat="59.292009" lon="18.086496">
        <ele>41</ele>
        <time>2020-01-16T16:50:52Z</time>
      </trkpt>
      <trkpt lat="59.292056" lon="18.086471">
        <ele>41</ele>
        <time>2020-01-16T16:50:53Z</time>
      </trkpt>
      <trkpt lat="59.292099" lon="18.08645">
        <ele>41</ele>
        <time>2020-01-16T16:50:54Z</time>
      </trkpt>
      <trkpt lat="59.292139" lon="18.086436">
        <ele>41</ele>
        <time>2020-01-16T16:50:55Z</time>
      </trkpt>
      <trkpt lat="59.292179" lon="18.086419">
        <ele>42</ele>
        <time>2020-01-16T16:50:56Z</time>
      </trkpt>
      <trkpt lat="59.292221" lon="18.086398">
        <ele>41</ele>
        <time>2020-01-16T16:50:57Z</time>
      </trkpt>
      <trkpt lat="59.292267" lon="18.086375">
        <ele>42</ele>
        <time>2020-01-16T16:50:58Z</time>
      </trkpt>
      <trkpt lat="59.292314" lon="18.08635">
        <ele>0</ele>
        <time>2020-01-16T16:50:58Z</time>
      </trkpt>
      <trkpt lat="59.292361" lon="18.086326">
        <ele>42</ele>
        <time>2020-01-16T16:50:59Z</time>
      </trkpt>
      <trkpt lat="59.29241" lon="18.0863">
        <ele>42</ele>
        <time>2020-01-16T16:51:01Z</time>
      </trkpt>
      <trkpt lat="59.292458" lon="18.086274">
        <ele>42</ele>
        <time>2020-01-16T16:51:02Z</time>
      </trkpt>
      <trkpt lat="59.292507" lon="18.086249">
        <ele>43</ele>
        <time>2020-01-16T16:51:03Z</time>
      </trkpt>
      <trkpt lat="59.292554" lon="18.086225">
        <ele>43</ele>
        <time>2020-01-16T16:51:04Z</time>
      </trkpt>
      <trkpt lat="59.292601" lon="18.086206">
        <ele>43</ele>
        <time>2020-01-16T16:51:05Z</time>
      </trkpt>
      <trkpt lat="59.292649" lon="18.086186">
        <ele>43</ele>
        <time>2020-01-16T16:51:06Z</time>
      </trkpt>
      <trkpt lat="59.292697" lon="18.086163">
        <ele>44</ele>
        <time>2020-01-16T16:51:07Z</time>
      </trkpt>
      <trkpt lat="59.292745" lon="18.086137">
        <ele>0</ele>
        <time>2020-01-16T16:51:07Z</time>
      </trkpt>
      <trkpt lat="59.292792" lon="18.086114">
        <ele>44</ele>
        <time>2020-01-16T16:51:08Z</time>
      </trkpt>
      <trkpt lat="59.29284" lon="18.086093">
        <ele>44</ele>
        <time>2020-01-16T16:51:09Z</time>
      </trkpt>
      <trkpt lat="59.292887" lon="18.086071">
        <ele>44</ele>
        <time>2020-01-16T16:51:11Z</time>
      </trkpt>
      <trkpt lat="59.292933" lon="18.086049">
        <ele>44</ele>
        <time>2020-01-16T16:51:12Z</time>
      </trkpt>
      <trkpt lat="59.29298" lon="18.08603">
        <ele>44</ele>
        <time>2020-01-16T16:51:13Z</time>
      </trkpt>
      <trkpt lat="59.293026" lon="18.086009">
        <ele>44</ele>
        <time>2020-01-16T16:51:14Z</time>
      </trkpt>
      <trkpt lat="59.293075" lon="18.085985">
        <ele>44</ele>
        <time>2020-01-16T16:51:15Z</time>
      </trkpt>
      <trkpt lat="59.293124" lon="18.085961">
        <ele>44</ele>
        <time>2020-01-16T16:51:16Z</time>
      </trkpt>
      <trkpt lat="59.293175" lon="18.085935">
        <ele>44</ele>
        <time>2020-01-16T16:51:17Z</time>
      </trkpt>
      <trkpt lat="59.293225" lon="18.085913">
        <ele>44</ele>
        <time>2020-01-16T16:51:18Z</time>
      </trkpt>
      <trkpt lat="59.293276" lon="18.085891">
        <ele>0</ele>
        <time>2020-01-16T16:51:18Z</time>
      </trkpt>
      <trkpt lat="59.293327" lon="18.085867">
        <ele>44</ele>
        <time>2020-01-16T16:51:19Z</time>
      </trkpt>
      <trkpt lat="59.293379" lon="18.085843">
        <ele>45</ele>
        <time>2020-01-16T16:51:21Z</time>
      </trkpt>
      <trkpt lat="59.293427" lon="18.085816">
        <ele>45</ele>
        <time>2020-01-16T16:51:22Z</time>
      </trkpt>
      <trkpt lat="59.293477" lon="18.085793">
        <ele>45</ele>
        <time>2020-01-16T16:51:23Z</time>
      </trkpt>
      <trkpt lat="59.293525" lon="18.085771">
        <ele>45</ele>
        <time>2020-01-16T16:51:24Z</time>
      </trkpt>
      <trkpt lat="59.293574" lon="18.085749">
        <ele>45</ele>
        <time>2020-01-16T16:51:25Z</time>
      </trkpt>
      <trkpt lat="59.293621" lon="18.085726">
        <ele>45</ele>
        <time>2020-01-16T16:51:26Z</time>
      </trkpt>
      <trkpt lat="59.29367" lon="18.085701">
        <ele>0</ele>
        <time>2020-01-16T16:51:26Z</time>
      </trkpt>
      <trkpt lat="59.29372" lon="18.085679">
        <ele>45</ele>
        <time>2020-01-16T16:51:27Z</time>
      </trkpt>
      <trkpt lat="59.293771" lon="18.085652">
        <ele>0</ele>
        <time>2020-01-16T16:51:28Z</time>
      </trkpt>
      <trkpt lat="59.293821" lon="18.085619">
        <ele>46</ele>
        <time>2020-01-16T16:51:29Z</time>
      </trkpt>
      <trkpt lat="59.293874" lon="18.085587">
        <ele>46</ele>
        <time>2020-01-16T16:51:31Z</time>
      </trkpt>
      <trkpt lat="59.293925" lon="18.085555">
        <ele>46</ele>
        <time>2020-01-16T16:51:32Z</time>
      </trkpt>
      <trkpt lat="59.293974" lon="18.085518">
        <ele>46</ele>
        <time>2020-01-16T16:51:33Z</time>
      </trkpt>
      <trkpt lat="59.294028" lon="18.085484">
        <ele>46</ele>
        <time>2020-01-16T16:51:34Z</time>
      </trkpt>
      <trkpt lat="59.294087" lon="18.08545">
        <ele>46</ele>
        <time>2020-01-16T16:51:35Z</time>
      </trkpt>
      <trkpt lat="59.294146" lon="18.08542">
        <ele>46</ele>
        <time>2020-01-16T16:51:36Z</time>
      </trkpt>
      <trkpt lat="59.294202" lon="18.085388">
        <ele>46</ele>
        <time>2020-01-16T16:51:37Z</time>
      </trkpt>
      <trkpt lat="59.294252" lon="18.085356">
        <ele>47</ele>
        <time>2020-01-16T16:51:38Z</time>
      </trkpt>
      <trkpt lat="59.294345" lon="18.085304">
        <ele>47</ele>
        <time>2020-01-16T16:51:39Z</time>
      </trkpt>
      <trkpt lat="59.294459" lon="18.085212">
        <ele>46</ele>
        <time>2020-01-16T16:51:42Z</time>
      </trkpt>
      <trkpt lat="59.294572" lon="18.085102">
        <ele>46</ele>
        <time>2020-01-16T16:51:44Z</time>
      </trkpt>
      <trkpt lat="59.294668" lon="18.084956">
        <ele>0</ele>
        <time>2020-01-16T16:51:45Z</time>
      </trkpt>
      <trkpt lat="59.294769" lon="18.084856">
        <ele>47</ele>
        <time>2020-01-16T16:51:47Z</time>
      </trkpt>
      <trkpt lat="59.294816" lon="18.084851">
        <ele>47</ele>
        <time>2020-01-16T16:51:49Z</time>
      </trkpt>
      <trkpt lat="59.29486" lon="18.084841">
        <ele>48</ele>
        <time>2020-01-16T16:51:50Z</time>
      </trkpt>
      <trkpt lat="59.294903" lon="18.084821">
        <ele>47</ele>
        <time>2020-01-16T16:51:51Z</time>
      </trkpt>
      <trkpt lat="59.29495" lon="18.084808">
        <ele>47</ele>
        <time>2020-01-16T16:51:52Z</time>
      </trkpt>
      <trkpt lat="59.294993" lon="18.084802">
        <ele>47</ele>
        <time>2020-01-16T16:51:53Z</time>
      </trkpt>
      <trkpt lat="59.295034" lon="18.084809">
        <ele>47</ele>
        <time>2020-01-16T16:51:54Z</time>
      </trkpt>
      <trkpt lat="59.295067" lon="18.084811">
        <ele>47</ele>
        <time>2020-01-16T16:51:55Z</time>
      </trkpt>
      <trkpt lat="59.295107" lon="18.084801">
        <ele>47</ele>
        <time>2020-01-16T16:51:56Z</time>
      </trkpt>
      <trkpt lat="59.295151" lon="18.084784">
        <ele>46</ele>
        <time>2020-01-16T16:51:57Z</time>
      </trkpt>
      <trkpt lat="59.29519" lon="18.08477">
        <ele>0</ele>
        <time>2020-01-16T16:51:57Z</time>
      </trkpt>
      <trkpt lat="59.29523" lon="18.084752">
        <ele>46</ele>
        <time>2020-01-16T16:51:58Z</time>
      </trkpt>
      <trkpt lat="59.295272" lon="18.084729">
        <ele>46</ele>
        <time>2020-01-16T16:52:00Z</time>
      </trkpt>
      <trkpt lat="59.295317" lon="18.084705">
        <ele>46</ele>
        <time>2020-01-16T16:52:01Z</time>
      </trkpt>
      <trkpt lat="59.295359" lon="18.084682">
        <ele>46</ele>
        <time>2020-01-16T16:52:02Z</time>
      </trkpt>
      <trkpt lat="59.295399" lon="18.084659">
        <ele>46</ele>
        <time>2020-01-16T16:52:03Z</time>
      </trkpt>
      <trkpt lat="59.295441" lon="18.084634">
        <ele>46</ele>
        <time>2020-01-16T16:52:04Z</time>
      </trkpt>
      <trkpt lat="59.295483" lon="18.084611">
        <ele>0</ele>
        <time>2020-01-16T16:52:04Z</time>
      </trkpt>
      <trkpt lat="59.295528" lon="18.084586">
        <ele>46</ele>
        <time>2020-01-16T16:52:05Z</time>
      </trkpt>
      <trkpt lat="59.295571" lon="18.084561">
        <ele>46</ele>
        <time>2020-01-16T16:52:07Z</time>
      </trkpt>
      <trkpt lat="59.295616" lon="18.084534">
        <ele>46</ele>
        <time>2020-01-16T16:52:08Z</time>
      </trkpt>
      <trkpt lat="59.295661" lon="18.084507">
        <ele>0</ele>
        <time>2020-01-16T16:52:08Z</time>
      </trkpt>
      <trkpt lat="59.295706" lon="18.084482">
        <ele>46</ele>
        <time>2020-01-16T16:52:09Z</time>
      </trkpt>
      <trkpt lat="59.295751" lon="18.084457">
        <ele>46</ele>
        <time>2020-01-16T16:52:11Z</time>
      </trkpt>
      <trkpt lat="59.295797" lon="18.08443">
        <ele>46</ele>
        <time>2020-01-16T16:52:12Z</time>
      </trkpt>
      <trkpt lat="59.295843" lon="18.084404">
        <ele>46</ele>
        <time>2020-01-16T16:52:13Z</time>
      </trkpt>
      <trkpt lat="59.295889" lon="18.084378">
        <ele>46</ele>
        <time>2020-01-16T16:52:14Z</time>
      </trkpt>
      <trkpt lat="59.295936" lon="18.084351">
        <ele>46</ele>
        <time>2020-01-16T16:52:15Z</time>
      </trkpt>
      <trkpt lat="59.295983" lon="18.084323">
        <ele>46</ele>
        <time>2020-01-16T16:52:16Z</time>
      </trkpt>
      <trkpt lat="59.296029" lon="18.084295">
        <ele>45</ele>
        <time>2020-01-16T16:52:17Z</time>
      </trkpt>
      <trkpt lat="59.296075" lon="18.084267">
        <ele>45</ele>
        <time>2020-01-16T16:52:18Z</time>
      </trkpt>
      <trkpt lat="59.296121" lon="18.08424">
        <ele>0</ele>
        <time>2020-01-16T16:52:18Z</time>
      </trkpt>
      <trkpt lat="59.296168" lon="18.084215">
        <ele>45</ele>
        <time>2020-01-16T16:52:19Z</time>
      </trkpt>
      <trkpt lat="59.296214" lon="18.084193">
        <ele>45</ele>
        <time>2020-01-16T16:52:21Z</time>
      </trkpt>
      <trkpt lat="59.296261" lon="18.08418">
        <ele>45</ele>
        <time>2020-01-16T16:52:22Z</time>
      </trkpt>
      <trkpt lat="59.29631" lon="18.084176">
        <ele>45</ele>
        <time>2020-01-16T16:52:23Z</time>
      </trkpt>
      <trkpt lat="59.296359" lon="18.084192">
        <ele>0</ele>
        <time>2020-01-16T16:52:23Z</time>
      </trkpt>
      <trkpt lat="59.296403" lon="18.084241">
        <ele>45</ele>
        <time>2020-01-16T16:52:24Z</time>
      </trkpt>
      <trkpt lat="59.296437" lon="18.084318">
        <ele>45</ele>
        <time>2020-01-16T16:52:26Z</time>
      </trkpt>
      <trkpt lat="59.296459" lon="18.084412">
        <ele>45</ele>
        <time>2020-01-16T16:52:27Z</time>
      </trkpt>
      <trkpt lat="59.296477" lon="18.084508">
        <ele>45</ele>
        <time>2020-01-16T16:52:28Z</time>
      </trkpt>
      <trkpt lat="59.296501" lon="18.084591">
        <ele>0</ele>
        <time>2020-01-16T16:52:28Z</time>
      </trkpt>
      <trkpt lat="59.296537" lon="18.084651">
        <ele>45</ele>
        <time>2020-01-16T16:52:29Z</time>
      </trkpt>
      <trkpt lat="59.296581" lon="18.084682">
        <ele>45</ele>
        <time>2020-01-16T16:52:31Z</time>
      </trkpt>
      <trkpt lat="59.296627" lon="18.084697">
        <ele>46</ele>
        <time>2020-01-16T16:52:32Z</time>
      </trkpt>
      <trkpt lat="59.296675" lon="18.0847">
        <ele>46</ele>
        <time>2020-01-16T16:52:33Z</time>
      </trkpt>
      <trkpt lat="59.296723" lon="18.084699">
        <ele>46</ele>
        <time>2020-01-16T16:52:34Z</time>
      </trkpt>
      <trkpt lat="59.296772" lon="18.084696">
        <ele>46</ele>
        <time>2020-01-16T16:52:35Z</time>
      </trkpt>
      <trkpt lat="59.296822" lon="18.084693">
        <ele>45</ele>
        <time>2020-01-16T16:52:36Z</time>
      </trkpt>
      <trkpt lat="59.296873" lon="18.084689">
        <ele>45</ele>
        <time>2020-01-16T16:52:37Z</time>
      </trkpt>
      <trkpt lat="59.296926" lon="18.084687">
        <ele>45</ele>
        <time>2020-01-16T16:52:38Z</time>
      </trkpt>
      <trkpt lat="59.296982" lon="18.084686">
        <ele>0</ele>
        <time>2020-01-16T16:52:38Z</time>
      </trkpt>
      <trkpt lat="59.29704" lon="18.084675">
        <ele>45</ele>
        <time>2020-01-16T16:52:39Z</time>
      </trkpt>
      <trkpt lat="59.297097" lon="18.084637">
        <ele>44</ele>
        <time>2020-01-16T16:52:41Z</time>
      </trkpt>
      <trkpt lat="59.297147" lon="18.08457">
        <ele>44</ele>
        <time>2020-01-16T16:52:42Z</time>
      </trkpt>
      <trkpt lat="59.297191" lon="18.084475">
        <ele>0</ele>
        <time>2020-01-16T16:52:42Z</time>
      </trkpt>
      <trkpt lat="59.297228" lon="18.08436">
        <ele>44</ele>
        <time>2020-01-16T16:52:43Z</time>
      </trkpt>
      <trkpt lat="59.297258" lon="18.084232">
        <ele>44</ele>
        <time>2020-01-16T16:52:45Z</time>
      </trkpt>
      <trkpt lat="59.297276" lon="18.084093">
        <ele>43</ele>
        <time>2020-01-16T16:52:46Z</time>
      </trkpt>
      <trkpt lat="59.297282" lon="18.083948">
        <ele>0</ele>
        <time>2020-01-16T16:52:46Z</time>
      </trkpt>
      <trkpt lat="59.297276" lon="18.083804">
        <ele>43</ele>
        <time>2020-01-16T16:52:47Z</time>
      </trkpt>
      <trkpt lat="59.297267" lon="18.083669">
        <ele>43</ele>
        <time>2020-01-16T16:52:49Z</time>
      </trkpt>
      <trkpt lat="59.297264" lon="18.083543">
        <ele>43</ele>
        <time>2020-01-16T16:52:50Z</time>
      </trkpt>
      <trkpt lat="59.29728" lon="18.083436">
        <ele>43</ele>
        <time>2020-01-16T16:52:51Z</time>
      </trkpt>
      <trkpt lat="59.297315" lon="18.083354">
        <ele>44</ele>
        <time>2020-01-16T16:52:52Z</time>
      </trkpt>
      <trkpt lat="59.297361" lon="18.083299">
        <ele>43</ele>
        <time>2020-01-16T16:52:53Z</time>
      </trkpt>
      <trkpt lat="59.297416" lon="18.083258">
        <ele>43</ele>
        <time>2020-01-16T16:52:54Z</time>
      </trkpt>
      <trkpt lat="59.297473" lon="18.083221">
        <ele>0</ele>
        <time>2020-01-16T16:52:54Z</time>
      </trkpt>
      <trkpt lat="59.297532" lon="18.083182">
        <ele>43</ele>
        <time>2020-01-16T16:52:55Z</time>
      </trkpt>
      <trkpt lat="59.297595" lon="18.083143">
        <ele>43</ele>
        <time>2020-01-16T16:52:57Z</time>
      </trkpt>
      <trkpt lat="59.297657" lon="18.083103">
        <ele>43</ele>
        <time>2020-01-16T16:52:58Z</time>
      </trkpt>
      <trkpt lat="59.29772" lon="18.083075">
        <ele>43</ele>
        <time>2020-01-16T16:52:59Z</time>
      </trkpt>
      <trkpt lat="59.297784" lon="18.083066">
        <ele>43</ele>
        <time>2020-01-16T16:53:00Z</time>
      </trkpt>
      <trkpt lat="59.29785" lon="18.083064">
        <ele>43</ele>
        <time>2020-01-16T16:53:01Z</time>
      </trkpt>
      <trkpt lat="59.297916" lon="18.08306">
        <ele>42</ele>
        <time>2020-01-16T16:53:01Z</time>
      </trkpt>
      <trkpt lat="59.297982" lon="18.083045">
        <ele>42</ele>
        <time>2020-01-16T16:53:02Z</time>
      </trkpt>
      <trkpt lat="59.298048" lon="18.083017">
        <ele>42</ele>
        <time>2020-01-16T16:53:03Z</time>
      </trkpt>
      <trkpt lat="59.298114" lon="18.082978">
        <ele>42</ele>
        <time>2020-01-16T16:53:05Z</time>
      </trkpt>
      <trkpt lat="59.298181" lon="18.082932">
        <ele>42</ele>
        <time>2020-01-16T16:53:06Z</time>
      </trkpt>
      <trkpt lat="59.298249" lon="18.082883">
        <ele>42</ele>
        <time>2020-01-16T16:53:07Z</time>
      </trkpt>
      <trkpt lat="59.298314" lon="18.082832">
        <ele>42</ele>
        <time>2020-01-16T16:53:08Z</time>
      </trkpt>
      <trkpt lat="59.298377" lon="18.082775">
        <ele>42</ele>
        <time>2020-01-16T16:53:09Z</time>
      </trkpt>
      <trkpt lat="59.298438" lon="18.08271">
        <ele>0</ele>
        <time>2020-01-16T16:53:09Z</time>
      </trkpt>
      <trkpt lat="59.298499" lon="18.082644">
        <ele>41</ele>
        <time>2020-01-16T16:53:10Z</time>
      </trkpt>
      <trkpt lat="59.29856" lon="18.082583">
        <ele>41</ele>
        <time>2020-01-16T16:53:12Z</time>
      </trkpt>
      <trkpt lat="59.298624" lon="18.082531">
        <ele>41</ele>
        <time>2020-01-16T16:53:13Z</time>
      </trkpt>
      <trkpt lat="59.298691" lon="18.082488">
        <ele>41</ele>
        <time>2020-01-16T16:53:14Z</time>
      </trkpt>
      <trkpt lat="59.298758" lon="18.082445">
        <ele>41</ele>
        <time>2020-01-16T16:53:15Z</time>
      </trkpt>
      <trkpt lat="59.298826" lon="18.0824">
        <ele>41</ele>
        <time>2020-01-16T16:53:16Z</time>
      </trkpt>
      <trkpt lat="59.29889" lon="18.08236">
        <ele>0</ele>
        <time>2020-01-16T16:53:16Z</time>
      </trkpt>
      <trkpt lat="59.298954" lon="18.08232">
        <ele>41</ele>
        <time>2020-01-16T16:53:17Z</time>
      </trkpt>
      <trkpt lat="59.299018" lon="18.082282">
        <ele>40</ele>
        <time>2020-01-16T16:53:19Z</time>
      </trkpt>
      <trkpt lat="59.299083" lon="18.082254">
        <ele>40</ele>
        <time>2020-01-16T16:53:20Z</time>
      </trkpt>
      <trkpt lat="59.299147" lon="18.082237">
        <ele>0</ele>
        <time>2020-01-16T16:53:20Z</time>
      </trkpt>
      <trkpt lat="59.29921" lon="18.082229">
        <ele>40</ele>
        <time>2020-01-16T16:53:21Z</time>
      </trkpt>
      <trkpt lat="59.29927" lon="18.082238">
        <ele>40</ele>
        <time>2020-01-16T16:53:23Z</time>
      </trkpt>
      <trkpt lat="59.299326" lon="18.082267">
        <ele>40</ele>
        <time>2020-01-16T16:53:24Z</time>
      </trkpt>
      <trkpt lat="59.299385" lon="18.082286">
        <ele>0</ele>
        <time>2020-01-16T16:53:24Z</time>
      </trkpt>
      <trkpt lat="59.299449" lon="18.082269">
        <ele>40</ele>
        <time>2020-01-16T16:53:25Z</time>
      </trkpt>
      <trkpt lat="59.299518" lon="18.082245">
        <ele>40</ele>
        <time>2020-01-16T16:53:27Z</time>
      </trkpt>
      <trkpt lat="59.299588" lon="18.082206">
        <ele>40</ele>
        <time>2020-01-16T16:53:28Z</time>
      </trkpt>
      <trkpt lat="59.299654" lon="18.082172">
        <ele>40</ele>
        <time>2020-01-16T16:53:29Z</time>
      </trkpt>
      <trkpt lat="59.299718" lon="18.082134">
        <ele>40</ele>
        <time>2020-01-16T16:53:30Z</time>
      </trkpt>
      <trkpt lat="59.299781" lon="18.082093">
        <ele>40</ele>
        <time>2020-01-16T16:53:31Z</time>
      </trkpt>
      <trkpt lat="59.299839" lon="18.082057">
        <ele>0</ele>
        <time>2020-01-16T16:53:31Z</time>
      </trkpt>
      <trkpt lat="59.299897" lon="18.082024">
        <ele>40</ele>
        <time>2020-01-16T16:53:32Z</time>
      </trkpt>
      <trkpt lat="59.299955" lon="18.081985">
        <ele>40</ele>
        <time>2020-01-16T16:53:34Z</time>
      </trkpt>
      <trkpt lat="59.30001" lon="18.081935">
        <ele>40</ele>
        <time>2020-01-16T16:53:35Z</time>
      </trkpt>
      <trkpt lat="59.300064" lon="18.081881">
        <ele>40</ele>
        <time>2020-01-16T16:53:36Z</time>
      </trkpt>
      <trkpt lat="59.300118" lon="18.081833">
        <ele>40</ele>
        <time>2020-01-16T16:53:37Z</time>
      </trkpt>
      <trkpt lat="59.300173" lon="18.081792">
        <ele>40</ele>
        <time>2020-01-16T16:53:38Z</time>
      </trkpt>
      <trkpt lat="59.300229" lon="18.081755">
        <ele>40</ele>
        <time>2020-01-16T16:53:39Z</time>
      </trkpt>
      <trkpt lat="59.300285" lon="18.08172">
        <ele>0</ele>
        <time>2020-01-16T16:53:39Z</time>
      </trkpt>
      <trkpt lat="59.300341" lon="18.081684">
        <ele>40</ele>
        <time>2020-01-16T16:53:40Z</time>
      </trkpt>
      <trkpt lat="59.3004" lon="18.081646">
        <ele>40</ele>
        <time>2020-01-16T16:53:41Z</time>
      </trkpt>
      <trkpt lat="59.300457" lon="18.081609">
        <ele>40</ele>
        <time>2020-01-16T16:53:43Z</time>
      </trkpt>
      <trkpt lat="59.300515" lon="18.081571">
        <ele>40</ele>
        <time>2020-01-16T16:53:44Z</time>
      </trkpt>
      <trkpt lat="59.300573" lon="18.081531">
        <ele>40</ele>
        <time>2020-01-16T16:53:45Z</time>
      </trkpt>
      <trkpt lat="59.300632" lon="18.081488">
        <ele>40</ele>
        <time>2020-01-16T16:53:46Z</time>
      </trkpt>
      <trkpt lat="59.300691" lon="18.081445">
        <ele>40</ele>
        <time>2020-01-16T16:53:47Z</time>
      </trkpt>
      <trkpt lat="59.300746" lon="18.081402">
        <ele>39</ele>
        <time>2020-01-16T16:53:48Z</time>
      </trkpt>
      <trkpt lat="59.300799" lon="18.081354">
        <ele>0</ele>
        <time>2020-01-16T16:53:48Z</time>
      </trkpt>
      <trkpt lat="59.30085" lon="18.081302">
        <ele>39</ele>
        <time>2020-01-16T16:53:49Z</time>
      </trkpt>
      <trkpt lat="59.300903" lon="18.081253">
        <ele>39</ele>
        <time>2020-01-16T16:53:51Z</time>
      </trkpt>
      <trkpt lat="59.300957" lon="18.081206">
        <ele>39</ele>
        <time>2020-01-16T16:53:52Z</time>
      </trkpt>
      <trkpt lat="59.301011" lon="18.081155">
        <ele>39</ele>
        <time>2020-01-16T16:53:53Z</time>
      </trkpt>
      <trkpt lat="59.301064" lon="18.0811">
        <ele>39</ele>
        <time>2020-01-16T16:53:54Z</time>
      </trkpt>
      <trkpt lat="59.301119" lon="18.081045">
        <ele>39</ele>
        <time>2020-01-16T16:53:55Z</time>
      </trkpt>
      <trkpt lat="59.301173" lon="18.08099">
        <ele>39</ele>
        <time>2020-01-16T16:53:56Z</time>
      </trkpt>
      <trkpt lat="59.301229" lon="18.080934">
        <ele>0</ele>
        <time>2020-01-16T16:53:56Z</time>
      </trkpt>
      <trkpt lat="59.301285" lon="18.08088">
        <ele>39</ele>
        <time>2020-01-16T16:53:57Z</time>
      </trkpt>
      <trkpt lat="59.301342" lon="18.080832">
        <ele>0</ele>
        <time>2020-01-16T16:53:58Z</time>
      </trkpt>
      <trkpt lat="59.3014" lon="18.080782">
        <ele>39</ele>
        <time>2020-01-16T16:53:59Z</time>
      </trkpt>
      <trkpt lat="59.301459" lon="18.080733">
        <ele>40</ele>
        <time>2020-01-16T16:54:01Z</time>
      </trkpt>
      <trkpt lat="59.301517" lon="18.080684">
        <ele>40</ele>
        <time>2020-01-16T16:54:02Z</time>
      </trkpt>
      <trkpt lat="59.301576" lon="18.080635">
        <ele>40</ele>
        <time>2020-01-16T16:54:03Z</time>
      </trkpt>
      <trkpt lat="59.301635" lon="18.080584">
        <ele>40</ele>
        <time>2020-01-16T16:54:04Z</time>
      </trkpt>
      <trkpt lat="59.301697" lon="18.080532">
        <ele>0</ele>
        <time>2020-01-16T16:54:04Z</time>
      </trkpt>
      <trkpt lat="59.301759" lon="18.080483">
        <ele>40</ele>
        <time>2020-01-16T16:54:05Z</time>
      </trkpt>
      <trkpt lat="59.301821" lon="18.080436">
        <ele>40</ele>
        <time>2020-01-16T16:54:07Z</time>
      </trkpt>
      <trkpt lat="59.301883" lon="18.080394">
        <ele>40</ele>
        <time>2020-01-16T16:54:08Z</time>
      </trkpt>
      <trkpt lat="59.301946" lon="18.080358">
        <ele>40</ele>
        <time>2020-01-16T16:54:09Z</time>
      </trkpt>
      <trkpt lat="59.302008" lon="18.080321">
        <ele>40</ele>
        <time>2020-01-16T16:54:10Z</time>
      </trkpt>
      <trkpt lat="59.302068" lon="18.08028">
        <ele>40</ele>
        <time>2020-01-16T16:54:11Z</time>
      </trkpt>
      <trkpt lat="59.302127" lon="18.080242">
        <ele>39</ele>
        <time>2020-01-16T16:54:12Z</time>
      </trkpt>
      <trkpt lat="59.302185" lon="18.080204">
        <ele>0</ele>
        <time>2020-01-16T16:54:12Z</time>
      </trkpt>
      <trkpt lat="59.302245" lon="18.080164">
        <ele>39</ele>
        <time>2020-01-16T16:54:13Z</time>
      </trkpt>
      <trkpt lat="59.302305" lon="18.080125">
        <ele>39</ele>
        <time>2020-01-16T16:54:15Z</time>
      </trkpt>
      <trkpt lat="59.302365" lon="18.08009">
        <ele>38</ele>
        <time>2020-01-16T16:54:16Z</time>
      </trkpt>
      <trkpt lat="59.302426" lon="18.08005">
        <ele>38</ele>
        <time>2020-01-16T16:54:17Z</time>
      </trkpt>
      <trkpt lat="59.302486" lon="18.080009">
        <ele>0</ele>
        <time>2020-01-16T16:54:17Z</time>
      </trkpt>
      <trkpt lat="59.302546" lon="18.079971">
        <ele>38</ele>
        <time>2020-01-16T16:54:18Z</time>
      </trkpt>
      <trkpt lat="59.302606" lon="18.079934">
        <ele>0</ele>
        <time>2020-01-16T16:54:19Z</time>
      </trkpt>
      <trkpt lat="59.302667" lon="18.079899">
        <ele>38</ele>
        <time>2020-01-16T16:54:20Z</time>
      </trkpt>
      <trkpt lat="59.30273" lon="18.079862">
        <ele>38</ele>
        <time>2020-01-16T16:54:22Z</time>
      </trkpt>
      <trkpt lat="59.302794" lon="18.079825">
        <ele>38</ele>
        <time>2020-01-16T16:54:23Z</time>
      </trkpt>
      <trkpt lat="59.302857" lon="18.079786">
        <ele>38</ele>
        <time>2020-01-16T16:54:24Z</time>
      </trkpt>
      <trkpt lat="59.302922" lon="18.079742">
        <ele>38</ele>
        <time>2020-01-16T16:54:25Z</time>
      </trkpt>
      <trkpt lat="59.302986" lon="18.079701">
        <ele>38</ele>
        <time>2020-01-16T16:54:26Z</time>
      </trkpt>
      <trkpt lat="59.303048" lon="18.079661">
        <ele>38</ele>
        <time>2020-01-16T16:54:27Z</time>
      </trkpt>
      <trkpt lat="59.303111" lon="18.07962">
        <ele>0</ele>
        <time>2020-01-16T16:54:27Z</time>
      </trkpt>
      <trkpt lat="59.303173" lon="18.07958">
        <ele>38</ele>
        <time>2020-01-16T16:54:28Z</time>
      </trkpt>
      <trkpt lat="59.303233" lon="18.079542">
        <ele>38</ele>
        <time>2020-01-16T16:54:30Z</time>
      </trkpt>
      <trkpt lat="59.303292" lon="18.079504">
        <ele>38</ele>
        <time>2020-01-16T16:54:31Z</time>
      </trkpt>
      <trkpt lat="59.303351" lon="18.079466">
        <ele>38</ele>
        <time>2020-01-16T16:54:32Z</time>
      </trkpt>
      <trkpt lat="59.30341" lon="18.079429">
        <ele>37</ele>
        <time>2020-01-16T16:54:33Z</time>
      </trkpt>
      <trkpt lat="59.303471" lon="18.079393">
        <ele>37</ele>
        <time>2020-01-16T16:54:34Z</time>
      </trkpt>
      <trkpt lat="59.303532" lon="18.079355">
        <ele>36</ele>
        <time>2020-01-16T16:54:35Z</time>
      </trkpt>
      <trkpt lat="59.303595" lon="18.079319">
        <ele>0</ele>
        <time>2020-01-16T16:54:35Z</time>
      </trkpt>
      <trkpt lat="59.303659" lon="18.079281">
        <ele>36</ele>
        <time>2020-01-16T16:54:36Z</time>
      </trkpt>
      <trkpt lat="59.303724" lon="18.079239">
        <ele>35</ele>
        <time>2020-01-16T16:54:37Z</time>
      </trkpt>
      <trkpt lat="59.30379" lon="18.079197">
        <ele>34</ele>
        <time>2020-01-16T16:54:39Z</time>
      </trkpt>
      <trkpt lat="59.303858" lon="18.079154">
        <ele>34</ele>
        <time>2020-01-16T16:54:40Z</time>
      </trkpt>
      <trkpt lat="59.303928" lon="18.079111">
        <ele>33</ele>
        <time>2020-01-16T16:54:41Z</time>
      </trkpt>
      <trkpt lat="59.304001" lon="18.079065">
        <ele>33</ele>
        <time>2020-01-16T16:54:42Z</time>
      </trkpt>
      <trkpt lat="59.304074" lon="18.079019">
        <ele>0</ele>
        <time>2020-01-16T16:54:42Z</time>
      </trkpt>
      <trkpt lat="59.304148" lon="18.078972">
        <ele>32</ele>
        <time>2020-01-16T16:54:43Z</time>
      </trkpt>
      <trkpt lat="59.304223" lon="18.078924">
        <ele>31</ele>
        <time>2020-01-16T16:54:45Z</time>
      </trkpt>
      <trkpt lat="59.3043" lon="18.078875">
        <ele>31</ele>
        <time>2020-01-16T16:54:46Z</time>
      </trkpt>
      <trkpt lat="59.304377" lon="18.078826">
        <ele>30</ele>
        <time>2020-01-16T16:54:47Z</time>
      </trkpt>
      <trkpt lat="59.304455" lon="18.078777">
        <ele>30</ele>
        <time>2020-01-16T16:54:48Z</time>
      </trkpt>
      <trkpt lat="59.304533" lon="18.078729">
        <ele>0</ele>
        <time>2020-01-16T16:54:48Z</time>
      </trkpt>
      <trkpt lat="59.304612" lon="18.07868">
        <ele>29</ele>
        <time>2020-01-16T16:54:49Z</time>
      </trkpt>
      <trkpt lat="59.304692" lon="18.07863">
        <ele>28</ele>
        <time>2020-01-16T16:54:51Z</time>
      </trkpt>
      <trkpt lat="59.304772" lon="18.07858">
        <ele>28</ele>
        <time>2020-01-16T16:54:52Z</time>
      </trkpt>
      <trkpt lat="59.304853" lon="18.07853">
        <ele>27</ele>
        <time>2020-01-16T16:54:53Z</time>
      </trkpt>
      <trkpt lat="59.304934" lon="18.078479">
        <ele>27</ele>
        <time>2020-01-16T16:54:54Z</time>
      </trkpt>
      <trkpt lat="59.305016" lon="18.078425">
        <ele>0</ele>
        <time>2020-01-16T16:54:54Z</time>
      </trkpt>
      <trkpt lat="59.305097" lon="18.078372">
        <ele>26</ele>
        <time>2020-01-16T16:54:55Z</time>
      </trkpt>
      <trkpt lat="59.305179" lon="18.078317">
        <ele>26</ele>
        <time>2020-01-16T16:54:56Z</time>
      </trkpt>
      <trkpt lat="59.305259" lon="18.078264">
        <ele>26</ele>
        <time>2020-01-16T16:54:58Z</time>
      </trkpt>
      <trkpt lat="59.305339" lon="18.078215">
        <ele>25</ele>
        <time>2020-01-16T16:54:59Z</time>
      </trkpt>
      <trkpt lat="59.305419" lon="18.078167">
        <ele>25</ele>
        <time>2020-01-16T16:55:00Z</time>
      </trkpt>
      <trkpt lat="59.3055" lon="18.078117">
        <ele>0</ele>
        <time>2020-01-16T16:55:00Z</time>
      </trkpt>
      <trkpt lat="59.305582" lon="18.078066">
        <ele>25</ele>
        <time>2020-01-16T16:55:01Z</time>
      </trkpt>
      <trkpt lat="59.305664" lon="18.078016">
        <ele>24</ele>
        <time>2020-01-16T16:55:03Z</time>
      </trkpt>
      <trkpt lat="59.305746" lon="18.077962">
        <ele>24</ele>
        <time>2020-01-16T16:55:04Z</time>
      </trkpt>
      <trkpt lat="59.305826" lon="18.07791">
        <ele>24</ele>
        <time>2020-01-16T16:55:05Z</time>
      </trkpt>
      <trkpt lat="59.305906" lon="18.07786">
        <ele>24</ele>
        <time>2020-01-16T16:55:06Z</time>
      </trkpt>
      <trkpt lat="59.305986" lon="18.07781">
        <ele>0</ele>
        <time>2020-01-16T16:55:06Z</time>
      </trkpt>
      <trkpt lat="59.306063" lon="18.077762">
        <ele>24</ele>
        <time>2020-01-16T16:55:07Z</time>
      </trkpt>
      <trkpt lat="59.306138" lon="18.077716">
        <ele>23</ele>
        <time>2020-01-16T16:55:09Z</time>
      </trkpt>
      <trkpt lat="59.306212" lon="18.077668">
        <ele>23</ele>
        <time>2020-01-16T16:55:10Z</time>
      </trkpt>
      <trkpt lat="59.306283" lon="18.077618">
        <ele>23</ele>
        <time>2020-01-16T16:55:11Z</time>
      </trkpt>
      <trkpt lat="59.306353" lon="18.077568">
        <ele>22</ele>
        <time>2020-01-16T16:55:12Z</time>
      </trkpt>
      <trkpt lat="59.306421" lon="18.07751">
        <ele>0</ele>
        <time>2020-01-16T16:55:12Z</time>
      </trkpt>
      <trkpt lat="59.306485" lon="18.077454">
        <ele>22</ele>
        <time>2020-01-16T16:55:13Z</time>
      </trkpt>
      <trkpt lat="59.306555" lon="18.077409">
        <ele>0</ele>
        <time>2020-01-16T16:55:14Z</time>
      </trkpt>
      <trkpt lat="59.306625" lon="18.077373">
        <ele>22</ele>
        <time>2020-01-16T16:55:15Z</time>
      </trkpt>
      <trkpt lat="59.306694" lon="18.077339">
        <ele>23</ele>
        <time>2020-01-16T16:55:17Z</time>
      </trkpt>
      <trkpt lat="59.306763" lon="18.077305">
        <ele>23</ele>
        <time>2020-01-16T16:55:18Z</time>
      </trkpt>
      <trkpt lat="59.306832" lon="18.077267">
        <ele>23</ele>
        <time>2020-01-16T16:55:19Z</time>
      </trkpt>
      <trkpt lat="59.306901" lon="18.077231">
        <ele>0</ele>
        <time>2020-01-16T16:55:19Z</time>
      </trkpt>
      <trkpt lat="59.306968" lon="18.077198">
        <ele>23</ele>
        <time>2020-01-16T16:55:20Z</time>
      </trkpt>
      <trkpt lat="59.307028" lon="18.077167">
        <ele>23</ele>
        <time>2020-01-16T16:55:22Z</time>
      </trkpt>
      <trkpt lat="59.307085" lon="18.077138">
        <ele>23</ele>
        <time>2020-01-16T16:55:23Z</time>
      </trkpt>
      <trkpt lat="59.307139" lon="18.077107">
        <ele>23</ele>
        <time>2020-01-16T16:55:24Z</time>
      </trkpt>
      <trkpt lat="59.307193" lon="18.077076">
        <ele>23</ele>
        <time>2020-01-16T16:55:25Z</time>
      </trkpt>
      <trkpt lat="59.307241" lon="18.077046">
        <ele>23</ele>
        <time>2020-01-16T16:55:26Z</time>
      </trkpt>
      <trkpt lat="59.307282" lon="18.077025">
        <ele>23</ele>
        <time>2020-01-16T16:55:27Z</time>
      </trkpt>
      <trkpt lat="59.307322" lon="18.077004">
        <ele>23</ele>
        <time>2020-01-16T16:55:28Z</time>
      </trkpt>
      <trkpt lat="59.30741" lon="18.076921">
        <ele>0</ele>
        <time>2020-01-16T16:55:30Z</time>
      </trkpt>
      <trkpt lat="59.307428" lon="18.076902">
        <ele>24</ele>
        <time>2020-01-16T16:55:31Z</time>
      </trkpt>
      <trkpt lat="59.307456" lon="18.076876">
        <ele>0</ele>
        <time>2020-01-16T16:55:33Z</time>
      </trkpt>
      <trkpt lat="59.307485" lon="18.076862">
        <ele>25</ele>
        <time>2020-01-16T16:55:36Z</time>
      </trkpt>
      <trkpt lat="59.307512" lon="18.076838">
        <ele>25</ele>
        <time>2020-01-16T16:55:38Z</time>
      </trkpt>
      <trkpt lat="59.307536" lon="18.076828">
        <ele>26</ele>
        <time>2020-01-16T16:55:41Z</time>
      </trkpt>
      <trkpt lat="59.307536" lon="18.076826">
        <ele>26</ele>
        <time>2020-01-16T16:55:43Z</time>
      </trkpt>
      <trkpt lat="59.307643" lon="18.076704">
        <ele>28</ele>
        <time>2020-01-16T16:56:21Z</time>
      </trkpt>
      <trkpt lat="59.307684" lon="18.076697">
        <ele>28</ele>
        <time>2020-01-16T16:56:23Z</time>
      </trkpt>
      <trkpt lat="59.307734" lon="18.076691">
        <ele>28</ele>
        <time>2020-01-16T16:56:24Z</time>
      </trkpt>
      <trkpt lat="59.307783" lon="18.076669">
        <ele>28</ele>
        <time>2020-01-16T16:56:25Z</time>
      </trkpt>
      <trkpt lat="59.307832" lon="18.07664">
        <ele>28</ele>
        <time>2020-01-16T16:56:26Z</time>
      </trkpt>
      <trkpt lat="59.307883" lon="18.076603">
        <ele>28</ele>
        <time>2020-01-16T16:56:27Z</time>
      </trkpt>
      <trkpt lat="59.307932" lon="18.076569">
        <ele>28</ele>
        <time>2020-01-16T16:56:28Z</time>
      </trkpt>
      <trkpt lat="59.307984" lon="18.076538">
        <ele>0</ele>
        <time>2020-01-16T16:56:28Z</time>
      </trkpt>
      <trkpt lat="59.308035" lon="18.076511">
        <ele>28</ele>
        <time>2020-01-16T16:56:29Z</time>
      </trkpt>
      <trkpt lat="59.308086" lon="18.076483">
        <ele>28</ele>
        <time>2020-01-16T16:56:31Z</time>
      </trkpt>
      <trkpt lat="59.308138" lon="18.076455">
        <ele>29</ele>
        <time>2020-01-16T16:56:32Z</time>
      </trkpt>
      <trkpt lat="59.308199" lon="18.076405">
        <ele>30</ele>
        <time>2020-01-16T16:56:33Z</time>
      </trkpt>
      <trkpt lat="59.308254" lon="18.07637">
        <ele>30</ele>
        <time>2020-01-16T16:56:34Z</time>
      </trkpt>
      <trkpt lat="59.308316" lon="18.076322">
        <ele>30</ele>
        <time>2020-01-16T16:56:35Z</time>
      </trkpt>
      <trkpt lat="59.308373" lon="18.076287">
        <ele>31</ele>
        <time>2020-01-16T16:56:36Z</time>
      </trkpt>
      <trkpt lat="59.308432" lon="18.076257">
        <ele>0</ele>
        <time>2020-01-16T16:56:36Z</time>
      </trkpt>
      <trkpt lat="59.308488" lon="18.076226">
        <ele>31</ele>
        <time>2020-01-16T16:56:37Z</time>
      </trkpt>
      <trkpt lat="59.30855" lon="18.076214">
        <ele>31</ele>
        <time>2020-01-16T16:56:39Z</time>
      </trkpt>
      <trkpt lat="59.308605" lon="18.076192">
        <ele>0</ele>
        <time>2020-01-16T16:56:39Z</time>
      </trkpt>
      <trkpt lat="59.308654" lon="18.076165">
        <ele>31</ele>
        <time>2020-01-16T16:56:40Z</time>
      </trkpt>
      <trkpt lat="59.308708" lon="18.076132">
        <ele>31</ele>
        <time>2020-01-16T16:56:42Z</time>
      </trkpt>
      <trkpt lat="59.308756" lon="18.076093">
        <ele>31</ele>
        <time>2020-01-16T16:56:43Z</time>
      </trkpt>
      <trkpt lat="59.308807" lon="18.076058">
        <ele>31</ele>
        <time>2020-01-16T16:56:44Z</time>
      </trkpt>
      <trkpt lat="59.308866" lon="18.076019">
        <ele>32</ele>
        <time>2020-01-16T16:56:45Z</time>
      </trkpt>
      <trkpt lat="59.308937" lon="18.075966">
        <ele>0</ele>
        <time>2020-01-16T16:56:45Z</time>
      </trkpt>
      <trkpt lat="59.309014" lon="18.075884">
        <ele>33</ele>
        <time>2020-01-16T16:56:46Z</time>
      </trkpt>
      <trkpt lat="59.309072" lon="18.075858">
        <ele>34</ele>
        <time>2020-01-16T16:56:48Z</time>
      </trkpt>
      <trkpt lat="59.309125" lon="18.075834">
        <ele>34</ele>
        <time>2020-01-16T16:56:49Z</time>
      </trkpt>
      <trkpt lat="59.309167" lon="18.075807">
        <ele>34</ele>
        <time>2020-01-16T16:56:50Z</time>
      </trkpt>
      <trkpt lat="59.309203" lon="18.075786">
        <ele>34</ele>
        <time>2020-01-16T16:56:51Z</time>
      </trkpt>
      <trkpt lat="59.309239" lon="18.075775">
        <ele>34</ele>
        <time>2020-01-16T16:56:52Z</time>
      </trkpt>
      <trkpt lat="59.309266" lon="18.075765">
        <ele>34</ele>
        <time>2020-01-16T16:56:53Z</time>
      </trkpt>
      <trkpt lat="59.309293" lon="18.075761">
        <ele>35</ele>
        <time>2020-01-16T16:56:54Z</time>
      </trkpt>
      <trkpt lat="59.309314" lon="18.075762">
        <ele>35</ele>
        <time>2020-01-16T16:56:55Z</time>
      </trkpt>
      <trkpt lat="59.309341" lon="18.075758">
        <ele>37</ele>
        <time>2020-01-16T16:56:56Z</time>
      </trkpt>
      <trkpt lat="59.309364" lon="18.07576">
        <ele>37</ele>
        <time>2020-01-16T16:56:57Z</time>
      </trkpt>
      <trkpt lat="59.309378" lon="18.075755">
        <ele>37</ele>
        <time>2020-01-16T16:57:02Z</time>
      </trkpt>
      <trkpt lat="59.309484" lon="18.075706">
        <ele>38</ele>
        <time>2020-01-16T16:57:21Z</time>
      </trkpt>
      <trkpt lat="59.309517" lon="18.075689">
        <ele>38</ele>
        <time>2020-01-16T16:57:23Z</time>
      </trkpt>
      <trkpt lat="59.309556" lon="18.075671">
        <ele>0</ele>
        <time>2020-01-16T16:57:23Z</time>
      </trkpt>
      <trkpt lat="59.309589" lon="18.075644">
        <ele>38</ele>
        <time>2020-01-16T16:57:24Z</time>
      </trkpt>
      <trkpt lat="59.309631" lon="18.075621">
        <ele>38</ele>
        <time>2020-01-16T16:57:26Z</time>
      </trkpt>
      <trkpt lat="59.309676" lon="18.075593">
        <ele>38</ele>
        <time>2020-01-16T16:57:27Z</time>
      </trkpt>
      <trkpt lat="59.309723" lon="18.075558">
        <ele>38</ele>
        <time>2020-01-16T16:57:28Z</time>
      </trkpt>
      <trkpt lat="59.309774" lon="18.075524">
        <ele>38</ele>
        <time>2020-01-16T16:57:29Z</time>
      </trkpt>
      <trkpt lat="59.309831" lon="18.075487">
        <ele>39</ele>
        <time>2020-01-16T16:57:30Z</time>
      </trkpt>
      <trkpt lat="59.309909" lon="18.075433">
        <ele>40</ele>
        <time>2020-01-16T16:57:31Z</time>
      </trkpt>
      <trkpt lat="59.309971" lon="18.075403">
        <ele>40</ele>
        <time>2020-01-16T16:57:32Z</time>
      </trkpt>
      <trkpt lat="59.310036" lon="18.075373">
        <ele>0</ele>
        <time>2020-01-16T16:57:32Z</time>
      </trkpt>
      <trkpt lat="59.310104" lon="18.075348">
        <ele>40</ele>
        <time>2020-01-16T16:57:33Z</time>
      </trkpt>
      <trkpt lat="59.31017" lon="18.075321">
        <ele>41</ele>
        <time>2020-01-16T16:57:35Z</time>
      </trkpt>
      <trkpt lat="59.310231" lon="18.075291">
        <ele>0</ele>
        <time>2020-01-16T16:57:35Z</time>
      </trkpt>
      <trkpt lat="59.310293" lon="18.075258">
        <ele>41</ele>
        <time>2020-01-16T16:57:36Z</time>
      </trkpt>
      <trkpt lat="59.310357" lon="18.075228">
        <ele>41</ele>
        <time>2020-01-16T16:57:38Z</time>
      </trkpt>
      <trkpt lat="59.310421" lon="18.075195">
        <ele>41</ele>
        <time>2020-01-16T16:57:39Z</time>
      </trkpt>
      <trkpt lat="59.310481" lon="18.075156">
        <ele>0</ele>
        <time>2020-01-16T16:57:39Z</time>
      </trkpt>
      <trkpt lat="59.310543" lon="18.075131">
        <ele>41</ele>
        <time>2020-01-16T16:57:40Z</time>
      </trkpt>
      <trkpt lat="59.310609" lon="18.07512">
        <ele>41</ele>
        <time>2020-01-16T16:57:42Z</time>
      </trkpt>
      <trkpt lat="59.310671" lon="18.075087">
        <ele>42</ele>
        <time>2020-01-16T16:57:43Z</time>
      </trkpt>
      <trkpt lat="59.310734" lon="18.075048">
        <ele>43</ele>
        <time>2020-01-16T16:57:44Z</time>
      </trkpt>
      <trkpt lat="59.310803" lon="18.075013">
        <ele>43</ele>
        <time>2020-01-16T16:57:45Z</time>
      </trkpt>
      <trkpt lat="59.310865" lon="18.074981">
        <ele>43</ele>
        <time>2020-01-16T16:57:46Z</time>
      </trkpt>
      <trkpt lat="59.310922" lon="18.074948">
        <ele>43</ele>
        <time>2020-01-16T16:57:47Z</time>
      </trkpt>
      <trkpt lat="59.31098" lon="18.074914">
        <ele>0</ele>
        <time>2020-01-16T16:57:47Z</time>
      </trkpt>
      <trkpt lat="59.311037" lon="18.074886">
        <ele>43</ele>
        <time>2020-01-16T16:57:48Z</time>
      </trkpt>
      <trkpt lat="59.311091" lon="18.074861">
        <ele>43</ele>
        <time>2020-01-16T16:57:50Z</time>
      </trkpt>
      <trkpt lat="59.311143" lon="18.074839">
        <ele>43</ele>
        <time>2020-01-16T16:57:51Z</time>
      </trkpt>
      <trkpt lat="59.311196" lon="18.074816">
        <ele>43</ele>
        <time>2020-01-16T16:57:52Z</time>
      </trkpt>
      <trkpt lat="59.311247" lon="18.074794">
        <ele>43</ele>
        <time>2020-01-16T16:57:53Z</time>
      </trkpt>
      <trkpt lat="59.311293" lon="18.074773">
        <ele>43</ele>
        <time>2020-01-16T16:57:54Z</time>
      </trkpt>
      <trkpt lat="59.311335" lon="18.074752">
        <ele>43</ele>
        <time>2020-01-16T16:57:55Z</time>
      </trkpt>
      <trkpt lat="59.311379" lon="18.074735">
        <ele>43</ele>
        <time>2020-01-16T16:57:56Z</time>
      </trkpt>
      <trkpt lat="59.311421" lon="18.074716">
        <ele>43</ele>
        <time>2020-01-16T16:57:57Z</time>
      </trkpt>
      <trkpt lat="59.311458" lon="18.074696">
        <ele>0</ele>
        <time>2020-01-16T16:57:57Z</time>
      </trkpt>
      <trkpt lat="59.311496" lon="18.074677">
        <ele>43</ele>
        <time>2020-01-16T16:57:58Z</time>
      </trkpt>
      <trkpt lat="59.311521" lon="18.074644">
        <ele>44</ele>
        <time>2020-01-16T16:57:59Z</time>
      </trkpt>
      <trkpt lat="59.311547" lon="18.074638">
        <ele>44</ele>
        <time>2020-01-16T16:58:01Z</time>
      </trkpt>
      <trkpt lat="59.31157" lon="18.074643">
        <ele>44</ele>
        <time>2020-01-16T16:58:02Z</time>
      </trkpt>
      <trkpt lat="59.311593" lon="18.074653">
        <ele>44</ele>
        <time>2020-01-16T16:58:04Z</time>
      </trkpt>
      <trkpt lat="59.311592" lon="18.074655">
        <ele>44</ele>
        <time>2020-01-16T16:58:07Z</time>
      </trkpt>
      <trkpt lat="59.311641" lon="18.074662">
        <ele>41</ele>
        <time>2020-01-16T16:58:16Z</time>
      </trkpt>
      <trkpt lat="59.311671" lon="18.074652">
        <ele>41</ele>
        <time>2020-01-16T16:58:17Z</time>
      </trkpt>
      <trkpt lat="59.311704" lon="18.074636">
        <ele>41</ele>
        <time>2020-01-16T16:58:19Z</time>
      </trkpt>
      <trkpt lat="59.311752" lon="18.074616">
        <ele>41</ele>
        <time>2020-01-16T16:58:20Z</time>
      </trkpt>
      <trkpt lat="59.311818" lon="18.074588">
        <ele>41</ele>
        <time>2020-01-16T16:58:21Z</time>
      </trkpt>
      <trkpt lat="59.311884" lon="18.074558">
        <ele>42</ele>
        <time>2020-01-16T16:58:22Z</time>
      </trkpt>
      <trkpt lat="59.311967" lon="18.074505">
        <ele>43</ele>
        <time>2020-01-16T16:58:23Z</time>
      </trkpt>
      <trkpt lat="59.312027" lon="18.074439">
        <ele>0</ele>
        <time>2020-01-16T16:58:23Z</time>
      </trkpt>
      <trkpt lat="59.31209" lon="18.074389">
        <ele>43</ele>
        <time>2020-01-16T16:58:24Z</time>
      </trkpt>
      <trkpt lat="59.312166" lon="18.074331">
        <ele>46</ele>
        <time>2020-01-16T16:58:26Z</time>
      </trkpt>
      <trkpt lat="59.312233" lon="18.074296">
        <ele>45</ele>
        <time>2020-01-16T16:58:27Z</time>
      </trkpt>
      <trkpt lat="59.312289" lon="18.074273">
        <ele>45</ele>
        <time>2020-01-16T16:58:28Z</time>
      </trkpt>
      <trkpt lat="59.312343" lon="18.074246">
        <ele>46</ele>
        <time>2020-01-16T16:58:29Z</time>
      </trkpt>
      <trkpt lat="59.312402" lon="18.074207">
        <ele>46</ele>
        <time>2020-01-16T16:58:30Z</time>
      </trkpt>
      <trkpt lat="59.312454" lon="18.074156">
        <ele>46</ele>
        <time>2020-01-16T16:58:31Z</time>
      </trkpt>
      <trkpt lat="59.312504" lon="18.074121">
        <ele>0</ele>
        <time>2020-01-16T16:58:31Z</time>
      </trkpt>
      <trkpt lat="59.312554" lon="18.074085">
        <ele>47</ele>
        <time>2020-01-16T16:58:32Z</time>
      </trkpt>
      <trkpt lat="59.312595" lon="18.074052">
        <ele>48</ele>
        <time>2020-01-16T16:58:34Z</time>
      </trkpt>
      <trkpt lat="59.312636" lon="18.074017">
        <ele>49</ele>
        <time>2020-01-16T16:58:35Z</time>
      </trkpt>
      <trkpt lat="59.312682" lon="18.073981">
        <ele>0</ele>
        <time>2020-01-16T16:58:35Z</time>
      </trkpt>
      <trkpt lat="59.312731" lon="18.073947">
        <ele>49</ele>
        <time>2020-01-16T16:58:36Z</time>
      </trkpt>
      <trkpt lat="59.312773" lon="18.073905">
        <ele>50</ele>
        <time>2020-01-16T16:58:38Z</time>
      </trkpt>
      <trkpt lat="59.312818" lon="18.073843">
        <ele>50</ele>
        <time>2020-01-16T16:58:39Z</time>
      </trkpt>
      <trkpt lat="59.312865" lon="18.073793">
        <ele>50</ele>
        <time>2020-01-16T16:58:40Z</time>
      </trkpt>
      <trkpt lat="59.312894" lon="18.073765">
        <ele>51</ele>
        <time>2020-01-16T16:58:41Z</time>
      </trkpt>
      <trkpt lat="59.312918" lon="18.073758">
        <ele>52</ele>
        <time>2020-01-16T16:58:42Z</time>
      </trkpt>
      <trkpt lat="59.312951" lon="18.073771">
        <ele>0</ele>
        <time>2020-01-16T16:58:42Z</time>
      </trkpt>
      <trkpt lat="59.312988" lon="18.073783">
        <ele>53</ele>
        <time>2020-01-16T16:58:43Z</time>
      </trkpt>
      <trkpt lat="59.313041" lon="18.073797">
        <ele>54</ele>
        <time>2020-01-16T16:58:45Z</time>
      </trkpt>
      <trkpt lat="59.313095" lon="18.073787">
        <ele>54</ele>
        <time>2020-01-16T16:58:46Z</time>
      </trkpt>
      <trkpt lat="59.313145" lon="18.073775">
        <ele>54</ele>
        <time>2020-01-16T16:58:47Z</time>
      </trkpt>
      <trkpt lat="59.313194" lon="18.073756">
        <ele>54</ele>
        <time>2020-01-16T16:58:48Z</time>
      </trkpt>
      <trkpt lat="59.313242" lon="18.073735">
        <ele>54</ele>
        <time>2020-01-16T16:58:49Z</time>
      </trkpt>
      <trkpt lat="59.313286" lon="18.073712">
        <ele>54</ele>
        <time>2020-01-16T16:58:50Z</time>
      </trkpt>
      <trkpt lat="59.313332" lon="18.073686">
        <ele>54</ele>
        <time>2020-01-16T16:58:51Z</time>
      </trkpt>
      <trkpt lat="59.313382" lon="18.073659">
        <ele>54</ele>
        <time>2020-01-16T16:58:52Z</time>
      </trkpt>
      <trkpt lat="59.31344" lon="18.073642">
        <ele>0</ele>
        <time>2020-01-16T16:58:52Z</time>
      </trkpt>
      <trkpt lat="59.3135" lon="18.073635">
        <ele>55</ele>
        <time>2020-01-16T16:58:53Z</time>
      </trkpt>
      <trkpt lat="59.313554" lon="18.073617">
        <ele>0</ele>
        <time>2020-01-16T16:58:54Z</time>
      </trkpt>
      <trkpt lat="59.313604" lon="18.073591">
        <ele>55</ele>
        <time>2020-01-16T16:58:55Z</time>
      </trkpt>
      <trkpt lat="59.313649" lon="18.073562">
        <ele>55</ele>
        <time>2020-01-16T16:58:57Z</time>
      </trkpt>
      <trkpt lat="59.313691" lon="18.073533">
        <ele>55</ele>
        <time>2020-01-16T16:58:58Z</time>
      </trkpt>
      <trkpt lat="59.313738" lon="18.073504">
        <ele>55</ele>
        <time>2020-01-16T16:58:59Z</time>
      </trkpt>
      <trkpt lat="59.313784" lon="18.073474">
        <ele>55</ele>
        <time>2020-01-16T16:59:00Z</time>
      </trkpt>
      <trkpt lat="59.313836" lon="18.073441">
        <ele>55</ele>
        <time>2020-01-16T16:59:01Z</time>
      </trkpt>
      <trkpt lat="59.313899" lon="18.073402">
        <ele>54</ele>
        <time>2020-01-16T16:59:01Z</time>
      </trkpt>
      <trkpt lat="59.313958" lon="18.073368">
        <ele>55</ele>
        <time>2020-01-16T16:59:02Z</time>
      </trkpt>
      <trkpt lat="59.314015" lon="18.073338">
        <ele>55</ele>
        <time>2020-01-16T16:59:04Z</time>
      </trkpt>
      <trkpt lat="59.314091" lon="18.073326">
        <ele>55</ele>
        <time>2020-01-16T16:59:05Z</time>
      </trkpt>
      <trkpt lat="59.314177" lon="18.073339">
        <ele>54</ele>
        <time>2020-01-16T16:59:06Z</time>
      </trkpt>
      <trkpt lat="59.314301" lon="18.073317">
        <ele>52</ele>
        <time>2020-01-16T16:59:08Z</time>
      </trkpt>
      <trkpt lat="59.314426" lon="18.073257">
        <ele>52</ele>
        <time>2020-01-16T16:59:10Z</time>
      </trkpt>
      <trkpt lat="59.314525" lon="18.073178">
        <ele>52</ele>
        <time>2020-01-16T16:59:11Z</time>
      </trkpt>
      <trkpt lat="59.314625" lon="18.073082">
        <ele>52</ele>
        <time>2020-01-16T16:59:14Z</time>
      </trkpt>
      <trkpt lat="59.314654" lon="18.073061">
        <ele>51</ele>
        <time>2020-01-16T16:59:16Z</time>
      </trkpt>
      <trkpt lat="59.314689" lon="18.073025">
        <ele>51</ele>
        <time>2020-01-16T16:59:17Z</time>
      </trkpt>
      <trkpt lat="59.314723" lon="18.07299">
        <ele>51</ele>
        <time>2020-01-16T16:59:18Z</time>
      </trkpt>
      <trkpt lat="59.314761" lon="18.072963">
        <ele>51</ele>
        <time>2020-01-16T16:59:19Z</time>
      </trkpt>
      <trkpt lat="59.314809" lon="18.07297">
        <ele>51</ele>
        <time>2020-01-16T16:59:20Z</time>
      </trkpt>
      <trkpt lat="59.314852" lon="18.072996">
        <ele>52</ele>
        <time>2020-01-16T16:59:21Z</time>
      </trkpt>
      <trkpt lat="59.314887" lon="18.073024">
        <ele>0</ele>
        <time>2020-01-16T16:59:21Z</time>
      </trkpt>
      <trkpt lat="59.314913" lon="18.073031">
        <ele>51</ele>
        <time>2020-01-16T16:59:22Z</time>
      </trkpt>
      <trkpt lat="59.314943" lon="18.073015">
        <ele>50</ele>
        <time>2020-01-16T16:59:24Z</time>
      </trkpt>
      <trkpt lat="59.31498" lon="18.072991">
        <ele>50</ele>
        <time>2020-01-16T16:59:25Z</time>
      </trkpt>
      <trkpt lat="59.315024" lon="18.072973">
        <ele>49</ele>
        <time>2020-01-16T16:59:26Z</time>
      </trkpt>
      <trkpt lat="59.315073" lon="18.072958">
        <ele>49</ele>
        <time>2020-01-16T16:59:27Z</time>
      </trkpt>
      <trkpt lat="59.315127" lon="18.072943">
        <ele>48</ele>
        <time>2020-01-16T16:59:28Z</time>
      </trkpt>
      <trkpt lat="59.315184" lon="18.07293">
        <ele>47</ele>
        <time>2020-01-16T16:59:29Z</time>
      </trkpt>
      <trkpt lat="59.315237" lon="18.072919">
        <ele>46</ele>
        <time>2020-01-16T16:59:30Z</time>
      </trkpt>
      <trkpt lat="59.31529" lon="18.072913">
        <ele>45</ele>
        <time>2020-01-16T16:59:31Z</time>
      </trkpt>
      <trkpt lat="59.315341" lon="18.072915">
        <ele>0</ele>
        <time>2020-01-16T16:59:31Z</time>
      </trkpt>
      <trkpt lat="59.315393" lon="18.072891">
        <ele>44</ele>
        <time>2020-01-16T16:59:32Z</time>
      </trkpt>
      <trkpt lat="59.315442" lon="18.072858">
        <ele>44</ele>
        <time>2020-01-16T16:59:33Z</time>
      </trkpt>
      <trkpt lat="59.315491" lon="18.072818">
        <ele>42</ele>
        <time>2020-01-16T16:59:35Z</time>
      </trkpt>
      <trkpt lat="59.315538" lon="18.072785">
        <ele>42</ele>
        <time>2020-01-16T16:59:36Z</time>
      </trkpt>
      <trkpt lat="59.315587" lon="18.072748">
        <ele>42</ele>
        <time>2020-01-16T16:59:37Z</time>
      </trkpt>
      <trkpt lat="59.315633" lon="18.072708">
        <ele>42</ele>
        <time>2020-01-16T16:59:38Z</time>
      </trkpt>
      <trkpt lat="59.315685" lon="18.07265">
        <ele>42</ele>
        <time>2020-01-16T16:59:39Z</time>
      </trkpt>
      <trkpt lat="59.315728" lon="18.072587">
        <ele>42</ele>
        <time>2020-01-16T16:59:40Z</time>
      </trkpt>
      <trkpt lat="59.315761" lon="18.072528">
        <ele>42</ele>
        <time>2020-01-16T16:59:41Z</time>
      </trkpt>
      <trkpt lat="59.315796" lon="18.072479">
        <ele>0</ele>
        <time>2020-01-16T16:59:41Z</time>
      </trkpt>
      <trkpt lat="59.315831" lon="18.072451">
        <ele>42</ele>
        <time>2020-01-16T16:59:42Z</time>
      </trkpt>
      <trkpt lat="59.315856" lon="18.072426">
        <ele>42</ele>
        <time>2020-01-16T16:59:44Z</time>
      </trkpt>
      <trkpt lat="59.315961" lon="18.072356">
        <ele>43</ele>
        <time>2020-01-16T16:59:47Z</time>
      </trkpt>
      <trkpt lat="59.316005" lon="18.072333">
        <ele>43</ele>
        <time>2020-01-16T16:59:48Z</time>
      </trkpt>
      <trkpt lat="59.316091" lon="18.072271">
        <ele>43</ele>
        <time>2020-01-16T16:59:50Z</time>
      </trkpt>
      <trkpt lat="59.316182" lon="18.072189">
        <ele>0</ele>
        <time>2020-01-16T16:59:51Z</time>
      </trkpt>
      <trkpt lat="59.316275" lon="18.072094">
        <ele>44</ele>
        <time>2020-01-16T16:59:54Z</time>
      </trkpt>
      <trkpt lat="59.316382" lon="18.072041">
        <ele>44</ele>
        <time>2020-01-16T16:59:56Z</time>
      </trkpt>
      <trkpt lat="59.316507" lon="18.072021">
        <ele>43</ele>
        <time>2020-01-16T17:00:00Z</time>
      </trkpt>
      <trkpt lat="59.31654" lon="18.072006">
        <ele>43</ele>
        <time>2020-01-16T17:00:01Z</time>
      </trkpt>
      <trkpt lat="59.316659" lon="18.071973">
        <ele>44</ele>
        <time>2020-01-16T17:00:05Z</time>
      </trkpt>
      <trkpt lat="59.316775" lon="18.071914">
        <ele>44</ele>
        <time>2020-01-16T17:00:07Z</time>
      </trkpt>
      <trkpt lat="59.316872" lon="18.07185">
        <ele>44</ele>
        <time>2020-01-16T17:00:10Z</time>
      </trkpt>
      <trkpt lat="59.316908" lon="18.07181">
        <ele>0</ele>
        <time>2020-01-16T17:00:10Z</time>
      </trkpt>
      <trkpt lat="59.316941" lon="18.071781">
        <ele>44</ele>
        <time>2020-01-16T17:00:11Z</time>
      </trkpt>
      <trkpt lat="59.316978" lon="18.07177">
        <ele>45</ele>
        <time>2020-01-16T17:00:13Z</time>
      </trkpt>
      <trkpt lat="59.317097" lon="18.071774">
        <ele>45</ele>
        <time>2020-01-16T17:00:15Z</time>
      </trkpt>
      <trkpt lat="59.317151" lon="18.071762">
        <ele>45</ele>
        <time>2020-01-16T17:00:16Z</time>
      </trkpt>
      <trkpt lat="59.317198" lon="18.071738">
        <ele>45</ele>
        <time>2020-01-16T17:00:17Z</time>
      </trkpt>
      <trkpt lat="59.317316" lon="18.071674">
        <ele>45</ele>
        <time>2020-01-16T17:00:19Z</time>
      </trkpt>
      <trkpt lat="59.317451" lon="18.071603">
        <ele>45</ele>
        <time>2020-01-16T17:00:23Z</time>
      </trkpt>
      <trkpt lat="59.317511" lon="18.07157">
        <ele>45</ele>
        <time>2020-01-16T17:00:24Z</time>
      </trkpt>
      <trkpt lat="59.31757" lon="18.071533">
        <ele>45</ele>
        <time>2020-01-16T17:00:25Z</time>
      </trkpt>
      <trkpt lat="59.317627" lon="18.071504">
        <ele>45</ele>
        <time>2020-01-16T17:00:26Z</time>
      </trkpt>
      <trkpt lat="59.317673" lon="18.071475">
        <ele>45</ele>
        <time>2020-01-16T17:00:27Z</time>
      </trkpt>
      <trkpt lat="59.317716" lon="18.071448">
        <ele>0</ele>
        <time>2020-01-16T17:00:27Z</time>
      </trkpt>
      <trkpt lat="59.317756" lon="18.071432">
        <ele>45</ele>
        <time>2020-01-16T17:00:28Z</time>
      </trkpt>
      <trkpt lat="59.317806" lon="18.071419">
        <ele>0</ele>
        <time>2020-01-16T17:00:29Z</time>
      </trkpt>
      <trkpt lat="59.317859" lon="18.071395">
        <ele>45</ele>
        <time>2020-01-16T17:00:30Z</time>
      </trkpt>
      <trkpt lat="59.317914" lon="18.071376">
        <ele>46</ele>
        <time>2020-01-16T17:00:32Z</time>
      </trkpt>
      <trkpt lat="59.317964" lon="18.071357">
        <ele>46</ele>
        <time>2020-01-16T17:00:33Z</time>
      </trkpt>
      <trkpt lat="59.318009" lon="18.071337">
        <ele>46</ele>
        <time>2020-01-16T17:00:34Z</time>
      </trkpt>
      <trkpt lat="59.318053" lon="18.071322">
        <ele>46</ele>
        <time>2020-01-16T17:00:35Z</time>
      </trkpt>
      <trkpt lat="59.318095" lon="18.071316">
        <ele>46</ele>
        <time>2020-01-16T17:00:36Z</time>
      </trkpt>
      <trkpt lat="59.318143" lon="18.071293">
        <ele>46</ele>
        <time>2020-01-16T17:00:37Z</time>
      </trkpt>
      <trkpt lat="59.318202" lon="18.071263">
        <ele>0</ele>
        <time>2020-01-16T17:00:37Z</time>
      </trkpt>
      <trkpt lat="59.318278" lon="18.07122">
        <ele>46</ele>
        <time>2020-01-16T17:00:38Z</time>
      </trkpt>
      <trkpt lat="59.318349" lon="18.071184">
        <ele>45</ele>
        <time>2020-01-16T17:00:40Z</time>
      </trkpt>
      <trkpt lat="59.318405" lon="18.071154">
        <ele>45</ele>
        <time>2020-01-16T17:00:41Z</time>
      </trkpt>
      <trkpt lat="59.318462" lon="18.071122">
        <ele>45</ele>
        <time>2020-01-16T17:00:42Z</time>
      </trkpt>
      <trkpt lat="59.31852" lon="18.071084">
        <ele>45</ele>
        <time>2020-01-16T17:00:43Z</time>
      </trkpt>
      <trkpt lat="59.318581" lon="18.071057">
        <ele>45</ele>
        <time>2020-01-16T17:00:44Z</time>
      </trkpt>
      <trkpt lat="59.318632" lon="18.071006">
        <ele>44</ele>
        <time>2020-01-16T17:00:45Z</time>
      </trkpt>
      <trkpt lat="59.318679" lon="18.070958">
        <ele>0</ele>
        <time>2020-01-16T17:00:45Z</time>
      </trkpt>
      <trkpt lat="59.31873" lon="18.070931">
        <ele>44</ele>
        <time>2020-01-16T17:00:46Z</time>
      </trkpt>
      <trkpt lat="59.318789" lon="18.070912">
        <ele>44</ele>
        <time>2020-01-16T17:00:48Z</time>
      </trkpt>
      <trkpt lat="59.318911" lon="18.070916">
        <ele>44</ele>
        <time>2020-01-16T17:00:49Z</time>
      </trkpt>
      <trkpt lat="59.319039" lon="18.070887">
        <ele>44</ele>
        <time>2020-01-16T17:00:52Z</time>
      </trkpt>
      <trkpt lat="59.319174" lon="18.070834">
        <ele>44</ele>
        <time>2020-01-16T17:00:54Z</time>
      </trkpt>
      <trkpt lat="59.319323" lon="18.070769">
        <ele>44</ele>
        <time>2020-01-16T17:00:55Z</time>
      </trkpt>
      <trkpt lat="59.319469" lon="18.070667">
        <ele>43</ele>
        <time>2020-01-16T17:00:58Z</time>
      </trkpt>
      <trkpt lat="59.319613" lon="18.070587">
        <ele>43</ele>
        <time>2020-01-16T17:01:00Z</time>
      </trkpt>
      <trkpt lat="59.319737" lon="18.070496">
        <ele>43</ele>
        <time>2020-01-16T17:01:01Z</time>
      </trkpt>
      <trkpt lat="59.319791" lon="18.070446">
        <ele>44</ele>
        <time>2020-01-16T17:01:03Z</time>
      </trkpt>
      <trkpt lat="59.319898" lon="18.070376">
        <ele>44</ele>
        <time>2020-01-16T17:01:07Z</time>
      </trkpt>
      <trkpt lat="59.319996" lon="18.070388">
        <ele>41</ele>
        <time>2020-01-16T17:01:12Z</time>
      </trkpt>
      <trkpt lat="59.320075" lon="18.070522">
        <ele>40</ele>
        <time>2020-01-16T17:01:14Z</time>
      </trkpt>
      <trkpt lat="59.320162" lon="18.070671">
        <ele>39</ele>
        <time>2020-01-16T17:01:15Z</time>
      </trkpt>
      <trkpt lat="59.320213" lon="18.070748">
        <ele>38</ele>
        <time>2020-01-16T17:01:17Z</time>
      </trkpt>
      <trkpt lat="59.320278" lon="18.07081">
        <ele>37</ele>
        <time>2020-01-16T17:01:18Z</time>
      </trkpt>
      <trkpt lat="59.320343" lon="18.070878">
        <ele>36</ele>
        <time>2020-01-16T17:01:19Z</time>
      </trkpt>
      <trkpt lat="59.320407" lon="18.070949">
        <ele>35</ele>
        <time>2020-01-16T17:01:20Z</time>
      </trkpt>
      <trkpt lat="59.32047" lon="18.071018">
        <ele>34</ele>
        <time>2020-01-16T17:01:21Z</time>
      </trkpt>
      <trkpt lat="59.320531" lon="18.07109">
        <ele>0</ele>
        <time>2020-01-16T17:01:21Z</time>
      </trkpt>
      <trkpt lat="59.32059" lon="18.071154">
        <ele>33</ele>
        <time>2020-01-16T17:01:22Z</time>
      </trkpt>
      <trkpt lat="59.320652" lon="18.07121">
        <ele>30</ele>
        <time>2020-01-16T17:01:24Z</time>
      </trkpt>
      <trkpt lat="59.320712" lon="18.071257">
        <ele>29</ele>
        <time>2020-01-16T17:01:25Z</time>
      </trkpt>
      <trkpt lat="59.320776" lon="18.071308">
        <ele>27</ele>
        <time>2020-01-16T17:01:26Z</time>
      </trkpt>
      <trkpt lat="59.320836" lon="18.071376">
        <ele>0</ele>
        <time>2020-01-16T17:01:26Z</time>
      </trkpt>
      <trkpt lat="59.320893" lon="18.071472">
        <ele>26</ele>
        <time>2020-01-16T17:01:27Z</time>
      </trkpt>
      <trkpt lat="59.320939" lon="18.071594">
        <ele>0</ele>
        <time>2020-01-16T17:01:28Z</time>
      </trkpt>
      <trkpt lat="59.320976" lon="18.071734">
        <ele>24</ele>
        <time>2020-01-16T17:01:29Z</time>
      </trkpt>
      <trkpt lat="59.321011" lon="18.071876">
        <ele>22</ele>
        <time>2020-01-16T17:01:31Z</time>
      </trkpt>
      <trkpt lat="59.321056" lon="18.072003">
        <ele>21</ele>
        <time>2020-01-16T17:01:32Z</time>
      </trkpt>
      <trkpt lat="59.321116" lon="18.072088">
        <ele>21</ele>
        <time>2020-01-16T17:01:33Z</time>
      </trkpt>
      <trkpt lat="59.321186" lon="18.072142">
        <ele>20</ele>
        <time>2020-01-16T17:01:34Z</time>
      </trkpt>
      <trkpt lat="59.321254" lon="18.072192">
        <ele>0</ele>
        <time>2020-01-16T17:01:34Z</time>
      </trkpt>
      <trkpt lat="59.321324" lon="18.072242">
        <ele>19</ele>
        <time>2020-01-16T17:01:35Z</time>
      </trkpt>
      <trkpt lat="59.321389" lon="18.072298">
        <ele>17</ele>
        <time>2020-01-16T17:01:37Z</time>
      </trkpt>
      <trkpt lat="59.321456" lon="18.072358">
        <ele>16</ele>
        <time>2020-01-16T17:01:38Z</time>
      </trkpt>
      <trkpt lat="59.321526" lon="18.072416">
        <ele>16</ele>
        <time>2020-01-16T17:01:39Z</time>
      </trkpt>
      <trkpt lat="59.321596" lon="18.072476">
        <ele>15</ele>
        <time>2020-01-16T17:01:40Z</time>
      </trkpt>
      <trkpt lat="59.321666" lon="18.072534">
        <ele>14</ele>
        <time>2020-01-16T17:01:41Z</time>
      </trkpt>
      <trkpt lat="59.321736" lon="18.072586">
        <ele>0</ele>
        <time>2020-01-16T17:01:41Z</time>
      </trkpt>
      <trkpt lat="59.321803" lon="18.07263">
        <ele>14</ele>
        <time>2020-01-16T17:01:42Z</time>
      </trkpt>
      <trkpt lat="59.321866" lon="18.072666">
        <ele>13</ele>
        <time>2020-01-16T17:01:44Z</time>
      </trkpt>
      <trkpt lat="59.321915" lon="18.072698">
        <ele>13</ele>
        <time>2020-01-16T17:01:45Z</time>
      </trkpt>
      <trkpt lat="59.321955" lon="18.072726">
        <ele>0</ele>
        <time>2020-01-16T17:01:45Z</time>
      </trkpt>
      <trkpt lat="59.321983" lon="18.072758">
        <ele>12</ele>
        <time>2020-01-16T17:01:46Z</time>
      </trkpt>
      <trkpt lat="59.321998" lon="18.072802">
        <ele>13</ele>
        <time>2020-01-16T17:01:48Z</time>
      </trkpt>
      <trkpt lat="59.322008" lon="18.072856">
        <ele>13</ele>
        <time>2020-01-16T17:01:49Z</time>
      </trkpt>
      <trkpt lat="59.32202" lon="18.072922">
        <ele>13</ele>
        <time>2020-01-16T17:01:50Z</time>
      </trkpt>
      <trkpt lat="59.322024" lon="18.072999">
        <ele>13</ele>
        <time>2020-01-16T17:01:51Z</time>
      </trkpt>
      <trkpt lat="59.322017" lon="18.073094">
        <ele>13</ele>
        <time>2020-01-16T17:01:52Z</time>
      </trkpt>
      <trkpt lat="59.322008" lon="18.073214">
        <ele>0</ele>
        <time>2020-01-16T17:01:52Z</time>
      </trkpt>
      <trkpt lat="59.321988" lon="18.073336">
        <ele>13</ele>
        <time>2020-01-16T17:01:53Z</time>
      </trkpt>
      <trkpt lat="59.321968" lon="18.073454">
        <ele>13</ele>
        <time>2020-01-16T17:01:55Z</time>
      </trkpt>
      <trkpt lat="59.321946" lon="18.073576">
        <ele>13</ele>
        <time>2020-01-16T17:01:56Z</time>
      </trkpt>
      <trkpt lat="59.321928" lon="18.073716">
        <ele>13</ele>
        <time>2020-01-16T17:01:57Z</time>
      </trkpt>
      <trkpt lat="59.321921" lon="18.073834">
        <ele>13</ele>
        <time>2020-01-16T17:01:58Z</time>
      </trkpt>
      <trkpt lat="59.321932" lon="18.073952">
        <ele>13</ele>
        <time>2020-01-16T17:01:59Z</time>
      </trkpt>
      <trkpt lat="59.321958" lon="18.074062">
        <ele>13</ele>
        <time>2020-01-16T17:02:00Z</time>
      </trkpt>
      <trkpt lat="59.321997" lon="18.074163">
        <ele>0</ele>
        <time>2020-01-16T17:02:00Z</time>
      </trkpt>
      <trkpt lat="59.32205" lon="18.074246">
        <ele>13</ele>
        <time>2020-01-16T17:02:01Z</time>
      </trkpt>
      <trkpt lat="59.322113" lon="18.074317">
        <ele>13</ele>
        <time>2020-01-16T17:02:03Z</time>
      </trkpt>
      <trkpt lat="59.322181" lon="18.07438">
        <ele>14</ele>
        <time>2020-01-16T17:02:04Z</time>
      </trkpt>
      <trkpt lat="59.322253" lon="18.074436">
        <ele>0</ele>
        <time>2020-01-16T17:02:04Z</time>
      </trkpt>
      <trkpt lat="59.322324" lon="18.074487">
        <ele>14</ele>
        <time>2020-01-16T17:02:05Z</time>
      </trkpt>
      <trkpt lat="59.322393" lon="18.074542">
        <ele>0</ele>
        <time>2020-01-16T17:02:06Z</time>
      </trkpt>
      <trkpt lat="59.322463" lon="18.074601">
        <ele>13</ele>
        <time>2020-01-16T17:02:07Z</time>
      </trkpt>
      <trkpt lat="59.322531" lon="18.074665">
        <ele>14</ele>
        <time>2020-01-16T17:02:09Z</time>
      </trkpt>
      <trkpt lat="59.322601" lon="18.074733">
        <ele>13</ele>
        <time>2020-01-16T17:02:10Z</time>
      </trkpt>
      <trkpt lat="59.322668" lon="18.074809">
        <ele>13</ele>
        <time>2020-01-16T17:02:11Z</time>
      </trkpt>
      <trkpt lat="59.322726" lon="18.074892">
        <ele>13</ele>
        <time>2020-01-16T17:02:12Z</time>
      </trkpt>
      <trkpt lat="59.322788" lon="18.074965">
        <ele>13</ele>
        <time>2020-01-16T17:02:13Z</time>
      </trkpt>
      <trkpt lat="59.32285" lon="18.075032">
        <ele>0</ele>
        <time>2020-01-16T17:02:13Z</time>
      </trkpt>
      <trkpt lat="59.322915" lon="18.075089">
        <ele>13</ele>
        <time>2020-01-16T17:02:14Z</time>
      </trkpt>
      <trkpt lat="59.32298" lon="18.075141">
        <ele>13</ele>
        <time>2020-01-16T17:02:16Z</time>
      </trkpt>
      <trkpt lat="59.323042" lon="18.075191">
        <ele>12</ele>
        <time>2020-01-16T17:02:17Z</time>
      </trkpt>
      <trkpt lat="59.323103" lon="18.075235">
        <ele>12</ele>
        <time>2020-01-16T17:02:18Z</time>
      </trkpt>
      <trkpt lat="59.323166" lon="18.075277">
        <ele>12</ele>
        <time>2020-01-16T17:02:19Z</time>
      </trkpt>
      <trkpt lat="59.323231" lon="18.075311">
        <ele>12</ele>
        <time>2020-01-16T17:02:20Z</time>
      </trkpt>
      <trkpt lat="59.323296" lon="18.07534">
        <ele>0</ele>
        <time>2020-01-16T17:02:20Z</time>
      </trkpt>
      <trkpt lat="59.323363" lon="18.075364">
        <ele>12</ele>
        <time>2020-01-16T17:02:21Z</time>
      </trkpt>
      <trkpt lat="59.323436" lon="18.075377">
        <ele>11</ele>
        <time>2020-01-16T17:02:23Z</time>
      </trkpt>
      <trkpt lat="59.323513" lon="18.075392">
        <ele>0</ele>
        <time>2020-01-16T17:02:23Z</time>
      </trkpt>
      <trkpt lat="59.323587" lon="18.07541">
        <ele>10</ele>
        <time>2020-01-16T17:02:24Z</time>
      </trkpt>
      <trkpt lat="59.323659" lon="18.07543">
        <ele>9</ele>
        <time>2020-01-16T17:02:26Z</time>
      </trkpt>
      <trkpt lat="59.323729" lon="18.07545">
        <ele>9</ele>
        <time>2020-01-16T17:02:27Z</time>
      </trkpt>
      <trkpt lat="59.323799" lon="18.075469">
        <ele>0</ele>
        <time>2020-01-16T17:02:27Z</time>
      </trkpt>
      <trkpt lat="59.323868" lon="18.075488">
        <ele>8</ele>
        <time>2020-01-16T17:02:28Z</time>
      </trkpt>
      <trkpt lat="59.323932" lon="18.075512">
        <ele>7</ele>
        <time>2020-01-16T17:02:30Z</time>
      </trkpt>
      <trkpt lat="59.323995" lon="18.075539">
        <ele>7</ele>
        <time>2020-01-16T17:02:31Z</time>
      </trkpt>
      <trkpt lat="59.324061" lon="18.075563">
        <ele>7</ele>
        <time>2020-01-16T17:02:32Z</time>
      </trkpt>
      <trkpt lat="59.324125" lon="18.075582">
        <ele>7</ele>
        <time>2020-01-16T17:02:33Z</time>
      </trkpt>
      <trkpt lat="59.324187" lon="18.075601">
        <ele>6</ele>
        <time>2020-01-16T17:02:34Z</time>
      </trkpt>
      <trkpt lat="59.324248" lon="18.075622">
        <ele>6</ele>
        <time>2020-01-16T17:02:35Z</time>
      </trkpt>
      <trkpt lat="59.324312" lon="18.075646">
        <ele>0</ele>
        <time>2020-01-16T17:02:35Z</time>
      </trkpt>
      <trkpt lat="59.324373" lon="18.07568">
        <ele>6</ele>
        <time>2020-01-16T17:02:36Z</time>
      </trkpt>
      <trkpt lat="59.324439" lon="18.075705">
        <ele>6</ele>
        <time>2020-01-16T17:02:38Z</time>
      </trkpt>
      <trkpt lat="59.324503" lon="18.07573">
        <ele>6</ele>
        <time>2020-01-16T17:02:39Z</time>
      </trkpt>
      <trkpt lat="59.324571" lon="18.075749">
        <ele>6</ele>
        <time>2020-01-16T17:02:40Z</time>
      </trkpt>
      <trkpt lat="59.324634" lon="18.075775">
        <ele>6</ele>
        <time>2020-01-16T17:02:41Z</time>
      </trkpt>
      <trkpt lat="59.324695" lon="18.0758">
        <ele>6</ele>
        <time>2020-01-16T17:02:42Z</time>
      </trkpt>
      <trkpt lat="59.324755" lon="18.075822">
        <ele>0</ele>
        <time>2020-01-16T17:02:42Z</time>
      </trkpt>
      <trkpt lat="59.324816" lon="18.07584">
        <ele>6</ele>
        <time>2020-01-16T17:02:43Z</time>
      </trkpt>
      <trkpt lat="59.324877" lon="18.075853">
        <ele>6</ele>
        <time>2020-01-16T17:02:44Z</time>
      </trkpt>
      <trkpt lat="59.324938" lon="18.07586">
        <ele>5</ele>
        <time>2020-01-16T17:02:46Z</time>
      </trkpt>
      <trkpt lat="59.324998" lon="18.075867">
        <ele>5</ele>
        <time>2020-01-16T17:02:47Z</time>
      </trkpt>
      <trkpt lat="59.325059" lon="18.075874">
        <ele>5</ele>
        <time>2020-01-16T17:02:48Z</time>
      </trkpt>
      <trkpt lat="59.325122" lon="18.075871">
        <ele>5</ele>
        <time>2020-01-16T17:02:49Z</time>
      </trkpt>
      <trkpt lat="59.325185" lon="18.075859">
        <ele>5</ele>
        <time>2020-01-16T17:02:50Z</time>
      </trkpt>
      <trkpt lat="59.325251" lon="18.075844">
        <ele>5</ele>
        <time>2020-01-16T17:02:51Z</time>
      </trkpt>
      <trkpt lat="59.325318" lon="18.075826">
        <ele>0</ele>
        <time>2020-01-16T17:02:51Z</time>
      </trkpt>
      <trkpt lat="59.325384" lon="18.075814">
        <ele>5</ele>
        <time>2020-01-16T17:02:52Z</time>
      </trkpt>
      <trkpt lat="59.325454" lon="18.075799">
        <ele>4</ele>
        <time>2020-01-16T17:02:54Z</time>
      </trkpt>
      <trkpt lat="59.325528" lon="18.075779">
        <ele>4</ele>
        <time>2020-01-16T17:02:55Z</time>
      </trkpt>
      <trkpt lat="59.325596" lon="18.075765">
        <ele>5</ele>
        <time>2020-01-16T17:02:56Z</time>
      </trkpt>
      <trkpt lat="59.325667" lon="18.075743">
        <ele>5</ele>
        <time>2020-01-16T17:02:57Z</time>
      </trkpt>
      <trkpt lat="59.325734" lon="18.075723">
        <ele>5</ele>
        <time>2020-01-16T17:02:58Z</time>
      </trkpt>
      <trkpt lat="59.325802" lon="18.075694">
        <ele>0</ele>
        <time>2020-01-16T17:02:58Z</time>
      </trkpt>
      <trkpt lat="59.325865" lon="18.075659">
        <ele>5</ele>
        <time>2020-01-16T17:02:59Z</time>
      </trkpt>
      <trkpt lat="59.325927" lon="18.075614">
        <ele>5</ele>
        <time>2020-01-16T17:03:01Z</time>
      </trkpt>
      <trkpt lat="59.325988" lon="18.075564">
        <ele>4</ele>
        <time>2020-01-16T17:03:01Z</time>
      </trkpt>
      <trkpt lat="59.326047" lon="18.075512">
        <ele>5</ele>
        <time>2020-01-16T17:03:02Z</time>
      </trkpt>
      <trkpt lat="59.326105" lon="18.075453">
        <ele>5</ele>
        <time>2020-01-16T17:03:04Z</time>
      </trkpt>
      <trkpt lat="59.326163" lon="18.075391">
        <ele>5</ele>
        <time>2020-01-16T17:03:05Z</time>
      </trkpt>
      <trkpt lat="59.326219" lon="18.075325">
        <ele>6</ele>
        <time>2020-01-16T17:03:06Z</time>
      </trkpt>
      <trkpt lat="59.326268" lon="18.075255">
        <ele>0</ele>
        <time>2020-01-16T17:03:06Z</time>
      </trkpt>
      <trkpt lat="59.326316" lon="18.07518">
        <ele>6</ele>
        <time>2020-01-16T17:03:07Z</time>
      </trkpt>
      <trkpt lat="59.326363" lon="18.075112">
        <ele>6</ele>
        <time>2020-01-16T17:03:09Z</time>
      </trkpt>
      <trkpt lat="59.326412" lon="18.075044">
        <ele>7</ele>
        <time>2020-01-16T17:03:10Z</time>
      </trkpt>
      <trkpt lat="59.32646" lon="18.074977">
        <ele>7</ele>
        <time>2020-01-16T17:03:11Z</time>
      </trkpt>
      <trkpt lat="59.326513" lon="18.07491">
        <ele>7</ele>
        <time>2020-01-16T17:03:12Z</time>
      </trkpt>
      <trkpt lat="59.326565" lon="18.074857">
        <ele>7</ele>
        <time>2020-01-16T17:03:13Z</time>
      </trkpt>
      <trkpt lat="59.326616" lon="18.074811">
        <ele>7</ele>
        <time>2020-01-16T17:03:14Z</time>
      </trkpt>
      <trkpt lat="59.326666" lon="18.074765">
        <ele>0</ele>
        <time>2020-01-16T17:03:14Z</time>
      </trkpt>
      <trkpt lat="59.326718" lon="18.074718">
        <ele>7</ele>
        <time>2020-01-16T17:03:15Z</time>
      </trkpt>
      <trkpt lat="59.326769" lon="18.074667">
        <ele>7</ele>
        <time>2020-01-16T17:03:17Z</time>
      </trkpt>
      <trkpt lat="59.326819" lon="18.07462">
        <ele>7</ele>
        <time>2020-01-16T17:03:18Z</time>
      </trkpt>
      <trkpt lat="59.326869" lon="18.07457">
        <ele>7</ele>
        <time>2020-01-16T17:03:19Z</time>
      </trkpt>
      <trkpt lat="59.326917" lon="18.074512">
        <ele>7</ele>
        <time>2020-01-16T17:03:20Z</time>
      </trkpt>
      <trkpt lat="59.326964" lon="18.074449">
        <ele>0</ele>
        <time>2020-01-16T17:03:20Z</time>
      </trkpt>
      <trkpt lat="59.327011" lon="18.074383">
        <ele>7</ele>
        <time>2020-01-16T17:03:21Z</time>
      </trkpt>
      <trkpt lat="59.327061" lon="18.07432">
        <ele>7</ele>
        <time>2020-01-16T17:03:23Z</time>
      </trkpt>
      <trkpt lat="59.32711" lon="18.074261">
        <ele>0</ele>
        <time>2020-01-16T17:03:23Z</time>
      </trkpt>
      <trkpt lat="59.32716" lon="18.074202">
        <ele>7</ele>
        <time>2020-01-16T17:03:24Z</time>
      </trkpt>
      <trkpt lat="59.327212" lon="18.07414">
        <ele>7</ele>
        <time>2020-01-16T17:03:26Z</time>
      </trkpt>
      <trkpt lat="59.327263" lon="18.074079">
        <ele>7</ele>
        <time>2020-01-16T17:03:27Z</time>
      </trkpt>
      <trkpt lat="59.32731" lon="18.074018">
        <ele>7</ele>
        <time>2020-01-16T17:03:28Z</time>
      </trkpt>
      <trkpt lat="59.327359" lon="18.073953">
        <ele>7</ele>
        <time>2020-01-16T17:03:29Z</time>
      </trkpt>
      <trkpt lat="59.327405" lon="18.073892">
        <ele>7</ele>
        <time>2020-01-16T17:03:30Z</time>
      </trkpt>
      <trkpt lat="59.327454" lon="18.073834">
        <ele>7</ele>
        <time>2020-01-16T17:03:31Z</time>
      </trkpt>
      <trkpt lat="59.3275" lon="18.07378">
        <ele>0</ele>
        <time>2020-01-16T17:03:31Z</time>
      </trkpt>
      <trkpt lat="59.32755" lon="18.073724">
        <ele>8</ele>
        <time>2020-01-16T17:03:32Z</time>
      </trkpt>
      <trkpt lat="59.327601" lon="18.073668">
        <ele>8</ele>
        <time>2020-01-16T17:03:34Z</time>
      </trkpt>
      <trkpt lat="59.327651" lon="18.073615">
        <ele>8</ele>
        <time>2020-01-16T17:03:35Z</time>
      </trkpt>
      <trkpt lat="59.3277" lon="18.07356">
        <ele>8</ele>
        <time>2020-01-16T17:03:36Z</time>
      </trkpt>
      <trkpt lat="59.327754" lon="18.073498">
        <ele>8</ele>
        <time>2020-01-16T17:03:37Z</time>
      </trkpt>
      <trkpt lat="59.327807" lon="18.073439">
        <ele>8</ele>
        <time>2020-01-16T17:03:38Z</time>
      </trkpt>
      <trkpt lat="59.327856" lon="18.073387">
        <ele>8</ele>
        <time>2020-01-16T17:03:39Z</time>
      </trkpt>
      <trkpt lat="59.327905" lon="18.073333">
        <ele>0</ele>
        <time>2020-01-16T17:03:39Z</time>
      </trkpt>
      <trkpt lat="59.32796" lon="18.073281">
        <ele>8</ele>
        <time>2020-01-16T17:03:40Z</time>
      </trkpt>
      <trkpt lat="59.328016" lon="18.07323">
        <ele>8</ele>
        <time>2020-01-16T17:03:41Z</time>
      </trkpt>
      <trkpt lat="59.328066" lon="18.07319">
        <ele>7</ele>
        <time>2020-01-16T17:03:43Z</time>
      </trkpt>
      <trkpt lat="59.328119" lon="18.073158">
        <ele>7</ele>
        <time>2020-01-16T17:03:44Z</time>
      </trkpt>
      <trkpt lat="59.328173" lon="18.07313">
        <ele>7</ele>
        <time>2020-01-16T17:03:45Z</time>
      </trkpt>
      <trkpt lat="59.328227" lon="18.073113">
        <ele>7</ele>
        <time>2020-01-16T17:03:46Z</time>
      </trkpt>
      <trkpt lat="59.328284" lon="18.073107">
        <ele>7</ele>
        <time>2020-01-16T17:03:47Z</time>
      </trkpt>
      <trkpt lat="59.328341" lon="18.073112">
        <ele>7</ele>
        <time>2020-01-16T17:03:48Z</time>
      </trkpt>
      <trkpt lat="59.328397" lon="18.073123">
        <ele>7</ele>
        <time>2020-01-16T17:03:49Z</time>
      </trkpt>
      <trkpt lat="59.328453" lon="18.073136">
        <ele>0</ele>
        <time>2020-01-16T17:03:49Z</time>
      </trkpt>
      <trkpt lat="59.328509" lon="18.073149">
        <ele>7</ele>
        <time>2020-01-16T17:03:50Z</time>
      </trkpt>
      <trkpt lat="59.328565" lon="18.073162">
        <ele>7</ele>
        <time>2020-01-16T17:03:52Z</time>
      </trkpt>
      <trkpt lat="59.328622" lon="18.073174">
        <ele>7</ele>
        <time>2020-01-16T17:03:53Z</time>
      </trkpt>
      <trkpt lat="59.328679" lon="18.073188">
        <ele>7</ele>
        <time>2020-01-16T17:03:54Z</time>
      </trkpt>
      <trkpt lat="59.328737" lon="18.073202">
        <ele>7</ele>
        <time>2020-01-16T17:03:55Z</time>
      </trkpt>
      <trkpt lat="59.328795" lon="18.073216">
        <ele>7</ele>
        <time>2020-01-16T17:03:56Z</time>
      </trkpt>
      <trkpt lat="59.328853" lon="18.07323">
        <ele>7</ele>
        <time>2020-01-16T17:03:57Z</time>
      </trkpt>
      <trkpt lat="59.328911" lon="18.073243">
        <ele>7</ele>
        <time>2020-01-16T17:03:58Z</time>
      </trkpt>
      <trkpt lat="59.328969" lon="18.073254">
        <ele>0</ele>
        <time>2020-01-16T17:03:58Z</time>
      </trkpt>
      <trkpt lat="59.329026" lon="18.073266">
        <ele>7</ele>
        <time>2020-01-16T17:03:59Z</time>
      </trkpt>
      <trkpt lat="59.329082" lon="18.073279">
        <ele>7</ele>
        <time>2020-01-16T17:04:01Z</time>
      </trkpt>
      <trkpt lat="59.329137" lon="18.073292">
        <ele>7</ele>
        <time>2020-01-16T17:04:02Z</time>
      </trkpt>
      <trkpt lat="59.329192" lon="18.073304">
        <ele>6</ele>
        <time>2020-01-16T17:04:03Z</time>
      </trkpt>
      <trkpt lat="59.329246" lon="18.073316">
        <ele>6</ele>
        <time>2020-01-16T17:04:04Z</time>
      </trkpt>
      <trkpt lat="59.3293" lon="18.073329">
        <ele>6</ele>
        <time>2020-01-16T17:04:05Z</time>
      </trkpt>
      <trkpt lat="59.329349" lon="18.073342">
        <ele>6</ele>
        <time>2020-01-16T17:04:06Z</time>
      </trkpt>
      <trkpt lat="59.329395" lon="18.073351">
        <ele>6</ele>
        <time>2020-01-16T17:04:07Z</time>
      </trkpt>
      <trkpt lat="59.329438" lon="18.073361">
        <ele>0</ele>
        <time>2020-01-16T17:04:07Z</time>
      </trkpt>
      <trkpt lat="59.329478" lon="18.073376">
        <ele>6</ele>
        <time>2020-01-16T17:04:08Z</time>
      </trkpt>
      <trkpt lat="59.329514" lon="18.073399">
        <ele>6</ele>
        <time>2020-01-16T17:04:10Z</time>
      </trkpt>
      <trkpt lat="59.329544" lon="18.073432">
        <ele>6</ele>
        <time>2020-01-16T17:04:11Z</time>
      </trkpt>
      <trkpt lat="59.329569" lon="18.073477">
        <ele>6</ele>
        <time>2020-01-16T17:04:12Z</time>
      </trkpt>
      <trkpt lat="59.329591" lon="18.073538">
        <ele>6</ele>
        <time>2020-01-16T17:04:13Z</time>
      </trkpt>
      <trkpt lat="59.329615" lon="18.073609">
        <ele>6</ele>
        <time>2020-01-16T17:04:14Z</time>
      </trkpt>
      <trkpt lat="59.32964" lon="18.073688">
        <ele>6</ele>
        <time>2020-01-16T17:04:15Z</time>
      </trkpt>
      <trkpt lat="59.329665" lon="18.073775">
        <ele>6</ele>
        <time>2020-01-16T17:04:16Z</time>
      </trkpt>
      <trkpt lat="59.329685" lon="18.073871">
        <ele>6</ele>
        <time>2020-01-16T17:04:17Z</time>
      </trkpt>
      <trkpt lat="59.329702" lon="18.07398">
        <ele>0</ele>
        <time>2020-01-16T17:04:17Z</time>
      </trkpt>
      <trkpt lat="59.329717" lon="18.074094">
        <ele>6</ele>
        <time>2020-01-16T17:04:18Z</time>
      </trkpt>
      <trkpt lat="59.329731" lon="18.074213">
        <ele>6</ele>
        <time>2020-01-16T17:04:19Z</time>
      </trkpt>
      <trkpt lat="59.329739" lon="18.074335">
        <ele>6</ele>
        <time>2020-01-16T17:04:21Z</time>
      </trkpt>
      <trkpt lat="59.329748" lon="18.074454">
        <ele>6</ele>
        <time>2020-01-16T17:04:22Z</time>
      </trkpt>
      <trkpt lat="59.329763" lon="18.074576">
        <ele>6</ele>
        <time>2020-01-16T17:04:23Z</time>
      </trkpt>
      <trkpt lat="59.329785" lon="18.074684">
        <ele>6</ele>
        <time>2020-01-16T17:04:24Z</time>
      </trkpt>
      <trkpt lat="59.329815" lon="18.074774">
        <ele>6</ele>
        <time>2020-01-16T17:04:25Z</time>
      </trkpt>
      <trkpt lat="59.329851" lon="18.074851">
        <ele>7</ele>
        <time>2020-01-16T17:04:26Z</time>
      </trkpt>
      <trkpt lat="59.329896" lon="18.074913">
        <ele>7</ele>
        <time>2020-01-16T17:04:27Z</time>
      </trkpt>
      <trkpt lat="59.329933" lon="18.074971">
        <ele>0</ele>
        <time>2020-01-16T17:04:27Z</time>
      </trkpt>
      <trkpt lat="59.329963" lon="18.075023">
        <ele>7</ele>
        <time>2020-01-16T17:04:28Z</time>
      </trkpt>
      <trkpt lat="59.329994" lon="18.075076">
        <ele>7</ele>
        <time>2020-01-16T17:04:30Z</time>
      </trkpt>
      <trkpt lat="59.33002" lon="18.07512">
        <ele>7</ele>
        <time>2020-01-16T17:04:31Z</time>
      </trkpt>
      <trkpt lat="59.330041" lon="18.075154">
        <ele>7</ele>
        <time>2020-01-16T17:04:32Z</time>
      </trkpt>
      <trkpt lat="59.33006" lon="18.075197">
        <ele>8</ele>
        <time>2020-01-16T17:04:33Z</time>
      </trkpt>
      <trkpt lat="59.33013" lon="18.075326">
        <ele>8</ele>
        <time>2020-01-16T17:04:36Z</time>
      </trkpt>
      <trkpt lat="59.330205" lon="18.075487">
        <ele>8</ele>
        <time>2020-01-16T17:04:39Z</time>
      </trkpt>
      <trkpt lat="59.330286" lon="18.075661">
        <ele>8</ele>
        <time>2020-01-16T17:04:42Z</time>
      </trkpt>
      <trkpt lat="59.330382" lon="18.075735">
        <ele>8</ele>
        <time>2020-01-16T17:04:43Z</time>
      </trkpt>
      <trkpt lat="59.330453" lon="18.075863">
        <ele>8</ele>
        <time>2020-01-16T17:04:46Z</time>
      </trkpt>
      <trkpt lat="59.330497" lon="18.07594">
        <ele>8</ele>
        <time>2020-01-16T17:04:47Z</time>
      </trkpt>
      <trkpt lat="59.330546" lon="18.076018">
        <ele>8</ele>
        <time>2020-01-16T17:04:48Z</time>
      </trkpt>
      <trkpt lat="59.330597" lon="18.076105">
        <ele>8</ele>
        <time>2020-01-16T17:04:49Z</time>
      </trkpt>
      <trkpt lat="59.330739" lon="18.076308">
        <ele>8</ele>
        <time>2020-01-16T17:04:50Z</time>
      </trkpt>
      <trkpt lat="59.330847" lon="18.076412">
        <ele>7</ele>
        <time>2020-01-16T17:04:52Z</time>
      </trkpt>
      <trkpt lat="59.330929" lon="18.076492">
        <ele>7</ele>
        <time>2020-01-16T17:04:53Z</time>
      </trkpt>
      <trkpt lat="59.331009" lon="18.076538">
        <ele>7</ele>
        <time>2020-01-16T17:04:54Z</time>
      </trkpt>
      <trkpt lat="59.331096" lon="18.076563">
        <ele>0</ele>
        <time>2020-01-16T17:04:54Z</time>
      </trkpt>
      <trkpt lat="59.331181" lon="18.076547">
        <ele>7</ele>
        <time>2020-01-16T17:04:55Z</time>
      </trkpt>
      <trkpt lat="59.331255" lon="18.076492">
        <ele>9</ele>
        <time>2020-01-16T17:04:56Z</time>
      </trkpt>
      <trkpt lat="59.331311" lon="18.076411">
        <ele>9</ele>
        <time>2020-01-16T17:04:58Z</time>
      </trkpt>
      <trkpt lat="59.331363" lon="18.076327">
        <ele>9</ele>
        <time>2020-01-16T17:04:59Z</time>
      </trkpt>
      <trkpt lat="59.331414" lon="18.076247">
        <ele>9</ele>
        <time>2020-01-16T17:05:00Z</time>
      </trkpt>
      <trkpt lat="59.331467" lon="18.07618">
        <ele>9</ele>
        <time>2020-01-16T17:05:01Z</time>
      </trkpt>
      <trkpt lat="59.331529" lon="18.076119">
        <ele>9</ele>
        <time>2020-01-16T17:05:02Z</time>
      </trkpt>
      <trkpt lat="59.331584" lon="18.076082">
        <ele>0</ele>
        <time>2020-01-16T17:05:02Z</time>
      </trkpt>
      <trkpt lat="59.331644" lon="18.076053">
        <ele>8</ele>
        <time>2020-01-16T17:05:03Z</time>
      </trkpt>
      <trkpt lat="59.331703" lon="18.076037">
        <ele>8</ele>
        <time>2020-01-16T17:05:05Z</time>
      </trkpt>
      <trkpt lat="59.33176" lon="18.076042">
        <ele>0</ele>
        <time>2020-01-16T17:05:05Z</time>
      </trkpt>
      <trkpt lat="59.331816" lon="18.076063">
        <ele>7</ele>
        <time>2020-01-16T17:05:06Z</time>
      </trkpt>
      <trkpt lat="59.331872" lon="18.076085">
        <ele>7</ele>
        <time>2020-01-16T17:05:08Z</time>
      </trkpt>
      <trkpt lat="59.33193" lon="18.076101">
        <ele>8</ele>
        <time>2020-01-16T17:05:09Z</time>
      </trkpt>
      <trkpt lat="59.331986" lon="18.076119">
        <ele>8</ele>
        <time>2020-01-16T17:05:10Z</time>
      </trkpt>
      <trkpt lat="59.332038" lon="18.076141">
        <ele>0</ele>
        <time>2020-01-16T17:05:10Z</time>
      </trkpt>
      <trkpt lat="59.332085" lon="18.076174">
        <ele>8</ele>
        <time>2020-01-16T17:05:11Z</time>
      </trkpt>
      <trkpt lat="59.332129" lon="18.076218">
        <ele>8</ele>
        <time>2020-01-16T17:05:13Z</time>
      </trkpt>
      <trkpt lat="59.332169" lon="18.076268">
        <ele>8</ele>
        <time>2020-01-16T17:05:14Z</time>
      </trkpt>
      <trkpt lat="59.332203" lon="18.076323">
        <ele>0</ele>
        <time>2020-01-16T17:05:14Z</time>
      </trkpt>
      <trkpt lat="59.332234" lon="18.07638">
        <ele>8</ele>
        <time>2020-01-16T17:05:15Z</time>
      </trkpt>
      <trkpt lat="59.332264" lon="18.076437">
        <ele>8</ele>
        <time>2020-01-16T17:05:17Z</time>
      </trkpt>
      <trkpt lat="59.332291" lon="18.076495">
        <ele>8</ele>
        <time>2020-01-16T17:05:18Z</time>
      </trkpt>
      <trkpt lat="59.332315" lon="18.076555">
        <ele>8</ele>
        <time>2020-01-16T17:05:19Z</time>
      </trkpt>
      <trkpt lat="59.332336" lon="18.076615">
        <ele>8</ele>
        <time>2020-01-16T17:05:20Z</time>
      </trkpt>
      <trkpt lat="59.332353" lon="18.076667">
        <ele>8</ele>
        <time>2020-01-16T17:05:21Z</time>
      </trkpt>
      <trkpt lat="59.332365" lon="18.076706">
        <ele>8</ele>
        <time>2020-01-16T17:05:22Z</time>
      </trkpt>
      <trkpt lat="59.332381" lon="18.07676">
        <ele>9</ele>
        <time>2020-01-16T17:05:24Z</time>
      </trkpt>
      <trkpt lat="59.332393" lon="18.076795">
        <ele>9</ele>
        <time>2020-01-16T17:05:26Z</time>
      </trkpt>
      <trkpt lat="59.332395" lon="18.076816">
        <ele>0</ele>
        <time>2020-01-16T17:05:31Z</time>
      </trkpt>
      <trkpt lat="59.332439" lon="18.076938">
        <ele>9</ele>
        <time>2020-01-16T17:06:01Z</time>
      </trkpt>
      <trkpt lat="59.332462" lon="18.077004">
        <ele>0</ele>
        <time>2020-01-16T17:06:02Z</time>
      </trkpt>
      <trkpt lat="59.332486" lon="18.07708">
        <ele>9</ele>
        <time>2020-01-16T17:06:03Z</time>
      </trkpt>
      <trkpt lat="59.332516" lon="18.077156">
        <ele>9</ele>
        <time>2020-01-16T17:06:05Z</time>
      </trkpt>
      <trkpt lat="59.332553" lon="18.077216">
        <ele>9</ele>
        <time>2020-01-16T17:06:06Z</time>
      </trkpt>
      <trkpt lat="59.332599" lon="18.077264">
        <ele>9</ele>
        <time>2020-01-16T17:06:07Z</time>
      </trkpt>
      <trkpt lat="59.332651" lon="18.077299">
        <ele>9</ele>
        <time>2020-01-16T17:06:08Z</time>
      </trkpt>
      <trkpt lat="59.332704" lon="18.077324">
        <ele>9</ele>
        <time>2020-01-16T17:06:09Z</time>
      </trkpt>
      <trkpt lat="59.332759" lon="18.077344">
        <ele>9</ele>
        <time>2020-01-16T17:06:10Z</time>
      </trkpt>
      <trkpt lat="59.332815" lon="18.07737">
        <ele>9</ele>
        <time>2020-01-16T17:06:11Z</time>
      </trkpt>
      <trkpt lat="59.33287" lon="18.0774">
        <ele>9</ele>
        <time>2020-01-16T17:06:12Z</time>
      </trkpt>
      <trkpt lat="59.332921" lon="18.077431">
        <ele>9</ele>
        <time>2020-01-16T17:06:13Z</time>
      </trkpt>
      <trkpt lat="59.333034" lon="18.077498">
        <ele>9</ele>
        <time>2020-01-16T17:06:14Z</time>
      </trkpt>
      <trkpt lat="59.333156" lon="18.077561">
        <ele>10</ele>
        <time>2020-01-16T17:06:17Z</time>
      </trkpt>
      <trkpt lat="59.333252" lon="18.077642">
        <ele>10</ele>
        <time>2020-01-16T17:06:19Z</time>
      </trkpt>
      <trkpt lat="59.333384" lon="18.077739">
        <ele>10</ele>
        <time>2020-01-16T17:06:21Z</time>
      </trkpt>
      <trkpt lat="59.333461" lon="18.077834">
        <ele>10</ele>
        <time>2020-01-16T17:06:23Z</time>
      </trkpt>
      <trkpt lat="59.333547" lon="18.077926">
        <ele>10</ele>
        <time>2020-01-16T17:06:26Z</time>
      </trkpt>
      <trkpt lat="59.333699" lon="18.078048">
        <ele>11</ele>
        <time>2020-01-16T17:06:28Z</time>
      </trkpt>
      <trkpt lat="59.333855" lon="18.078172">
        <ele>11</ele>
        <time>2020-01-16T17:06:30Z</time>
      </trkpt>
      <trkpt lat="59.334004" lon="18.078284">
        <ele>11</ele>
        <time>2020-01-16T17:06:31Z</time>
      </trkpt>
      <trkpt lat="59.334105" lon="18.078397">
        <ele>11</ele>
        <time>2020-01-16T17:06:34Z</time>
      </trkpt>
      <trkpt lat="59.334206" lon="18.07849">
        <ele>12</ele>
        <time>2020-01-16T17:06:36Z</time>
      </trkpt>
      <trkpt lat="59.33432" lon="18.078588">
        <ele>12</ele>
        <time>2020-01-16T17:06:37Z</time>
      </trkpt>
      <trkpt lat="59.334433" lon="18.078704">
        <ele>13</ele>
        <time>2020-01-16T17:06:40Z</time>
      </trkpt>
      <trkpt lat="59.33453" lon="18.078798">
        <ele>13</ele>
        <time>2020-01-16T17:06:43Z</time>
      </trkpt>
      <trkpt lat="59.334689" lon="18.078926">
        <ele>0</ele>
        <time>2020-01-16T17:06:44Z</time>
      </trkpt>
      <trkpt lat="59.334784" lon="18.078988">
        <ele>14</ele>
        <time>2020-01-16T17:06:45Z</time>
      </trkpt>
      <trkpt lat="59.334872" lon="18.079042">
        <ele>16</ele>
        <time>2020-01-16T17:06:47Z</time>
      </trkpt>
      <trkpt lat="59.334983" lon="18.07915">
        <ele>16</ele>
        <time>2020-01-16T17:06:49Z</time>
      </trkpt>
      <trkpt lat="59.335087" lon="18.079223">
        <ele>17</ele>
        <time>2020-01-16T17:06:51Z</time>
      </trkpt>
      <trkpt lat="59.335182" lon="18.079298">
        <ele>17</ele>
        <time>2020-01-16T17:06:53Z</time>
      </trkpt>
      <trkpt lat="59.335294" lon="18.07942">
        <ele>17</ele>
        <time>2020-01-16T17:06:55Z</time>
      </trkpt>
      <trkpt lat="59.335402" lon="18.079522">
        <ele>0</ele>
        <time>2020-01-16T17:06:58Z</time>
      </trkpt>
      <trkpt lat="59.3355" lon="18.079606">
        <ele>18</ele>
        <time>2020-01-16T17:07:01Z</time>
      </trkpt>
      <trkpt lat="59.335611" lon="18.079662">
        <ele>19</ele>
        <time>2020-01-16T17:07:03Z</time>
      </trkpt>
      <trkpt lat="59.335667" lon="18.079683">
        <ele>0</ele>
        <time>2020-01-16T17:07:03Z</time>
      </trkpt>
      <trkpt lat="59.335707" lon="18.079706">
        <ele>20</ele>
        <time>2020-01-16T17:07:04Z</time>
      </trkpt>
      <trkpt lat="59.335741" lon="18.079727">
        <ele>20</ele>
        <time>2020-01-16T17:07:06Z</time>
      </trkpt>
      <trkpt lat="59.335764" lon="18.079748">
        <ele>21</ele>
        <time>2020-01-16T17:07:07Z</time>
      </trkpt>
      <trkpt lat="59.335791" lon="18.079765">
        <ele>21</ele>
        <time>2020-01-16T17:07:08Z</time>
      </trkpt>
      <trkpt lat="59.335818" lon="18.079778">
        <ele>21</ele>
        <time>2020-01-16T17:07:09Z</time>
      </trkpt>
      <trkpt lat="59.335844" lon="18.079797">
        <ele>21</ele>
        <time>2020-01-16T17:07:10Z</time>
      </trkpt>
      <trkpt lat="59.335872" lon="18.079814">
        <ele>21</ele>
        <time>2020-01-16T17:07:11Z</time>
      </trkpt>
      <trkpt lat="59.335904" lon="18.079834">
        <ele>21</ele>
        <time>2020-01-16T17:07:12Z</time>
      </trkpt>
      <trkpt lat="59.335938" lon="18.079856">
        <ele>22</ele>
        <time>2020-01-16T17:07:13Z</time>
      </trkpt>
      <trkpt lat="59.33598" lon="18.079877">
        <ele>22</ele>
        <time>2020-01-16T17:07:14Z</time>
      </trkpt>
      <trkpt lat="59.336018" lon="18.079905">
        <ele>22</ele>
        <time>2020-01-16T17:07:15Z</time>
      </trkpt>
      <trkpt lat="59.336055" lon="18.079937">
        <ele>22</ele>
        <time>2020-01-16T17:07:16Z</time>
      </trkpt>
      <trkpt lat="59.336091" lon="18.079967">
        <ele>22</ele>
        <time>2020-01-16T17:07:17Z</time>
      </trkpt>
      <trkpt lat="59.336128" lon="18.080003">
        <ele>0</ele>
        <time>2020-01-16T17:07:17Z</time>
      </trkpt>
      <trkpt lat="59.336161" lon="18.080039">
        <ele>22</ele>
        <time>2020-01-16T17:07:18Z</time>
      </trkpt>
      <trkpt lat="59.336196" lon="18.080075">
        <ele>22</ele>
        <time>2020-01-16T17:07:20Z</time>
      </trkpt>
      <trkpt lat="59.336231" lon="18.08011">
        <ele>22</ele>
        <time>2020-01-16T17:07:21Z</time>
      </trkpt>
      <trkpt lat="59.336265" lon="18.080143">
        <ele>22</ele>
        <time>2020-01-16T17:07:22Z</time>
      </trkpt>
      <trkpt lat="59.336301" lon="18.080174">
        <ele>22</ele>
        <time>2020-01-16T17:07:23Z</time>
      </trkpt>
      <trkpt lat="59.336333" lon="18.080203">
        <ele>22</ele>
        <time>2020-01-16T17:07:24Z</time>
      </trkpt>
      <trkpt lat="59.336362" lon="18.080232">
        <ele>23</ele>
        <time>2020-01-16T17:07:25Z</time>
      </trkpt>
      <trkpt lat="59.336388" lon="18.080258">
        <ele>23</ele>
        <time>2020-01-16T17:07:26Z</time>
      </trkpt>
      <trkpt lat="59.336418" lon="18.080292">
        <ele>23</ele>
        <time>2020-01-16T17:07:27Z</time>
      </trkpt>
      <trkpt lat="59.336449" lon="18.080319">
        <ele>23</ele>
        <time>2020-01-16T17:07:28Z</time>
      </trkpt>
      <trkpt lat="59.336478" lon="18.08035">
        <ele>23</ele>
        <time>2020-01-16T17:07:29Z</time>
      </trkpt>
      <trkpt lat="59.336513" lon="18.080388">
        <ele>23</ele>
        <time>2020-01-16T17:07:30Z</time>
      </trkpt>
      <trkpt lat="59.336553" lon="18.080424">
        <ele>23</ele>
        <time>2020-01-16T17:07:31Z</time>
      </trkpt>
      <trkpt lat="59.336591" lon="18.080458">
        <ele>0</ele>
        <time>2020-01-16T17:07:31Z</time>
      </trkpt>
      <trkpt lat="59.336623" lon="18.080489">
        <ele>23</ele>
        <time>2020-01-16T17:07:32Z</time>
      </trkpt>
      <trkpt lat="59.336659" lon="18.080515">
        <ele>23</ele>
        <time>2020-01-16T17:07:34Z</time>
      </trkpt>
      <trkpt lat="59.336695" lon="18.080538">
        <ele>23</ele>
        <time>2020-01-16T17:07:35Z</time>
      </trkpt>
      <trkpt lat="59.336782" lon="18.080606">
        <ele>24</ele>
        <time>2020-01-16T17:07:39Z</time>
      </trkpt>
      <trkpt lat="59.336842" lon="18.080637">
        <ele>24</ele>
        <time>2020-01-16T17:07:41Z</time>
      </trkpt>
      <trkpt lat="59.336911" lon="18.080663">
        <ele>24</ele>
        <time>2020-01-16T17:07:42Z</time>
      </trkpt>
      <trkpt lat="59.336976" lon="18.080696">
        <ele>23</ele>
        <time>2020-01-16T17:07:43Z</time>
      </trkpt>
      <trkpt lat="59.337024" lon="18.08075">
        <ele>0</ele>
        <time>2020-01-16T17:07:43Z</time>
      </trkpt>
      <trkpt lat="59.337073" lon="18.080794">
        <ele>23</ele>
        <time>2020-01-16T17:07:44Z</time>
      </trkpt>
      <trkpt lat="59.337119" lon="18.080836">
        <ele>24</ele>
        <time>2020-01-16T17:07:46Z</time>
      </trkpt>
      <trkpt lat="59.337166" lon="18.080876">
        <ele>24</ele>
        <time>2020-01-16T17:07:47Z</time>
      </trkpt>
      <trkpt lat="59.337212" lon="18.080922">
        <ele>24</ele>
        <time>2020-01-16T17:07:48Z</time>
      </trkpt>
      <trkpt lat="59.337256" lon="18.080967">
        <ele>24</ele>
        <time>2020-01-16T17:07:49Z</time>
      </trkpt>
      <trkpt lat="59.337297" lon="18.081007">
        <ele>24</ele>
        <time>2020-01-16T17:07:50Z</time>
      </trkpt>
      <trkpt lat="59.337332" lon="18.081046">
        <ele>24</ele>
        <time>2020-01-16T17:07:51Z</time>
      </trkpt>
      <trkpt lat="59.337353" lon="18.081077">
        <ele>24</ele>
        <time>2020-01-16T17:07:52Z</time>
      </trkpt>
      <trkpt lat="59.337448" lon="18.081183">
        <ele>24</ele>
        <time>2020-01-16T17:07:55Z</time>
      </trkpt>
      <trkpt lat="59.337548" lon="18.081272">
        <ele>24</ele>
        <time>2020-01-16T17:07:56Z</time>
      </trkpt>
      <trkpt lat="59.337604" lon="18.081317">
        <ele>25</ele>
        <time>2020-01-16T17:07:58Z</time>
      </trkpt>
      <trkpt lat="59.337664" lon="18.081365">
        <ele>25</ele>
        <time>2020-01-16T17:07:59Z</time>
      </trkpt>
      <trkpt lat="59.337786" lon="18.08147">
        <ele>26</ele>
        <time>2020-01-16T17:08:01Z</time>
      </trkpt>
      <trkpt lat="59.337941" lon="18.081572">
        <ele>25</ele>
        <time>2020-01-16T17:08:02Z</time>
      </trkpt>
      <trkpt lat="59.338053" lon="18.081673">
        <ele>26</ele>
        <time>2020-01-16T17:08:03Z</time>
      </trkpt>
      <trkpt lat="59.338189" lon="18.081786">
        <ele>26</ele>
        <time>2020-01-16T17:08:06Z</time>
      </trkpt>
      <trkpt lat="59.338285" lon="18.081885">
        <ele>26</ele>
        <time>2020-01-16T17:08:08Z</time>
      </trkpt>
      <trkpt lat="59.338324" lon="18.08193">
        <ele>26</ele>
        <time>2020-01-16T17:08:09Z</time>
      </trkpt>
      <trkpt lat="59.338365" lon="18.081962">
        <ele>26</ele>
        <time>2020-01-16T17:08:10Z</time>
      </trkpt>
      <trkpt lat="59.338402" lon="18.081987">
        <ele>26</ele>
        <time>2020-01-16T17:08:11Z</time>
      </trkpt>
      <trkpt lat="59.338475" lon="18.082038">
        <ele>26</ele>
        <time>2020-01-16T17:08:12Z</time>
      </trkpt>
      <trkpt lat="59.338544" lon="18.0821">
        <ele>0</ele>
        <time>2020-01-16T17:08:14Z</time>
      </trkpt>
      <trkpt lat="59.338574" lon="18.082129">
        <ele>26</ele>
        <time>2020-01-16T17:08:15Z</time>
      </trkpt>
      <trkpt lat="59.338675" lon="18.082226">
        <ele>27</ele>
        <time>2020-01-16T17:08:20Z</time>
      </trkpt>
      <trkpt lat="59.3387" lon="18.082242">
        <ele>27</ele>
        <time>2020-01-16T17:08:21Z</time>
      </trkpt>
      <trkpt lat="59.338729" lon="18.08226">
        <ele>27</ele>
        <time>2020-01-16T17:08:22Z</time>
      </trkpt>
      <trkpt lat="59.338762" lon="18.082283">
        <ele>27</ele>
        <time>2020-01-16T17:08:23Z</time>
      </trkpt>
      <trkpt lat="59.338823" lon="18.082314">
        <ele>27</ele>
        <time>2020-01-16T17:08:24Z</time>
      </trkpt>
      <trkpt lat="59.338884" lon="18.082344">
        <ele>0</ele>
        <time>2020-01-16T17:08:24Z</time>
      </trkpt>
      <trkpt lat="59.338932" lon="18.082363">
        <ele>27</ele>
        <time>2020-01-16T17:08:25Z</time>
      </trkpt>
      <trkpt lat="59.338963" lon="18.082384">
        <ele>25</ele>
        <time>2020-01-16T17:08:27Z</time>
      </trkpt>
      <trkpt lat="59.338981" lon="18.082406">
        <ele>25</ele>
        <time>2020-01-16T17:08:28Z</time>
      </trkpt>
      <trkpt lat="59.338999" lon="18.082423">
        <ele>22</ele>
        <time>2020-01-16T17:08:33Z</time>
      </trkpt>
      <trkpt lat="59.339019" lon="18.082442">
        <ele>20</ele>
        <time>2020-01-16T17:08:37Z</time>
      </trkpt>
      <trkpt lat="59.339055" lon="18.082472">
        <ele>20</ele>
        <time>2020-01-16T17:08:39Z</time>
      </trkpt>
      <trkpt lat="59.339092" lon="18.082504">
        <ele>19</ele>
        <time>2020-01-16T17:08:40Z</time>
      </trkpt>
      <trkpt lat="59.33913" lon="18.082536">
        <ele>20</ele>
        <time>2020-01-16T17:08:41Z</time>
      </trkpt>
      <trkpt lat="59.339167" lon="18.082567">
        <ele>19</ele>
        <time>2020-01-16T17:08:42Z</time>
      </trkpt>
      <trkpt lat="59.339209" lon="18.0826">
        <ele>19</ele>
        <time>2020-01-16T17:08:43Z</time>
      </trkpt>
      <trkpt lat="59.33925" lon="18.082633">
        <ele>19</ele>
        <time>2020-01-16T17:08:44Z</time>
      </trkpt>
      <trkpt lat="59.339296" lon="18.08267">
        <ele>20</ele>
        <time>2020-01-16T17:08:45Z</time>
      </trkpt>
      <trkpt lat="59.339347" lon="18.082709">
        <ele>0</ele>
        <time>2020-01-16T17:08:45Z</time>
      </trkpt>
      <trkpt lat="59.339397" lon="18.082743">
        <ele>20</ele>
        <time>2020-01-16T17:08:46Z</time>
      </trkpt>
      <trkpt lat="59.33945" lon="18.082789">
        <ele>21</ele>
        <time>2020-01-16T17:08:48Z</time>
      </trkpt>
      <trkpt lat="59.339502" lon="18.082841">
        <ele>21</ele>
        <time>2020-01-16T17:08:49Z</time>
      </trkpt>
      <trkpt lat="59.339555" lon="18.082891">
        <ele>21</ele>
        <time>2020-01-16T17:08:50Z</time>
      </trkpt>
      <trkpt lat="59.3396" lon="18.082939">
        <ele>21</ele>
        <time>2020-01-16T17:08:51Z</time>
      </trkpt>
      <trkpt lat="59.339646" lon="18.082985">
        <ele>21</ele>
        <time>2020-01-16T17:08:52Z</time>
      </trkpt>
      <trkpt lat="59.33971" lon="18.083042">
        <ele>0</ele>
        <time>2020-01-16T17:08:52Z</time>
      </trkpt>
      <trkpt lat="59.339783" lon="18.083108">
        <ele>21</ele>
        <time>2020-01-16T17:08:53Z</time>
      </trkpt>
      <trkpt lat="59.339838" lon="18.08316">
        <ele>20</ele>
        <time>2020-01-16T17:08:54Z</time>
      </trkpt>
      <trkpt lat="59.339895" lon="18.083209">
        <ele>20</ele>
        <time>2020-01-16T17:08:56Z</time>
      </trkpt>
      <trkpt lat="59.339952" lon="18.083257">
        <ele>21</ele>
        <time>2020-01-16T17:08:57Z</time>
      </trkpt>
      <trkpt lat="59.340006" lon="18.083302">
        <ele>21</ele>
        <time>2020-01-16T17:08:58Z</time>
      </trkpt>
      <trkpt lat="59.340061" lon="18.083348">
        <ele>21</ele>
        <time>2020-01-16T17:08:59Z</time>
      </trkpt>
      <trkpt lat="59.340117" lon="18.083397">
        <ele>21</ele>
        <time>2020-01-16T17:09:00Z</time>
      </trkpt>
      <trkpt lat="59.340166" lon="18.083438">
        <ele>21</ele>
        <time>2020-01-16T17:09:01Z</time>
      </trkpt>
      <trkpt lat="59.340216" lon="18.08348">
        <ele>21</ele>
        <time>2020-01-16T17:09:02Z</time>
      </trkpt>
      <trkpt lat="59.340265" lon="18.083518">
        <ele>0</ele>
        <time>2020-01-16T17:09:02Z</time>
      </trkpt>
      <trkpt lat="59.340304" lon="18.08355">
        <ele>21</ele>
        <time>2020-01-16T17:09:03Z</time>
      </trkpt>
      <trkpt lat="59.340342" lon="18.083585">
        <ele>21</ele>
        <time>2020-01-16T17:09:05Z</time>
      </trkpt>
      <trkpt lat="59.340398" lon="18.083626">
        <ele>21</ele>
        <time>2020-01-16T17:09:06Z</time>
      </trkpt>
      <trkpt lat="59.340434" lon="18.083687">
        <ele>21</ele>
        <time>2020-01-16T17:09:07Z</time>
      </trkpt>
      <trkpt lat="59.340448" lon="18.083771">
        <ele>20</ele>
        <time>2020-01-16T17:09:08Z</time>
      </trkpt>
      <trkpt lat="59.340453" lon="18.083866">
        <ele>19</ele>
        <time>2020-01-16T17:09:09Z</time>
      </trkpt>
      <trkpt lat="59.34044" lon="18.083953">
        <ele>18</ele>
        <time>2020-01-16T17:09:10Z</time>
      </trkpt>
      <trkpt lat="59.340427" lon="18.084042">
        <ele>18</ele>
        <time>2020-01-16T17:09:11Z</time>
      </trkpt>
      <trkpt lat="59.340411" lon="18.084132">
        <ele>0</ele>
        <time>2020-01-16T17:09:11Z</time>
      </trkpt>
      <trkpt lat="59.340399" lon="18.08423">
        <ele>17</ele>
        <time>2020-01-16T17:09:12Z</time>
      </trkpt>
      <trkpt lat="59.340395" lon="18.084333">
        <ele>18</ele>
        <time>2020-01-16T17:09:13Z</time>
      </trkpt>
      <trkpt lat="59.340389" lon="18.084553">
        <ele>18</ele>
        <time>2020-01-16T17:09:16Z</time>
      </trkpt>
      <trkpt lat="59.340385" lon="18.084663">
        <ele>18</ele>
        <time>2020-01-16T17:09:17Z</time>
      </trkpt>
      <trkpt lat="59.34037" lon="18.084752">
        <ele>18</ele>
        <time>2020-01-16T17:09:18Z</time>
      </trkpt>
      <trkpt lat="59.340358" lon="18.084839">
        <ele>17</ele>
        <time>2020-01-16T17:09:19Z</time>
      </trkpt>
      <trkpt lat="59.340352" lon="18.084922">
        <ele>0</ele>
        <time>2020-01-16T17:09:19Z</time>
      </trkpt>
      <trkpt lat="59.340354" lon="18.084993">
        <ele>17</ele>
        <time>2020-01-16T17:09:21Z</time>
      </trkpt>
      <trkpt lat="59.340371" lon="18.085119">
        <ele>18</ele>
        <time>2020-01-16T17:09:23Z</time>
      </trkpt>
      <trkpt lat="59.340375" lon="18.085161">
        <ele>18</ele>
        <time>2020-01-16T17:09:24Z</time>
      </trkpt>
      <trkpt lat="59.340363" lon="18.085204">
        <ele>18</ele>
        <time>2020-01-16T17:09:26Z</time>
      </trkpt>
    </trkseg>
  </trk>
</gpx>